<?xml version="1.0" encoding="UTF-8" standalone="no" ?>
<gpx xmlns="http://www.topografix.com/GPX/1/1" xmlns:xsi="http://www.w3.org/2001/XMLSchema-instance" xsi:schemaLocation="http://www.topografix.com/GPX/1/1 http://www.topografix.com/GPX/1/1/gpx.xsd" version="1.1" creator="VisuGPX - https://www.visugpx.com">
  <metadata>
    <name>Le Tour de La Siagne</name>
    <desc><![CDATA[Avec Julien]]></desc>
  </metadata>
  <trk>
    <name><![CDATA[La Siagne]]></name>
    <cmt><![CDATA[Avec Julien]]></cmt>
    <trkseg>
      <trkpt lat="43.58077" lon="6.9241">
        <ele>22.368415832519</ele>
        <time>2012-01-14T08:07:22Z</time>
      </trkpt>
      <trkpt lat="43.58081" lon="6.92413">
        <ele>21.586355209351</ele>
        <time>2012-01-14T08:07:24Z</time>
      </trkpt>
      <trkpt lat="43.58086" lon="6.92423">
        <ele>21.100555419922</ele>
        <time>2012-01-14T08:07:28Z</time>
      </trkpt>
      <trkpt lat="43.58085" lon="6.92427">
        <ele>21.136489868164</ele>
        <time>2012-01-14T08:07:30Z</time>
      </trkpt>
      <trkpt lat="43.58085" lon="6.92434">
        <ele>21.218996047974</ele>
        <time>2012-01-14T08:07:33Z</time>
      </trkpt>
      <trkpt lat="43.58079" lon="6.9244">
        <ele>22.122751235962</ele>
        <time>2012-01-14T08:07:37Z</time>
      </trkpt>
      <trkpt lat="43.58076" lon="6.92441">
        <ele>22.732961654663</ele>
        <time>2012-01-14T08:07:42Z</time>
      </trkpt>
      <trkpt lat="43.58075" lon="6.92441">
        <ele>22.810747146606</ele>
        <time>2012-01-14T08:07:43Z</time>
      </trkpt>
      <trkpt lat="43.58075" lon="6.92442">
        <ele>22.835416793823</ele>
        <time>2012-01-14T08:07:49Z</time>
      </trkpt>
      <trkpt lat="43.58076" lon="6.92443">
        <ele>22.627439498901</ele>
        <time>2012-01-14T08:07:53Z</time>
      </trkpt>
      <trkpt lat="43.58081" lon="6.92445">
        <ele>21.859457015991</ele>
        <time>2012-01-14T08:08:01Z</time>
      </trkpt>
      <trkpt lat="43.58084" lon="6.92446">
        <ele>21.35418510437</ele>
        <time>2012-01-14T08:08:04Z</time>
      </trkpt>
      <trkpt lat="43.58103" lon="6.92454">
        <ele>21.366636276245</ele>
        <time>2012-01-14T08:08:10Z</time>
      </trkpt>
      <trkpt lat="43.58118" lon="6.92461">
        <ele>21.285802841186</ele>
        <time>2012-01-14T08:08:15Z</time>
      </trkpt>
      <trkpt lat="43.5813" lon="6.9248">
        <ele>21.04274559021</ele>
        <time>2012-01-14T08:08:21Z</time>
      </trkpt>
      <trkpt lat="43.58133" lon="6.92498">
        <ele>20.838424682617</ele>
        <time>2012-01-14T08:08:26Z</time>
      </trkpt>
      <trkpt lat="43.58131" lon="6.92523">
        <ele>22.271963119507</ele>
        <time>2012-01-14T08:08:32Z</time>
      </trkpt>
      <trkpt lat="43.58125" lon="6.92551">
        <ele>24.661134719849</ele>
        <time>2012-01-14T08:08:39Z</time>
      </trkpt>
      <trkpt lat="43.58125" lon="6.92572">
        <ele>26.179676055908</ele>
        <time>2012-01-14T08:08:44Z</time>
      </trkpt>
      <trkpt lat="43.58133" lon="6.92601">
        <ele>25.644895553589</ele>
        <time>2012-01-14T08:08:52Z</time>
      </trkpt>
      <trkpt lat="43.5814" lon="6.92613">
        <ele>24.501914978027</ele>
        <time>2012-01-14T08:08:56Z</time>
      </trkpt>
      <trkpt lat="43.58146" lon="6.92621">
        <ele>23.373323440552</ele>
        <time>2012-01-14T08:08:59Z</time>
      </trkpt>
      <trkpt lat="43.58155" lon="6.9264">
        <ele>21.482574462891</ele>
        <time>2012-01-14T08:09:05Z</time>
      </trkpt>
      <trkpt lat="43.58157" lon="6.92651">
        <ele>21.022886276245</ele>
        <time>2012-01-14T08:09:10Z</time>
      </trkpt>
      <trkpt lat="43.5816" lon="6.92669">
        <ele>20.398334503174</ele>
        <time>2012-01-14T08:09:15Z</time>
      </trkpt>
      <trkpt lat="43.58162" lon="6.92686">
        <ele>19.567039489746</ele>
        <time>2012-01-14T08:09:19Z</time>
      </trkpt>
      <trkpt lat="43.58173" lon="6.92696">
        <ele>18.474208831787</ele>
        <time>2012-01-14T08:09:23Z</time>
      </trkpt>
      <trkpt lat="43.58197" lon="6.92702">
        <ele>17.690578460693</ele>
        <time>2012-01-14T08:09:28Z</time>
      </trkpt>
      <trkpt lat="43.58208" lon="6.92718">
        <ele>17.087593078613</ele>
        <time>2012-01-14T08:09:33Z</time>
      </trkpt>
      <trkpt lat="43.58216" lon="6.92743">
        <ele>16.375642776489</ele>
        <time>2012-01-14T08:09:38Z</time>
      </trkpt>
      <trkpt lat="43.58216" lon="6.92744">
        <ele>16.318822860718</ele>
        <time>2012-01-14T08:09:39Z</time>
      </trkpt>
      <trkpt lat="43.58223" lon="6.92739">
        <ele>16.199842453003</ele>
        <time>2012-01-14T08:09:44Z</time>
      </trkpt>
      <trkpt lat="43.58224" lon="6.92736">
        <ele>16.200967788696</ele>
        <time>2012-01-14T08:09:45Z</time>
      </trkpt>
      <trkpt lat="43.58241" lon="6.92715">
        <ele>16.14190864563</ele>
        <time>2012-01-14T08:09:52Z</time>
      </trkpt>
      <trkpt lat="43.5825" lon="6.92702">
        <ele>16.171869277954</ele>
        <time>2012-01-14T08:09:57Z</time>
      </trkpt>
      <trkpt lat="43.58252" lon="6.92699">
        <ele>16.178192138672</ele>
        <time>2012-01-14T08:09:58Z</time>
      </trkpt>
      <trkpt lat="43.58268" lon="6.92685">
        <ele>16.115249633789</ele>
        <time>2012-01-14T08:10:03Z</time>
      </trkpt>
      <trkpt lat="43.58284" lon="6.92658">
        <ele>16.371597290039</ele>
        <time>2012-01-14T08:10:08Z</time>
      </trkpt>
      <trkpt lat="43.58295" lon="6.92644">
        <ele>16.466583251953</ele>
        <time>2012-01-14T08:10:11Z</time>
      </trkpt>
      <trkpt lat="43.58298" lon="6.9264">
        <ele>16.481460571289</ele>
        <time>2012-01-14T08:10:12Z</time>
      </trkpt>
      <trkpt lat="43.58314" lon="6.9262">
        <ele>16.578735351562</ele>
        <time>2012-01-14T08:10:17Z</time>
      </trkpt>
      <trkpt lat="43.58337" lon="6.92591">
        <ele>16.729797363281</ele>
        <time>2012-01-14T08:10:24Z</time>
      </trkpt>
      <trkpt lat="43.58363" lon="6.9256">
        <ele>16.38663482666</ele>
        <time>2012-01-14T08:10:31Z</time>
      </trkpt>
      <trkpt lat="43.58382" lon="6.92535">
        <ele>16.175840377808</ele>
        <time>2012-01-14T08:10:36Z</time>
      </trkpt>
      <trkpt lat="43.58393" lon="6.92496">
        <ele>16.335250854492</ele>
        <time>2012-01-14T08:10:41Z</time>
      </trkpt>
      <trkpt lat="43.58392" lon="6.92476">
        <ele>16.575576782227</ele>
        <time>2012-01-14T08:10:43Z</time>
      </trkpt>
      <trkpt lat="43.58386" lon="6.92424">
        <ele>17.282249450684</ele>
        <time>2012-01-14T08:10:48Z</time>
      </trkpt>
      <trkpt lat="43.58387" lon="6.92382">
        <ele>17.768623352051</ele>
        <time>2012-01-14T08:10:52Z</time>
      </trkpt>
      <trkpt lat="43.58392" lon="6.92364">
        <ele>17.938568115234</ele>
        <time>2012-01-14T08:10:54Z</time>
      </trkpt>
      <trkpt lat="43.58416" lon="6.92327">
        <ele>18.091346740723</ele>
        <time>2012-01-14T08:10:59Z</time>
      </trkpt>
      <trkpt lat="43.58437" lon="6.92321">
        <ele>18.651224136352</ele>
        <time>2012-01-14T08:11:02Z</time>
      </trkpt>
      <trkpt lat="43.58456" lon="6.92329">
        <ele>18.682823181152</ele>
        <time>2012-01-14T08:11:05Z</time>
      </trkpt>
      <trkpt lat="43.58461" lon="6.92335">
        <ele>18.513126373291</ele>
        <time>2012-01-14T08:11:06Z</time>
      </trkpt>
      <trkpt lat="43.58513" lon="6.92389">
        <ele>18.663782119751</ele>
        <time>2012-01-14T08:11:16Z</time>
      </trkpt>
      <trkpt lat="43.58544" lon="6.92421">
        <ele>17.965942382812</ele>
        <time>2012-01-14T08:11:22Z</time>
      </trkpt>
      <trkpt lat="43.58572" lon="6.92448">
        <ele>17.981964111328</ele>
        <time>2012-01-14T08:11:27Z</time>
      </trkpt>
      <trkpt lat="43.58613" lon="6.92489">
        <ele>17.615493774414</ele>
        <time>2012-01-14T08:11:34Z</time>
      </trkpt>
      <trkpt lat="43.5866" lon="6.92531">
        <ele>17.138116836548</ele>
        <time>2012-01-14T08:11:42Z</time>
      </trkpt>
      <trkpt lat="43.58699" lon="6.92567">
        <ele>16.310932159424</ele>
        <time>2012-01-14T08:11:49Z</time>
      </trkpt>
      <trkpt lat="43.58731" lon="6.92597">
        <ele>15.800012588501</ele>
        <time>2012-01-14T08:11:55Z</time>
      </trkpt>
      <trkpt lat="43.58752" lon="6.92619">
        <ele>15.547973632812</ele>
        <time>2012-01-14T08:12:00Z</time>
      </trkpt>
      <trkpt lat="43.5879" lon="6.92655">
        <ele>14.655334472656</ele>
        <time>2012-01-14T08:12:07Z</time>
      </trkpt>
      <trkpt lat="43.58829" lon="6.92693">
        <ele>14.031639099121</ele>
        <time>2012-01-14T08:12:15Z</time>
      </trkpt>
      <trkpt lat="43.58864" lon="6.92727">
        <ele>14</ele>
        <time>2012-01-14T08:12:23Z</time>
      </trkpt>
      <trkpt lat="43.58891" lon="6.9276">
        <ele>13.885261535644</ele>
        <time>2012-01-14T08:12:31Z</time>
      </trkpt>
      <trkpt lat="43.58921" lon="6.92793">
        <ele>13.454839706421</ele>
        <time>2012-01-14T08:12:39Z</time>
      </trkpt>
      <trkpt lat="43.58955" lon="6.92835">
        <ele>13</ele>
        <time>2012-01-14T08:12:47Z</time>
      </trkpt>
      <trkpt lat="43.58979" lon="6.92863">
        <ele>13</ele>
        <time>2012-01-14T08:12:52Z</time>
      </trkpt>
      <trkpt lat="43.59004" lon="6.92879">
        <ele>13</ele>
        <time>2012-01-14T08:12:56Z</time>
      </trkpt>
      <trkpt lat="43.5906" lon="6.92904">
        <ele>13</ele>
        <time>2012-01-14T08:13:05Z</time>
      </trkpt>
      <trkpt lat="43.59077" lon="6.92912">
        <ele>13</ele>
        <time>2012-01-14T08:13:08Z</time>
      </trkpt>
      <trkpt lat="43.59094" lon="6.92927">
        <ele>13.241895675659</ele>
        <time>2012-01-14T08:13:12Z</time>
      </trkpt>
      <trkpt lat="43.59111" lon="6.92932">
        <ele>13.449363708496</ele>
        <time>2012-01-14T08:13:16Z</time>
      </trkpt>
      <trkpt lat="43.59118" lon="6.92917">
        <ele>13.413898468018</ele>
        <time>2012-01-14T08:13:19Z</time>
      </trkpt>
      <trkpt lat="43.59124" lon="6.92897">
        <ele>13.37184715271</ele>
        <time>2012-01-14T08:13:23Z</time>
      </trkpt>
      <trkpt lat="43.59145" lon="6.92857">
        <ele>13.212038040161</ele>
        <time>2012-01-14T08:13:31Z</time>
      </trkpt>
      <trkpt lat="43.59165" lon="6.92809">
        <ele>13</ele>
        <time>2012-01-14T08:13:39Z</time>
      </trkpt>
      <trkpt lat="43.59179" lon="6.92764">
        <ele>13.294189453125</ele>
        <time>2012-01-14T08:13:46Z</time>
      </trkpt>
      <trkpt lat="43.59189" lon="6.92727">
        <ele>13.5322265625</ele>
        <time>2012-01-14T08:13:52Z</time>
      </trkpt>
      <trkpt lat="43.59197" lon="6.92704">
        <ele>13.733642578125</ele>
        <time>2012-01-14T08:13:56Z</time>
      </trkpt>
      <trkpt lat="43.59206" lon="6.92689">
        <ele>13.93505859375</ele>
        <time>2012-01-14T08:13:59Z</time>
      </trkpt>
      <trkpt lat="43.59233" lon="6.92663">
        <ele>14.585083007812</ele>
        <time>2012-01-14T08:14:06Z</time>
      </trkpt>
      <trkpt lat="43.59237" lon="6.92661">
        <ele>14.685791015625</ele>
        <time>2012-01-14T08:14:07Z</time>
      </trkpt>
      <trkpt lat="43.59269" lon="6.92653">
        <ele>15.491380691528</ele>
        <time>2012-01-14T08:14:14Z</time>
      </trkpt>
      <trkpt lat="43.593" lon="6.9265">
        <ele>16.318559646606</ele>
        <time>2012-01-14T08:14:21Z</time>
      </trkpt>
      <trkpt lat="43.59343" lon="6.92644">
        <ele>17.469268798828</ele>
        <time>2012-01-14T08:14:30Z</time>
      </trkpt>
      <trkpt lat="43.59376" lon="6.92644">
        <ele>18.158199310303</ele>
        <time>2012-01-14T08:14:37Z</time>
      </trkpt>
      <trkpt lat="43.59409" lon="6.92649">
        <ele>18.843154907227</ele>
        <time>2012-01-14T08:14:45Z</time>
      </trkpt>
      <trkpt lat="43.59427" lon="6.92651">
        <ele>19.024578094482</ele>
        <time>2012-01-14T08:14:49Z</time>
      </trkpt>
      <trkpt lat="43.59444" lon="6.92658">
        <ele>19.035808563232</ele>
        <time>2012-01-14T08:14:53Z</time>
      </trkpt>
      <trkpt lat="43.59457" lon="6.92649">
        <ele>19.102193832398</ele>
        <time>2012-01-14T08:14:56Z</time>
      </trkpt>
      <trkpt lat="43.59459" lon="6.92634">
        <ele>19.201091766357</ele>
        <time>2012-01-14T08:14:58Z</time>
      </trkpt>
      <trkpt lat="43.59457" lon="6.92615">
        <ele>19.303407669067</ele>
        <time>2012-01-14T08:15:01Z</time>
      </trkpt>
      <trkpt lat="43.59449" lon="6.92569">
        <ele>19.624320983887</ele>
        <time>2012-01-14T08:15:08Z</time>
      </trkpt>
      <trkpt lat="43.59438" lon="6.92543">
        <ele>19.857402801514</ele>
        <time>2012-01-14T08:15:13Z</time>
      </trkpt>
      <trkpt lat="43.59434" lon="6.92534">
        <ele>19.913209915161</ele>
        <time>2012-01-14T08:15:15Z</time>
      </trkpt>
      <trkpt lat="43.59419" lon="6.92504">
        <ele>20.007984161377</ele>
        <time>2012-01-14T08:15:21Z</time>
      </trkpt>
      <trkpt lat="43.59401" lon="6.92485">
        <ele>19.927314758301</ele>
        <time>2012-01-14T08:15:26Z</time>
      </trkpt>
      <trkpt lat="43.59385" lon="6.92476">
        <ele>19.578779220581</ele>
        <time>2012-01-14T08:15:30Z</time>
      </trkpt>
      <trkpt lat="43.59373" lon="6.92467">
        <ele>19.322311401367</ele>
        <time>2012-01-14T08:15:33Z</time>
      </trkpt>
      <trkpt lat="43.59349" lon="6.92428">
        <ele>18.721645355225</ele>
        <time>2012-01-14T08:15:41Z</time>
      </trkpt>
      <trkpt lat="43.59327" lon="6.92379">
        <ele>18.621000289917</ele>
        <time>2012-01-14T08:15:50Z</time>
      </trkpt>
      <trkpt lat="43.59301" lon="6.92331">
        <ele>18.508804321289</ele>
        <time>2012-01-14T08:15:59Z</time>
      </trkpt>
      <trkpt lat="43.5928" lon="6.92303">
        <ele>18.159759521484</ele>
        <time>2012-01-14T08:16:05Z</time>
      </trkpt>
      <trkpt lat="43.59238" lon="6.92267">
        <ele>17.207378387451</ele>
        <time>2012-01-14T08:16:15Z</time>
      </trkpt>
      <trkpt lat="43.59235" lon="6.92263">
        <ele>17.196792602539</ele>
        <time>2012-01-14T08:16:16Z</time>
      </trkpt>
      <trkpt lat="43.59226" lon="6.92239">
        <ele>17.130432128906</ele>
        <time>2012-01-14T08:16:21Z</time>
      </trkpt>
      <trkpt lat="43.59224" lon="6.92217">
        <ele>17.061767578125</ele>
        <time>2012-01-14T08:16:25Z</time>
      </trkpt>
      <trkpt lat="43.59229" lon="6.9217">
        <ele>17.2265625</ele>
        <time>2012-01-14T08:16:33Z</time>
      </trkpt>
      <trkpt lat="43.59234" lon="6.92124">
        <ele>17.00817489624</ele>
        <time>2012-01-14T08:16:40Z</time>
      </trkpt>
      <trkpt lat="43.59238" lon="6.92067">
        <ele>16.552171707153</ele>
        <time>2012-01-14T08:16:49Z</time>
      </trkpt>
      <trkpt lat="43.59249" lon="6.9203">
        <ele>16.348947525024</ele>
        <time>2012-01-14T08:16:56Z</time>
      </trkpt>
      <trkpt lat="43.59268" lon="6.91969">
        <ele>16.712976455689</ele>
        <time>2012-01-14T08:17:07Z</time>
      </trkpt>
      <trkpt lat="43.59285" lon="6.91921">
        <ele>16.882959365845</ele>
        <time>2012-01-14T08:17:16Z</time>
      </trkpt>
      <trkpt lat="43.59295" lon="6.91895">
        <ele>16.945348739624</ele>
        <time>2012-01-14T08:17:21Z</time>
      </trkpt>
      <trkpt lat="43.59321" lon="6.91864">
        <ele>17.170635223389</ele>
        <time>2012-01-14T08:17:29Z</time>
      </trkpt>
      <trkpt lat="43.59351" lon="6.91841">
        <ele>17.556367874146</ele>
        <time>2012-01-14T08:17:37Z</time>
      </trkpt>
      <trkpt lat="43.5936" lon="6.91833">
        <ele>17.628072738648</ele>
        <time>2012-01-14T08:17:40Z</time>
      </trkpt>
      <trkpt lat="43.59379" lon="6.9181">
        <ele>17.657514572144</ele>
        <time>2012-01-14T08:17:47Z</time>
      </trkpt>
      <trkpt lat="43.594" lon="6.9178">
        <ele>17.453872680664</ele>
        <time>2012-01-14T08:17:53Z</time>
      </trkpt>
      <trkpt lat="43.59421" lon="6.91751">
        <ele>17.146183013916</ele>
        <time>2012-01-14T08:18:00Z</time>
      </trkpt>
      <trkpt lat="43.59446" lon="6.91716">
        <ele>17.153867721558</ele>
        <time>2012-01-14T08:18:09Z</time>
      </trkpt>
      <trkpt lat="43.59456" lon="6.91705">
        <ele>17.141618728638</ele>
        <time>2012-01-14T08:18:12Z</time>
      </trkpt>
      <trkpt lat="43.59469" lon="6.91687">
        <ele>17.031589508057</ele>
        <time>2012-01-14T08:18:17Z</time>
      </trkpt>
      <trkpt lat="43.59499" lon="6.91662">
        <ele>16.985069274902</ele>
        <time>2012-01-14T08:18:26Z</time>
      </trkpt>
      <trkpt lat="43.59522" lon="6.91643">
        <ele>18.766553878784</ele>
        <time>2012-01-14T08:18:33Z</time>
      </trkpt>
      <trkpt lat="43.59539" lon="6.9163">
        <ele>19.546636581421</ele>
        <time>2012-01-14T08:18:38Z</time>
      </trkpt>
      <trkpt lat="43.59546" lon="6.91623">
        <ele>19.696662902832</ele>
        <time>2012-01-14T08:18:40Z</time>
      </trkpt>
      <trkpt lat="43.59567" lon="6.91605">
        <ele>19.471529006958</ele>
        <time>2012-01-14T08:18:47Z</time>
      </trkpt>
      <trkpt lat="43.59578" lon="6.91581">
        <ele>17.907550811768</ele>
        <time>2012-01-14T08:18:53Z</time>
      </trkpt>
      <trkpt lat="43.59595" lon="6.9154">
        <ele>20.083292007446</ele>
        <time>2012-01-14T08:19:02Z</time>
      </trkpt>
      <trkpt lat="43.59602" lon="6.91525">
        <ele>20.318561553955</ele>
        <time>2012-01-14T08:19:05Z</time>
      </trkpt>
      <trkpt lat="43.59606" lon="6.91515">
        <ele>20.136341094971</ele>
        <time>2012-01-14T08:19:07Z</time>
      </trkpt>
      <trkpt lat="43.59611" lon="6.91503">
        <ele>19.382789611816</ele>
        <time>2012-01-14T08:19:09Z</time>
      </trkpt>
      <trkpt lat="43.59627" lon="6.91483">
        <ele>19.61484336853</ele>
        <time>2012-01-14T08:19:14Z</time>
      </trkpt>
      <trkpt lat="43.59633" lon="6.91478">
        <ele>19.744524002075</ele>
        <time>2012-01-14T08:19:16Z</time>
      </trkpt>
      <trkpt lat="43.59659" lon="6.91462">
        <ele>19.98406791687</ele>
        <time>2012-01-14T08:19:24Z</time>
      </trkpt>
      <trkpt lat="43.59672" lon="6.91447">
        <ele>20.225370407104</ele>
        <time>2012-01-14T08:19:29Z</time>
      </trkpt>
      <trkpt lat="43.59691" lon="6.91416">
        <ele>18.182409286499</ele>
        <time>2012-01-14T08:19:37Z</time>
      </trkpt>
      <trkpt lat="43.59704" lon="6.91404">
        <ele>18.697231292725</ele>
        <time>2012-01-14T08:19:41Z</time>
      </trkpt>
      <trkpt lat="43.59721" lon="6.91399">
        <ele>19.198101043701</ele>
        <time>2012-01-14T08:19:46Z</time>
      </trkpt>
      <trkpt lat="43.59738" lon="6.91391">
        <ele>19.465492248535</ele>
        <time>2012-01-14T08:19:51Z</time>
      </trkpt>
      <trkpt lat="43.59758" lon="6.91378">
        <ele>20.224626541138</ele>
        <time>2012-01-14T08:19:57Z</time>
      </trkpt>
      <trkpt lat="43.59766" lon="6.91368">
        <ele>20.3596534729</ele>
        <time>2012-01-14T08:20:00Z</time>
      </trkpt>
      <trkpt lat="43.59773" lon="6.9136">
        <ele>20.310123443604</ele>
        <time>2012-01-14T08:20:05Z</time>
      </trkpt>
      <trkpt lat="43.59788" lon="6.91352">
        <ele>20.46865272522</ele>
        <time>2012-01-14T08:20:11Z</time>
      </trkpt>
      <trkpt lat="43.59809" lon="6.91346">
        <ele>20.701257705689</ele>
        <time>2012-01-14T08:20:18Z</time>
      </trkpt>
      <trkpt lat="43.5983" lon="6.9134">
        <ele>20.505657196045</ele>
        <time>2012-01-14T08:20:24Z</time>
      </trkpt>
      <trkpt lat="43.59846" lon="6.91329">
        <ele>19.115642547607</ele>
        <time>2012-01-14T08:20:30Z</time>
      </trkpt>
      <trkpt lat="43.59855" lon="6.91322">
        <ele>19.160751342773</ele>
        <time>2012-01-14T08:20:35Z</time>
      </trkpt>
      <trkpt lat="43.59856" lon="6.91311">
        <ele>19.073879241943</ele>
        <time>2012-01-14T08:20:40Z</time>
      </trkpt>
      <trkpt lat="43.59861" lon="6.91289">
        <ele>18.965972900391</ele>
        <time>2012-01-14T08:20:45Z</time>
      </trkpt>
      <trkpt lat="43.59869" lon="6.91273">
        <ele>19.018733978271</ele>
        <time>2012-01-14T08:20:51Z</time>
      </trkpt>
      <trkpt lat="43.5987" lon="6.91271">
        <ele>19.016344070435</ele>
        <time>2012-01-14T08:20:52Z</time>
      </trkpt>
      <trkpt lat="43.59874" lon="6.91266">
        <ele>19.083581924439</ele>
        <time>2012-01-14T08:20:56Z</time>
      </trkpt>
      <trkpt lat="43.59877" lon="6.91264">
        <ele>19.12077331543</ele>
        <time>2012-01-14T08:20:59Z</time>
      </trkpt>
      <trkpt lat="43.59887" lon="6.91265">
        <ele>19.34045791626</ele>
        <time>2012-01-14T08:21:05Z</time>
      </trkpt>
      <trkpt lat="43.59892" lon="6.91267">
        <ele>19.456146240234</ele>
        <time>2012-01-14T08:21:08Z</time>
      </trkpt>
      <trkpt lat="43.59897" lon="6.91259">
        <ele>19.559965133667</ele>
        <time>2012-01-14T08:21:14Z</time>
      </trkpt>
      <trkpt lat="43.599" lon="6.91252">
        <ele>19.59354019165</ele>
        <time>2012-01-14T08:21:19Z</time>
      </trkpt>
      <trkpt lat="43.59904" lon="6.91244">
        <ele>19.942838668823</ele>
        <time>2012-01-14T08:21:25Z</time>
      </trkpt>
      <trkpt lat="43.59904" lon="6.91243">
        <ele>20.001026153564</ele>
        <time>2012-01-14T08:21:27Z</time>
      </trkpt>
      <trkpt lat="43.59903" lon="6.91241">
        <ele>20.041900634766</ele>
        <time>2012-01-14T08:21:38Z</time>
      </trkpt>
      <trkpt lat="43.59905" lon="6.91242">
        <ele>20.073835372925</ele>
        <time>2012-01-14T08:21:44Z</time>
      </trkpt>
      <trkpt lat="43.59906" lon="6.91242">
        <ele>20.082761764526</ele>
        <time>2012-01-14T08:21:45Z</time>
      </trkpt>
      <trkpt lat="43.59917" lon="6.91247">
        <ele>20.150489807129</ele>
        <time>2012-01-14T08:21:51Z</time>
      </trkpt>
      <trkpt lat="43.59919" lon="6.91248">
        <ele>20.08207321167</ele>
        <time>2012-01-14T08:21:52Z</time>
      </trkpt>
      <trkpt lat="43.59938" lon="6.91254">
        <ele>20.012372970581</ele>
        <time>2012-01-14T08:22:00Z</time>
      </trkpt>
      <trkpt lat="43.59953" lon="6.9126">
        <ele>20.053232192993</ele>
        <time>2012-01-14T08:22:07Z</time>
      </trkpt>
      <trkpt lat="43.59955" lon="6.91263">
        <ele>20.07061958313</ele>
        <time>2012-01-14T08:22:13Z</time>
      </trkpt>
      <trkpt lat="43.59958" lon="6.9126">
        <ele>20.058214187622</ele>
        <time>2012-01-14T08:22:18Z</time>
      </trkpt>
      <trkpt lat="43.5996" lon="6.91257">
        <ele>20.041166305542</ele>
        <time>2012-01-14T08:22:28Z</time>
      </trkpt>
      <trkpt lat="43.5996" lon="6.91253">
        <ele>20.019956588745</ele>
        <time>2012-01-14T08:22:35Z</time>
      </trkpt>
      <trkpt lat="43.59961" lon="6.91253">
        <ele>20.018640518189</ele>
        <time>2012-01-14T08:22:42Z</time>
      </trkpt>
      <trkpt lat="43.59963" lon="6.91259">
        <ele>20.057962417602</ele>
        <time>2012-01-14T08:22:49Z</time>
      </trkpt>
      <trkpt lat="43.59977" lon="6.91268">
        <ele>20.152681350708</ele>
        <time>2012-01-14T08:22:55Z</time>
      </trkpt>
      <trkpt lat="43.59995" lon="6.91275">
        <ele>20.276502609253</ele>
        <time>2012-01-14T08:23:01Z</time>
      </trkpt>
      <trkpt lat="43.60011" lon="6.91279">
        <ele>20.347785949707</ele>
        <time>2012-01-14T08:23:06Z</time>
      </trkpt>
      <trkpt lat="43.6003" lon="6.91272">
        <ele>20.26424407959</ele>
        <time>2012-01-14T08:23:11Z</time>
      </trkpt>
      <trkpt lat="43.60046" lon="6.91265">
        <ele>20.178413391113</ele>
        <time>2012-01-14T08:23:16Z</time>
      </trkpt>
      <trkpt lat="43.60065" lon="6.91254">
        <ele>20.049667358398</ele>
        <time>2012-01-14T08:23:21Z</time>
      </trkpt>
      <trkpt lat="43.60077" lon="6.91246">
        <ele>20.172510147095</ele>
        <time>2012-01-14T08:23:25Z</time>
      </trkpt>
      <trkpt lat="43.60088" lon="6.91231">
        <ele>20.673677444458</ele>
        <time>2012-01-14T08:23:29Z</time>
      </trkpt>
      <trkpt lat="43.60099" lon="6.91214">
        <ele>21.153282165527</ele>
        <time>2012-01-14T08:23:34Z</time>
      </trkpt>
      <trkpt lat="43.60108" lon="6.91198">
        <ele>21.416229248047</ele>
        <time>2012-01-14T08:23:38Z</time>
      </trkpt>
      <trkpt lat="43.60121" lon="6.91178">
        <ele>21.482545852661</ele>
        <time>2012-01-14T08:23:43Z</time>
      </trkpt>
      <trkpt lat="43.60134" lon="6.91167">
        <ele>21.171049118042</ele>
        <time>2012-01-14T08:23:47Z</time>
      </trkpt>
      <trkpt lat="43.60155" lon="6.91166">
        <ele>20.485733032227</ele>
        <time>2012-01-14T08:23:53Z</time>
      </trkpt>
      <trkpt lat="43.6018" lon="6.91185">
        <ele>20.649158477783</ele>
        <time>2012-01-14T08:23:58Z</time>
      </trkpt>
      <trkpt lat="43.602" lon="6.912">
        <ele>21.680419921875</ele>
        <time>2012-01-14T08:24:03Z</time>
      </trkpt>
      <trkpt lat="43.60221" lon="6.91218">
        <ele>23.108333587646</ele>
        <time>2012-01-14T08:24:08Z</time>
      </trkpt>
      <trkpt lat="43.60254" lon="6.91247">
        <ele>26.337421417236</ele>
        <time>2012-01-14T08:24:16Z</time>
      </trkpt>
      <trkpt lat="43.60259" lon="6.91251">
        <ele>27.097015380859</ele>
        <time>2012-01-14T08:24:17Z</time>
      </trkpt>
      <trkpt lat="43.6027" lon="6.9127">
        <ele>29.001434326172</ele>
        <time>2012-01-14T08:24:21Z</time>
      </trkpt>
      <trkpt lat="43.60266" lon="6.91279">
        <ele>28.811868667602</ele>
        <time>2012-01-14T08:24:23Z</time>
      </trkpt>
      <trkpt lat="43.60245" lon="6.91311">
        <ele>27.956394195557</ele>
        <time>2012-01-14T08:24:30Z</time>
      </trkpt>
      <trkpt lat="43.60242" lon="6.91316">
        <ele>27.985960006714</ele>
        <time>2012-01-14T08:24:31Z</time>
      </trkpt>
      <trkpt lat="43.60238" lon="6.91343">
        <ele>28.968618392944</ele>
        <time>2012-01-14T08:24:36Z</time>
      </trkpt>
      <trkpt lat="43.60239" lon="6.91349">
        <ele>29.301198959351</ele>
        <time>2012-01-14T08:24:37Z</time>
      </trkpt>
      <trkpt lat="43.60247" lon="6.91375">
        <ele>30.94455909729</ele>
        <time>2012-01-14T08:24:42Z</time>
      </trkpt>
      <trkpt lat="43.60255" lon="6.91389">
        <ele>32.027160644531</ele>
        <time>2012-01-14T08:24:45Z</time>
      </trkpt>
      <trkpt lat="43.60263" lon="6.91402">
        <ele>33.137405395508</ele>
        <time>2012-01-14T08:24:48Z</time>
      </trkpt>
      <trkpt lat="43.60287" lon="6.91431">
        <ele>35.604972839355</ele>
        <time>2012-01-14T08:24:56Z</time>
      </trkpt>
      <trkpt lat="43.60303" lon="6.91434">
        <ele>36.522869110107</ele>
        <time>2012-01-14T08:25:01Z</time>
      </trkpt>
      <trkpt lat="43.60323" lon="6.91423">
        <ele>37.451843261719</ele>
        <time>2012-01-14T08:25:07Z</time>
      </trkpt>
      <trkpt lat="43.60353" lon="6.91413">
        <ele>38.432266235352</ele>
        <time>2012-01-14T08:25:14Z</time>
      </trkpt>
      <trkpt lat="43.60366" lon="6.91414">
        <ele>38.759281158447</ele>
        <time>2012-01-14T08:25:17Z</time>
      </trkpt>
      <trkpt lat="43.60377" lon="6.91416">
        <ele>39.038333892822</ele>
        <time>2012-01-14T08:25:21Z</time>
      </trkpt>
      <trkpt lat="43.6039" lon="6.91414">
        <ele>39.361183166504</ele>
        <time>2012-01-14T08:25:27Z</time>
      </trkpt>
      <trkpt lat="43.60407" lon="6.91396">
        <ele>39.736476898193</ele>
        <time>2012-01-14T08:25:35Z</time>
      </trkpt>
      <trkpt lat="43.60424" lon="6.91383">
        <ele>40</ele>
        <time>2012-01-14T08:25:42Z</time>
      </trkpt>
      <trkpt lat="43.60442" lon="6.91377">
        <ele>40</ele>
        <time>2012-01-14T08:25:48Z</time>
      </trkpt>
      <trkpt lat="43.60453" lon="6.91362">
        <ele>40</ele>
        <time>2012-01-14T08:25:53Z</time>
      </trkpt>
      <trkpt lat="43.60458" lon="6.91336">
        <ele>40</ele>
        <time>2012-01-14T08:25:59Z</time>
      </trkpt>
      <trkpt lat="43.60462" lon="6.913">
        <ele>41.049140930176</ele>
        <time>2012-01-14T08:26:07Z</time>
      </trkpt>
      <trkpt lat="43.60464" lon="6.91292">
        <ele>41.330513000488</ele>
        <time>2012-01-14T08:26:10Z</time>
      </trkpt>
      <trkpt lat="43.60468" lon="6.91288">
        <ele>41.524085998535</ele>
        <time>2012-01-14T08:26:14Z</time>
      </trkpt>
      <trkpt lat="43.6047" lon="6.91287">
        <ele>41.605117797852</ele>
        <time>2012-01-14T08:26:21Z</time>
      </trkpt>
      <trkpt lat="43.60472" lon="6.91283">
        <ele>41.796226501465</ele>
        <time>2012-01-14T08:26:28Z</time>
      </trkpt>
      <trkpt lat="43.60474" lon="6.9128">
        <ele>41.953128814697</ele>
        <time>2012-01-14T08:26:34Z</time>
      </trkpt>
      <trkpt lat="43.60477" lon="6.91273">
        <ele>42.287483215332</ele>
        <time>2012-01-14T08:26:39Z</time>
      </trkpt>
      <trkpt lat="43.6048" lon="6.91266">
        <ele>42.657062530518</ele>
        <time>2012-01-14T08:26:48Z</time>
      </trkpt>
      <trkpt lat="43.60478" lon="6.91261">
        <ele>42.768001556396</ele>
        <time>2012-01-14T08:26:50Z</time>
      </trkpt>
      <trkpt lat="43.60472" lon="6.9125">
        <ele>43.037101745605</ele>
        <time>2012-01-14T08:26:54Z</time>
      </trkpt>
      <trkpt lat="43.60463" lon="6.91234">
        <ele>43.845901489258</ele>
        <time>2012-01-14T08:27:00Z</time>
      </trkpt>
      <trkpt lat="43.60448" lon="6.91224">
        <ele>43.797996520996</ele>
        <time>2012-01-14T08:27:06Z</time>
      </trkpt>
      <trkpt lat="43.60428" lon="6.91217">
        <ele>43.239120483398</ele>
        <time>2012-01-14T08:27:13Z</time>
      </trkpt>
      <trkpt lat="43.60415" lon="6.91205">
        <ele>43.045406341553</ele>
        <time>2012-01-14T08:27:19Z</time>
      </trkpt>
      <trkpt lat="43.60416" lon="6.91193">
        <ele>43.656993865967</ele>
        <time>2012-01-14T08:27:25Z</time>
      </trkpt>
      <trkpt lat="43.60415" lon="6.91193">
        <ele>43.610256195068</ele>
        <time>2012-01-14T08:27:30Z</time>
      </trkpt>
      <trkpt lat="43.60417" lon="6.9119">
        <ele>43.888763427734</ele>
        <time>2012-01-14T08:27:36Z</time>
      </trkpt>
      <trkpt lat="43.60416" lon="6.9117">
        <ele>44.816394805908</ele>
        <time>2012-01-14T08:27:42Z</time>
      </trkpt>
      <trkpt lat="43.60412" lon="6.91137">
        <ele>45.432731628418</ele>
        <time>2012-01-14T08:27:51Z</time>
      </trkpt>
      <trkpt lat="43.60408" lon="6.91108">
        <ele>45.883483886719</ele>
        <time>2012-01-14T08:27:59Z</time>
      </trkpt>
      <trkpt lat="43.60409" lon="6.91084">
        <ele>46.719120025635</ele>
        <time>2012-01-14T08:28:05Z</time>
      </trkpt>
      <trkpt lat="43.60408" lon="6.91048">
        <ele>46.401481628418</ele>
        <time>2012-01-14T08:28:13Z</time>
      </trkpt>
      <trkpt lat="43.60408" lon="6.91017">
        <ele>46.054935455322</ele>
        <time>2012-01-14T08:28:20Z</time>
      </trkpt>
      <trkpt lat="43.60406" lon="6.90978">
        <ele>45.584625244141</ele>
        <time>2012-01-14T08:28:29Z</time>
      </trkpt>
      <trkpt lat="43.60408" lon="6.90947">
        <ele>45.92769241333</ele>
        <time>2012-01-14T08:28:36Z</time>
      </trkpt>
      <trkpt lat="43.60407" lon="6.9093">
        <ele>45.569232940674</ele>
        <time>2012-01-14T08:28:41Z</time>
      </trkpt>
      <trkpt lat="43.60411" lon="6.90902">
        <ele>46.65172958374</ele>
        <time>2012-01-14T08:28:49Z</time>
      </trkpt>
      <trkpt lat="43.60417" lon="6.90873">
        <ele>48.598693847656</ele>
        <time>2012-01-14T08:28:56Z</time>
      </trkpt>
      <trkpt lat="43.60429" lon="6.90823">
        <ele>50.801494598389</ele>
        <time>2012-01-14T08:29:05Z</time>
      </trkpt>
      <trkpt lat="43.6044" lon="6.90783">
        <ele>52.540504455566</ele>
        <time>2012-01-14T08:29:12Z</time>
      </trkpt>
      <trkpt lat="43.6045" lon="6.90755">
        <ele>53.195278167725</ele>
        <time>2012-01-14T08:29:18Z</time>
      </trkpt>
      <trkpt lat="43.6046" lon="6.90729">
        <ele>53.272396087646</ele>
        <time>2012-01-14T08:29:23Z</time>
      </trkpt>
      <trkpt lat="43.60469" lon="6.90707">
        <ele>52.843902587891</ele>
        <time>2012-01-14T08:29:27Z</time>
      </trkpt>
      <trkpt lat="43.60483" lon="6.90674">
        <ele>51.339557647705</ele>
        <time>2012-01-14T08:29:32Z</time>
      </trkpt>
      <trkpt lat="43.60502" lon="6.90629">
        <ele>47.70724105835</ele>
        <time>2012-01-14T08:29:38Z</time>
      </trkpt>
      <trkpt lat="43.60516" lon="6.90599">
        <ele>45.799953460693</ele>
        <time>2012-01-14T08:29:42Z</time>
      </trkpt>
      <trkpt lat="43.60526" lon="6.90577">
        <ele>44.633895874023</ele>
        <time>2012-01-14T08:29:45Z</time>
      </trkpt>
      <trkpt lat="43.60546" lon="6.90532">
        <ele>43.017959594727</ele>
        <time>2012-01-14T08:29:51Z</time>
      </trkpt>
      <trkpt lat="43.6057" lon="6.90477">
        <ele>39.265560150146</ele>
        <time>2012-01-14T08:29:58Z</time>
      </trkpt>
      <trkpt lat="43.60588" lon="6.90437">
        <ele>36.28035736084</ele>
        <time>2012-01-14T08:30:03Z</time>
      </trkpt>
      <trkpt lat="43.60605" lon="6.90399">
        <ele>35.186492919922</ele>
        <time>2012-01-14T08:30:07Z</time>
      </trkpt>
      <trkpt lat="43.60608" lon="6.9039">
        <ele>34.907257080078</ele>
        <time>2012-01-14T08:30:08Z</time>
      </trkpt>
      <trkpt lat="43.60614" lon="6.90344">
        <ele>33.002960205078</ele>
        <time>2012-01-14T08:30:13Z</time>
      </trkpt>
      <trkpt lat="43.60606" lon="6.90325">
        <ele>31.773468017578</ele>
        <time>2012-01-14T08:30:16Z</time>
      </trkpt>
      <trkpt lat="43.606" lon="6.90314">
        <ele>31.082817077637</ele>
        <time>2012-01-14T08:30:18Z</time>
      </trkpt>
      <trkpt lat="43.60593" lon="6.90302">
        <ele>30.369277954102</ele>
        <time>2012-01-14T08:30:20Z</time>
      </trkpt>
      <trkpt lat="43.60575" lon="6.90254">
        <ele>28.259931564331</ele>
        <time>2012-01-14T08:30:28Z</time>
      </trkpt>
      <trkpt lat="43.60562" lon="6.90226">
        <ele>26.810470581055</ele>
        <time>2012-01-14T08:30:33Z</time>
      </trkpt>
      <trkpt lat="43.60544" lon="6.90205">
        <ele>25.325731277466</ele>
        <time>2012-01-14T08:30:38Z</time>
      </trkpt>
      <trkpt lat="43.60523" lon="6.9019">
        <ele>23.781440734863</ele>
        <time>2012-01-14T08:30:43Z</time>
      </trkpt>
      <trkpt lat="43.60505" lon="6.90185">
        <ele>22.883480072021</ele>
        <time>2012-01-14T08:30:47Z</time>
      </trkpt>
      <trkpt lat="43.60472" lon="6.90193">
        <ele>22.640705108643</ele>
        <time>2012-01-14T08:30:54Z</time>
      </trkpt>
      <trkpt lat="43.60463" lon="6.90196">
        <ele>22.578321456909</ele>
        <time>2012-01-14T08:30:56Z</time>
      </trkpt>
      <trkpt lat="43.60435" lon="6.90215">
        <ele>22.613042831421</ele>
        <time>2012-01-14T08:31:02Z</time>
      </trkpt>
      <trkpt lat="43.60423" lon="6.90219">
        <ele>22.223058700561</ele>
        <time>2012-01-14T08:31:05Z</time>
      </trkpt>
      <trkpt lat="43.60394" lon="6.90231">
        <ele>21.68496131897</ele>
        <time>2012-01-14T08:31:12Z</time>
      </trkpt>
      <trkpt lat="43.60367" lon="6.90246">
        <ele>21.157428741455</ele>
        <time>2012-01-14T08:31:19Z</time>
      </trkpt>
      <trkpt lat="43.60363" lon="6.90247">
        <ele>21.049356460571</ele>
        <time>2012-01-14T08:31:20Z</time>
      </trkpt>
      <trkpt lat="43.6034" lon="6.90244">
        <ele>20.21395111084</ele>
        <time>2012-01-14T08:31:27Z</time>
      </trkpt>
      <trkpt lat="43.60328" lon="6.90227">
        <ele>20.126310348511</ele>
        <time>2012-01-14T08:31:31Z</time>
      </trkpt>
      <trkpt lat="43.6031" lon="6.902">
        <ele>21.158884048462</ele>
        <time>2012-01-14T08:31:38Z</time>
      </trkpt>
      <trkpt lat="43.60297" lon="6.90173">
        <ele>22.82585144043</ele>
        <time>2012-01-14T08:31:45Z</time>
      </trkpt>
      <trkpt lat="43.60298" lon="6.90165">
        <ele>23.290493011475</ele>
        <time>2012-01-14T08:31:48Z</time>
      </trkpt>
      <trkpt lat="43.6031" lon="6.90161">
        <ele>22.667825698852</ele>
        <time>2012-01-14T08:31:55Z</time>
      </trkpt>
      <trkpt lat="43.6032" lon="6.90158">
        <ele>21.995941162109</ele>
        <time>2012-01-14T08:32:00Z</time>
      </trkpt>
      <trkpt lat="43.60337" lon="6.90151">
        <ele>20.896520614624</ele>
        <time>2012-01-14T08:32:08Z</time>
      </trkpt>
      <trkpt lat="43.60348" lon="6.90145">
        <ele>21.079086303711</ele>
        <time>2012-01-14T08:32:15Z</time>
      </trkpt>
      <trkpt lat="43.60355" lon="6.90137">
        <ele>21.335874557495</ele>
        <time>2012-01-14T08:32:21Z</time>
      </trkpt>
      <trkpt lat="43.60365" lon="6.90117">
        <ele>21.827280044556</ele>
        <time>2012-01-14T08:32:28Z</time>
      </trkpt>
      <trkpt lat="43.60367" lon="6.90114">
        <ele>21.882526397705</ele>
        <time>2012-01-14T08:32:29Z</time>
      </trkpt>
      <trkpt lat="43.60371" lon="6.90084">
        <ele>22.751453399658</ele>
        <time>2012-01-14T08:32:38Z</time>
      </trkpt>
      <trkpt lat="43.60365" lon="6.90066">
        <ele>25.759407043457</ele>
        <time>2012-01-14T08:32:45Z</time>
      </trkpt>
      <trkpt lat="43.60357" lon="6.90053">
        <ele>28.628595352173</ele>
        <time>2012-01-14T08:32:51Z</time>
      </trkpt>
      <trkpt lat="43.60355" lon="6.90041">
        <ele>30.998386383057</ele>
        <time>2012-01-14T08:32:55Z</time>
      </trkpt>
      <trkpt lat="43.60357" lon="6.9003">
        <ele>32.451278686523</ele>
        <time>2012-01-14T08:33:00Z</time>
      </trkpt>
      <trkpt lat="43.60361" lon="6.90025">
        <ele>32.684707641602</ele>
        <time>2012-01-14T08:33:03Z</time>
      </trkpt>
      <trkpt lat="43.60365" lon="6.90018">
        <ele>33.052440643311</ele>
        <time>2012-01-14T08:33:08Z</time>
      </trkpt>
      <trkpt lat="43.60368" lon="6.90005">
        <ele>34.453643798828</ele>
        <time>2012-01-14T08:33:13Z</time>
      </trkpt>
      <trkpt lat="43.60373" lon="6.89995">
        <ele>35.088218688965</ele>
        <time>2012-01-14T08:33:20Z</time>
      </trkpt>
      <trkpt lat="43.60377" lon="6.89985">
        <ele>36.225414276123</ele>
        <time>2012-01-14T08:33:25Z</time>
      </trkpt>
      <trkpt lat="43.60381" lon="6.89975">
        <ele>37.537769317627</ele>
        <time>2012-01-14T08:33:30Z</time>
      </trkpt>
      <trkpt lat="43.60387" lon="6.89962">
        <ele>38.643135070801</ele>
        <time>2012-01-14T08:33:36Z</time>
      </trkpt>
      <trkpt lat="43.60392" lon="6.89947">
        <ele>39.902854919434</ele>
        <time>2012-01-14T08:33:42Z</time>
      </trkpt>
      <trkpt lat="43.60398" lon="6.89936">
        <ele>40.132423400879</ele>
        <time>2012-01-14T08:33:48Z</time>
      </trkpt>
      <trkpt lat="43.60406" lon="6.89923">
        <ele>39.787860870361</ele>
        <time>2012-01-14T08:33:55Z</time>
      </trkpt>
      <trkpt lat="43.60415" lon="6.89907">
        <ele>40.168941497803</ele>
        <time>2012-01-14T08:34:00Z</time>
      </trkpt>
      <trkpt lat="43.60426" lon="6.89894">
        <ele>40.570575714111</ele>
        <time>2012-01-14T08:34:05Z</time>
      </trkpt>
      <trkpt lat="43.60442" lon="6.89882">
        <ele>39.846939086914</ele>
        <time>2012-01-14T08:34:13Z</time>
      </trkpt>
      <trkpt lat="43.60445" lon="6.89866">
        <ele>42.277557373047</ele>
        <time>2012-01-14T08:34:18Z</time>
      </trkpt>
      <trkpt lat="43.60441" lon="6.89848">
        <ele>47.304470062256</ele>
        <time>2012-01-14T08:34:24Z</time>
      </trkpt>
      <trkpt lat="43.60436" lon="6.8983">
        <ele>53.388710021973</ele>
        <time>2012-01-14T08:34:30Z</time>
      </trkpt>
      <trkpt lat="43.60433" lon="6.89814">
        <ele>59.383632659912</ele>
        <time>2012-01-14T08:34:36Z</time>
      </trkpt>
      <trkpt lat="43.60434" lon="6.89797">
        <ele>64.119766235352</ele>
        <time>2012-01-14T08:34:41Z</time>
      </trkpt>
      <trkpt lat="43.60432" lon="6.89776">
        <ele>71.312034606934</ele>
        <time>2012-01-14T08:34:48Z</time>
      </trkpt>
      <trkpt lat="43.60432" lon="6.89775">
        <ele>71.767890930176</ele>
        <time>2012-01-14T08:34:49Z</time>
      </trkpt>
      <trkpt lat="43.60431" lon="6.89758">
        <ele>77.286094665527</ele>
        <time>2012-01-14T08:34:57Z</time>
      </trkpt>
      <trkpt lat="43.60432" lon="6.89747">
        <ele>80.275360107422</ele>
        <time>2012-01-14T08:35:01Z</time>
      </trkpt>
      <trkpt lat="43.60432" lon="6.89742">
        <ele>81.900177001953</ele>
        <time>2012-01-14T08:35:03Z</time>
      </trkpt>
      <trkpt lat="43.60431" lon="6.89729">
        <ele>86.153335571289</ele>
        <time>2012-01-14T08:35:09Z</time>
      </trkpt>
      <trkpt lat="43.60432" lon="6.89729">
        <ele>86.025772094727</ele>
        <time>2012-01-14T08:35:10Z</time>
      </trkpt>
      <trkpt lat="43.60437" lon="6.8973">
        <ele>84.156608581543</ele>
        <time>2012-01-14T08:35:16Z</time>
      </trkpt>
      <trkpt lat="43.60439" lon="6.89732">
        <ele>83.243202209473</ele>
        <time>2012-01-14T08:35:22Z</time>
      </trkpt>
      <trkpt lat="43.60445" lon="6.89735">
        <ele>80.904754638672</ele>
        <time>2012-01-14T08:35:29Z</time>
      </trkpt>
      <trkpt lat="43.60452" lon="6.89738">
        <ele>77.83430480957</ele>
        <time>2012-01-14T08:35:34Z</time>
      </trkpt>
      <trkpt lat="43.60461" lon="6.89743">
        <ele>73.685661315918</ele>
        <time>2012-01-14T08:35:39Z</time>
      </trkpt>
      <trkpt lat="43.60472" lon="6.89752">
        <ele>67.418518066406</ele>
        <time>2012-01-14T08:35:45Z</time>
      </trkpt>
      <trkpt lat="43.60488" lon="6.89757">
        <ele>61.266193389893</ele>
        <time>2012-01-14T08:35:52Z</time>
      </trkpt>
      <trkpt lat="43.60502" lon="6.89752">
        <ele>59.073993682861</ele>
        <time>2012-01-14T08:35:58Z</time>
      </trkpt>
      <trkpt lat="43.60513" lon="6.89739">
        <ele>61.459735870361</ele>
        <time>2012-01-14T08:36:05Z</time>
      </trkpt>
      <trkpt lat="43.60524" lon="6.89725">
        <ele>64.709632873535</ele>
        <time>2012-01-14T08:36:12Z</time>
      </trkpt>
      <trkpt lat="43.60532" lon="6.8972">
        <ele>65.39591217041</ele>
        <time>2012-01-14T08:36:16Z</time>
      </trkpt>
      <trkpt lat="43.60544" lon="6.89721">
        <ele>62.699066162109</ele>
        <time>2012-01-14T08:36:22Z</time>
      </trkpt>
      <trkpt lat="43.60561" lon="6.89725">
        <ele>57.639019012451</ele>
        <time>2012-01-14T08:36:29Z</time>
      </trkpt>
      <trkpt lat="43.60572" lon="6.89723">
        <ele>56.386051177979</ele>
        <time>2012-01-14T08:36:34Z</time>
      </trkpt>
      <trkpt lat="43.60577" lon="6.89716">
        <ele>58.38830947876</ele>
        <time>2012-01-14T08:36:37Z</time>
      </trkpt>
      <trkpt lat="43.60585" lon="6.89708">
        <ele>60.427848815918</ele>
        <time>2012-01-14T08:36:42Z</time>
      </trkpt>
      <trkpt lat="43.60593" lon="6.89694">
        <ele>64.911499023438</ele>
        <time>2012-01-14T08:36:49Z</time>
      </trkpt>
      <trkpt lat="43.60595" lon="6.8969">
        <ele>66.348205566406</ele>
        <time>2012-01-14T08:36:51Z</time>
      </trkpt>
      <trkpt lat="43.606" lon="6.89678">
        <ele>70.5400390625</ele>
        <time>2012-01-14T08:36:57Z</time>
      </trkpt>
      <trkpt lat="43.60606" lon="6.89662">
        <ele>75.26880645752</ele>
        <time>2012-01-14T08:37:03Z</time>
      </trkpt>
      <trkpt lat="43.60608" lon="6.89658">
        <ele>76.217147827148</ele>
        <time>2012-01-14T08:37:05Z</time>
      </trkpt>
      <trkpt lat="43.60613" lon="6.89645">
        <ele>79.102828979492</ele>
        <time>2012-01-14T08:37:11Z</time>
      </trkpt>
      <trkpt lat="43.60614" lon="6.89642">
        <ele>79.698539733887</ele>
        <time>2012-01-14T08:37:12Z</time>
      </trkpt>
      <trkpt lat="43.60621" lon="6.89631">
        <ele>81.866989135742</ele>
        <time>2012-01-14T08:37:18Z</time>
      </trkpt>
      <trkpt lat="43.60629" lon="6.89621">
        <ele>83.581832885742</ele>
        <time>2012-01-14T08:37:23Z</time>
      </trkpt>
      <trkpt lat="43.60634" lon="6.89604">
        <ele>88.012702941895</ele>
        <time>2012-01-14T08:37:28Z</time>
      </trkpt>
      <trkpt lat="43.60639" lon="6.89597">
        <ele>89.640319824219</ele>
        <time>2012-01-14T08:37:33Z</time>
      </trkpt>
      <trkpt lat="43.60651" lon="6.89589">
        <ele>90.033638000488</ele>
        <time>2012-01-14T08:37:40Z</time>
      </trkpt>
      <trkpt lat="43.60667" lon="6.89589">
        <ele>86.78532409668</ele>
        <time>2012-01-14T08:37:47Z</time>
      </trkpt>
      <trkpt lat="43.60682" lon="6.89589">
        <ele>80.994415283203</ele>
        <time>2012-01-14T08:37:53Z</time>
      </trkpt>
      <trkpt lat="43.60698" lon="6.89588">
        <ele>75.807861328125</ele>
        <time>2012-01-14T08:37:59Z</time>
      </trkpt>
      <trkpt lat="43.60706" lon="6.89579">
        <ele>74.594657897949</ele>
        <time>2012-01-14T08:38:04Z</time>
      </trkpt>
      <trkpt lat="43.60711" lon="6.8956">
        <ele>75.77791595459</ele>
        <time>2012-01-14T08:38:10Z</time>
      </trkpt>
      <trkpt lat="43.60712" lon="6.89538">
        <ele>78.907066345215</ele>
        <time>2012-01-14T08:38:16Z</time>
      </trkpt>
      <trkpt lat="43.60712" lon="6.89513">
        <ele>82.941467285156</ele>
        <time>2012-01-14T08:38:23Z</time>
      </trkpt>
      <trkpt lat="43.60711" lon="6.89492">
        <ele>85.583084106445</ele>
        <time>2012-01-14T08:38:30Z</time>
      </trkpt>
      <trkpt lat="43.6071" lon="6.89487">
        <ele>85.949043273926</ele>
        <time>2012-01-14T08:38:32Z</time>
      </trkpt>
      <trkpt lat="43.60707" lon="6.89469">
        <ele>87.489723205566</ele>
        <time>2012-01-14T08:38:39Z</time>
      </trkpt>
      <trkpt lat="43.60699" lon="6.89453">
        <ele>90.33667755127</ele>
        <time>2012-01-14T08:38:46Z</time>
      </trkpt>
      <trkpt lat="43.60699" lon="6.89451">
        <ele>90.630447387695</ele>
        <time>2012-01-14T08:38:47Z</time>
      </trkpt>
      <trkpt lat="43.60695" lon="6.89449">
        <ele>91.903915405273</ele>
        <time>2012-01-14T08:38:53Z</time>
      </trkpt>
      <trkpt lat="43.60693" lon="6.89447">
        <ele>92.888313293457</ele>
        <time>2012-01-14T08:39:05Z</time>
      </trkpt>
      <trkpt lat="43.60693" lon="6.89446">
        <ele>92.890274047852</ele>
        <time>2012-01-14T08:39:19Z</time>
      </trkpt>
      <trkpt lat="43.60691" lon="6.89446">
        <ele>93.307655334473</ele>
        <time>2012-01-14T08:39:26Z</time>
      </trkpt>
      <trkpt lat="43.60693" lon="6.89451">
        <ele>92.876976013184</ele>
        <time>2012-01-14T08:39:31Z</time>
      </trkpt>
      <trkpt lat="43.60702" lon="6.89474">
        <ele>89.173110961914</ele>
        <time>2012-01-14T08:39:36Z</time>
      </trkpt>
      <trkpt lat="43.60711" lon="6.89506">
        <ele>84.405548095703</ele>
        <time>2012-01-14T08:39:39Z</time>
      </trkpt>
      <trkpt lat="43.60713" lon="6.89518">
        <ele>81.713577270508</ele>
        <time>2012-01-14T08:39:40Z</time>
      </trkpt>
      <trkpt lat="43.60705" lon="6.89563">
        <ele>77.677207946777</ele>
        <time>2012-01-14T08:39:44Z</time>
      </trkpt>
      <trkpt lat="43.60698" lon="6.89568">
        <ele>79.321449279785</ele>
        <time>2012-01-14T08:39:46Z</time>
      </trkpt>
      <trkpt lat="43.60695" lon="6.89569">
        <ele>80.445274353027</ele>
        <time>2012-01-14T08:39:47Z</time>
      </trkpt>
      <trkpt lat="43.60695" lon="6.89571">
        <ele>80.317611694336</ele>
        <time>2012-01-14T08:39:48Z</time>
      </trkpt>
      <trkpt lat="43.60699" lon="6.89579">
        <ele>77.057647705078</ele>
        <time>2012-01-14T08:39:51Z</time>
      </trkpt>
      <trkpt lat="43.60711" lon="6.89576">
        <ele>73.312088012695</ele>
        <time>2012-01-14T08:39:55Z</time>
      </trkpt>
      <trkpt lat="43.6073" lon="6.89548">
        <ele>70.4169921875</ele>
        <time>2012-01-14T08:40:02Z</time>
      </trkpt>
      <trkpt lat="43.60739" lon="6.89525">
        <ele>70.425704956055</ele>
        <time>2012-01-14T08:40:07Z</time>
      </trkpt>
      <trkpt lat="43.60745" lon="6.89494">
        <ele>72.081962585449</ele>
        <time>2012-01-14T08:40:13Z</time>
      </trkpt>
      <trkpt lat="43.60747" lon="6.89461">
        <ele>72.471733093262</ele>
        <time>2012-01-14T08:40:20Z</time>
      </trkpt>
      <trkpt lat="43.60743" lon="6.89436">
        <ele>74.68627166748</ele>
        <time>2012-01-14T08:40:26Z</time>
      </trkpt>
      <trkpt lat="43.6074" lon="6.89414">
        <ele>76.313301086426</ele>
        <time>2012-01-14T08:40:32Z</time>
      </trkpt>
      <trkpt lat="43.6073" lon="6.89393">
        <ele>76.759666442871</ele>
        <time>2012-01-14T08:40:39Z</time>
      </trkpt>
      <trkpt lat="43.60719" lon="6.89372">
        <ele>77.427574157715</ele>
        <time>2012-01-14T08:40:46Z</time>
      </trkpt>
      <trkpt lat="43.60712" lon="6.89357">
        <ele>77.523658752441</ele>
        <time>2012-01-14T08:40:52Z</time>
      </trkpt>
      <trkpt lat="43.60703" lon="6.89336">
        <ele>77.039398193359</ele>
        <time>2012-01-14T08:40:59Z</time>
      </trkpt>
      <trkpt lat="43.60699" lon="6.89312">
        <ele>75.640342712402</ele>
        <time>2012-01-14T08:41:06Z</time>
      </trkpt>
      <trkpt lat="43.60696" lon="6.8929">
        <ele>74.167259216309</ele>
        <time>2012-01-14T08:41:13Z</time>
      </trkpt>
      <trkpt lat="43.60686" lon="6.89271">
        <ele>74.665267944336</ele>
        <time>2012-01-14T08:41:19Z</time>
      </trkpt>
      <trkpt lat="43.60667" lon="6.89253">
        <ele>78.212303161621</ele>
        <time>2012-01-14T08:41:25Z</time>
      </trkpt>
      <trkpt lat="43.60645" lon="6.89232">
        <ele>85.80574798584</ele>
        <time>2012-01-14T08:41:31Z</time>
      </trkpt>
      <trkpt lat="43.60641" lon="6.89229">
        <ele>87.064422607422</ele>
        <time>2012-01-14T08:41:32Z</time>
      </trkpt>
      <trkpt lat="43.60635" lon="6.89215">
        <ele>90.11792755127</ele>
        <time>2012-01-14T08:41:36Z</time>
      </trkpt>
      <trkpt lat="43.60645" lon="6.89215">
        <ele>86.89720916748</ele>
        <time>2012-01-14T08:41:39Z</time>
      </trkpt>
      <trkpt lat="43.60649" lon="6.89219">
        <ele>85.299346923828</ele>
        <time>2012-01-14T08:41:42Z</time>
      </trkpt>
      <trkpt lat="43.60647" lon="6.89218">
        <ele>85.974189758301</ele>
        <time>2012-01-14T08:41:56Z</time>
      </trkpt>
      <trkpt lat="43.60646" lon="6.89212">
        <ele>86.711395263672</ele>
        <time>2012-01-14T08:42:11Z</time>
      </trkpt>
      <trkpt lat="43.60655" lon="6.89211">
        <ele>83.627960205078</ele>
        <time>2012-01-14T08:42:16Z</time>
      </trkpt>
      <trkpt lat="43.60664" lon="6.89212">
        <ele>80.83650970459</ele>
        <time>2012-01-14T08:42:19Z</time>
      </trkpt>
      <trkpt lat="43.60672" lon="6.89209">
        <ele>78.095634460449</ele>
        <time>2012-01-14T08:42:22Z</time>
      </trkpt>
      <trkpt lat="43.60682" lon="6.89206">
        <ele>75.06029510498</ele>
        <time>2012-01-14T08:42:25Z</time>
      </trkpt>
      <trkpt lat="43.60694" lon="6.89193">
        <ele>71.372970581055</ele>
        <time>2012-01-14T08:42:29Z</time>
      </trkpt>
      <trkpt lat="43.60696" lon="6.8917">
        <ele>71.019515991211</ele>
        <time>2012-01-14T08:42:34Z</time>
      </trkpt>
      <trkpt lat="43.6069" lon="6.89144">
        <ele>72.421585083008</ele>
        <time>2012-01-14T08:42:40Z</time>
      </trkpt>
      <trkpt lat="43.6069" lon="6.89121">
        <ele>71.330619812012</ele>
        <time>2012-01-14T08:42:45Z</time>
      </trkpt>
      <trkpt lat="43.60682" lon="6.89092">
        <ele>73.55054473877</ele>
        <time>2012-01-14T08:42:52Z</time>
      </trkpt>
      <trkpt lat="43.60672" lon="6.89058">
        <ele>72.029479980469</ele>
        <time>2012-01-14T08:43:00Z</time>
      </trkpt>
      <trkpt lat="43.60668" lon="6.89025">
        <ele>66.346282958984</ele>
        <time>2012-01-14T08:43:07Z</time>
      </trkpt>
      <trkpt lat="43.60656" lon="6.88998">
        <ele>65.125846862793</ele>
        <time>2012-01-14T08:43:12Z</time>
      </trkpt>
      <trkpt lat="43.60641" lon="6.88979">
        <ele>68.913360595703</ele>
        <time>2012-01-14T08:43:16Z</time>
      </trkpt>
      <trkpt lat="43.60618" lon="6.88966">
        <ele>78.09538269043</ele>
        <time>2012-01-14T08:43:21Z</time>
      </trkpt>
      <trkpt lat="43.60609" lon="6.88961">
        <ele>81.813568115234</ele>
        <time>2012-01-14T08:43:23Z</time>
      </trkpt>
      <trkpt lat="43.60602" lon="6.88956">
        <ele>84.768218994141</ele>
        <time>2012-01-14T08:43:27Z</time>
      </trkpt>
      <trkpt lat="43.60609" lon="6.88952">
        <ele>80.84920501709</ele>
        <time>2012-01-14T08:43:31Z</time>
      </trkpt>
      <trkpt lat="43.60621" lon="6.88948">
        <ele>74.449272155762</ele>
        <time>2012-01-14T08:43:35Z</time>
      </trkpt>
      <trkpt lat="43.60643" lon="6.88937">
        <ele>61.97350692749</ele>
        <time>2012-01-14T08:43:42Z</time>
      </trkpt>
      <trkpt lat="43.60657" lon="6.88928">
        <ele>53.092433929443</ele>
        <time>2012-01-14T08:43:47Z</time>
      </trkpt>
      <trkpt lat="43.60675" lon="6.88921">
        <ele>44.963356018066</ele>
        <time>2012-01-14T08:43:53Z</time>
      </trkpt>
      <trkpt lat="43.60701" lon="6.88922">
        <ele>39.191711425781</ele>
        <time>2012-01-14T08:44:00Z</time>
      </trkpt>
      <trkpt lat="43.60704" lon="6.88922">
        <ele>38.50594329834</ele>
        <time>2012-01-14T08:44:01Z</time>
      </trkpt>
      <trkpt lat="43.60712" lon="6.8891">
        <ele>35.734443664551</ele>
        <time>2012-01-14T08:44:06Z</time>
      </trkpt>
      <trkpt lat="43.60714" lon="6.88905">
        <ele>35.153678894043</ele>
        <time>2012-01-14T08:44:09Z</time>
      </trkpt>
      <trkpt lat="43.60714" lon="6.88893">
        <ele>34.418842315674</ele>
        <time>2012-01-14T08:44:14Z</time>
      </trkpt>
      <trkpt lat="43.60714" lon="6.8889">
        <ele>34.288772583008</ele>
        <time>2012-01-14T08:44:15Z</time>
      </trkpt>
      <trkpt lat="43.60709" lon="6.88875">
        <ele>34.192462921143</ele>
        <time>2012-01-14T08:44:19Z</time>
      </trkpt>
      <trkpt lat="43.60694" lon="6.88857">
        <ele>34.609184265137</ele>
        <time>2012-01-14T08:44:24Z</time>
      </trkpt>
      <trkpt lat="43.60681" lon="6.88836">
        <ele>33.442821502686</ele>
        <time>2012-01-14T08:44:28Z</time>
      </trkpt>
      <trkpt lat="43.60678" lon="6.8883">
        <ele>33.242225646973</ele>
        <time>2012-01-14T08:44:29Z</time>
      </trkpt>
      <trkpt lat="43.60668" lon="6.8881">
        <ele>33.115013122559</ele>
        <time>2012-01-14T08:44:32Z</time>
      </trkpt>
      <trkpt lat="43.60656" lon="6.88786">
        <ele>38.197967529297</ele>
        <time>2012-01-14T08:44:36Z</time>
      </trkpt>
      <trkpt lat="43.60651" lon="6.88761">
        <ele>38.646335601807</ele>
        <time>2012-01-14T08:44:40Z</time>
      </trkpt>
      <trkpt lat="43.60649" lon="6.88738">
        <ele>37.52379989624</ele>
        <time>2012-01-14T08:44:43Z</time>
      </trkpt>
      <trkpt lat="43.60645" lon="6.88706">
        <ele>36.446537017822</ele>
        <time>2012-01-14T08:44:47Z</time>
      </trkpt>
      <trkpt lat="43.60633" lon="6.88688">
        <ele>37.266376495361</ele>
        <time>2012-01-14T08:44:50Z</time>
      </trkpt>
      <trkpt lat="43.60627" lon="6.8866">
        <ele>34.98872756958</ele>
        <time>2012-01-14T08:44:55Z</time>
      </trkpt>
      <trkpt lat="43.60627" lon="6.88651">
        <ele>34.636135101318</ele>
        <time>2012-01-14T08:44:58Z</time>
      </trkpt>
      <trkpt lat="43.60628" lon="6.88641">
        <ele>34.0983543396</ele>
        <time>2012-01-14T08:45:03Z</time>
      </trkpt>
      <trkpt lat="43.6063" lon="6.88637">
        <ele>33.735294342041</ele>
        <time>2012-01-14T08:45:12Z</time>
      </trkpt>
      <trkpt lat="43.60625" lon="6.88619">
        <ele>33.447425842285</ele>
        <time>2012-01-14T08:45:18Z</time>
      </trkpt>
      <trkpt lat="43.60614" lon="6.8859">
        <ele>32.883018493652</ele>
        <time>2012-01-14T08:45:24Z</time>
      </trkpt>
      <trkpt lat="43.60606" lon="6.88571">
        <ele>32.732246398926</ele>
        <time>2012-01-14T08:45:28Z</time>
      </trkpt>
      <trkpt lat="43.60586" lon="6.8856">
        <ele>33.337120056152</ele>
        <time>2012-01-14T08:45:33Z</time>
      </trkpt>
      <trkpt lat="43.60575" lon="6.88561">
        <ele>34.647617340088</ele>
        <time>2012-01-14T08:45:36Z</time>
      </trkpt>
      <trkpt lat="43.60556" lon="6.88564">
        <ele>37.252670288086</ele>
        <time>2012-01-14T08:45:43Z</time>
      </trkpt>
      <trkpt lat="43.60542" lon="6.88566">
        <ele>39.345397949219</ele>
        <time>2012-01-14T08:45:49Z</time>
      </trkpt>
      <trkpt lat="43.60531" lon="6.8857">
        <ele>40.970001220703</ele>
        <time>2012-01-14T08:45:53Z</time>
      </trkpt>
      <trkpt lat="43.60523" lon="6.88575">
        <ele>42.293014526367</ele>
        <time>2012-01-14T08:45:56Z</time>
      </trkpt>
      <trkpt lat="43.60509" lon="6.88584">
        <ele>45.026912689209</ele>
        <time>2012-01-14T08:46:02Z</time>
      </trkpt>
      <trkpt lat="43.60499" lon="6.8859">
        <ele>48.431880950928</ele>
        <time>2012-01-14T08:46:07Z</time>
      </trkpt>
      <trkpt lat="43.60492" lon="6.88595">
        <ele>50.887638092041</ele>
        <time>2012-01-14T08:46:10Z</time>
      </trkpt>
      <trkpt lat="43.60491" lon="6.88596">
        <ele>51.32133102417</ele>
        <time>2012-01-14T08:46:11Z</time>
      </trkpt>
      <trkpt lat="43.60483" lon="6.88602">
        <ele>54.564323425293</ele>
        <time>2012-01-14T08:46:16Z</time>
      </trkpt>
      <trkpt lat="43.6048" lon="6.88603">
        <ele>55.253314971924</ele>
        <time>2012-01-14T08:46:21Z</time>
      </trkpt>
      <trkpt lat="43.60477" lon="6.88607">
        <ele>56.827907562256</ele>
        <time>2012-01-14T08:46:25Z</time>
      </trkpt>
      <trkpt lat="43.60472" lon="6.88604">
        <ele>56.722545623779</ele>
        <time>2012-01-14T08:46:48Z</time>
      </trkpt>
      <trkpt lat="43.60471" lon="6.88604">
        <ele>56.760845184326</ele>
        <time>2012-01-14T08:46:53Z</time>
      </trkpt>
      <trkpt lat="43.60472" lon="6.88604">
        <ele>56.512680053711</ele>
        <time>2012-01-14T08:46:58Z</time>
      </trkpt>
      <trkpt lat="43.60472" lon="6.88604">
        <ele>56.608268737793</ele>
        <time>2012-01-14T08:47:02Z</time>
      </trkpt>
      <trkpt lat="43.60469" lon="6.88604">
        <ele>56.782512664795</ele>
        <time>2012-01-14T08:47:05Z</time>
      </trkpt>
      <trkpt lat="43.6047" lon="6.88603">
        <ele>56.47395324707</ele>
        <time>2012-01-14T08:47:09Z</time>
      </trkpt>
      <trkpt lat="43.60471" lon="6.88602">
        <ele>56.12565612793</ele>
        <time>2012-01-14T08:47:13Z</time>
      </trkpt>
      <trkpt lat="43.60471" lon="6.88602">
        <ele>56.12565612793</ele>
        <time>2012-01-14T08:47:14Z</time>
      </trkpt>
      <trkpt lat="43.60472" lon="6.88601">
        <ele>55.665481567383</ele>
        <time>2012-01-14T08:47:22Z</time>
      </trkpt>
      <trkpt lat="43.60472" lon="6.88601">
        <ele>55.65119934082</ele>
        <time>2012-01-14T08:47:24Z</time>
      </trkpt>
      <trkpt lat="43.60472" lon="6.88601">
        <ele>55.622631072998</ele>
        <time>2012-01-14T08:47:25Z</time>
      </trkpt>
      <trkpt lat="43.60472" lon="6.886">
        <ele>55.4401512146</ele>
        <time>2012-01-14T08:47:30Z</time>
      </trkpt>
      <trkpt lat="43.60473" lon="6.886">
        <ele>55.26065826416</ele>
        <time>2012-01-14T08:47:43Z</time>
      </trkpt>
      <trkpt lat="43.60472" lon="6.88613">
        <ele>59.165679931641</ele>
        <time>2012-01-14T08:47:50Z</time>
      </trkpt>
      <trkpt lat="43.60473" lon="6.88619">
        <ele>61.079368591309</ele>
        <time>2012-01-14T08:47:54Z</time>
      </trkpt>
      <trkpt lat="43.60473" lon="6.88626">
        <ele>63.057155609131</ele>
        <time>2012-01-14T08:47:58Z</time>
      </trkpt>
      <trkpt lat="43.60469" lon="6.88629">
        <ele>64.402732849121</ele>
        <time>2012-01-14T08:48:05Z</time>
      </trkpt>
      <trkpt lat="43.60464" lon="6.88631">
        <ele>65.427597045898</ele>
        <time>2012-01-14T08:48:11Z</time>
      </trkpt>
      <trkpt lat="43.60461" lon="6.88635">
        <ele>67.055931091309</ele>
        <time>2012-01-14T08:48:17Z</time>
      </trkpt>
      <trkpt lat="43.60453" lon="6.88638">
        <ele>68.961151123047</ele>
        <time>2012-01-14T08:48:27Z</time>
      </trkpt>
      <trkpt lat="43.60444" lon="6.88645">
        <ele>71.805389404297</ele>
        <time>2012-01-14T08:48:32Z</time>
      </trkpt>
      <trkpt lat="43.60436" lon="6.88653">
        <ele>74.741905212402</ele>
        <time>2012-01-14T08:48:36Z</time>
      </trkpt>
      <trkpt lat="43.60427" lon="6.88665">
        <ele>78.783386230469</ele>
        <time>2012-01-14T08:48:41Z</time>
      </trkpt>
      <trkpt lat="43.60423" lon="6.88672">
        <ele>81.599151611328</ele>
        <time>2012-01-14T08:48:44Z</time>
      </trkpt>
      <trkpt lat="43.60418" lon="6.8867">
        <ele>81.124526977539</ele>
        <time>2012-01-14T08:48:47Z</time>
      </trkpt>
      <trkpt lat="43.60412" lon="6.8866">
        <ele>78.437507629395</ele>
        <time>2012-01-14T08:48:52Z</time>
      </trkpt>
      <trkpt lat="43.60404" lon="6.88643">
        <ele>74.523559570312</ele>
        <time>2012-01-14T08:48:59Z</time>
      </trkpt>
      <trkpt lat="43.60397" lon="6.88637">
        <ele>73.527893066406</ele>
        <time>2012-01-14T08:49:03Z</time>
      </trkpt>
      <trkpt lat="43.60383" lon="6.8863">
        <ele>72.779975891113</ele>
        <time>2012-01-14T08:49:10Z</time>
      </trkpt>
      <trkpt lat="43.60379" lon="6.88629">
        <ele>72.850975036621</ele>
        <time>2012-01-14T08:49:12Z</time>
      </trkpt>
      <trkpt lat="43.60367" lon="6.88638">
        <ele>74.942649841309</ele>
        <time>2012-01-14T08:49:18Z</time>
      </trkpt>
      <trkpt lat="43.60364" lon="6.88641">
        <ele>75.662498474121</ele>
        <time>2012-01-14T08:49:20Z</time>
      </trkpt>
      <trkpt lat="43.60354" lon="6.88657">
        <ele>78.590919494629</ele>
        <time>2012-01-14T08:49:27Z</time>
      </trkpt>
      <trkpt lat="43.60347" lon="6.8867">
        <ele>81.15111541748</ele>
        <time>2012-01-14T08:49:32Z</time>
      </trkpt>
      <trkpt lat="43.60337" lon="6.88684">
        <ele>86.432525634766</ele>
        <time>2012-01-14T08:49:39Z</time>
      </trkpt>
      <trkpt lat="43.60336" lon="6.88687">
        <ele>87.429206848145</ele>
        <time>2012-01-14T08:49:40Z</time>
      </trkpt>
      <trkpt lat="43.60333" lon="6.88691">
        <ele>88.692886352539</ele>
        <time>2012-01-14T08:49:44Z</time>
      </trkpt>
      <trkpt lat="43.60333" lon="6.88693">
        <ele>89.482528686523</ele>
        <time>2012-01-14T08:49:54Z</time>
      </trkpt>
      <trkpt lat="43.60333" lon="6.88691">
        <ele>88.933212280273</ele>
        <time>2012-01-14T08:49:58Z</time>
      </trkpt>
      <trkpt lat="43.60336" lon="6.88689">
        <ele>87.935195922852</ele>
        <time>2012-01-14T08:50:06Z</time>
      </trkpt>
      <trkpt lat="43.60333" lon="6.88681">
        <ele>84.998733520508</ele>
        <time>2012-01-14T08:50:13Z</time>
      </trkpt>
      <trkpt lat="43.60332" lon="6.88677">
        <ele>83.845169067383</ele>
        <time>2012-01-14T08:50:19Z</time>
      </trkpt>
      <trkpt lat="43.60332" lon="6.88681">
        <ele>85.163528442383</ele>
        <time>2012-01-14T08:50:34Z</time>
      </trkpt>
      <trkpt lat="43.6033" lon="6.88675">
        <ele>83.189422607422</ele>
        <time>2012-01-14T08:50:38Z</time>
      </trkpt>
      <trkpt lat="43.60326" lon="6.88668">
        <ele>80.693466186523</ele>
        <time>2012-01-14T08:50:42Z</time>
      </trkpt>
      <trkpt lat="43.60323" lon="6.88664">
        <ele>80.052337646484</ele>
        <time>2012-01-14T08:50:44Z</time>
      </trkpt>
      <trkpt lat="43.60323" lon="6.88662">
        <ele>79.849662780762</ele>
        <time>2012-01-14T08:50:45Z</time>
      </trkpt>
      <trkpt lat="43.60322" lon="6.88657">
        <ele>79.331390380859</ele>
        <time>2012-01-14T08:50:47Z</time>
      </trkpt>
      <trkpt lat="43.60317" lon="6.88644">
        <ele>78.058258056641</ele>
        <time>2012-01-14T08:50:53Z</time>
      </trkpt>
      <trkpt lat="43.60316" lon="6.88642">
        <ele>77.886741638184</ele>
        <time>2012-01-14T08:50:54Z</time>
      </trkpt>
      <trkpt lat="43.60303" lon="6.88629">
        <ele>77.115898132324</ele>
        <time>2012-01-14T08:51:01Z</time>
      </trkpt>
      <trkpt lat="43.603" lon="6.88625">
        <ele>76.807281494141</ele>
        <time>2012-01-14T08:51:03Z</time>
      </trkpt>
      <trkpt lat="43.60292" lon="6.88612">
        <ele>75.886360168457</ele>
        <time>2012-01-14T08:51:08Z</time>
      </trkpt>
      <trkpt lat="43.60275" lon="6.88594">
        <ele>75.153076171875</ele>
        <time>2012-01-14T08:51:15Z</time>
      </trkpt>
      <trkpt lat="43.60269" lon="6.88588">
        <ele>75.077392578125</ele>
        <time>2012-01-14T08:51:18Z</time>
      </trkpt>
      <trkpt lat="43.60263" lon="6.88586">
        <ele>75.333877563477</ele>
        <time>2012-01-14T08:51:21Z</time>
      </trkpt>
      <trkpt lat="43.60251" lon="6.88594">
        <ele>76.797218322754</ele>
        <time>2012-01-14T08:51:27Z</time>
      </trkpt>
      <trkpt lat="43.60247" lon="6.88599">
        <ele>77.41300201416</ele>
        <time>2012-01-14T08:51:30Z</time>
      </trkpt>
      <trkpt lat="43.60242" lon="6.88602">
        <ele>77.953269958496</ele>
        <time>2012-01-14T08:51:33Z</time>
      </trkpt>
      <trkpt lat="43.60237" lon="6.88601">
        <ele>78.180648803711</ele>
        <time>2012-01-14T08:51:38Z</time>
      </trkpt>
      <trkpt lat="43.60223" lon="6.88598">
        <ele>78.428451538086</ele>
        <time>2012-01-14T08:51:45Z</time>
      </trkpt>
      <trkpt lat="43.60207" lon="6.88595">
        <ele>78.790046691895</ele>
        <time>2012-01-14T08:51:52Z</time>
      </trkpt>
      <trkpt lat="43.60192" lon="6.88603">
        <ele>80.660255432129</ele>
        <time>2012-01-14T08:51:59Z</time>
      </trkpt>
      <trkpt lat="43.60177" lon="6.88605">
        <ele>81.880218505859</ele>
        <time>2012-01-14T08:52:06Z</time>
      </trkpt>
      <trkpt lat="43.60173" lon="6.88605">
        <ele>82.010078430176</ele>
        <time>2012-01-14T08:52:08Z</time>
      </trkpt>
      <trkpt lat="43.60155" lon="6.88588">
        <ele>80.19490814209</ele>
        <time>2012-01-14T08:52:16Z</time>
      </trkpt>
      <trkpt lat="43.60143" lon="6.88582">
        <ele>81.038688659668</ele>
        <time>2012-01-14T08:52:21Z</time>
      </trkpt>
      <trkpt lat="43.60131" lon="6.88585">
        <ele>82.46720123291</ele>
        <time>2012-01-14T08:52:25Z</time>
      </trkpt>
      <trkpt lat="43.60128" lon="6.88585">
        <ele>82.849601745605</ele>
        <time>2012-01-14T08:52:26Z</time>
      </trkpt>
      <trkpt lat="43.60119" lon="6.8858">
        <ele>84.038589477539</ele>
        <time>2012-01-14T08:52:31Z</time>
      </trkpt>
      <trkpt lat="43.60113" lon="6.88582">
        <ele>84.553489685059</ele>
        <time>2012-01-14T08:52:34Z</time>
      </trkpt>
      <trkpt lat="43.60099" lon="6.88582">
        <ele>86.177177429199</ele>
        <time>2012-01-14T08:52:40Z</time>
      </trkpt>
      <trkpt lat="43.60096" lon="6.88581">
        <ele>86.71265411377</ele>
        <time>2012-01-14T08:52:42Z</time>
      </trkpt>
      <trkpt lat="43.60097" lon="6.8858">
        <ele>86.659324645996</ele>
        <time>2012-01-14T08:52:47Z</time>
      </trkpt>
      <trkpt lat="43.60101" lon="6.88582">
        <ele>85.912261962891</ele>
        <time>2012-01-14T08:52:51Z</time>
      </trkpt>
      <trkpt lat="43.60103" lon="6.88582">
        <ele>85.746887207031</ele>
        <time>2012-01-14T08:52:53Z</time>
      </trkpt>
      <trkpt lat="43.60106" lon="6.88582">
        <ele>85.428512573242</ele>
        <time>2012-01-14T08:52:55Z</time>
      </trkpt>
      <trkpt lat="43.60107" lon="6.88582">
        <ele>85.299072265625</ele>
        <time>2012-01-14T08:52:56Z</time>
      </trkpt>
      <trkpt lat="43.60114" lon="6.8858">
        <ele>84.646865844727</ele>
        <time>2012-01-14T08:53:01Z</time>
      </trkpt>
      <trkpt lat="43.60118" lon="6.88578">
        <ele>84.327018737793</ele>
        <time>2012-01-14T08:53:04Z</time>
      </trkpt>
      <trkpt lat="43.60127" lon="6.88574">
        <ele>83.533241271973</ele>
        <time>2012-01-14T08:53:10Z</time>
      </trkpt>
      <trkpt lat="43.60137" lon="6.88568">
        <ele>82.91877746582</ele>
        <time>2012-01-14T08:53:15Z</time>
      </trkpt>
      <trkpt lat="43.60144" lon="6.88559">
        <ele>82.84423828125</ele>
        <time>2012-01-14T08:53:20Z</time>
      </trkpt>
      <trkpt lat="43.60148" lon="6.88554">
        <ele>82.883865356445</ele>
        <time>2012-01-14T08:53:24Z</time>
      </trkpt>
      <trkpt lat="43.60156" lon="6.88544">
        <ele>82.981643676758</ele>
        <time>2012-01-14T08:53:29Z</time>
      </trkpt>
      <trkpt lat="43.6016" lon="6.88536">
        <ele>83.234840393066</ele>
        <time>2012-01-14T08:53:34Z</time>
      </trkpt>
      <trkpt lat="43.60164" lon="6.88526">
        <ele>83.818687438965</ele>
        <time>2012-01-14T08:53:57Z</time>
      </trkpt>
      <trkpt lat="43.60165" lon="6.88525">
        <ele>83.844436645508</ele>
        <time>2012-01-14T08:54:01Z</time>
      </trkpt>
      <trkpt lat="43.60167" lon="6.88523">
        <ele>83.830841064453</ele>
        <time>2012-01-14T08:54:05Z</time>
      </trkpt>
      <trkpt lat="43.60166" lon="6.88517">
        <ele>84.452377319336</ele>
        <time>2012-01-14T08:54:08Z</time>
      </trkpt>
      <trkpt lat="43.60163" lon="6.88497">
        <ele>87.006820678711</ele>
        <time>2012-01-14T08:54:16Z</time>
      </trkpt>
      <trkpt lat="43.60162" lon="6.8849">
        <ele>88.696403503418</ele>
        <time>2012-01-14T08:54:19Z</time>
      </trkpt>
      <trkpt lat="43.60158" lon="6.88475">
        <ele>92.7978515625</ele>
        <time>2012-01-14T08:54:26Z</time>
      </trkpt>
      <trkpt lat="43.60154" lon="6.88455">
        <ele>97.721481323242</ele>
        <time>2012-01-14T08:54:33Z</time>
      </trkpt>
      <trkpt lat="43.60146" lon="6.88443">
        <ele>100.93341827393</ele>
        <time>2012-01-14T08:54:38Z</time>
      </trkpt>
      <trkpt lat="43.60137" lon="6.88433">
        <ele>103.69318389893</ele>
        <time>2012-01-14T08:54:44Z</time>
      </trkpt>
      <trkpt lat="43.60127" lon="6.8842">
        <ele>107.11336517334</ele>
        <time>2012-01-14T08:54:50Z</time>
      </trkpt>
      <trkpt lat="43.60118" lon="6.88409">
        <ele>111.12810516357</ele>
        <time>2012-01-14T08:54:55Z</time>
      </trkpt>
      <trkpt lat="43.60113" lon="6.88404">
        <ele>113.29872894287</ele>
        <time>2012-01-14T08:54:58Z</time>
      </trkpt>
      <trkpt lat="43.60111" lon="6.88403">
        <ele>113.76879882812</ele>
        <time>2012-01-14T08:55:00Z</time>
      </trkpt>
      <trkpt lat="43.60103" lon="6.88402">
        <ele>114.90145111084</ele>
        <time>2012-01-14T08:55:05Z</time>
      </trkpt>
      <trkpt lat="43.60105" lon="6.88402">
        <ele>114.4655380249</ele>
        <time>2012-01-14T08:55:08Z</time>
      </trkpt>
      <trkpt lat="43.60109" lon="6.88403">
        <ele>114.03646850586</ele>
        <time>2012-01-14T08:55:14Z</time>
      </trkpt>
      <trkpt lat="43.60109" lon="6.88425">
        <ele>107.09385681152</ele>
        <time>2012-01-14T08:55:29Z</time>
      </trkpt>
      <trkpt lat="43.60107" lon="6.8843">
        <ele>106.06452178955</ele>
        <time>2012-01-14T08:55:36Z</time>
      </trkpt>
      <trkpt lat="43.60107" lon="6.88431">
        <ele>105.94054412842</ele>
        <time>2012-01-14T08:55:42Z</time>
      </trkpt>
      <trkpt lat="43.60112" lon="6.88422">
        <ele>107.53881072998</ele>
        <time>2012-01-14T08:55:48Z</time>
      </trkpt>
      <trkpt lat="43.6012" lon="6.88418">
        <ele>107.92337799072</ele>
        <time>2012-01-14T08:55:55Z</time>
      </trkpt>
      <trkpt lat="43.60128" lon="6.88415">
        <ele>108.48110961914</ele>
        <time>2012-01-14T08:56:01Z</time>
      </trkpt>
      <trkpt lat="43.60138" lon="6.88415">
        <ele>107.85570526123</ele>
        <time>2012-01-14T08:56:08Z</time>
      </trkpt>
      <trkpt lat="43.60149" lon="6.88416">
        <ele>107.10897827148</ele>
        <time>2012-01-14T08:56:14Z</time>
      </trkpt>
      <trkpt lat="43.60158" lon="6.88418">
        <ele>106.04852294922</ele>
        <time>2012-01-14T08:56:20Z</time>
      </trkpt>
      <trkpt lat="43.60161" lon="6.88419">
        <ele>105.82772064209</ele>
        <time>2012-01-14T08:56:22Z</time>
      </trkpt>
      <trkpt lat="43.60171" lon="6.88425">
        <ele>104.08892822266</ele>
        <time>2012-01-14T08:56:30Z</time>
      </trkpt>
      <trkpt lat="43.60179" lon="6.88433">
        <ele>102.53455352783</ele>
        <time>2012-01-14T08:56:36Z</time>
      </trkpt>
      <trkpt lat="43.60189" lon="6.8844">
        <ele>100.94404602051</ele>
        <time>2012-01-14T08:56:43Z</time>
      </trkpt>
      <trkpt lat="43.60197" lon="6.88447">
        <ele>99.25382232666</ele>
        <time>2012-01-14T08:56:49Z</time>
      </trkpt>
      <trkpt lat="43.60209" lon="6.88448">
        <ele>99.371047973633</ele>
        <time>2012-01-14T08:56:55Z</time>
      </trkpt>
      <trkpt lat="43.6022" lon="6.88446">
        <ele>100.01017761231</ele>
        <time>2012-01-14T08:57:01Z</time>
      </trkpt>
      <trkpt lat="43.60227" lon="6.88443">
        <ele>101.07405090332</ele>
        <time>2012-01-14T08:57:06Z</time>
      </trkpt>
      <trkpt lat="43.60238" lon="6.88449">
        <ele>99.557510375977</ele>
        <time>2012-01-14T08:57:12Z</time>
      </trkpt>
      <trkpt lat="43.60247" lon="6.88455">
        <ele>97.965339660645</ele>
        <time>2012-01-14T08:57:18Z</time>
      </trkpt>
      <trkpt lat="43.60248" lon="6.88455">
        <ele>97.885681152344</ele>
        <time>2012-01-14T08:57:19Z</time>
      </trkpt>
      <trkpt lat="43.6025" lon="6.88458">
        <ele>96.950927734375</ele>
        <time>2012-01-14T08:57:26Z</time>
      </trkpt>
      <trkpt lat="43.60257" lon="6.8845">
        <ele>98.977531433105</ele>
        <time>2012-01-14T08:57:34Z</time>
      </trkpt>
      <trkpt lat="43.60263" lon="6.88442">
        <ele>101.20363616943</ele>
        <time>2012-01-14T08:57:40Z</time>
      </trkpt>
      <trkpt lat="43.60266" lon="6.88444">
        <ele>100.55530548096</ele>
        <time>2012-01-14T08:57:44Z</time>
      </trkpt>
      <trkpt lat="43.60275" lon="6.88447">
        <ele>99.315383911133</ele>
        <time>2012-01-14T08:57:50Z</time>
      </trkpt>
      <trkpt lat="43.60284" lon="6.88449">
        <ele>98.316017150879</ele>
        <time>2012-01-14T08:57:55Z</time>
      </trkpt>
      <trkpt lat="43.60295" lon="6.88452">
        <ele>97.09391784668</ele>
        <time>2012-01-14T08:58:02Z</time>
      </trkpt>
      <trkpt lat="43.603" lon="6.88453">
        <ele>96.372901916504</ele>
        <time>2012-01-14T08:58:05Z</time>
      </trkpt>
      <trkpt lat="43.60305" lon="6.88456">
        <ele>95.305755615234</ele>
        <time>2012-01-14T08:58:09Z</time>
      </trkpt>
      <trkpt lat="43.60318" lon="6.8846">
        <ele>93.574058532715</ele>
        <time>2012-01-14T08:58:16Z</time>
      </trkpt>
      <trkpt lat="43.60321" lon="6.88462">
        <ele>92.88850402832</ele>
        <time>2012-01-14T08:58:18Z</time>
      </trkpt>
      <trkpt lat="43.60337" lon="6.8847">
        <ele>89.343963623047</ele>
        <time>2012-01-14T08:58:26Z</time>
      </trkpt>
      <trkpt lat="43.60347" lon="6.88472">
        <ele>85.979400634766</ele>
        <time>2012-01-14T08:58:32Z</time>
      </trkpt>
      <trkpt lat="43.60357" lon="6.88466">
        <ele>85.372863769531</ele>
        <time>2012-01-14T08:58:38Z</time>
      </trkpt>
      <trkpt lat="43.60366" lon="6.88456">
        <ele>86.405693054199</ele>
        <time>2012-01-14T08:58:44Z</time>
      </trkpt>
      <trkpt lat="43.60372" lon="6.88445">
        <ele>88.288246154785</ele>
        <time>2012-01-14T08:58:49Z</time>
      </trkpt>
      <trkpt lat="43.60376" lon="6.88425">
        <ele>93.169151306152</ele>
        <time>2012-01-14T08:58:55Z</time>
      </trkpt>
      <trkpt lat="43.60376" lon="6.88405">
        <ele>98.038452148438</ele>
        <time>2012-01-14T08:59:02Z</time>
      </trkpt>
      <trkpt lat="43.60376" lon="6.88389">
        <ele>101.24334716797</ele>
        <time>2012-01-14T08:59:08Z</time>
      </trkpt>
      <trkpt lat="43.60372" lon="6.88373">
        <ele>105.22913360596</ele>
        <time>2012-01-14T08:59:14Z</time>
      </trkpt>
      <trkpt lat="43.60366" lon="6.8836">
        <ele>109.27280426025</ele>
        <time>2012-01-14T08:59:19Z</time>
      </trkpt>
      <trkpt lat="43.60363" lon="6.88352">
        <ele>111.97816467285</ele>
        <time>2012-01-14T08:59:22Z</time>
      </trkpt>
      <trkpt lat="43.60356" lon="6.88339">
        <ele>116.71492004394</ele>
        <time>2012-01-14T08:59:29Z</time>
      </trkpt>
      <trkpt lat="43.60351" lon="6.88332">
        <ele>119.55391693115</ele>
        <time>2012-01-14T08:59:34Z</time>
      </trkpt>
      <trkpt lat="43.60349" lon="6.88329">
        <ele>120.16975402832</ele>
        <time>2012-01-14T08:59:36Z</time>
      </trkpt>
      <trkpt lat="43.60349" lon="6.88319">
        <ele>120.10731506348</ele>
        <time>2012-01-14T08:59:42Z</time>
      </trkpt>
      <trkpt lat="43.6035" lon="6.88316">
        <ele>119.99514007568</ele>
        <time>2012-01-14T08:59:43Z</time>
      </trkpt>
      <trkpt lat="43.6035" lon="6.88301">
        <ele>120.07717132568</ele>
        <time>2012-01-14T08:59:50Z</time>
      </trkpt>
      <trkpt lat="43.60349" lon="6.88289">
        <ele>120.41719055176</ele>
        <time>2012-01-14T08:59:56Z</time>
      </trkpt>
      <trkpt lat="43.60349" lon="6.88287">
        <ele>120.42646026611</ele>
        <time>2012-01-14T08:59:57Z</time>
      </trkpt>
      <trkpt lat="43.60353" lon="6.88272">
        <ele>118.76637268066</ele>
        <time>2012-01-14T09:00:04Z</time>
      </trkpt>
      <trkpt lat="43.60356" lon="6.88256">
        <ele>117.7078704834</ele>
        <time>2012-01-14T09:00:11Z</time>
      </trkpt>
      <trkpt lat="43.60352" lon="6.88241">
        <ele>117.90402984619</ele>
        <time>2012-01-14T09:00:18Z</time>
      </trkpt>
      <trkpt lat="43.60348" lon="6.88232">
        <ele>118.1943435669</ele>
        <time>2012-01-14T09:00:22Z</time>
      </trkpt>
      <trkpt lat="43.60338" lon="6.88221">
        <ele>120.07476806641</ele>
        <time>2012-01-14T09:00:29Z</time>
      </trkpt>
      <trkpt lat="43.60328" lon="6.88214">
        <ele>122.59671783447</ele>
        <time>2012-01-14T09:00:36Z</time>
      </trkpt>
      <trkpt lat="43.60318" lon="6.88212">
        <ele>125.04951477051</ele>
        <time>2012-01-14T09:00:42Z</time>
      </trkpt>
      <trkpt lat="43.60308" lon="6.88217">
        <ele>128.60987854004</ele>
        <time>2012-01-14T09:00:48Z</time>
      </trkpt>
      <trkpt lat="43.60303" lon="6.88219">
        <ele>130.40008544922</ele>
        <time>2012-01-14T09:00:53Z</time>
      </trkpt>
      <trkpt lat="43.60294" lon="6.88221">
        <ele>133.19802856445</ele>
        <time>2012-01-14T09:00:59Z</time>
      </trkpt>
      <trkpt lat="43.60284" lon="6.88215">
        <ele>135.2823638916</ele>
        <time>2012-01-14T09:01:05Z</time>
      </trkpt>
      <trkpt lat="43.60277" lon="6.88205">
        <ele>136.09689331055</ele>
        <time>2012-01-14T09:01:11Z</time>
      </trkpt>
      <trkpt lat="43.60275" lon="6.88198">
        <ele>135.9235534668</ele>
        <time>2012-01-14T09:01:14Z</time>
      </trkpt>
      <trkpt lat="43.60266" lon="6.8819">
        <ele>137.91369628906</ele>
        <time>2012-01-14T09:01:20Z</time>
      </trkpt>
      <trkpt lat="43.60254" lon="6.88183">
        <ele>141.0164642334</ele>
        <time>2012-01-14T09:01:27Z</time>
      </trkpt>
      <trkpt lat="43.60242" lon="6.88174">
        <ele>144.19346618652</ele>
        <time>2012-01-14T09:01:34Z</time>
      </trkpt>
      <trkpt lat="43.60233" lon="6.88164">
        <ele>147.32225036621</ele>
        <time>2012-01-14T09:01:40Z</time>
      </trkpt>
      <trkpt lat="43.60221" lon="6.88151">
        <ele>151.51634216309</ele>
        <time>2012-01-14T09:01:47Z</time>
      </trkpt>
      <trkpt lat="43.60209" lon="6.88142">
        <ele>156.38760375977</ele>
        <time>2012-01-14T09:01:55Z</time>
      </trkpt>
      <trkpt lat="43.60207" lon="6.88137">
        <ele>156.88331604004</ele>
        <time>2012-01-14T09:01:58Z</time>
      </trkpt>
      <trkpt lat="43.6021" lon="6.88126">
        <ele>155.97257995606</ele>
        <time>2012-01-14T09:02:04Z</time>
      </trkpt>
      <trkpt lat="43.60211" lon="6.88125">
        <ele>155.71272277832</ele>
        <time>2012-01-14T09:02:11Z</time>
      </trkpt>
      <trkpt lat="43.60212" lon="6.88124">
        <ele>155.44262695312</ele>
        <time>2012-01-14T09:02:12Z</time>
      </trkpt>
      <trkpt lat="43.6022" lon="6.88116">
        <ele>152.49806213379</ele>
        <time>2012-01-14T09:02:18Z</time>
      </trkpt>
      <trkpt lat="43.6023" lon="6.88102">
        <ele>149.06437683106</ele>
        <time>2012-01-14T09:02:24Z</time>
      </trkpt>
      <trkpt lat="43.60238" lon="6.88093">
        <ele>146.2380065918</ele>
        <time>2012-01-14T09:02:29Z</time>
      </trkpt>
      <trkpt lat="43.60243" lon="6.88084">
        <ele>144.51307678223</ele>
        <time>2012-01-14T09:02:33Z</time>
      </trkpt>
      <trkpt lat="43.60246" lon="6.8807">
        <ele>142.79266357422</ele>
        <time>2012-01-14T09:02:38Z</time>
      </trkpt>
      <trkpt lat="43.60245" lon="6.88056">
        <ele>142.63005065918</ele>
        <time>2012-01-14T09:02:44Z</time>
      </trkpt>
      <trkpt lat="43.60241" lon="6.88045">
        <ele>143.66098022461</ele>
        <time>2012-01-14T09:02:48Z</time>
      </trkpt>
      <trkpt lat="43.60234" lon="6.88027">
        <ele>146.01371765137</ele>
        <time>2012-01-14T09:02:54Z</time>
      </trkpt>
      <trkpt lat="43.60227" lon="6.88015">
        <ele>148.54040527344</ele>
        <time>2012-01-14T09:03:00Z</time>
      </trkpt>
      <trkpt lat="43.60222" lon="6.88001">
        <ele>150.52708435059</ele>
        <time>2012-01-14T09:03:06Z</time>
      </trkpt>
      <trkpt lat="43.60216" lon="6.87992">
        <ele>151.85054016113</ele>
        <time>2012-01-14T09:03:11Z</time>
      </trkpt>
      <trkpt lat="43.60208" lon="6.87977">
        <ele>153.05345153809</ele>
        <time>2012-01-14T09:03:17Z</time>
      </trkpt>
      <trkpt lat="43.60201" lon="6.8797">
        <ele>154.99864196777</ele>
        <time>2012-01-14T09:03:22Z</time>
      </trkpt>
      <trkpt lat="43.60192" lon="6.87961">
        <ele>156.96081542969</ele>
        <time>2012-01-14T09:03:28Z</time>
      </trkpt>
      <trkpt lat="43.60182" lon="6.87948">
        <ele>158.43630981445</ele>
        <time>2012-01-14T09:03:35Z</time>
      </trkpt>
      <trkpt lat="43.60175" lon="6.87941">
        <ele>160.05661010742</ele>
        <time>2012-01-14T09:03:40Z</time>
      </trkpt>
      <trkpt lat="43.60161" lon="6.87931">
        <ele>162.86947631836</ele>
        <time>2012-01-14T09:03:47Z</time>
      </trkpt>
      <trkpt lat="43.60148" lon="6.87923">
        <ele>165.47492980957</ele>
        <time>2012-01-14T09:03:54Z</time>
      </trkpt>
      <trkpt lat="43.60138" lon="6.87918">
        <ele>167.90805053711</ele>
        <time>2012-01-14T09:04:01Z</time>
      </trkpt>
      <trkpt lat="43.60126" lon="6.87914">
        <ele>171.32902526856</ele>
        <time>2012-01-14T09:04:09Z</time>
      </trkpt>
      <trkpt lat="43.60119" lon="6.87912">
        <ele>173.56867980957</ele>
        <time>2012-01-14T09:04:14Z</time>
      </trkpt>
      <trkpt lat="43.60109" lon="6.87909">
        <ele>176.50947570801</ele>
        <time>2012-01-14T09:04:20Z</time>
      </trkpt>
      <trkpt lat="43.60107" lon="6.87908">
        <ele>177.02059936523</ele>
        <time>2012-01-14T09:04:21Z</time>
      </trkpt>
      <trkpt lat="43.60101" lon="6.87904">
        <ele>178.39555358887</ele>
        <time>2012-01-14T09:04:26Z</time>
      </trkpt>
      <trkpt lat="43.60096" lon="6.87899">
        <ele>179.49333190918</ele>
        <time>2012-01-14T09:04:30Z</time>
      </trkpt>
      <trkpt lat="43.60083" lon="6.87892">
        <ele>182.48483276367</ele>
        <time>2012-01-14T09:04:37Z</time>
      </trkpt>
      <trkpt lat="43.60074" lon="6.87885">
        <ele>184.08920288086</ele>
        <time>2012-01-14T09:04:44Z</time>
      </trkpt>
      <trkpt lat="43.60068" lon="6.87882">
        <ele>185.39404296875</ele>
        <time>2012-01-14T09:04:50Z</time>
      </trkpt>
      <trkpt lat="43.60061" lon="6.87878">
        <ele>186.68574523926</ele>
        <time>2012-01-14T09:04:56Z</time>
      </trkpt>
      <trkpt lat="43.60051" lon="6.87875">
        <ele>189.21647644043</ele>
        <time>2012-01-14T09:05:03Z</time>
      </trkpt>
      <trkpt lat="43.60046" lon="6.87873">
        <ele>190.66024780273</ele>
        <time>2012-01-14T09:05:06Z</time>
      </trkpt>
      <trkpt lat="43.60038" lon="6.87867">
        <ele>192.04489135742</ele>
        <time>2012-01-14T09:05:11Z</time>
      </trkpt>
      <trkpt lat="43.60037" lon="6.87864">
        <ele>192.01550292969</ele>
        <time>2012-01-14T09:05:15Z</time>
      </trkpt>
      <trkpt lat="43.60037" lon="6.87863">
        <ele>191.86988830566</ele>
        <time>2012-01-14T09:05:20Z</time>
      </trkpt>
      <trkpt lat="43.60038" lon="6.87858">
        <ele>191.02656555176</ele>
        <time>2012-01-14T09:05:25Z</time>
      </trkpt>
      <trkpt lat="43.60037" lon="6.87856">
        <ele>191.12156677246</ele>
        <time>2012-01-14T09:05:26Z</time>
      </trkpt>
      <trkpt lat="43.60042" lon="6.87851">
        <ele>189.11708068848</ele>
        <time>2012-01-14T09:05:31Z</time>
      </trkpt>
      <trkpt lat="43.60045" lon="6.87849">
        <ele>187.96998596191</ele>
        <time>2012-01-14T09:05:33Z</time>
      </trkpt>
      <trkpt lat="43.60052" lon="6.8784">
        <ele>184.40251159668</ele>
        <time>2012-01-14T09:05:39Z</time>
      </trkpt>
      <trkpt lat="43.60056" lon="6.87831">
        <ele>182.46952819824</ele>
        <time>2012-01-14T09:05:43Z</time>
      </trkpt>
      <trkpt lat="43.60064" lon="6.87819">
        <ele>180.25662231445</ele>
        <time>2012-01-14T09:05:49Z</time>
      </trkpt>
      <trkpt lat="43.60065" lon="6.87815">
        <ele>179.93453979492</ele>
        <time>2012-01-14T09:05:52Z</time>
      </trkpt>
      <trkpt lat="43.60071" lon="6.87808">
        <ele>178.14013671875</ele>
        <time>2012-01-14T09:05:57Z</time>
      </trkpt>
      <trkpt lat="43.60079" lon="6.87795">
        <ele>175.40596008301</ele>
        <time>2012-01-14T09:06:05Z</time>
      </trkpt>
      <trkpt lat="43.6008" lon="6.87788">
        <ele>175.16415405273</ele>
        <time>2012-01-14T09:06:07Z</time>
      </trkpt>
      <trkpt lat="43.60084" lon="6.87779">
        <ele>173.86042785644</ele>
        <time>2012-01-14T09:06:13Z</time>
      </trkpt>
      <trkpt lat="43.60089" lon="6.87773">
        <ele>173.01211547852</ele>
        <time>2012-01-14T09:06:18Z</time>
      </trkpt>
      <trkpt lat="43.60097" lon="6.87762">
        <ele>172.05661010742</ele>
        <time>2012-01-14T09:06:25Z</time>
      </trkpt>
      <trkpt lat="43.60106" lon="6.87747">
        <ele>171.88641357422</ele>
        <time>2012-01-14T09:06:32Z</time>
      </trkpt>
      <trkpt lat="43.60106" lon="6.87741">
        <ele>173.07109069824</ele>
        <time>2012-01-14T09:06:35Z</time>
      </trkpt>
      <trkpt lat="43.60104" lon="6.87731">
        <ele>175.01921081543</ele>
        <time>2012-01-14T09:06:39Z</time>
      </trkpt>
      <trkpt lat="43.60101" lon="6.87724">
        <ele>176.44100952148</ele>
        <time>2012-01-14T09:06:42Z</time>
      </trkpt>
      <trkpt lat="43.60093" lon="6.87709">
        <ele>179.47300720215</ele>
        <time>2012-01-14T09:06:49Z</time>
      </trkpt>
      <trkpt lat="43.60093" lon="6.87707">
        <ele>179.75204467773</ele>
        <time>2012-01-14T09:06:50Z</time>
      </trkpt>
      <trkpt lat="43.60084" lon="6.87698">
        <ele>181.45112609863</ele>
        <time>2012-01-14T09:06:58Z</time>
      </trkpt>
      <trkpt lat="43.60075" lon="6.87688">
        <ele>185.01655578613</ele>
        <time>2012-01-14T09:07:05Z</time>
      </trkpt>
      <trkpt lat="43.60065" lon="6.87684">
        <ele>187.91691589356</ele>
        <time>2012-01-14T09:07:11Z</time>
      </trkpt>
      <trkpt lat="43.60054" lon="6.8768">
        <ele>191.2693939209</ele>
        <time>2012-01-14T09:07:19Z</time>
      </trkpt>
      <trkpt lat="43.60046" lon="6.87677">
        <ele>193.1891784668</ele>
        <time>2012-01-14T09:07:24Z</time>
      </trkpt>
      <trkpt lat="43.60039" lon="6.87675">
        <ele>195.1123046875</ele>
        <time>2012-01-14T09:07:30Z</time>
      </trkpt>
      <trkpt lat="43.60025" lon="6.87674">
        <ele>198.4366607666</ele>
        <time>2012-01-14T09:07:38Z</time>
      </trkpt>
      <trkpt lat="43.6001" lon="6.87672">
        <ele>201.76928710938</ele>
        <time>2012-01-14T09:07:46Z</time>
      </trkpt>
      <trkpt lat="43.60009" lon="6.87671">
        <ele>202.11833190918</ele>
        <time>2012-01-14T09:07:47Z</time>
      </trkpt>
      <trkpt lat="43.60004" lon="6.87667">
        <ele>203.20965576172</ele>
        <time>2012-01-14T09:07:52Z</time>
      </trkpt>
      <trkpt lat="43.60007" lon="6.87665">
        <ele>202.84806823731</ele>
        <time>2012-01-14T09:07:58Z</time>
      </trkpt>
      <trkpt lat="43.60011" lon="6.87664">
        <ele>202.19317626953</ele>
        <time>2012-01-14T09:08:03Z</time>
      </trkpt>
      <trkpt lat="43.60015" lon="6.87665">
        <ele>201.05776977539</ele>
        <time>2012-01-14T09:08:08Z</time>
      </trkpt>
      <trkpt lat="43.60017" lon="6.87665">
        <ele>200.63960266113</ele>
        <time>2012-01-14T09:08:10Z</time>
      </trkpt>
      <trkpt lat="43.60023" lon="6.87664">
        <ele>199.59329223633</ele>
        <time>2012-01-14T09:08:15Z</time>
      </trkpt>
      <trkpt lat="43.6003" lon="6.87662">
        <ele>198.51675415039</ele>
        <time>2012-01-14T09:08:21Z</time>
      </trkpt>
      <trkpt lat="43.60032" lon="6.87662">
        <ele>197.99658203125</ele>
        <time>2012-01-14T09:08:23Z</time>
      </trkpt>
      <trkpt lat="43.60043" lon="6.87663">
        <ele>195.64454650879</ele>
        <time>2012-01-14T09:08:30Z</time>
      </trkpt>
      <trkpt lat="43.60053" lon="6.8766">
        <ele>193.85427856445</ele>
        <time>2012-01-14T09:08:37Z</time>
      </trkpt>
      <trkpt lat="43.60067" lon="6.87655">
        <ele>191.99189758301</ele>
        <time>2012-01-14T09:08:44Z</time>
      </trkpt>
      <trkpt lat="43.6008" lon="6.87642">
        <ele>192.05123901367</ele>
        <time>2012-01-14T09:08:51Z</time>
      </trkpt>
      <trkpt lat="43.60088" lon="6.87635">
        <ele>192.92204284668</ele>
        <time>2012-01-14T09:08:57Z</time>
      </trkpt>
      <trkpt lat="43.60097" lon="6.87626">
        <ele>194.80934143066</ele>
        <time>2012-01-14T09:09:03Z</time>
      </trkpt>
      <trkpt lat="43.60105" lon="6.87618">
        <ele>196.46382141113</ele>
        <time>2012-01-14T09:09:08Z</time>
      </trkpt>
      <trkpt lat="43.60109" lon="6.87612">
        <ele>197.61099243164</ele>
        <time>2012-01-14T09:09:13Z</time>
      </trkpt>
      <trkpt lat="43.60119" lon="6.87603">
        <ele>199.03300476074</ele>
        <time>2012-01-14T09:09:19Z</time>
      </trkpt>
      <trkpt lat="43.60127" lon="6.87597">
        <ele>199.97109985352</ele>
        <time>2012-01-14T09:09:25Z</time>
      </trkpt>
      <trkpt lat="43.60127" lon="6.87597">
        <ele>200.02983093262</ele>
        <time>2012-01-14T09:09:26Z</time>
      </trkpt>
      <trkpt lat="43.60129" lon="6.87596">
        <ele>200.06843566894</ele>
        <time>2012-01-14T09:09:32Z</time>
      </trkpt>
      <trkpt lat="43.6013" lon="6.87594">
        <ele>200.41539001465</ele>
        <time>2012-01-14T09:09:42Z</time>
      </trkpt>
      <trkpt lat="43.60135" lon="6.87593">
        <ele>200.47547912598</ele>
        <time>2012-01-14T09:09:51Z</time>
      </trkpt>
      <trkpt lat="43.60136" lon="6.87591">
        <ele>200.77990722656</ele>
        <time>2012-01-14T09:09:57Z</time>
      </trkpt>
      <trkpt lat="43.60137" lon="6.87589">
        <ele>201.09260559082</ele>
        <time>2012-01-14T09:10:01Z</time>
      </trkpt>
      <trkpt lat="43.60137" lon="6.8759">
        <ele>200.89491271973</ele>
        <time>2012-01-14T09:10:18Z</time>
      </trkpt>
      <trkpt lat="43.60139" lon="6.87594">
        <ele>200.28775024414</ele>
        <time>2012-01-14T09:10:25Z</time>
      </trkpt>
      <trkpt lat="43.60142" lon="6.8759">
        <ele>200.83251953125</ele>
        <time>2012-01-14T09:10:35Z</time>
      </trkpt>
      <trkpt lat="43.60139" lon="6.87589">
        <ele>201.08969116211</ele>
        <time>2012-01-14T09:10:53Z</time>
      </trkpt>
      <trkpt lat="43.60139" lon="6.87588">
        <ele>201.21371459961</ele>
        <time>2012-01-14T09:11:09Z</time>
      </trkpt>
      <trkpt lat="43.60141" lon="6.87587">
        <ele>201.28741455078</ele>
        <time>2012-01-14T09:11:15Z</time>
      </trkpt>
      <trkpt lat="43.60141" lon="6.87587">
        <ele>201.33030700684</ele>
        <time>2012-01-14T09:11:26Z</time>
      </trkpt>
      <trkpt lat="43.60141" lon="6.87587">
        <ele>201.32704162598</ele>
        <time>2012-01-14T09:11:31Z</time>
      </trkpt>
      <trkpt lat="43.60141" lon="6.87587">
        <ele>201.32369995117</ele>
        <time>2012-01-14T09:11:33Z</time>
      </trkpt>
      <trkpt lat="43.60141" lon="6.87587">
        <ele>201.31576538086</ele>
        <time>2012-01-14T09:11:34Z</time>
      </trkpt>
      <trkpt lat="43.6014" lon="6.87587">
        <ele>201.34417724609</ele>
        <time>2012-01-14T09:11:36Z</time>
      </trkpt>
      <trkpt lat="43.6014" lon="6.87587">
        <ele>201.35214233398</ele>
        <time>2012-01-14T09:11:40Z</time>
      </trkpt>
      <trkpt lat="43.60141" lon="6.87587">
        <ele>201.37928771973</ele>
        <time>2012-01-14T09:11:50Z</time>
      </trkpt>
      <trkpt lat="43.60141" lon="6.87587">
        <ele>201.36665344238</ele>
        <time>2012-01-14T09:12:02Z</time>
      </trkpt>
      <trkpt lat="43.60138" lon="6.87587">
        <ele>201.35125732422</ele>
        <time>2012-01-14T09:12:16Z</time>
      </trkpt>
      <trkpt lat="43.60137" lon="6.87587">
        <ele>201.51365661621</ele>
        <time>2012-01-14T09:12:30Z</time>
      </trkpt>
      <trkpt lat="43.60139" lon="6.87586">
        <ele>201.53865051269</ele>
        <time>2012-01-14T09:12:36Z</time>
      </trkpt>
      <trkpt lat="43.60139" lon="6.87584">
        <ele>201.92834472656</ele>
        <time>2012-01-14T09:12:38Z</time>
      </trkpt>
      <trkpt lat="43.60143" lon="6.87571">
        <ele>201.04580688477</ele>
        <time>2012-01-14T09:12:46Z</time>
      </trkpt>
      <trkpt lat="43.60138" lon="6.87559">
        <ele>200.59468078613</ele>
        <time>2012-01-14T09:12:53Z</time>
      </trkpt>
      <trkpt lat="43.60138" lon="6.87559">
        <ele>200.5665435791</ele>
        <time>2012-01-14T09:12:56Z</time>
      </trkpt>
      <trkpt lat="43.60142" lon="6.87573">
        <ele>201.21478271484</ele>
        <time>2012-01-14T09:13:01Z</time>
      </trkpt>
      <trkpt lat="43.60134" lon="6.87591">
        <ele>200.92916870117</ele>
        <time>2012-01-14T09:13:06Z</time>
      </trkpt>
      <trkpt lat="43.60117" lon="6.87604">
        <ele>198.88166809082</ele>
        <time>2012-01-14T09:13:12Z</time>
      </trkpt>
      <trkpt lat="43.60106" lon="6.87614">
        <ele>197.0783996582</ele>
        <time>2012-01-14T09:13:17Z</time>
      </trkpt>
      <trkpt lat="43.60088" lon="6.87623">
        <ele>195.3582611084</ele>
        <time>2012-01-14T09:13:23Z</time>
      </trkpt>
      <trkpt lat="43.60067" lon="6.87635">
        <ele>196.1328125</ele>
        <time>2012-01-14T09:13:29Z</time>
      </trkpt>
      <trkpt lat="43.60046" lon="6.87644">
        <ele>198.77291870117</ele>
        <time>2012-01-14T09:13:34Z</time>
      </trkpt>
      <trkpt lat="43.60033" lon="6.87648">
        <ele>200.68505859375</ele>
        <time>2012-01-14T09:13:37Z</time>
      </trkpt>
      <trkpt lat="43.60008" lon="6.87663">
        <ele>202.86209106445</ele>
        <time>2012-01-14T09:13:43Z</time>
      </trkpt>
      <trkpt lat="43.59998" lon="6.8768">
        <ele>205.25057983398</ele>
        <time>2012-01-14T09:13:48Z</time>
      </trkpt>
      <trkpt lat="43.59999" lon="6.8768">
        <ele>204.43975830078</ele>
        <time>2012-01-14T09:13:50Z</time>
      </trkpt>
      <trkpt lat="43.60009" lon="6.87682">
        <ele>201.88973999023</ele>
        <time>2012-01-14T09:13:55Z</time>
      </trkpt>
      <trkpt lat="43.60022" lon="6.87684">
        <ele>198.74026489258</ele>
        <time>2012-01-14T09:13:58Z</time>
      </trkpt>
      <trkpt lat="43.60047" lon="6.8769">
        <ele>192.10493469238</ele>
        <time>2012-01-14T09:14:03Z</time>
      </trkpt>
      <trkpt lat="43.60065" lon="6.87702">
        <ele>186.08990478516</ele>
        <time>2012-01-14T09:14:07Z</time>
      </trkpt>
      <trkpt lat="43.60087" lon="6.87719">
        <ele>178.24406433106</ele>
        <time>2012-01-14T09:14:12Z</time>
      </trkpt>
      <trkpt lat="43.60092" lon="6.87732">
        <ele>175.82014465332</ele>
        <time>2012-01-14T09:14:16Z</time>
      </trkpt>
      <trkpt lat="43.60092" lon="6.87739">
        <ele>174.76130676269</ele>
        <time>2012-01-14T09:14:20Z</time>
      </trkpt>
      <trkpt lat="43.60098" lon="6.87731">
        <ele>175.46168518066</ele>
        <time>2012-01-14T09:14:26Z</time>
      </trkpt>
      <trkpt lat="43.60097" lon="6.87727">
        <ele>176.20407104492</ele>
        <time>2012-01-14T09:14:28Z</time>
      </trkpt>
      <trkpt lat="43.60091" lon="6.87714">
        <ele>178.75131225586</ele>
        <time>2012-01-14T09:14:32Z</time>
      </trkpt>
      <trkpt lat="43.60081" lon="6.87703">
        <ele>181.34362792969</ele>
        <time>2012-01-14T09:14:36Z</time>
      </trkpt>
      <trkpt lat="43.6007" lon="6.87695">
        <ele>185.45407104492</ele>
        <time>2012-01-14T09:14:40Z</time>
      </trkpt>
      <trkpt lat="43.60052" lon="6.87686">
        <ele>191.04858398438</ele>
        <time>2012-01-14T09:14:46Z</time>
      </trkpt>
      <trkpt lat="43.60039" lon="6.87681">
        <ele>194.74559020996</ele>
        <time>2012-01-14T09:14:51Z</time>
      </trkpt>
      <trkpt lat="43.60032" lon="6.8768">
        <ele>196.45936584473</ele>
        <time>2012-01-14T09:14:54Z</time>
      </trkpt>
      <trkpt lat="43.60021" lon="6.87677">
        <ele>199.11915588379</ele>
        <time>2012-01-14T09:14:59Z</time>
      </trkpt>
      <trkpt lat="43.60017" lon="6.87676">
        <ele>200.14263916016</ele>
        <time>2012-01-14T09:15:01Z</time>
      </trkpt>
      <trkpt lat="43.60006" lon="6.87672">
        <ele>202.63290405273</ele>
        <time>2012-01-14T09:15:06Z</time>
      </trkpt>
      <trkpt lat="43.60003" lon="6.8767">
        <ele>203.3956451416</ele>
        <time>2012-01-14T09:15:07Z</time>
      </trkpt>
      <trkpt lat="43.60006" lon="6.87659">
        <ele>204.34103393555</ele>
        <time>2012-01-14T09:15:12Z</time>
      </trkpt>
      <trkpt lat="43.60011" lon="6.8766">
        <ele>202.94132995606</ele>
        <time>2012-01-14T09:15:14Z</time>
      </trkpt>
      <trkpt lat="43.60015" lon="6.8766">
        <ele>202.03149414062</ele>
        <time>2012-01-14T09:15:16Z</time>
      </trkpt>
      <trkpt lat="43.60028" lon="6.87658">
        <ele>199.72210693359</ele>
        <time>2012-01-14T09:15:22Z</time>
      </trkpt>
      <trkpt lat="43.60036" lon="6.87655">
        <ele>198.55676269531</ele>
        <time>2012-01-14T09:15:25Z</time>
      </trkpt>
      <trkpt lat="43.60054" lon="6.87655">
        <ele>194.77168273926</ele>
        <time>2012-01-14T09:15:32Z</time>
      </trkpt>
      <trkpt lat="43.60065" lon="6.87652">
        <ele>193.13145446777</ele>
        <time>2012-01-14T09:15:37Z</time>
      </trkpt>
      <trkpt lat="43.60074" lon="6.87649">
        <ele>191.72161865234</ele>
        <time>2012-01-14T09:15:41Z</time>
      </trkpt>
      <trkpt lat="43.60089" lon="6.87648">
        <ele>190.24526977539</ele>
        <time>2012-01-14T09:15:47Z</time>
      </trkpt>
      <trkpt lat="43.601" lon="6.87644">
        <ele>191.24833679199</ele>
        <time>2012-01-14T09:15:52Z</time>
      </trkpt>
      <trkpt lat="43.60114" lon="6.8763">
        <ele>194.10153198242</ele>
        <time>2012-01-14T09:16:00Z</time>
      </trkpt>
      <trkpt lat="43.60124" lon="6.87618">
        <ele>196.30476379394</ele>
        <time>2012-01-14T09:16:05Z</time>
      </trkpt>
      <trkpt lat="43.60135" lon="6.87601">
        <ele>199.05836486816</ele>
        <time>2012-01-14T09:16:11Z</time>
      </trkpt>
      <trkpt lat="43.6014" lon="6.87587">
        <ele>201.37600708008</ele>
        <time>2012-01-14T09:16:16Z</time>
      </trkpt>
      <trkpt lat="43.60137" lon="6.87568">
        <ele>201.19500732422</ele>
        <time>2012-01-14T09:16:22Z</time>
      </trkpt>
      <trkpt lat="43.60131" lon="6.87554">
        <ele>200.94523620606</ele>
        <time>2012-01-14T09:16:27Z</time>
      </trkpt>
      <trkpt lat="43.6013" lon="6.87549">
        <ele>200.81044006348</ele>
        <time>2012-01-14T09:16:29Z</time>
      </trkpt>
      <trkpt lat="43.60125" lon="6.87532">
        <ele>200.69145202637</ele>
        <time>2012-01-14T09:16:37Z</time>
      </trkpt>
      <trkpt lat="43.60118" lon="6.87519">
        <ele>201.14350891113</ele>
        <time>2012-01-14T09:16:42Z</time>
      </trkpt>
      <trkpt lat="43.60112" lon="6.87507">
        <ele>202.00085449219</ele>
        <time>2012-01-14T09:16:46Z</time>
      </trkpt>
      <trkpt lat="43.60099" lon="6.87493">
        <ele>202.33255004883</ele>
        <time>2012-01-14T09:16:51Z</time>
      </trkpt>
      <trkpt lat="43.60092" lon="6.87465">
        <ele>197.21650695801</ele>
        <time>2012-01-14T09:16:57Z</time>
      </trkpt>
      <trkpt lat="43.60087" lon="6.87441">
        <ele>193.25886535644</ele>
        <time>2012-01-14T09:17:01Z</time>
      </trkpt>
      <trkpt lat="43.60088" lon="6.87436">
        <ele>191.81034851074</ele>
        <time>2012-01-14T09:17:02Z</time>
      </trkpt>
      <trkpt lat="43.60091" lon="6.87426">
        <ele>188.56219482422</ele>
        <time>2012-01-14T09:17:04Z</time>
      </trkpt>
      <trkpt lat="43.60094" lon="6.87414">
        <ele>184.69448852539</ele>
        <time>2012-01-14T09:17:08Z</time>
      </trkpt>
      <trkpt lat="43.60089" lon="6.87388">
        <ele>180.84367370606</ele>
        <time>2012-01-14T09:17:13Z</time>
      </trkpt>
      <trkpt lat="43.60084" lon="6.8738">
        <ele>181.33085632324</ele>
        <time>2012-01-14T09:17:16Z</time>
      </trkpt>
      <trkpt lat="43.60076" lon="6.87365">
        <ele>182.22119140625</ele>
        <time>2012-01-14T09:17:21Z</time>
      </trkpt>
      <trkpt lat="43.60067" lon="6.87342">
        <ele>182.48219299316</ele>
        <time>2012-01-14T09:17:26Z</time>
      </trkpt>
      <trkpt lat="43.60065" lon="6.87324">
        <ele>179.42697143555</ele>
        <time>2012-01-14T09:17:30Z</time>
      </trkpt>
      <trkpt lat="43.60066" lon="6.87309">
        <ele>176.06205749512</ele>
        <time>2012-01-14T09:17:34Z</time>
      </trkpt>
      <trkpt lat="43.60064" lon="6.87282">
        <ele>171.24952697754</ele>
        <time>2012-01-14T09:17:40Z</time>
      </trkpt>
      <trkpt lat="43.60061" lon="6.8726">
        <ele>168.89311218262</ele>
        <time>2012-01-14T09:17:44Z</time>
      </trkpt>
      <trkpt lat="43.60051" lon="6.87238">
        <ele>169.43249511719</ele>
        <time>2012-01-14T09:17:48Z</time>
      </trkpt>
      <trkpt lat="43.60033" lon="6.87225">
        <ele>175.85499572754</ele>
        <time>2012-01-14T09:17:52Z</time>
      </trkpt>
      <trkpt lat="43.59997" lon="6.87208">
        <ele>189.14613342285</ele>
        <time>2012-01-14T09:17:57Z</time>
      </trkpt>
      <trkpt lat="43.59963" lon="6.8719">
        <ele>186.42660522461</ele>
        <time>2012-01-14T09:18:02Z</time>
      </trkpt>
      <trkpt lat="43.5995" lon="6.87188">
        <ele>187.00193786621</ele>
        <time>2012-01-14T09:18:04Z</time>
      </trkpt>
      <trkpt lat="43.59929" lon="6.87192">
        <ele>190.76522827148</ele>
        <time>2012-01-14T09:18:08Z</time>
      </trkpt>
      <trkpt lat="43.59912" lon="6.87215">
        <ele>198.6481628418</ele>
        <time>2012-01-14T09:18:12Z</time>
      </trkpt>
      <trkpt lat="43.59908" lon="6.87248">
        <ele>208.16548156738</ele>
        <time>2012-01-14T09:18:16Z</time>
      </trkpt>
      <trkpt lat="43.59904" lon="6.8727">
        <ele>214.36204528809</ele>
        <time>2012-01-14T09:18:19Z</time>
      </trkpt>
      <trkpt lat="43.59895" lon="6.87276">
        <ele>214.85386657715</ele>
        <time>2012-01-14T09:18:23Z</time>
      </trkpt>
      <trkpt lat="43.59892" lon="6.87274">
        <ele>213.77099609375</ele>
        <time>2012-01-14T09:18:24Z</time>
      </trkpt>
      <trkpt lat="43.59874" lon="6.87267">
        <ele>209.30252075195</ele>
        <time>2012-01-14T09:18:30Z</time>
      </trkpt>
      <trkpt lat="43.59858" lon="6.87279">
        <ele>210.61109924316</ele>
        <time>2012-01-14T09:18:34Z</time>
      </trkpt>
      <trkpt lat="43.59853" lon="6.87283">
        <ele>210.95358276367</ele>
        <time>2012-01-14T09:18:35Z</time>
      </trkpt>
      <trkpt lat="43.59836" lon="6.87289">
        <ele>210.08435058594</ele>
        <time>2012-01-14T09:18:39Z</time>
      </trkpt>
      <trkpt lat="43.59825" lon="6.87283">
        <ele>209.10397338867</ele>
        <time>2012-01-14T09:18:43Z</time>
      </trkpt>
      <trkpt lat="43.59827" lon="6.87279">
        <ele>208.02574157715</ele>
        <time>2012-01-14T09:18:45Z</time>
      </trkpt>
      <trkpt lat="43.59837" lon="6.8727">
        <ele>204.91687011719</ele>
        <time>2012-01-14T09:18:51Z</time>
      </trkpt>
      <trkpt lat="43.59848" lon="6.87261">
        <ele>203.98005676269</ele>
        <time>2012-01-14T09:18:56Z</time>
      </trkpt>
      <trkpt lat="43.59853" lon="6.87242">
        <ele>199.79605102539</ele>
        <time>2012-01-14T09:19:02Z</time>
      </trkpt>
      <trkpt lat="43.59853" lon="6.87232">
        <ele>197.53759765625</ele>
        <time>2012-01-14T09:19:08Z</time>
      </trkpt>
      <trkpt lat="43.59852" lon="6.8723">
        <ele>197.21672058106</ele>
        <time>2012-01-14T09:19:09Z</time>
      </trkpt>
      <trkpt lat="43.59846" lon="6.87224">
        <ele>195.18197631836</ele>
        <time>2012-01-14T09:19:17Z</time>
      </trkpt>
      <trkpt lat="43.59845" lon="6.87223">
        <ele>194.98620605469</ele>
        <time>2012-01-14T09:19:18Z</time>
      </trkpt>
      <trkpt lat="43.59845" lon="6.87222">
        <ele>194.65684509277</ele>
        <time>2012-01-14T09:19:20Z</time>
      </trkpt>
      <trkpt lat="43.59844" lon="6.87206">
        <ele>191.31452941894</ele>
        <time>2012-01-14T09:19:26Z</time>
      </trkpt>
      <trkpt lat="43.59841" lon="6.87193">
        <ele>188.39128112793</ele>
        <time>2012-01-14T09:19:31Z</time>
      </trkpt>
      <trkpt lat="43.59835" lon="6.87174">
        <ele>184.46269226074</ele>
        <time>2012-01-14T09:19:37Z</time>
      </trkpt>
      <trkpt lat="43.59831" lon="6.87158">
        <ele>182.86224365234</ele>
        <time>2012-01-14T09:19:42Z</time>
      </trkpt>
      <trkpt lat="43.59829" lon="6.87145">
        <ele>182.35311889648</ele>
        <time>2012-01-14T09:19:46Z</time>
      </trkpt>
      <trkpt lat="43.59826" lon="6.87132">
        <ele>181.85447692871</ele>
        <time>2012-01-14T09:19:49Z</time>
      </trkpt>
      <trkpt lat="43.59823" lon="6.87119">
        <ele>181.39888000488</ele>
        <time>2012-01-14T09:19:53Z</time>
      </trkpt>
      <trkpt lat="43.59814" lon="6.87098">
        <ele>181.81945800781</ele>
        <time>2012-01-14T09:19:59Z</time>
      </trkpt>
      <trkpt lat="43.59801" lon="6.87078">
        <ele>183.7278137207</ele>
        <time>2012-01-14T09:20:06Z</time>
      </trkpt>
      <trkpt lat="43.59786" lon="6.87059">
        <ele>187.73603820801</ele>
        <time>2012-01-14T09:20:13Z</time>
      </trkpt>
      <trkpt lat="43.59772" lon="6.87044">
        <ele>190.59069824219</ele>
        <time>2012-01-14T09:20:19Z</time>
      </trkpt>
      <trkpt lat="43.59755" lon="6.87025">
        <ele>193.08912658691</ele>
        <time>2012-01-14T09:20:27Z</time>
      </trkpt>
      <trkpt lat="43.59739" lon="6.87007">
        <ele>194.91789245606</ele>
        <time>2012-01-14T09:20:35Z</time>
      </trkpt>
      <trkpt lat="43.59727" lon="6.86991">
        <ele>197.72262573242</ele>
        <time>2012-01-14T09:20:41Z</time>
      </trkpt>
      <trkpt lat="43.59713" lon="6.86975">
        <ele>202.28883361816</ele>
        <time>2012-01-14T09:20:47Z</time>
      </trkpt>
      <trkpt lat="43.59706" lon="6.86969">
        <ele>204.10647583008</ele>
        <time>2012-01-14T09:20:49Z</time>
      </trkpt>
      <trkpt lat="43.59703" lon="6.86958">
        <ele>205.82629394531</ele>
        <time>2012-01-14T09:20:52Z</time>
      </trkpt>
      <trkpt lat="43.59713" lon="6.86967">
        <ele>203.28706359863</ele>
        <time>2012-01-14T09:20:57Z</time>
      </trkpt>
      <trkpt lat="43.59715" lon="6.86967">
        <ele>202.90289306641</ele>
        <time>2012-01-14T09:20:58Z</time>
      </trkpt>
      <trkpt lat="43.59718" lon="6.86967">
        <ele>202.41915893555</ele>
        <time>2012-01-14T09:21:00Z</time>
      </trkpt>
      <trkpt lat="43.59719" lon="6.86964">
        <ele>202.58239746094</ele>
        <time>2012-01-14T09:21:03Z</time>
      </trkpt>
      <trkpt lat="43.59724" lon="6.86965">
        <ele>201.7804107666</ele>
        <time>2012-01-14T09:21:07Z</time>
      </trkpt>
      <trkpt lat="43.59734" lon="6.86975">
        <ele>198.86492919922</ele>
        <time>2012-01-14T09:21:14Z</time>
      </trkpt>
      <trkpt lat="43.59748" lon="6.86979">
        <ele>195.86515808106</ele>
        <time>2012-01-14T09:21:19Z</time>
      </trkpt>
      <trkpt lat="43.59765" lon="6.86986">
        <ele>192.37075805664</ele>
        <time>2012-01-14T09:21:24Z</time>
      </trkpt>
      <trkpt lat="43.59789" lon="6.86989">
        <ele>188.49671936035</ele>
        <time>2012-01-14T09:21:30Z</time>
      </trkpt>
      <trkpt lat="43.59804" lon="6.86993">
        <ele>185.51493835449</ele>
        <time>2012-01-14T09:21:36Z</time>
      </trkpt>
      <trkpt lat="43.59821" lon="6.87003">
        <ele>181.5936126709</ele>
        <time>2012-01-14T09:21:42Z</time>
      </trkpt>
      <trkpt lat="43.59843" lon="6.86997">
        <ele>178.82174682617</ele>
        <time>2012-01-14T09:21:48Z</time>
      </trkpt>
      <trkpt lat="43.59858" lon="6.86995">
        <ele>176.76040649414</ele>
        <time>2012-01-14T09:21:52Z</time>
      </trkpt>
      <trkpt lat="43.59879" lon="6.86995">
        <ele>172.91915893555</ele>
        <time>2012-01-14T09:21:59Z</time>
      </trkpt>
      <trkpt lat="43.59901" lon="6.86992">
        <ele>169.9727935791</ele>
        <time>2012-01-14T09:22:05Z</time>
      </trkpt>
      <trkpt lat="43.59916" lon="6.86986">
        <ele>168.78427124023</ele>
        <time>2012-01-14T09:22:10Z</time>
      </trkpt>
      <trkpt lat="43.59931" lon="6.86974">
        <ele>169.36862182617</ele>
        <time>2012-01-14T09:22:15Z</time>
      </trkpt>
      <trkpt lat="43.59937" lon="6.86954">
        <ele>173.49966430664</ele>
        <time>2012-01-14T09:22:20Z</time>
      </trkpt>
      <trkpt lat="43.59946" lon="6.86935">
        <ele>177.14660644531</ele>
        <time>2012-01-14T09:22:25Z</time>
      </trkpt>
      <trkpt lat="43.59959" lon="6.86921">
        <ele>178.87327575684</ele>
        <time>2012-01-14T09:22:30Z</time>
      </trkpt>
      <trkpt lat="43.59969" lon="6.86903">
        <ele>181.17315673828</ele>
        <time>2012-01-14T09:22:35Z</time>
      </trkpt>
      <trkpt lat="43.5998" lon="6.86887">
        <ele>182.52830505371</ele>
        <time>2012-01-14T09:22:40Z</time>
      </trkpt>
      <trkpt lat="43.59988" lon="6.86875">
        <ele>183.26557922363</ele>
        <time>2012-01-14T09:22:45Z</time>
      </trkpt>
      <trkpt lat="43.59997" lon="6.86865">
        <ele>183.57832336426</ele>
        <time>2012-01-14T09:22:50Z</time>
      </trkpt>
      <trkpt lat="43.59999" lon="6.86864">
        <ele>183.47212219238</ele>
        <time>2012-01-14T09:22:51Z</time>
      </trkpt>
      <trkpt lat="43.60005" lon="6.86861">
        <ele>182.85479736328</ele>
        <time>2012-01-14T09:22:55Z</time>
      </trkpt>
      <trkpt lat="43.60007" lon="6.86859">
        <ele>182.74932861328</ele>
        <time>2012-01-14T09:23:01Z</time>
      </trkpt>
      <trkpt lat="43.60007" lon="6.86859">
        <ele>182.69645690918</ele>
        <time>2012-01-14T09:23:03Z</time>
      </trkpt>
      <trkpt lat="43.60011" lon="6.86859">
        <ele>181.96655273438</ele>
        <time>2012-01-14T09:23:08Z</time>
      </trkpt>
      <trkpt lat="43.60018" lon="6.86861">
        <ele>180.28201293945</ele>
        <time>2012-01-14T09:23:12Z</time>
      </trkpt>
      <trkpt lat="43.60041" lon="6.86865">
        <ele>175.2412109375</ele>
        <time>2012-01-14T09:23:19Z</time>
      </trkpt>
      <trkpt lat="43.60058" lon="6.86868">
        <ele>171.77354431152</ele>
        <time>2012-01-14T09:23:23Z</time>
      </trkpt>
      <trkpt lat="43.60081" lon="6.86876">
        <ele>166.80067443848</ele>
        <time>2012-01-14T09:23:27Z</time>
      </trkpt>
      <trkpt lat="43.60097" lon="6.86885">
        <ele>163.81343078613</ele>
        <time>2012-01-14T09:23:30Z</time>
      </trkpt>
      <trkpt lat="43.60118" lon="6.86878">
        <ele>160.95903015137</ele>
        <time>2012-01-14T09:23:34Z</time>
      </trkpt>
      <trkpt lat="43.60122" lon="6.86869">
        <ele>160.06051635742</ele>
        <time>2012-01-14T09:23:37Z</time>
      </trkpt>
      <trkpt lat="43.60123" lon="6.86867">
        <ele>159.94323730469</ele>
        <time>2012-01-14T09:23:38Z</time>
      </trkpt>
      <trkpt lat="43.60122" lon="6.86864">
        <ele>160.01300048828</ele>
        <time>2012-01-14T09:23:43Z</time>
      </trkpt>
      <trkpt lat="43.60121" lon="6.86865">
        <ele>160.16876220703</ele>
        <time>2012-01-14T09:23:49Z</time>
      </trkpt>
      <trkpt lat="43.60123" lon="6.86866">
        <ele>159.76057434082</ele>
        <time>2012-01-14T09:24:05Z</time>
      </trkpt>
      <trkpt lat="43.60124" lon="6.86865">
        <ele>159.60809326172</ele>
        <time>2012-01-14T09:24:14Z</time>
      </trkpt>
      <trkpt lat="43.60125" lon="6.86864">
        <ele>159.51275634766</ele>
        <time>2012-01-14T09:24:33Z</time>
      </trkpt>
      <trkpt lat="43.60125" lon="6.86865">
        <ele>159.44282531738</ele>
        <time>2012-01-14T09:24:44Z</time>
      </trkpt>
      <trkpt lat="43.60125" lon="6.86865">
        <ele>159.44567871094</ele>
        <time>2012-01-14T09:24:52Z</time>
      </trkpt>
      <trkpt lat="43.60126" lon="6.86866">
        <ele>159.35848999023</ele>
        <time>2012-01-14T09:25:35Z</time>
      </trkpt>
      <trkpt lat="43.60126" lon="6.86867">
        <ele>159.36917114258</ele>
        <time>2012-01-14T09:25:41Z</time>
      </trkpt>
      <trkpt lat="43.60127" lon="6.86866">
        <ele>159.12629699707</ele>
        <time>2012-01-14T09:25:51Z</time>
      </trkpt>
      <trkpt lat="43.60128" lon="6.86871">
        <ele>159.12225341797</ele>
        <time>2012-01-14T09:25:56Z</time>
      </trkpt>
      <trkpt lat="43.60123" lon="6.86871">
        <ele>159.88822937012</ele>
        <time>2012-01-14T09:26:00Z</time>
      </trkpt>
      <trkpt lat="43.60122" lon="6.86871">
        <ele>160.10580444336</ele>
        <time>2012-01-14T09:26:01Z</time>
      </trkpt>
      <trkpt lat="43.60118" lon="6.86878">
        <ele>160.89819335938</ele>
        <time>2012-01-14T09:26:08Z</time>
      </trkpt>
      <trkpt lat="43.60112" lon="6.8688">
        <ele>161.77136230469</ele>
        <time>2012-01-14T09:26:12Z</time>
      </trkpt>
      <trkpt lat="43.60111" lon="6.86879">
        <ele>162.00654602051</ele>
        <time>2012-01-14T09:26:13Z</time>
      </trkpt>
      <trkpt lat="43.601" lon="6.86874">
        <ele>163.87783813477</ele>
        <time>2012-01-14T09:26:21Z</time>
      </trkpt>
      <trkpt lat="43.60092" lon="6.8687">
        <ele>165.40660095215</ele>
        <time>2012-01-14T09:26:26Z</time>
      </trkpt>
      <trkpt lat="43.60085" lon="6.86867">
        <ele>166.8035736084</ele>
        <time>2012-01-14T09:26:30Z</time>
      </trkpt>
      <trkpt lat="43.60081" lon="6.86865">
        <ele>167.78266906738</ele>
        <time>2012-01-14T09:26:33Z</time>
      </trkpt>
      <trkpt lat="43.60072" lon="6.86861">
        <ele>169.9052734375</ele>
        <time>2012-01-14T09:26:39Z</time>
      </trkpt>
      <trkpt lat="43.60063" lon="6.86858">
        <ele>171.99359130859</ele>
        <time>2012-01-14T09:26:44Z</time>
      </trkpt>
      <trkpt lat="43.60049" lon="6.86854">
        <ele>175.1143951416</ele>
        <time>2012-01-14T09:26:52Z</time>
      </trkpt>
      <trkpt lat="43.60037" lon="6.86852">
        <ele>177.7830657959</ele>
        <time>2012-01-14T09:26:59Z</time>
      </trkpt>
      <trkpt lat="43.60027" lon="6.86851">
        <ele>180.18859863281</ele>
        <time>2012-01-14T09:27:05Z</time>
      </trkpt>
      <trkpt lat="43.60013" lon="6.86847">
        <ele>183.69401550293</ele>
        <time>2012-01-14T09:27:12Z</time>
      </trkpt>
      <trkpt lat="43.59998" lon="6.86842">
        <ele>187.96739196777</ele>
        <time>2012-01-14T09:27:20Z</time>
      </trkpt>
      <trkpt lat="43.59985" lon="6.86844">
        <ele>190.18295288086</ele>
        <time>2012-01-14T09:27:27Z</time>
      </trkpt>
      <trkpt lat="43.59982" lon="6.86845">
        <ele>190.84048461914</ele>
        <time>2012-01-14T09:27:29Z</time>
      </trkpt>
      <trkpt lat="43.59978" lon="6.86838">
        <ele>193.05743408203</ele>
        <time>2012-01-14T09:27:33Z</time>
      </trkpt>
      <trkpt lat="43.59982" lon="6.86832">
        <ele>193.03749084473</ele>
        <time>2012-01-14T09:27:36Z</time>
      </trkpt>
      <trkpt lat="43.59984" lon="6.86829">
        <ele>192.33085632324</ele>
        <time>2012-01-14T09:27:38Z</time>
      </trkpt>
      <trkpt lat="43.59987" lon="6.86827">
        <ele>191.47334289551</ele>
        <time>2012-01-14T09:27:44Z</time>
      </trkpt>
      <trkpt lat="43.59995" lon="6.86824">
        <ele>189.64196777344</ele>
        <time>2012-01-14T09:27:48Z</time>
      </trkpt>
      <trkpt lat="43.59996" lon="6.86825">
        <ele>189.32948303223</ele>
        <time>2012-01-14T09:27:54Z</time>
      </trkpt>
      <trkpt lat="43.59997" lon="6.86826">
        <ele>189.20208740234</ele>
        <time>2012-01-14T09:28:04Z</time>
      </trkpt>
      <trkpt lat="43.59997" lon="6.86825">
        <ele>189.17532348633</ele>
        <time>2012-01-14T09:28:08Z</time>
      </trkpt>
      <trkpt lat="43.59997" lon="6.86826">
        <ele>189.18536376953</ele>
        <time>2012-01-14T09:28:10Z</time>
      </trkpt>
      <trkpt lat="43.59998" lon="6.86826">
        <ele>188.92607116699</ele>
        <time>2012-01-14T09:28:16Z</time>
      </trkpt>
      <trkpt lat="43.59998" lon="6.86825">
        <ele>188.80693054199</ele>
        <time>2012-01-14T09:28:20Z</time>
      </trkpt>
      <trkpt lat="43.59998" lon="6.86825">
        <ele>188.86866760254</ele>
        <time>2012-01-14T09:28:21Z</time>
      </trkpt>
      <trkpt lat="43.59999" lon="6.86822">
        <ele>188.38403320312</ele>
        <time>2012-01-14T09:28:35Z</time>
      </trkpt>
      <trkpt lat="43.59999" lon="6.86821">
        <ele>188.35336303711</ele>
        <time>2012-01-14T09:28:36Z</time>
      </trkpt>
      <trkpt lat="43.59999" lon="6.8682">
        <ele>188.26133728027</ele>
        <time>2012-01-14T09:28:37Z</time>
      </trkpt>
      <trkpt lat="43.59998" lon="6.86811">
        <ele>187.96784973144</ele>
        <time>2012-01-14T09:28:43Z</time>
      </trkpt>
      <trkpt lat="43.59995" lon="6.86803">
        <ele>188.1583404541</ele>
        <time>2012-01-14T09:28:48Z</time>
      </trkpt>
      <trkpt lat="43.59986" lon="6.86783">
        <ele>188.82983398438</ele>
        <time>2012-01-14T09:28:54Z</time>
      </trkpt>
      <trkpt lat="43.59984" lon="6.86775">
        <ele>188.90846252441</ele>
        <time>2012-01-14T09:28:58Z</time>
      </trkpt>
      <trkpt lat="43.5998" lon="6.86764">
        <ele>189.4373626709</ele>
        <time>2012-01-14T09:29:04Z</time>
      </trkpt>
      <trkpt lat="43.59975" lon="6.86752">
        <ele>190.12686157227</ele>
        <time>2012-01-14T09:29:08Z</time>
      </trkpt>
      <trkpt lat="43.59966" lon="6.8674">
        <ele>189.99371337891</ele>
        <time>2012-01-14T09:29:14Z</time>
      </trkpt>
      <trkpt lat="43.59959" lon="6.86733">
        <ele>190.22030639648</ele>
        <time>2012-01-14T09:29:20Z</time>
      </trkpt>
      <trkpt lat="43.59952" lon="6.86738">
        <ele>193.37200927734</ele>
        <time>2012-01-14T09:29:55Z</time>
      </trkpt>
      <trkpt lat="43.59942" lon="6.86731">
        <ele>194.26693725586</ele>
        <time>2012-01-14T09:29:59Z</time>
      </trkpt>
      <trkpt lat="43.5993" lon="6.86722">
        <ele>195.56469726562</ele>
        <time>2012-01-14T09:30:03Z</time>
      </trkpt>
      <trkpt lat="43.59924" lon="6.86717">
        <ele>196.08197021484</ele>
        <time>2012-01-14T09:30:05Z</time>
      </trkpt>
      <trkpt lat="43.59916" lon="6.867">
        <ele>194.09173583984</ele>
        <time>2012-01-14T09:30:10Z</time>
      </trkpt>
      <trkpt lat="43.5991" lon="6.86692">
        <ele>193.61697387695</ele>
        <time>2012-01-14T09:30:13Z</time>
      </trkpt>
      <trkpt lat="43.59909" lon="6.86689">
        <ele>193.36958312988</ele>
        <time>2012-01-14T09:30:15Z</time>
      </trkpt>
      <trkpt lat="43.59908" lon="6.86687">
        <ele>193.1495513916</ele>
        <time>2012-01-14T09:30:22Z</time>
      </trkpt>
      <trkpt lat="43.59907" lon="6.86686">
        <ele>193.00224304199</ele>
        <time>2012-01-14T09:30:26Z</time>
      </trkpt>
      <trkpt lat="43.599" lon="6.86685">
        <ele>194.62327575684</ele>
        <time>2012-01-14T09:30:32Z</time>
      </trkpt>
      <trkpt lat="43.59895" lon="6.86691">
        <ele>197.15423583984</ele>
        <time>2012-01-14T09:30:36Z</time>
      </trkpt>
      <trkpt lat="43.59893" lon="6.86692">
        <ele>197.953125</ele>
        <time>2012-01-14T09:30:39Z</time>
      </trkpt>
      <trkpt lat="43.59888" lon="6.8669">
        <ele>198.68046569824</ele>
        <time>2012-01-14T09:30:44Z</time>
      </trkpt>
      <trkpt lat="43.59884" lon="6.86689">
        <ele>199.37576293945</ele>
        <time>2012-01-14T09:30:48Z</time>
      </trkpt>
      <trkpt lat="43.59875" lon="6.86685">
        <ele>200.84497070312</ele>
        <time>2012-01-14T09:30:53Z</time>
      </trkpt>
      <trkpt lat="43.59874" lon="6.86684">
        <ele>200.81820678711</ele>
        <time>2012-01-14T09:30:54Z</time>
      </trkpt>
      <trkpt lat="43.5987" lon="6.86683">
        <ele>201.57000732422</ele>
        <time>2012-01-14T09:30:58Z</time>
      </trkpt>
      <trkpt lat="43.59874" lon="6.86685">
        <ele>200.97355651856</ele>
        <time>2012-01-14T09:31:07Z</time>
      </trkpt>
      <trkpt lat="43.59874" lon="6.86684">
        <ele>200.91256713867</ele>
        <time>2012-01-14T09:31:16Z</time>
      </trkpt>
      <trkpt lat="43.59874" lon="6.86671">
        <ele>197.79481506348</ele>
        <time>2012-01-14T09:31:20Z</time>
      </trkpt>
      <trkpt lat="43.59874" lon="6.8666">
        <ele>195.1911315918</ele>
        <time>2012-01-14T09:31:24Z</time>
      </trkpt>
      <trkpt lat="43.59873" lon="6.86653">
        <ele>193.68069458008</ele>
        <time>2012-01-14T09:31:26Z</time>
      </trkpt>
      <trkpt lat="43.59866" lon="6.86628">
        <ele>189.7268371582</ele>
        <time>2012-01-14T09:31:31Z</time>
      </trkpt>
      <trkpt lat="43.59866" lon="6.86626">
        <ele>189.54837036133</ele>
        <time>2012-01-14T09:31:32Z</time>
      </trkpt>
      <trkpt lat="43.59863" lon="6.86625">
        <ele>190.16117858887</ele>
        <time>2012-01-14T09:31:38Z</time>
      </trkpt>
      <trkpt lat="43.59862" lon="6.8662">
        <ele>189.16862487793</ele>
        <time>2012-01-14T09:31:43Z</time>
      </trkpt>
      <trkpt lat="43.59863" lon="6.86618">
        <ele>188.34390258789</ele>
        <time>2012-01-14T09:31:46Z</time>
      </trkpt>
      <trkpt lat="43.59864" lon="6.86611">
        <ele>186.50584411621</ele>
        <time>2012-01-14T09:31:49Z</time>
      </trkpt>
      <trkpt lat="43.59863" lon="6.86603">
        <ele>184.86320495606</ele>
        <time>2012-01-14T09:31:55Z</time>
      </trkpt>
      <trkpt lat="43.59865" lon="6.86595">
        <ele>182.39199829102</ele>
        <time>2012-01-14T09:31:58Z</time>
      </trkpt>
      <trkpt lat="43.59866" lon="6.86569">
        <ele>176.73393249512</ele>
        <time>2012-01-14T09:32:03Z</time>
      </trkpt>
      <trkpt lat="43.59868" lon="6.86539">
        <ele>170.08540344238</ele>
        <time>2012-01-14T09:32:08Z</time>
      </trkpt>
      <trkpt lat="43.59869" lon="6.86533">
        <ele>168.81797790527</ele>
        <time>2012-01-14T09:32:09Z</time>
      </trkpt>
      <trkpt lat="43.59866" lon="6.86517">
        <ele>166.47808837891</ele>
        <time>2012-01-14T09:32:12Z</time>
      </trkpt>
      <trkpt lat="43.59865" lon="6.86512">
        <ele>166.08363342285</ele>
        <time>2012-01-14T09:32:14Z</time>
      </trkpt>
      <trkpt lat="43.59864" lon="6.8651">
        <ele>165.94868469238</ele>
        <time>2012-01-14T09:32:18Z</time>
      </trkpt>
      <trkpt lat="43.59861" lon="6.86504">
        <ele>165.92555236816</ele>
        <time>2012-01-14T09:32:23Z</time>
      </trkpt>
      <trkpt lat="43.5986" lon="6.8648">
        <ele>161.03991699219</ele>
        <time>2012-01-14T09:32:28Z</time>
      </trkpt>
      <trkpt lat="43.59855" lon="6.86454">
        <ele>157.0859375</ele>
        <time>2012-01-14T09:32:32Z</time>
      </trkpt>
      <trkpt lat="43.59853" lon="6.86446">
        <ele>156.087890625</ele>
        <time>2012-01-14T09:32:33Z</time>
      </trkpt>
      <trkpt lat="43.59851" lon="6.86433">
        <ele>153.44897460938</ele>
        <time>2012-01-14T09:32:35Z</time>
      </trkpt>
      <trkpt lat="43.59844" lon="6.86404">
        <ele>149.44680786133</ele>
        <time>2012-01-14T09:32:40Z</time>
      </trkpt>
      <trkpt lat="43.59841" lon="6.86402">
        <ele>149.84622192383</ele>
        <time>2012-01-14T09:32:41Z</time>
      </trkpt>
      <trkpt lat="43.59834" lon="6.86397">
        <ele>150.93106079102</ele>
        <time>2012-01-14T09:32:43Z</time>
      </trkpt>
      <trkpt lat="43.59825" lon="6.86394">
        <ele>152.31832885742</ele>
        <time>2012-01-14T09:32:45Z</time>
      </trkpt>
      <trkpt lat="43.59807" lon="6.86392">
        <ele>155.9792175293</ele>
        <time>2012-01-14T09:32:50Z</time>
      </trkpt>
      <trkpt lat="43.59797" lon="6.86393">
        <ele>158.51971435547</ele>
        <time>2012-01-14T09:32:54Z</time>
      </trkpt>
      <trkpt lat="43.59786" lon="6.86378">
        <ele>157.35841369629</ele>
        <time>2012-01-14T09:32:59Z</time>
      </trkpt>
      <trkpt lat="43.59776" lon="6.8637">
        <ele>157.70364379883</ele>
        <time>2012-01-14T09:33:03Z</time>
      </trkpt>
      <trkpt lat="43.59762" lon="6.86369">
        <ele>160.46363830566</ele>
        <time>2012-01-14T09:33:07Z</time>
      </trkpt>
      <trkpt lat="43.59746" lon="6.86371">
        <ele>164.23217773438</ele>
        <time>2012-01-14T09:33:11Z</time>
      </trkpt>
      <trkpt lat="43.59721" lon="6.86374">
        <ele>168.49786376953</ele>
        <time>2012-01-14T09:33:17Z</time>
      </trkpt>
      <trkpt lat="43.59719" lon="6.86374">
        <ele>168.79435729981</ele>
        <time>2012-01-14T09:33:20Z</time>
      </trkpt>
      <trkpt lat="43.59723" lon="6.86373">
        <ele>167.97296142578</ele>
        <time>2012-01-14T09:33:35Z</time>
      </trkpt>
      <trkpt lat="43.59723" lon="6.8637">
        <ele>167.22929382324</ele>
        <time>2012-01-14T09:33:39Z</time>
      </trkpt>
      <trkpt lat="43.59723" lon="6.86365">
        <ele>166.16154479981</ele>
        <time>2012-01-14T09:33:45Z</time>
      </trkpt>
      <trkpt lat="43.59724" lon="6.86361">
        <ele>165.00590515137</ele>
        <time>2012-01-14T09:33:50Z</time>
      </trkpt>
      <trkpt lat="43.59727" lon="6.86356">
        <ele>163.09757995606</ele>
        <time>2012-01-14T09:33:54Z</time>
      </trkpt>
      <trkpt lat="43.59739" lon="6.86345">
        <ele>158.53221130371</ele>
        <time>2012-01-14T09:34:01Z</time>
      </trkpt>
      <trkpt lat="43.5974" lon="6.86342">
        <ele>157.59072875977</ele>
        <time>2012-01-14T09:34:05Z</time>
      </trkpt>
      <trkpt lat="43.59743" lon="6.86336">
        <ele>155.88423156738</ele>
        <time>2012-01-14T09:34:10Z</time>
      </trkpt>
      <trkpt lat="43.59745" lon="6.8632">
        <ele>154.46154785156</ele>
        <time>2012-01-14T09:34:15Z</time>
      </trkpt>
      <trkpt lat="43.59743" lon="6.86302">
        <ele>154.35905456543</ele>
        <time>2012-01-14T09:34:20Z</time>
      </trkpt>
      <trkpt lat="43.59737" lon="6.86287">
        <ele>154.92924499512</ele>
        <time>2012-01-14T09:34:24Z</time>
      </trkpt>
      <trkpt lat="43.59735" lon="6.8628">
        <ele>155.09022521973</ele>
        <time>2012-01-14T09:34:26Z</time>
      </trkpt>
      <trkpt lat="43.59731" lon="6.86268">
        <ele>155.53538513184</ele>
        <time>2012-01-14T09:34:31Z</time>
      </trkpt>
      <trkpt lat="43.59734" lon="6.86264">
        <ele>154.98837280273</ele>
        <time>2012-01-14T09:34:46Z</time>
      </trkpt>
      <trkpt lat="43.59738" lon="6.86263">
        <ele>154.28523254394</ele>
        <time>2012-01-14T09:34:51Z</time>
      </trkpt>
      <trkpt lat="43.5974" lon="6.86264">
        <ele>153.97811889648</ele>
        <time>2012-01-14T09:34:54Z</time>
      </trkpt>
      <trkpt lat="43.59743" lon="6.86264">
        <ele>153.5369720459</ele>
        <time>2012-01-14T09:35:00Z</time>
      </trkpt>
      <trkpt lat="43.59755" lon="6.86262">
        <ele>151.5436706543</ele>
        <time>2012-01-14T09:35:07Z</time>
      </trkpt>
      <trkpt lat="43.59764" lon="6.86259">
        <ele>150.1169128418</ele>
        <time>2012-01-14T09:35:11Z</time>
      </trkpt>
      <trkpt lat="43.59772" lon="6.86254">
        <ele>148.9123840332</ele>
        <time>2012-01-14T09:35:15Z</time>
      </trkpt>
      <trkpt lat="43.59779" lon="6.86238">
        <ele>151.01914978027</ele>
        <time>2012-01-14T09:35:23Z</time>
      </trkpt>
      <trkpt lat="43.59783" lon="6.86227">
        <ele>153.44673156738</ele>
        <time>2012-01-14T09:35:29Z</time>
      </trkpt>
      <trkpt lat="43.59787" lon="6.86218">
        <ele>155.40336608887</ele>
        <time>2012-01-14T09:35:33Z</time>
      </trkpt>
      <trkpt lat="43.59794" lon="6.86203">
        <ele>158.45274353027</ele>
        <time>2012-01-14T09:35:41Z</time>
      </trkpt>
      <trkpt lat="43.59795" lon="6.86198">
        <ele>159.61204528809</ele>
        <time>2012-01-14T09:35:46Z</time>
      </trkpt>
      <trkpt lat="43.59799" lon="6.86194">
        <ele>160.1121673584</ele>
        <time>2012-01-14T09:35:53Z</time>
      </trkpt>
      <trkpt lat="43.59803" lon="6.8619">
        <ele>160.84982299805</ele>
        <time>2012-01-14T09:36:01Z</time>
      </trkpt>
      <trkpt lat="43.59806" lon="6.86188">
        <ele>160.8134765625</ele>
        <time>2012-01-14T09:36:07Z</time>
      </trkpt>
      <trkpt lat="43.59807" lon="6.86183">
        <ele>162.04791259766</ele>
        <time>2012-01-14T09:36:14Z</time>
      </trkpt>
      <trkpt lat="43.59808" lon="6.8618">
        <ele>162.71249389648</ele>
        <time>2012-01-14T09:36:16Z</time>
      </trkpt>
      <trkpt lat="43.59813" lon="6.86171">
        <ele>164.39266967773</ele>
        <time>2012-01-14T09:36:23Z</time>
      </trkpt>
      <trkpt lat="43.59814" lon="6.86171">
        <ele>164.47232055664</ele>
        <time>2012-01-14T09:36:24Z</time>
      </trkpt>
      <trkpt lat="43.59815" lon="6.86168">
        <ele>165.03915405273</ele>
        <time>2012-01-14T09:36:27Z</time>
      </trkpt>
      <trkpt lat="43.59816" lon="6.86164">
        <ele>165.9688873291</ele>
        <time>2012-01-14T09:36:34Z</time>
      </trkpt>
      <trkpt lat="43.59816" lon="6.86161">
        <ele>166.72828674316</ele>
        <time>2012-01-14T09:36:40Z</time>
      </trkpt>
      <trkpt lat="43.59818" lon="6.86165">
        <ele>165.38456726074</ele>
        <time>2012-01-14T09:36:43Z</time>
      </trkpt>
      <trkpt lat="43.5982" lon="6.86173">
        <ele>163.01124572754</ele>
        <time>2012-01-14T09:36:48Z</time>
      </trkpt>
      <trkpt lat="43.5982" lon="6.86178">
        <ele>161.6911315918</ele>
        <time>2012-01-14T09:36:55Z</time>
      </trkpt>
      <trkpt lat="43.59822" lon="6.86179">
        <ele>161.14717102051</ele>
        <time>2012-01-14T09:37:05Z</time>
      </trkpt>
      <trkpt lat="43.59823" lon="6.8618">
        <ele>160.61450195312</ele>
        <time>2012-01-14T09:37:15Z</time>
      </trkpt>
      <trkpt lat="43.59822" lon="6.86182">
        <ele>160.34924316406</ele>
        <time>2012-01-14T09:37:20Z</time>
      </trkpt>
      <trkpt lat="43.59819" lon="6.86181">
        <ele>161.12446594238</ele>
        <time>2012-01-14T09:37:25Z</time>
      </trkpt>
      <trkpt lat="43.59821" lon="6.8618">
        <ele>161.09111022949</ele>
        <time>2012-01-14T09:37:31Z</time>
      </trkpt>
      <trkpt lat="43.59823" lon="6.86181">
        <ele>160.52412414551</ele>
        <time>2012-01-14T09:37:37Z</time>
      </trkpt>
      <trkpt lat="43.59828" lon="6.8618">
        <ele>160.06820678711</ele>
        <time>2012-01-14T09:37:42Z</time>
      </trkpt>
      <trkpt lat="43.5983" lon="6.86178">
        <ele>160.26095581055</ele>
        <time>2012-01-14T09:37:46Z</time>
      </trkpt>
      <trkpt lat="43.59833" lon="6.86177">
        <ele>160.30049133301</ele>
        <time>2012-01-14T09:37:50Z</time>
      </trkpt>
      <trkpt lat="43.59838" lon="6.86175">
        <ele>159.82269287109</ele>
        <time>2012-01-14T09:37:56Z</time>
      </trkpt>
      <trkpt lat="43.5984" lon="6.86173">
        <ele>159.93342590332</ele>
        <time>2012-01-14T09:37:59Z</time>
      </trkpt>
      <trkpt lat="43.59845" lon="6.86171">
        <ele>159.59674072266</ele>
        <time>2012-01-14T09:38:07Z</time>
      </trkpt>
      <trkpt lat="43.59847" lon="6.86168">
        <ele>160.07936096191</ele>
        <time>2012-01-14T09:38:14Z</time>
      </trkpt>
      <trkpt lat="43.59848" lon="6.86164">
        <ele>160.90948486328</ele>
        <time>2012-01-14T09:38:23Z</time>
      </trkpt>
      <trkpt lat="43.59851" lon="6.86163">
        <ele>160.48948669434</ele>
        <time>2012-01-14T09:38:29Z</time>
      </trkpt>
      <trkpt lat="43.59854" lon="6.8616">
        <ele>160.78016662598</ele>
        <time>2012-01-14T09:38:36Z</time>
      </trkpt>
      <trkpt lat="43.59855" lon="6.86155">
        <ele>161.94746398926</ele>
        <time>2012-01-14T09:38:43Z</time>
      </trkpt>
      <trkpt lat="43.59858" lon="6.86153">
        <ele>161.91542053223</ele>
        <time>2012-01-14T09:38:49Z</time>
      </trkpt>
      <trkpt lat="43.59862" lon="6.86151">
        <ele>161.60871887207</ele>
        <time>2012-01-14T09:38:55Z</time>
      </trkpt>
      <trkpt lat="43.59868" lon="6.86147">
        <ele>161.39585876465</ele>
        <time>2012-01-14T09:39:04Z</time>
      </trkpt>
      <trkpt lat="43.59875" lon="6.86143">
        <ele>161.27111816406</ele>
        <time>2012-01-14T09:39:12Z</time>
      </trkpt>
      <trkpt lat="43.59879" lon="6.86141">
        <ele>161.15553283691</ele>
        <time>2012-01-14T09:39:19Z</time>
      </trkpt>
      <trkpt lat="43.59875" lon="6.86139">
        <ele>162.15689086914</ele>
        <time>2012-01-14T09:39:34Z</time>
      </trkpt>
      <trkpt lat="43.59875" lon="6.86139">
        <ele>162.31825256348</ele>
        <time>2012-01-14T09:39:40Z</time>
      </trkpt>
      <trkpt lat="43.59875" lon="6.86139">
        <ele>162.47961425781</ele>
        <time>2012-01-14T09:39:45Z</time>
      </trkpt>
      <trkpt lat="43.59874" lon="6.86138">
        <ele>162.62838745117</ele>
        <time>2012-01-14T09:39:49Z</time>
      </trkpt>
      <trkpt lat="43.59874" lon="6.86138">
        <ele>162.65356445312</ele>
        <time>2012-01-14T09:39:53Z</time>
      </trkpt>
      <trkpt lat="43.59877" lon="6.8614">
        <ele>161.66250610352</ele>
        <time>2012-01-14T09:39:58Z</time>
      </trkpt>
      <trkpt lat="43.5988" lon="6.86141">
        <ele>160.75956726074</ele>
        <time>2012-01-14T09:40:04Z</time>
      </trkpt>
      <trkpt lat="43.59883" lon="6.86143">
        <ele>159.72044372559</ele>
        <time>2012-01-14T09:40:10Z</time>
      </trkpt>
      <trkpt lat="43.59885" lon="6.86144">
        <ele>159.16540527344</ele>
        <time>2012-01-14T09:40:16Z</time>
      </trkpt>
      <trkpt lat="43.59886" lon="6.86144">
        <ele>158.75914001465</ele>
        <time>2012-01-14T09:40:27Z</time>
      </trkpt>
      <trkpt lat="43.59887" lon="6.86144">
        <ele>158.73625183106</ele>
        <time>2012-01-14T09:40:36Z</time>
      </trkpt>
      <trkpt lat="43.5988" lon="6.8614">
        <ele>161.16468811035</ele>
        <time>2012-01-14T09:40:53Z</time>
      </trkpt>
      <trkpt lat="43.5988" lon="6.86139">
        <ele>161.24021911621</ele>
        <time>2012-01-14T09:40:54Z</time>
      </trkpt>
      <trkpt lat="43.5988" lon="6.86139">
        <ele>161.29057312012</ele>
        <time>2012-01-14T09:40:55Z</time>
      </trkpt>
      <trkpt lat="43.59885" lon="6.86138">
        <ele>160.66572570801</ele>
        <time>2012-01-14T09:41:02Z</time>
      </trkpt>
      <trkpt lat="43.59886" lon="6.86136">
        <ele>161.03765869141</ele>
        <time>2012-01-14T09:41:04Z</time>
      </trkpt>
      <trkpt lat="43.59887" lon="6.86135">
        <ele>161.22877502441</ele>
        <time>2012-01-14T09:41:05Z</time>
      </trkpt>
      <trkpt lat="43.59888" lon="6.86132">
        <ele>161.7140045166</ele>
        <time>2012-01-14T09:41:07Z</time>
      </trkpt>
      <trkpt lat="43.59893" lon="6.86113">
        <ele>165.71371459961</ele>
        <time>2012-01-14T09:41:13Z</time>
      </trkpt>
      <trkpt lat="43.59893" lon="6.86108">
        <ele>166.89474487305</ele>
        <time>2012-01-14T09:41:14Z</time>
      </trkpt>
      <trkpt lat="43.5989" lon="6.86094">
        <ele>171.31788635254</ele>
        <time>2012-01-14T09:41:19Z</time>
      </trkpt>
      <trkpt lat="43.59885" lon="6.86078">
        <ele>177.14598083496</ele>
        <time>2012-01-14T09:41:25Z</time>
      </trkpt>
      <trkpt lat="43.59882" lon="6.86063">
        <ele>182.74456787109</ele>
        <time>2012-01-14T09:41:31Z</time>
      </trkpt>
      <trkpt lat="43.5988" lon="6.86051">
        <ele>187.38531494141</ele>
        <time>2012-01-14T09:41:37Z</time>
      </trkpt>
      <trkpt lat="43.5988" lon="6.86048">
        <ele>188.42634582519</ele>
        <time>2012-01-14T09:41:39Z</time>
      </trkpt>
      <trkpt lat="43.59886" lon="6.8604">
        <ele>189.87138366699</ele>
        <time>2012-01-14T09:41:45Z</time>
      </trkpt>
      <trkpt lat="43.5989" lon="6.86038">
        <ele>189.82858276367</ele>
        <time>2012-01-14T09:41:48Z</time>
      </trkpt>
      <trkpt lat="43.59894" lon="6.86034">
        <ele>190.14045715332</ele>
        <time>2012-01-14T09:41:51Z</time>
      </trkpt>
      <trkpt lat="43.59899" lon="6.8603">
        <ele>190.55003356934</ele>
        <time>2012-01-14T09:41:55Z</time>
      </trkpt>
      <trkpt lat="43.59906" lon="6.86021">
        <ele>192.23272705078</ele>
        <time>2012-01-14T09:42:01Z</time>
      </trkpt>
      <trkpt lat="43.5991" lon="6.86015">
        <ele>193.26870727539</ele>
        <time>2012-01-14T09:42:07Z</time>
      </trkpt>
      <trkpt lat="43.59912" lon="6.86014">
        <ele>193.34759521484</ele>
        <time>2012-01-14T09:42:10Z</time>
      </trkpt>
      <trkpt lat="43.59914" lon="6.86014">
        <ele>192.89553833008</ele>
        <time>2012-01-14T09:42:17Z</time>
      </trkpt>
      <trkpt lat="43.59911" lon="6.86013">
        <ele>193.68684387207</ele>
        <time>2012-01-14T09:42:23Z</time>
      </trkpt>
      <trkpt lat="43.59906" lon="6.86013">
        <ele>195.09466552734</ele>
        <time>2012-01-14T09:42:32Z</time>
      </trkpt>
      <trkpt lat="43.59906" lon="6.86016">
        <ele>193.81739807129</ele>
        <time>2012-01-14T09:42:34Z</time>
      </trkpt>
      <trkpt lat="43.59912" lon="6.86031">
        <ele>187.47682189941</ele>
        <time>2012-01-14T09:42:41Z</time>
      </trkpt>
      <trkpt lat="43.59922" lon="6.86038">
        <ele>184.41030883789</ele>
        <time>2012-01-14T09:42:46Z</time>
      </trkpt>
      <trkpt lat="43.59933" lon="6.86043">
        <ele>183.13021850586</ele>
        <time>2012-01-14T09:42:52Z</time>
      </trkpt>
      <trkpt lat="43.59945" lon="6.86046">
        <ele>182.33685302734</ele>
        <time>2012-01-14T09:42:58Z</time>
      </trkpt>
      <trkpt lat="43.59955" lon="6.86049">
        <ele>181.54302978516</ele>
        <time>2012-01-14T09:43:04Z</time>
      </trkpt>
      <trkpt lat="43.59956" lon="6.8605">
        <ele>181.23393249512</ele>
        <time>2012-01-14T09:43:05Z</time>
      </trkpt>
      <trkpt lat="43.59962" lon="6.86049">
        <ele>181.81208801269</ele>
        <time>2012-01-14T09:43:13Z</time>
      </trkpt>
      <trkpt lat="43.59964" lon="6.86049">
        <ele>181.78555297852</ele>
        <time>2012-01-14T09:43:21Z</time>
      </trkpt>
      <trkpt lat="43.59966" lon="6.86046">
        <ele>182.99688720703</ele>
        <time>2012-01-14T09:43:30Z</time>
      </trkpt>
      <trkpt lat="43.59966" lon="6.86042">
        <ele>184.29425048828</ele>
        <time>2012-01-14T09:43:35Z</time>
      </trkpt>
      <trkpt lat="43.59966" lon="6.86041">
        <ele>184.85704040527</ele>
        <time>2012-01-14T09:43:43Z</time>
      </trkpt>
      <trkpt lat="43.59967" lon="6.86038">
        <ele>185.84573364258</ele>
        <time>2012-01-14T09:43:50Z</time>
      </trkpt>
      <trkpt lat="43.5997" lon="6.86037">
        <ele>186.0537109375</ele>
        <time>2012-01-14T09:43:56Z</time>
      </trkpt>
      <trkpt lat="43.59975" lon="6.86038">
        <ele>186.02963256836</ele>
        <time>2012-01-14T09:44:02Z</time>
      </trkpt>
      <trkpt lat="43.59982" lon="6.86039">
        <ele>185.9923248291</ele>
        <time>2012-01-14T09:44:09Z</time>
      </trkpt>
      <trkpt lat="43.59982" lon="6.8604">
        <ele>185.66961669922</ele>
        <time>2012-01-14T09:44:15Z</time>
      </trkpt>
      <trkpt lat="43.59982" lon="6.86038">
        <ele>186.11921691894</ele>
        <time>2012-01-14T09:44:26Z</time>
      </trkpt>
      <trkpt lat="43.59979" lon="6.86035">
        <ele>187.14006042481</ele>
        <time>2012-01-14T09:44:38Z</time>
      </trkpt>
      <trkpt lat="43.59978" lon="6.86035">
        <ele>187.00598144531</ele>
        <time>2012-01-14T09:44:49Z</time>
      </trkpt>
      <trkpt lat="43.59978" lon="6.86036">
        <ele>186.74758911133</ele>
        <time>2012-01-14T09:44:57Z</time>
      </trkpt>
      <trkpt lat="43.59977" lon="6.86036">
        <ele>186.71939086914</ele>
        <time>2012-01-14T09:45:02Z</time>
      </trkpt>
      <trkpt lat="43.59977" lon="6.86036">
        <ele>186.63720703125</ele>
        <time>2012-01-14T09:45:03Z</time>
      </trkpt>
      <trkpt lat="43.59977" lon="6.86038">
        <ele>186.20980834961</ele>
        <time>2012-01-14T09:45:15Z</time>
      </trkpt>
      <trkpt lat="43.59978" lon="6.86039">
        <ele>185.79400634766</ele>
        <time>2012-01-14T09:45:16Z</time>
      </trkpt>
      <trkpt lat="43.59984" lon="6.86039">
        <ele>185.86418151856</ele>
        <time>2012-01-14T09:45:20Z</time>
      </trkpt>
      <trkpt lat="43.59992" lon="6.86042">
        <ele>185.24227905273</ele>
        <time>2012-01-14T09:45:25Z</time>
      </trkpt>
      <trkpt lat="43.60005" lon="6.86055">
        <ele>181.5153503418</ele>
        <time>2012-01-14T09:45:33Z</time>
      </trkpt>
      <trkpt lat="43.60014" lon="6.86065">
        <ele>179.29539489746</ele>
        <time>2012-01-14T09:45:39Z</time>
      </trkpt>
      <trkpt lat="43.60025" lon="6.86067">
        <ele>179.88475036621</ele>
        <time>2012-01-14T09:45:44Z</time>
      </trkpt>
      <trkpt lat="43.60038" lon="6.86063">
        <ele>182.98080444336</ele>
        <time>2012-01-14T09:45:50Z</time>
      </trkpt>
      <trkpt lat="43.60044" lon="6.86058">
        <ele>185.18489074707</ele>
        <time>2012-01-14T09:45:53Z</time>
      </trkpt>
      <trkpt lat="43.60046" lon="6.86057">
        <ele>185.75607299805</ele>
        <time>2012-01-14T09:45:56Z</time>
      </trkpt>
      <trkpt lat="43.60048" lon="6.86053">
        <ele>187.20391845703</ele>
        <time>2012-01-14T09:46:01Z</time>
      </trkpt>
      <trkpt lat="43.60052" lon="6.8605">
        <ele>188.46273803711</ele>
        <time>2012-01-14T09:46:06Z</time>
      </trkpt>
      <trkpt lat="43.60058" lon="6.86049">
        <ele>189.63581848144</ele>
        <time>2012-01-14T09:46:14Z</time>
      </trkpt>
      <trkpt lat="43.60058" lon="6.8605">
        <ele>189.40843200684</ele>
        <time>2012-01-14T09:46:20Z</time>
      </trkpt>
      <trkpt lat="43.60057" lon="6.86051">
        <ele>188.80978393555</ele>
        <time>2012-01-14T09:46:36Z</time>
      </trkpt>
      <trkpt lat="43.60059" lon="6.86053">
        <ele>188.57429504394</ele>
        <time>2012-01-14T09:46:42Z</time>
      </trkpt>
      <trkpt lat="43.60059" lon="6.86053">
        <ele>188.517578125</ele>
        <time>2012-01-14T09:46:43Z</time>
      </trkpt>
      <trkpt lat="43.60059" lon="6.86053">
        <ele>188.44912719727</ele>
        <time>2012-01-14T09:46:45Z</time>
      </trkpt>
      <trkpt lat="43.60059" lon="6.86053">
        <ele>188.45167541504</ele>
        <time>2012-01-14T09:46:46Z</time>
      </trkpt>
      <trkpt lat="43.6006" lon="6.86054">
        <ele>188.39779663086</ele>
        <time>2012-01-14T09:46:48Z</time>
      </trkpt>
      <trkpt lat="43.60063" lon="6.86052">
        <ele>189.36380004883</ele>
        <time>2012-01-14T09:46:56Z</time>
      </trkpt>
      <trkpt lat="43.60068" lon="6.86048">
        <ele>190.94708251953</ele>
        <time>2012-01-14T09:47:02Z</time>
      </trkpt>
      <trkpt lat="43.60072" lon="6.86046">
        <ele>191.96711730957</ele>
        <time>2012-01-14T09:47:08Z</time>
      </trkpt>
      <trkpt lat="43.60073" lon="6.86043">
        <ele>192.92655944824</ele>
        <time>2012-01-14T09:47:14Z</time>
      </trkpt>
      <trkpt lat="43.60086" lon="6.86038">
        <ele>195.60847473144</ele>
        <time>2012-01-14T09:47:20Z</time>
      </trkpt>
      <trkpt lat="43.60096" lon="6.86032">
        <ele>197.02258300781</ele>
        <time>2012-01-14T09:47:25Z</time>
      </trkpt>
      <trkpt lat="43.60104" lon="6.86028">
        <ele>198.09939575195</ele>
        <time>2012-01-14T09:47:29Z</time>
      </trkpt>
      <trkpt lat="43.60118" lon="6.86018">
        <ele>199.95904541016</ele>
        <time>2012-01-14T09:47:37Z</time>
      </trkpt>
      <trkpt lat="43.6012" lon="6.86017">
        <ele>200.08624267578</ele>
        <time>2012-01-14T09:47:38Z</time>
      </trkpt>
      <trkpt lat="43.60132" lon="6.86019">
        <ele>199.23948669434</ele>
        <time>2012-01-14T09:47:43Z</time>
      </trkpt>
      <trkpt lat="43.6013" lon="6.86015">
        <ele>199.99383544922</ele>
        <time>2012-01-14T09:47:56Z</time>
      </trkpt>
      <trkpt lat="43.60129" lon="6.86013">
        <ele>200.47795104981</ele>
        <time>2012-01-14T09:48:04Z</time>
      </trkpt>
      <trkpt lat="43.60128" lon="6.86012">
        <ele>200.66554260254</ele>
        <time>2012-01-14T09:48:08Z</time>
      </trkpt>
      <trkpt lat="43.60129" lon="6.8601">
        <ele>200.98435974121</ele>
        <time>2012-01-14T09:48:14Z</time>
      </trkpt>
      <trkpt lat="43.60128" lon="6.86009">
        <ele>201.17973327637</ele>
        <time>2012-01-14T09:48:25Z</time>
      </trkpt>
      <trkpt lat="43.60127" lon="6.86009">
        <ele>201.15948486328</ele>
        <time>2012-01-14T09:48:29Z</time>
      </trkpt>
      <trkpt lat="43.60125" lon="6.86012">
        <ele>200.7106628418</ele>
        <time>2012-01-14T09:49:12Z</time>
      </trkpt>
      <trkpt lat="43.60125" lon="6.86013">
        <ele>200.65800476074</ele>
        <time>2012-01-14T09:49:18Z</time>
      </trkpt>
      <trkpt lat="43.60125" lon="6.86013">
        <ele>200.65800476074</ele>
        <time>2012-01-14T09:49:20Z</time>
      </trkpt>
      <trkpt lat="43.60125" lon="6.86013">
        <ele>200.64916992188</ele>
        <time>2012-01-14T09:49:21Z</time>
      </trkpt>
      <trkpt lat="43.60127" lon="6.86012">
        <ele>200.59803771973</ele>
        <time>2012-01-14T09:49:28Z</time>
      </trkpt>
      <trkpt lat="43.60133" lon="6.86017">
        <ele>199.54487609863</ele>
        <time>2012-01-14T09:49:33Z</time>
      </trkpt>
      <trkpt lat="43.60138" lon="6.86021">
        <ele>198.69506835938</ele>
        <time>2012-01-14T09:49:36Z</time>
      </trkpt>
      <trkpt lat="43.60144" lon="6.86026">
        <ele>197.82183837891</ele>
        <time>2012-01-14T09:49:40Z</time>
      </trkpt>
      <trkpt lat="43.6016" lon="6.86025">
        <ele>197.73104858398</ele>
        <time>2012-01-14T09:49:46Z</time>
      </trkpt>
      <trkpt lat="43.60176" lon="6.86024">
        <ele>197.48184204102</ele>
        <time>2012-01-14T09:49:52Z</time>
      </trkpt>
      <trkpt lat="43.60182" lon="6.86023">
        <ele>197.42500305176</ele>
        <time>2012-01-14T09:49:54Z</time>
      </trkpt>
      <trkpt lat="43.602" lon="6.8602">
        <ele>197.2536315918</ele>
        <time>2012-01-14T09:50:02Z</time>
      </trkpt>
      <trkpt lat="43.60212" lon="6.86017">
        <ele>197.40596008301</ele>
        <time>2012-01-14T09:50:07Z</time>
      </trkpt>
      <trkpt lat="43.6023" lon="6.8601">
        <ele>197.87547302246</ele>
        <time>2012-01-14T09:50:14Z</time>
      </trkpt>
      <trkpt lat="43.60242" lon="6.85994">
        <ele>199.02241516113</ele>
        <time>2012-01-14T09:50:21Z</time>
      </trkpt>
      <trkpt lat="43.60243" lon="6.85992">
        <ele>198.99575805664</ele>
        <time>2012-01-14T09:50:24Z</time>
      </trkpt>
      <trkpt lat="43.60243" lon="6.85992">
        <ele>198.99575805664</ele>
        <time>2012-01-14T09:50:32Z</time>
      </trkpt>
      <trkpt lat="43.60243" lon="6.85992">
        <ele>198.99838256836</ele>
        <time>2012-01-14T09:50:42Z</time>
      </trkpt>
      <trkpt lat="43.60243" lon="6.85993">
        <ele>198.99996948242</ele>
        <time>2012-01-14T09:50:46Z</time>
      </trkpt>
      <trkpt lat="43.60243" lon="6.85993">
        <ele>199.00651550293</ele>
        <time>2012-01-14T09:50:53Z</time>
      </trkpt>
      <trkpt lat="43.60243" lon="6.85993">
        <ele>199.00259399414</ele>
        <time>2012-01-14T09:51:22Z</time>
      </trkpt>
      <trkpt lat="43.60243" lon="6.85993">
        <ele>199.00259399414</ele>
        <time>2012-01-14T09:51:26Z</time>
      </trkpt>
      <trkpt lat="43.60242" lon="6.85993">
        <ele>199.01490783691</ele>
        <time>2012-01-14T09:51:30Z</time>
      </trkpt>
      <trkpt lat="43.60242" lon="6.85992">
        <ele>199.01679992676</ele>
        <time>2012-01-14T09:51:35Z</time>
      </trkpt>
      <trkpt lat="43.60241" lon="6.85992">
        <ele>199.03079223633</ele>
        <time>2012-01-14T09:51:41Z</time>
      </trkpt>
      <trkpt lat="43.60239" lon="6.85995">
        <ele>199.08447265625</ele>
        <time>2012-01-14T09:51:45Z</time>
      </trkpt>
      <trkpt lat="43.60231" lon="6.86004">
        <ele>198.7247467041</ele>
        <time>2012-01-14T09:51:50Z</time>
      </trkpt>
      <trkpt lat="43.60216" lon="6.86008">
        <ele>198.43699645996</ele>
        <time>2012-01-14T09:51:55Z</time>
      </trkpt>
      <trkpt lat="43.60201" lon="6.86013">
        <ele>198.06153869629</ele>
        <time>2012-01-14T09:52:01Z</time>
      </trkpt>
      <trkpt lat="43.60175" lon="6.86021">
        <ele>197.76155090332</ele>
        <time>2012-01-14T09:52:08Z</time>
      </trkpt>
      <trkpt lat="43.60151" lon="6.86022">
        <ele>198.27742004394</ele>
        <time>2012-01-14T09:52:14Z</time>
      </trkpt>
      <trkpt lat="43.60135" lon="6.86005">
        <ele>201.43823242188</ele>
        <time>2012-01-14T09:52:20Z</time>
      </trkpt>
      <trkpt lat="43.60125" lon="6.8598">
        <ele>204.51264953613</ele>
        <time>2012-01-14T09:52:26Z</time>
      </trkpt>
      <trkpt lat="43.60113" lon="6.85954">
        <ele>208.11259460449</ele>
        <time>2012-01-14T09:52:32Z</time>
      </trkpt>
      <trkpt lat="43.60107" lon="6.85944">
        <ele>210.16355895996</ele>
        <time>2012-01-14T09:52:35Z</time>
      </trkpt>
      <trkpt lat="43.60104" lon="6.85937">
        <ele>211.40266418457</ele>
        <time>2012-01-14T09:52:37Z</time>
      </trkpt>
      <trkpt lat="43.60096" lon="6.85922">
        <ele>214.54969787598</ele>
        <time>2012-01-14T09:52:43Z</time>
      </trkpt>
      <trkpt lat="43.60086" lon="6.85905">
        <ele>218.34841918945</ele>
        <time>2012-01-14T09:52:50Z</time>
      </trkpt>
      <trkpt lat="43.60077" lon="6.85891">
        <ele>221.01557922363</ele>
        <time>2012-01-14T09:52:56Z</time>
      </trkpt>
      <trkpt lat="43.60073" lon="6.85877">
        <ele>222.71890258789</ele>
        <time>2012-01-14T09:53:01Z</time>
      </trkpt>
      <trkpt lat="43.60075" lon="6.85861">
        <ele>223.96026611328</ele>
        <time>2012-01-14T09:53:07Z</time>
      </trkpt>
      <trkpt lat="43.60076" lon="6.85845">
        <ele>225.25231933594</ele>
        <time>2012-01-14T09:53:13Z</time>
      </trkpt>
      <trkpt lat="43.60078" lon="6.85841">
        <ele>225.18476867676</ele>
        <time>2012-01-14T09:53:16Z</time>
      </trkpt>
      <trkpt lat="43.60083" lon="6.85837">
        <ele>224.67622375488</ele>
        <time>2012-01-14T09:53:21Z</time>
      </trkpt>
      <trkpt lat="43.60083" lon="6.85834">
        <ele>224.90435791016</ele>
        <time>2012-01-14T09:53:26Z</time>
      </trkpt>
      <trkpt lat="43.60085" lon="6.85828">
        <ele>224.80651855469</ele>
        <time>2012-01-14T09:53:30Z</time>
      </trkpt>
      <trkpt lat="43.60089" lon="6.85815">
        <ele>223.92576599121</ele>
        <time>2012-01-14T09:53:37Z</time>
      </trkpt>
      <trkpt lat="43.60088" lon="6.85801">
        <ele>224.82008361816</ele>
        <time>2012-01-14T09:53:43Z</time>
      </trkpt>
      <trkpt lat="43.60089" lon="6.85793">
        <ele>224.7958984375</ele>
        <time>2012-01-14T09:53:48Z</time>
      </trkpt>
      <trkpt lat="43.60085" lon="6.85776">
        <ele>226.50230407715</ele>
        <time>2012-01-14T09:53:56Z</time>
      </trkpt>
      <trkpt lat="43.60082" lon="6.85766">
        <ele>227.63458251953</ele>
        <time>2012-01-14T09:54:03Z</time>
      </trkpt>
      <trkpt lat="43.60079" lon="6.8576">
        <ele>228.48864746094</ele>
        <time>2012-01-14T09:54:07Z</time>
      </trkpt>
      <trkpt lat="43.60073" lon="6.8575">
        <ele>229.96650695801</ele>
        <time>2012-01-14T09:54:14Z</time>
      </trkpt>
      <trkpt lat="43.60063" lon="6.85742">
        <ele>230.93728637695</ele>
        <time>2012-01-14T09:54:21Z</time>
      </trkpt>
      <trkpt lat="43.60055" lon="6.85741">
        <ele>232.41059875488</ele>
        <time>2012-01-14T09:54:27Z</time>
      </trkpt>
      <trkpt lat="43.60046" lon="6.85744">
        <ele>234.3974609375</ele>
        <time>2012-01-14T09:54:33Z</time>
      </trkpt>
      <trkpt lat="43.60038" lon="6.85753">
        <ele>236.57496643066</ele>
        <time>2012-01-14T09:54:41Z</time>
      </trkpt>
      <trkpt lat="43.60031" lon="6.8576">
        <ele>237.60186767578</ele>
        <time>2012-01-14T09:54:48Z</time>
      </trkpt>
      <trkpt lat="43.60027" lon="6.85767">
        <ele>238.07347106934</ele>
        <time>2012-01-14T09:54:54Z</time>
      </trkpt>
      <trkpt lat="43.60023" lon="6.85771">
        <ele>238.57313537598</ele>
        <time>2012-01-14T09:55:01Z</time>
      </trkpt>
      <trkpt lat="43.60015" lon="6.85766">
        <ele>240.27743530273</ele>
        <time>2012-01-14T09:55:23Z</time>
      </trkpt>
      <trkpt lat="43.60014" lon="6.85766">
        <ele>240.53169250488</ele>
        <time>2012-01-14T09:55:28Z</time>
      </trkpt>
      <trkpt lat="43.60014" lon="6.85765">
        <ele>240.70501708984</ele>
        <time>2012-01-14T09:55:33Z</time>
      </trkpt>
      <trkpt lat="43.60013" lon="6.85765">
        <ele>240.86965942383</ele>
        <time>2012-01-14T09:55:38Z</time>
      </trkpt>
      <trkpt lat="43.60013" lon="6.85765">
        <ele>240.78402709961</ele>
        <time>2012-01-14T09:55:40Z</time>
      </trkpt>
      <trkpt lat="43.60014" lon="6.85765">
        <ele>240.68525695801</ele>
        <time>2012-01-14T09:55:44Z</time>
      </trkpt>
      <trkpt lat="43.60014" lon="6.85766">
        <ele>240.50541687012</ele>
        <time>2012-01-14T09:55:50Z</time>
      </trkpt>
      <trkpt lat="43.60012" lon="6.85764">
        <ele>241.02558898926</ele>
        <time>2012-01-14T09:56:13Z</time>
      </trkpt>
      <trkpt lat="43.60012" lon="6.85764">
        <ele>241.0299987793</ele>
        <time>2012-01-14T09:56:14Z</time>
      </trkpt>
      <trkpt lat="43.60012" lon="6.85764">
        <ele>241.10467529297</ele>
        <time>2012-01-14T09:56:15Z</time>
      </trkpt>
      <trkpt lat="43.6001" lon="6.8577">
        <ele>241.14376831055</ele>
        <time>2012-01-14T09:56:20Z</time>
      </trkpt>
      <trkpt lat="43.60006" lon="6.85777">
        <ele>241.6632232666</ele>
        <time>2012-01-14T09:56:25Z</time>
      </trkpt>
      <trkpt lat="43.59998" lon="6.85788">
        <ele>242.60289001465</ele>
        <time>2012-01-14T09:56:31Z</time>
      </trkpt>
      <trkpt lat="43.59993" lon="6.85792">
        <ele>243.30833435059</ele>
        <time>2012-01-14T09:56:34Z</time>
      </trkpt>
      <trkpt lat="43.5999" lon="6.85796">
        <ele>243.84092712402</ele>
        <time>2012-01-14T09:56:37Z</time>
      </trkpt>
      <trkpt lat="43.59981" lon="6.85803">
        <ele>245.10389709473</ele>
        <time>2012-01-14T09:56:43Z</time>
      </trkpt>
      <trkpt lat="43.59976" lon="6.85807">
        <ele>245.69017028809</ele>
        <time>2012-01-14T09:56:46Z</time>
      </trkpt>
      <trkpt lat="43.59975" lon="6.85809">
        <ele>245.89291381836</ele>
        <time>2012-01-14T09:56:47Z</time>
      </trkpt>
      <trkpt lat="43.59972" lon="6.85811">
        <ele>246.216796875</ele>
        <time>2012-01-14T09:56:49Z</time>
      </trkpt>
      <trkpt lat="43.59967" lon="6.85816">
        <ele>246.74951171875</ele>
        <time>2012-01-14T09:56:53Z</time>
      </trkpt>
      <trkpt lat="43.59964" lon="6.85819">
        <ele>247.04096984863</ele>
        <time>2012-01-14T09:56:55Z</time>
      </trkpt>
      <trkpt lat="43.59959" lon="6.85829">
        <ele>247.13356018066</ele>
        <time>2012-01-14T09:57:02Z</time>
      </trkpt>
      <trkpt lat="43.59958" lon="6.85829">
        <ele>247.47833251953</ele>
        <time>2012-01-14T09:57:09Z</time>
      </trkpt>
      <trkpt lat="43.59956" lon="6.85829">
        <ele>247.7703704834</ele>
        <time>2012-01-14T09:57:20Z</time>
      </trkpt>
      <trkpt lat="43.59958" lon="6.85831">
        <ele>247.25621032715</ele>
        <time>2012-01-14T09:57:22Z</time>
      </trkpt>
      <trkpt lat="43.59962" lon="6.85836">
        <ele>245.7741394043</ele>
        <time>2012-01-14T09:57:26Z</time>
      </trkpt>
      <trkpt lat="43.59963" lon="6.85839">
        <ele>244.99606323242</ele>
        <time>2012-01-14T09:57:32Z</time>
      </trkpt>
      <trkpt lat="43.59962" lon="6.85833">
        <ele>246.45402526856</ele>
        <time>2012-01-14T09:57:37Z</time>
      </trkpt>
      <trkpt lat="43.59959" lon="6.85833">
        <ele>247.00067138672</ele>
        <time>2012-01-14T09:57:40Z</time>
      </trkpt>
      <trkpt lat="43.59956" lon="6.85832">
        <ele>247.56826782227</ele>
        <time>2012-01-14T09:57:43Z</time>
      </trkpt>
      <trkpt lat="43.59949" lon="6.85827">
        <ele>248.97776794434</ele>
        <time>2012-01-14T09:57:48Z</time>
      </trkpt>
      <trkpt lat="43.59943" lon="6.85823">
        <ele>250.45205688477</ele>
        <time>2012-01-14T09:57:52Z</time>
      </trkpt>
      <trkpt lat="43.59938" lon="6.85814">
        <ele>252.30297851562</ele>
        <time>2012-01-14T09:57:57Z</time>
      </trkpt>
      <trkpt lat="43.59927" lon="6.85799">
        <ele>255.75961303711</ele>
        <time>2012-01-14T09:58:04Z</time>
      </trkpt>
      <trkpt lat="43.59915" lon="6.85782">
        <ele>259.84823608398</ele>
        <time>2012-01-14T09:58:11Z</time>
      </trkpt>
      <trkpt lat="43.59909" lon="6.85772">
        <ele>262.15020751953</ele>
        <time>2012-01-14T09:58:15Z</time>
      </trkpt>
      <trkpt lat="43.59899" lon="6.85755">
        <ele>266.35763549805</ele>
        <time>2012-01-14T09:58:22Z</time>
      </trkpt>
      <trkpt lat="43.59892" lon="6.85743">
        <ele>268.02294921875</ele>
        <time>2012-01-14T09:58:27Z</time>
      </trkpt>
      <trkpt lat="43.59882" lon="6.85726">
        <ele>269.27960205078</ele>
        <time>2012-01-14T09:58:34Z</time>
      </trkpt>
      <trkpt lat="43.59877" lon="6.85707">
        <ele>269.32540893555</ele>
        <time>2012-01-14T09:58:41Z</time>
      </trkpt>
      <trkpt lat="43.59877" lon="6.85687">
        <ele>268.16116333008</ele>
        <time>2012-01-14T09:58:48Z</time>
      </trkpt>
      <trkpt lat="43.59874" lon="6.85669">
        <ele>267.77755737305</ele>
        <time>2012-01-14T09:58:54Z</time>
      </trkpt>
      <trkpt lat="43.59872" lon="6.85654">
        <ele>267.0934753418</ele>
        <time>2012-01-14T09:58:59Z</time>
      </trkpt>
      <trkpt lat="43.59869" lon="6.85643">
        <ele>266.72732543945</ele>
        <time>2012-01-14T09:59:04Z</time>
      </trkpt>
      <trkpt lat="43.59869" lon="6.85643">
        <ele>266.73159790039</ele>
        <time>2012-01-14T09:59:19Z</time>
      </trkpt>
      <trkpt lat="43.59869" lon="6.85643">
        <ele>266.65249633789</ele>
        <time>2012-01-14T09:59:22Z</time>
      </trkpt>
      <trkpt lat="43.5987" lon="6.85643">
        <ele>266.57763671875</ele>
        <time>2012-01-14T09:59:27Z</time>
      </trkpt>
      <trkpt lat="43.5987" lon="6.85632">
        <ele>265.63635253906</ele>
        <time>2012-01-14T09:59:50Z</time>
      </trkpt>
      <trkpt lat="43.5987" lon="6.85605">
        <ele>263.16790771484</ele>
        <time>2012-01-14T09:59:56Z</time>
      </trkpt>
      <trkpt lat="43.59869" lon="6.85587">
        <ele>261.76043701172</ele>
        <time>2012-01-14T10:00:01Z</time>
      </trkpt>
      <trkpt lat="43.59869" lon="6.85566">
        <ele>260.15487670898</ele>
        <time>2012-01-14T10:00:08Z</time>
      </trkpt>
      <trkpt lat="43.5987" lon="6.85539">
        <ele>257.93185424805</ele>
        <time>2012-01-14T10:00:16Z</time>
      </trkpt>
      <trkpt lat="43.59882" lon="6.85514">
        <ele>254.83299255371</ele>
        <time>2012-01-14T10:00:22Z</time>
      </trkpt>
      <trkpt lat="43.5989" lon="6.85499">
        <ele>253.19805908203</ele>
        <time>2012-01-14T10:00:25Z</time>
      </trkpt>
      <trkpt lat="43.599" lon="6.85474">
        <ele>250.24180603027</ele>
        <time>2012-01-14T10:00:31Z</time>
      </trkpt>
      <trkpt lat="43.59907" lon="6.8546">
        <ele>248.86448669434</ele>
        <time>2012-01-14T10:00:35Z</time>
      </trkpt>
      <trkpt lat="43.59924" lon="6.85439">
        <ele>245.85269165039</ele>
        <time>2012-01-14T10:00:41Z</time>
      </trkpt>
      <trkpt lat="43.59938" lon="6.85436">
        <ele>242.84700012207</ele>
        <time>2012-01-14T10:00:44Z</time>
      </trkpt>
      <trkpt lat="43.59959" lon="6.85423">
        <ele>238.87364196777</ele>
        <time>2012-01-14T10:00:49Z</time>
      </trkpt>
      <trkpt lat="43.59984" lon="6.85398">
        <ele>235.3522644043</ele>
        <time>2012-01-14T10:00:55Z</time>
      </trkpt>
      <trkpt lat="43.60017" lon="6.85376">
        <ele>229.73419189453</ele>
        <time>2012-01-14T10:01:01Z</time>
      </trkpt>
      <trkpt lat="43.60032" lon="6.85359">
        <ele>227.17016601562</ele>
        <time>2012-01-14T10:01:06Z</time>
      </trkpt>
      <trkpt lat="43.60043" lon="6.85348">
        <ele>224.94111633301</ele>
        <time>2012-01-14T10:01:13Z</time>
      </trkpt>
      <trkpt lat="43.60054" lon="6.85333">
        <ele>223.29206848144</ele>
        <time>2012-01-14T10:01:19Z</time>
      </trkpt>
      <trkpt lat="43.6006" lon="6.85326">
        <ele>221.99971008301</ele>
        <time>2012-01-14T10:01:24Z</time>
      </trkpt>
      <trkpt lat="43.60059" lon="6.85327">
        <ele>222.08699035644</ele>
        <time>2012-01-14T10:01:31Z</time>
      </trkpt>
      <trkpt lat="43.60062" lon="6.85323">
        <ele>221.45455932617</ele>
        <time>2012-01-14T10:01:53Z</time>
      </trkpt>
      <trkpt lat="43.60071" lon="6.85316">
        <ele>219.41793823242</ele>
        <time>2012-01-14T10:01:56Z</time>
      </trkpt>
      <trkpt lat="43.60073" lon="6.85314">
        <ele>218.80818176269</ele>
        <time>2012-01-14T10:02:02Z</time>
      </trkpt>
      <trkpt lat="43.60073" lon="6.85314">
        <ele>218.81463623047</ele>
        <time>2012-01-14T10:02:03Z</time>
      </trkpt>
      <trkpt lat="43.6008" lon="6.85304">
        <ele>217.57440185547</ele>
        <time>2012-01-14T10:02:07Z</time>
      </trkpt>
      <trkpt lat="43.601" lon="6.85273">
        <ele>211.49417114258</ele>
        <time>2012-01-14T10:02:14Z</time>
      </trkpt>
      <trkpt lat="43.60109" lon="6.85256">
        <ele>208.98852539062</ele>
        <time>2012-01-14T10:02:18Z</time>
      </trkpt>
      <trkpt lat="43.60117" lon="6.85238">
        <ele>207.31568908691</ele>
        <time>2012-01-14T10:02:23Z</time>
      </trkpt>
      <trkpt lat="43.60123" lon="6.85212">
        <ele>206.54943847656</ele>
        <time>2012-01-14T10:02:27Z</time>
      </trkpt>
      <trkpt lat="43.60132" lon="6.85186">
        <ele>205.0302734375</ele>
        <time>2012-01-14T10:02:30Z</time>
      </trkpt>
      <trkpt lat="43.6014" lon="6.85169">
        <ele>203.91062927246</ele>
        <time>2012-01-14T10:02:33Z</time>
      </trkpt>
      <trkpt lat="43.60142" lon="6.85146">
        <ele>203.55445861816</ele>
        <time>2012-01-14T10:02:38Z</time>
      </trkpt>
      <trkpt lat="43.60132" lon="6.85134">
        <ele>205.83326721191</ele>
        <time>2012-01-14T10:02:42Z</time>
      </trkpt>
      <trkpt lat="43.60129" lon="6.85134">
        <ele>206.54273986816</ele>
        <time>2012-01-14T10:02:43Z</time>
      </trkpt>
      <trkpt lat="43.60121" lon="6.85137">
        <ele>208.45407104492</ele>
        <time>2012-01-14T10:02:45Z</time>
      </trkpt>
      <trkpt lat="43.6011" lon="6.85127">
        <ele>210.71649169922</ele>
        <time>2012-01-14T10:02:49Z</time>
      </trkpt>
      <trkpt lat="43.60115" lon="6.85116">
        <ele>209.11209106445</ele>
        <time>2012-01-14T10:02:51Z</time>
      </trkpt>
      <trkpt lat="43.60125" lon="6.851">
        <ele>206.87286376953</ele>
        <time>2012-01-14T10:02:54Z</time>
      </trkpt>
      <trkpt lat="43.60146" lon="6.85084">
        <ele>202.72743225098</ele>
        <time>2012-01-14T10:02:58Z</time>
      </trkpt>
      <trkpt lat="43.60165" lon="6.85077">
        <ele>198.57383728027</ele>
        <time>2012-01-14T10:03:01Z</time>
      </trkpt>
      <trkpt lat="43.60171" lon="6.85077">
        <ele>196.49253845215</ele>
        <time>2012-01-14T10:03:05Z</time>
      </trkpt>
      <trkpt lat="43.60168" lon="6.85074">
        <ele>197.19337463379</ele>
        <time>2012-01-14T10:03:22Z</time>
      </trkpt>
      <trkpt lat="43.60168" lon="6.85074">
        <ele>197.27163696289</ele>
        <time>2012-01-14T10:03:25Z</time>
      </trkpt>
      <trkpt lat="43.60167" lon="6.85073">
        <ele>197.61231994629</ele>
        <time>2012-01-14T10:03:33Z</time>
      </trkpt>
      <trkpt lat="43.60167" lon="6.85073">
        <ele>197.70903015137</ele>
        <time>2012-01-14T10:03:56Z</time>
      </trkpt>
      <trkpt lat="43.60168" lon="6.85074">
        <ele>197.17137145996</ele>
        <time>2012-01-14T10:04:01Z</time>
      </trkpt>
      <trkpt lat="43.60181" lon="6.85076">
        <ele>192.30311584473</ele>
        <time>2012-01-14T10:04:08Z</time>
      </trkpt>
      <trkpt lat="43.60194" lon="6.85076">
        <ele>186.66064453125</ele>
        <time>2012-01-14T10:04:13Z</time>
      </trkpt>
      <trkpt lat="43.6021" lon="6.85075">
        <ele>180.20069885254</ele>
        <time>2012-01-14T10:04:18Z</time>
      </trkpt>
      <trkpt lat="43.60214" lon="6.85075">
        <ele>178.47830200195</ele>
        <time>2012-01-14T10:04:21Z</time>
      </trkpt>
      <trkpt lat="43.60221" lon="6.85073">
        <ele>175.84886169434</ele>
        <time>2012-01-14T10:04:27Z</time>
      </trkpt>
      <trkpt lat="43.60234" lon="6.85064">
        <ele>170.79486083984</ele>
        <time>2012-01-14T10:04:33Z</time>
      </trkpt>
      <trkpt lat="43.6024" lon="6.85058">
        <ele>169.17341613769</ele>
        <time>2012-01-14T10:04:36Z</time>
      </trkpt>
      <trkpt lat="43.60244" lon="6.85051">
        <ele>168.09457397461</ele>
        <time>2012-01-14T10:04:41Z</time>
      </trkpt>
      <trkpt lat="43.60248" lon="6.8504">
        <ele>167.76249694824</ele>
        <time>2012-01-14T10:04:48Z</time>
      </trkpt>
      <trkpt lat="43.60252" lon="6.85027">
        <ele>167.69354248047</ele>
        <time>2012-01-14T10:04:53Z</time>
      </trkpt>
      <trkpt lat="43.60252" lon="6.85025">
        <ele>167.62939453125</ele>
        <time>2012-01-14T10:04:54Z</time>
      </trkpt>
      <trkpt lat="43.60254" lon="6.85019">
        <ele>167.5871887207</ele>
        <time>2012-01-14T10:04:56Z</time>
      </trkpt>
      <trkpt lat="43.60261" lon="6.84999">
        <ele>166.83845520019</ele>
        <time>2012-01-14T10:05:01Z</time>
      </trkpt>
      <trkpt lat="43.60268" lon="6.84985">
        <ele>164.43640136719</ele>
        <time>2012-01-14T10:05:05Z</time>
      </trkpt>
      <trkpt lat="43.60282" lon="6.84956">
        <ele>161.51554870606</ele>
        <time>2012-01-14T10:05:11Z</time>
      </trkpt>
      <trkpt lat="43.60287" lon="6.84946">
        <ele>160.84350585938</ele>
        <time>2012-01-14T10:05:13Z</time>
      </trkpt>
      <trkpt lat="43.603" lon="6.84927">
        <ele>160.45837402344</ele>
        <time>2012-01-14T10:05:17Z</time>
      </trkpt>
      <trkpt lat="43.60303" lon="6.8492">
        <ele>160.86532592773</ele>
        <time>2012-01-14T10:05:19Z</time>
      </trkpt>
      <trkpt lat="43.60306" lon="6.84917">
        <ele>160.91267395019</ele>
        <time>2012-01-14T10:05:24Z</time>
      </trkpt>
      <trkpt lat="43.60309" lon="6.84916">
        <ele>160.63754272461</ele>
        <time>2012-01-14T10:05:34Z</time>
      </trkpt>
      <trkpt lat="43.60309" lon="6.84915">
        <ele>160.63533020019</ele>
        <time>2012-01-14T10:05:37Z</time>
      </trkpt>
      <trkpt lat="43.60309" lon="6.84913">
        <ele>160.57679748535</ele>
        <time>2012-01-14T10:05:39Z</time>
      </trkpt>
      <trkpt lat="43.60321" lon="6.849">
        <ele>159.49360656738</ele>
        <time>2012-01-14T10:05:45Z</time>
      </trkpt>
      <trkpt lat="43.60339" lon="6.84879">
        <ele>157.48558044434</ele>
        <time>2012-01-14T10:05:51Z</time>
      </trkpt>
      <trkpt lat="43.60354" lon="6.84866">
        <ele>154.73358154297</ele>
        <time>2012-01-14T10:05:55Z</time>
      </trkpt>
      <trkpt lat="43.60364" lon="6.84859">
        <ele>153.28671264648</ele>
        <time>2012-01-14T10:05:58Z</time>
      </trkpt>
      <trkpt lat="43.60384" lon="6.84849">
        <ele>150.95022583008</ele>
        <time>2012-01-14T10:06:02Z</time>
      </trkpt>
      <trkpt lat="43.604" lon="6.84842">
        <ele>149.47439575195</ele>
        <time>2012-01-14T10:06:05Z</time>
      </trkpt>
      <trkpt lat="43.60435" lon="6.84822">
        <ele>144.85665893555</ele>
        <time>2012-01-14T10:06:11Z</time>
      </trkpt>
      <trkpt lat="43.6045" lon="6.84816">
        <ele>141.44905090332</ele>
        <time>2012-01-14T10:06:15Z</time>
      </trkpt>
      <trkpt lat="43.60451" lon="6.84815">
        <ele>141.33662414551</ele>
        <time>2012-01-14T10:06:19Z</time>
      </trkpt>
      <trkpt lat="43.60463" lon="6.84803">
        <ele>139.73794555664</ele>
        <time>2012-01-14T10:06:24Z</time>
      </trkpt>
      <trkpt lat="43.60483" lon="6.84782">
        <ele>138.07106018066</ele>
        <time>2012-01-14T10:06:29Z</time>
      </trkpt>
      <trkpt lat="43.60489" lon="6.84774">
        <ele>138.08842468262</ele>
        <time>2012-01-14T10:06:31Z</time>
      </trkpt>
      <trkpt lat="43.60502" lon="6.84765">
        <ele>136.76127624512</ele>
        <time>2012-01-14T10:06:37Z</time>
      </trkpt>
      <trkpt lat="43.60515" lon="6.8475">
        <ele>136.97409057617</ele>
        <time>2012-01-14T10:06:43Z</time>
      </trkpt>
      <trkpt lat="43.60528" lon="6.84738">
        <ele>133.95173645019</ele>
        <time>2012-01-14T10:06:46Z</time>
      </trkpt>
      <trkpt lat="43.60537" lon="6.84728">
        <ele>131.84698486328</ele>
        <time>2012-01-14T10:06:48Z</time>
      </trkpt>
      <trkpt lat="43.60561" lon="6.84715">
        <ele>126.28991699219</ele>
        <time>2012-01-14T10:06:53Z</time>
      </trkpt>
      <trkpt lat="43.60569" lon="6.84713">
        <ele>124.4443359375</ele>
        <time>2012-01-14T10:06:55Z</time>
      </trkpt>
      <trkpt lat="43.60581" lon="6.8471">
        <ele>121.55840301514</ele>
        <time>2012-01-14T10:06:59Z</time>
      </trkpt>
      <trkpt lat="43.60606" lon="6.84711">
        <ele>116.0160446167</ele>
        <time>2012-01-14T10:07:04Z</time>
      </trkpt>
      <trkpt lat="43.60642" lon="6.84718">
        <ele>108.4460144043</ele>
        <time>2012-01-14T10:07:08Z</time>
      </trkpt>
      <trkpt lat="43.60651" lon="6.8472">
        <ele>106.62284088135</ele>
        <time>2012-01-14T10:07:11Z</time>
      </trkpt>
      <trkpt lat="43.60662" lon="6.84723">
        <ele>104.39138031006</ele>
        <time>2012-01-14T10:07:14Z</time>
      </trkpt>
      <trkpt lat="43.6067" lon="6.84726">
        <ele>102.59146118164</ele>
        <time>2012-01-14T10:07:16Z</time>
      </trkpt>
      <trkpt lat="43.60682" lon="6.84736">
        <ele>99.683654785156</ele>
        <time>2012-01-14T10:07:21Z</time>
      </trkpt>
      <trkpt lat="43.60694" lon="6.84741">
        <ele>95.956108093262</ele>
        <time>2012-01-14T10:07:26Z</time>
      </trkpt>
      <trkpt lat="43.60698" lon="6.84741">
        <ele>94.89363861084</ele>
        <time>2012-01-14T10:07:28Z</time>
      </trkpt>
      <trkpt lat="43.607" lon="6.84743">
        <ele>94.076805114746</ele>
        <time>2012-01-14T10:07:33Z</time>
      </trkpt>
      <trkpt lat="43.60702" lon="6.84743">
        <ele>93.482551574707</ele>
        <time>2012-01-14T10:07:45Z</time>
      </trkpt>
      <trkpt lat="43.60712" lon="6.84738">
        <ele>90.559562683105</ele>
        <time>2012-01-14T10:07:50Z</time>
      </trkpt>
      <trkpt lat="43.60716" lon="6.84734">
        <ele>89.23747253418</ele>
        <time>2012-01-14T10:07:52Z</time>
      </trkpt>
      <trkpt lat="43.60733" lon="6.84728">
        <ele>84.585594177246</ele>
        <time>2012-01-14T10:07:58Z</time>
      </trkpt>
      <trkpt lat="43.60746" lon="6.84727">
        <ele>80.789909362793</ele>
        <time>2012-01-14T10:08:02Z</time>
      </trkpt>
      <trkpt lat="43.60749" lon="6.84727">
        <ele>79.804710388184</ele>
        <time>2012-01-14T10:08:03Z</time>
      </trkpt>
      <trkpt lat="43.60768" lon="6.84723">
        <ele>75.821548461914</ele>
        <time>2012-01-14T10:08:08Z</time>
      </trkpt>
      <trkpt lat="43.60781" lon="6.84718">
        <ele>73.144775390625</ele>
        <time>2012-01-14T10:08:12Z</time>
      </trkpt>
      <trkpt lat="43.60801" lon="6.8471">
        <ele>69.24462890625</ele>
        <time>2012-01-14T10:08:17Z</time>
      </trkpt>
      <trkpt lat="43.60808" lon="6.84701">
        <ele>68.324523925781</ele>
        <time>2012-01-14T10:08:21Z</time>
      </trkpt>
      <trkpt lat="43.60809" lon="6.84698">
        <ele>68.210083007812</ele>
        <time>2012-01-14T10:08:23Z</time>
      </trkpt>
      <trkpt lat="43.60818" lon="6.84689">
        <ele>66.747528076172</ele>
        <time>2012-01-14T10:08:30Z</time>
      </trkpt>
      <trkpt lat="43.6082" lon="6.84687">
        <ele>66.564422607422</ele>
        <time>2012-01-14T10:08:31Z</time>
      </trkpt>
      <trkpt lat="43.60828" lon="6.84677">
        <ele>65.493255615234</ele>
        <time>2012-01-14T10:08:36Z</time>
      </trkpt>
      <trkpt lat="43.6083" lon="6.84674">
        <ele>65.313583374023</ele>
        <time>2012-01-14T10:08:40Z</time>
      </trkpt>
      <trkpt lat="43.60838" lon="6.84661">
        <ele>64.396110534668</ele>
        <time>2012-01-14T10:08:46Z</time>
      </trkpt>
      <trkpt lat="43.60839" lon="6.8466">
        <ele>64.304473876953</ele>
        <time>2012-01-14T10:08:52Z</time>
      </trkpt>
      <trkpt lat="43.60849" lon="6.84653">
        <ele>63.39554977417</ele>
        <time>2012-01-14T10:08:57Z</time>
      </trkpt>
      <trkpt lat="43.60867" lon="6.84645">
        <ele>62.063766479492</ele>
        <time>2012-01-14T10:09:01Z</time>
      </trkpt>
      <trkpt lat="43.60888" lon="6.84636">
        <ele>60.819816589355</ele>
        <time>2012-01-14T10:09:05Z</time>
      </trkpt>
      <trkpt lat="43.60911" lon="6.8462">
        <ele>59.787250518799</ele>
        <time>2012-01-14T10:09:10Z</time>
      </trkpt>
      <trkpt lat="43.60921" lon="6.84615">
        <ele>59.703544616699</ele>
        <time>2012-01-14T10:09:12Z</time>
      </trkpt>
      <trkpt lat="43.60936" lon="6.84615">
        <ele>59.933929443359</ele>
        <time>2012-01-14T10:09:16Z</time>
      </trkpt>
      <trkpt lat="43.60939" lon="6.84626">
        <ele>59.9030418396</ele>
        <time>2012-01-14T10:09:20Z</time>
      </trkpt>
      <trkpt lat="43.60941" lon="6.84631">
        <ele>59.895664215088</ele>
        <time>2012-01-14T10:09:23Z</time>
      </trkpt>
      <trkpt lat="43.60948" lon="6.84638">
        <ele>59.967590332031</ele>
        <time>2012-01-14T10:09:27Z</time>
      </trkpt>
      <trkpt lat="43.60954" lon="6.84652">
        <ele>59.982398986816</ele>
        <time>2012-01-14T10:09:30Z</time>
      </trkpt>
      <trkpt lat="43.6096" lon="6.84648">
        <ele>60.13765335083</ele>
        <time>2012-01-14T10:09:35Z</time>
      </trkpt>
      <trkpt lat="43.60965" lon="6.84635">
        <ele>60.324352264404</ele>
        <time>2012-01-14T10:09:40Z</time>
      </trkpt>
      <trkpt lat="43.60968" lon="6.84624">
        <ele>60.428462982178</ele>
        <time>2012-01-14T10:09:44Z</time>
      </trkpt>
      <trkpt lat="43.60968" lon="6.84623">
        <ele>60.438533782959</ele>
        <time>2012-01-14T10:09:49Z</time>
      </trkpt>
      <trkpt lat="43.6097" lon="6.84625">
        <ele>60.451755523682</ele>
        <time>2012-01-14T10:09:57Z</time>
      </trkpt>
      <trkpt lat="43.60971" lon="6.84628">
        <ele>60.468299865723</ele>
        <time>2012-01-14T10:10:06Z</time>
      </trkpt>
      <trkpt lat="43.60971" lon="6.84628">
        <ele>60.458671569824</ele>
        <time>2012-01-14T10:10:12Z</time>
      </trkpt>
      <trkpt lat="43.6097" lon="6.84628">
        <ele>60.437953948975</ele>
        <time>2012-01-14T10:10:24Z</time>
      </trkpt>
      <trkpt lat="43.6097" lon="6.84626">
        <ele>60.45552444458</ele>
        <time>2012-01-14T10:10:28Z</time>
      </trkpt>
      <trkpt lat="43.60972" lon="6.84608">
        <ele>60.56965637207</ele>
        <time>2012-01-14T10:10:33Z</time>
      </trkpt>
      <trkpt lat="43.60971" lon="6.84594">
        <ele>60.60973739624</ele>
        <time>2012-01-14T10:10:36Z</time>
      </trkpt>
      <trkpt lat="43.60964" lon="6.84579">
        <ele>60.943206787109</ele>
        <time>2012-01-14T10:10:40Z</time>
      </trkpt>
      <trkpt lat="43.60954" lon="6.84576">
        <ele>61.039337158203</ele>
        <time>2012-01-14T10:10:43Z</time>
      </trkpt>
      <trkpt lat="43.60946" lon="6.84576">
        <ele>60.971817016602</ele>
        <time>2012-01-14T10:10:45Z</time>
      </trkpt>
      <trkpt lat="43.60939" lon="6.84567">
        <ele>61.651023864746</ele>
        <time>2012-01-14T10:10:49Z</time>
      </trkpt>
      <trkpt lat="43.60938" lon="6.84556">
        <ele>62.509330749512</ele>
        <time>2012-01-14T10:10:52Z</time>
      </trkpt>
      <trkpt lat="43.60931" lon="6.84512">
        <ele>66.185173034668</ele>
        <time>2012-01-14T10:11:02Z</time>
      </trkpt>
      <trkpt lat="43.60941" lon="6.84501">
        <ele>67.173370361328</ele>
        <time>2012-01-14T10:11:07Z</time>
      </trkpt>
      <trkpt lat="43.60965" lon="6.8449">
        <ele>68.611251831055</ele>
        <time>2012-01-14T10:11:15Z</time>
      </trkpt>
      <trkpt lat="43.6097" lon="6.84487">
        <ele>69.052421569824</ele>
        <time>2012-01-14T10:11:17Z</time>
      </trkpt>
      <trkpt lat="43.60991" lon="6.84483">
        <ele>69.700729370117</ele>
        <time>2012-01-14T10:11:24Z</time>
      </trkpt>
      <trkpt lat="43.61013" lon="6.84484">
        <ele>69.722312927246</ele>
        <time>2012-01-14T10:11:31Z</time>
      </trkpt>
      <trkpt lat="43.61032" lon="6.84487">
        <ele>69.356674194336</ele>
        <time>2012-01-14T10:11:37Z</time>
      </trkpt>
      <trkpt lat="43.6105" lon="6.84498">
        <ele>68.259757995605</ele>
        <time>2012-01-14T10:11:43Z</time>
      </trkpt>
      <trkpt lat="43.61069" lon="6.84504">
        <ele>67.713554382324</ele>
        <time>2012-01-14T10:11:49Z</time>
      </trkpt>
      <trkpt lat="43.61084" lon="6.84497">
        <ele>68.284545898438</ele>
        <time>2012-01-14T10:11:55Z</time>
      </trkpt>
      <trkpt lat="43.611" lon="6.84481">
        <ele>69.522384643555</ele>
        <time>2012-01-14T10:12:02Z</time>
      </trkpt>
      <trkpt lat="43.61115" lon="6.84467">
        <ele>70.41389465332</ele>
        <time>2012-01-14T10:12:08Z</time>
      </trkpt>
      <trkpt lat="43.61133" lon="6.84457">
        <ele>70.498817443848</ele>
        <time>2012-01-14T10:12:15Z</time>
      </trkpt>
      <trkpt lat="43.61148" lon="6.84449">
        <ele>70.506202697754</ele>
        <time>2012-01-14T10:12:21Z</time>
      </trkpt>
      <trkpt lat="43.61166" lon="6.84439">
        <ele>70.41773223877</ele>
        <time>2012-01-14T10:12:27Z</time>
      </trkpt>
      <trkpt lat="43.61187" lon="6.84431">
        <ele>70.524436950684</ele>
        <time>2012-01-14T10:12:34Z</time>
      </trkpt>
      <trkpt lat="43.61203" lon="6.84426">
        <ele>70.300415039062</ele>
        <time>2012-01-14T10:12:38Z</time>
      </trkpt>
      <trkpt lat="43.61221" lon="6.84428">
        <ele>69.744125366211</ele>
        <time>2012-01-14T10:12:42Z</time>
      </trkpt>
      <trkpt lat="43.61237" lon="6.84427">
        <ele>69.365463256836</ele>
        <time>2012-01-14T10:12:47Z</time>
      </trkpt>
      <trkpt lat="43.6126" lon="6.84413">
        <ele>69.841201782227</ele>
        <time>2012-01-14T10:12:53Z</time>
      </trkpt>
      <trkpt lat="43.61264" lon="6.84409">
        <ele>70.248718261719</ele>
        <time>2012-01-14T10:12:54Z</time>
      </trkpt>
      <trkpt lat="43.61279" lon="6.84414">
        <ele>71.208076477051</ele>
        <time>2012-01-14T10:13:00Z</time>
      </trkpt>
      <trkpt lat="43.61282" lon="6.84415">
        <ele>71.350425720215</ele>
        <time>2012-01-14T10:13:04Z</time>
      </trkpt>
      <trkpt lat="43.61282" lon="6.84415">
        <ele>71.353591918945</ele>
        <time>2012-01-14T10:13:05Z</time>
      </trkpt>
      <trkpt lat="43.61285" lon="6.84415">
        <ele>71.540573120117</ele>
        <time>2012-01-14T10:13:12Z</time>
      </trkpt>
      <trkpt lat="43.61285" lon="6.84415">
        <ele>71.576316833496</ele>
        <time>2012-01-14T10:13:15Z</time>
      </trkpt>
      <trkpt lat="43.61285" lon="6.84415">
        <ele>71.584449768066</ele>
        <time>2012-01-14T10:13:19Z</time>
      </trkpt>
      <trkpt lat="43.61287" lon="6.84416">
        <ele>71.689758300781</ele>
        <time>2012-01-14T10:13:21Z</time>
      </trkpt>
      <trkpt lat="43.61298" lon="6.84423">
        <ele>72.427734375</ele>
        <time>2012-01-14T10:13:26Z</time>
      </trkpt>
      <trkpt lat="43.61298" lon="6.84442">
        <ele>72.482666015625</ele>
        <time>2012-01-14T10:13:31Z</time>
      </trkpt>
      <trkpt lat="43.61298" lon="6.84452">
        <ele>72.482666015625</ele>
        <time>2012-01-14T10:13:35Z</time>
      </trkpt>
      <trkpt lat="43.61298" lon="6.84455">
        <ele>72.455200195312</ele>
        <time>2012-01-14T10:13:41Z</time>
      </trkpt>
      <trkpt lat="43.61299" lon="6.84455">
        <ele>72.53759765625</ele>
        <time>2012-01-14T10:13:46Z</time>
      </trkpt>
      <trkpt lat="43.61305" lon="6.84452">
        <ele>72.97705078125</ele>
        <time>2012-01-14T10:15:34Z</time>
      </trkpt>
      <trkpt lat="43.61302" lon="6.84456">
        <ele>72.729858398438</ele>
        <time>2012-01-14T10:15:50Z</time>
      </trkpt>
      <trkpt lat="43.613" lon="6.84456">
        <ele>72.565063476562</ele>
        <time>2012-01-14T10:16:08Z</time>
      </trkpt>
      <trkpt lat="43.61303" lon="6.84447">
        <ele>72.784790039062</ele>
        <time>2012-01-14T10:17:23Z</time>
      </trkpt>
      <trkpt lat="43.61305" lon="6.84449">
        <ele>72.949584960938</ele>
        <time>2012-01-14T10:17:48Z</time>
      </trkpt>
      <trkpt lat="43.61309" lon="6.84449">
        <ele>73.224243164062</ele>
        <time>2012-01-14T10:18:03Z</time>
      </trkpt>
      <trkpt lat="43.6131" lon="6.84449">
        <ele>73.306640625</ele>
        <time>2012-01-14T10:18:17Z</time>
      </trkpt>
      <trkpt lat="43.6131" lon="6.8445">
        <ele>73.306640625</ele>
        <time>2012-01-14T10:18:29Z</time>
      </trkpt>
      <trkpt lat="43.6131" lon="6.84451">
        <ele>73.306640625</ele>
        <time>2012-01-14T10:18:40Z</time>
      </trkpt>
      <trkpt lat="43.61317" lon="6.84454">
        <ele>73.828491210938</ele>
        <time>2012-01-14T10:19:35Z</time>
      </trkpt>
      <trkpt lat="43.61314" lon="6.84447">
        <ele>73.581298828125</ele>
        <time>2012-01-14T10:19:59Z</time>
      </trkpt>
      <trkpt lat="43.6131" lon="6.84442">
        <ele>73.306640625</ele>
        <time>2012-01-14T10:20:16Z</time>
      </trkpt>
      <trkpt lat="43.61309" lon="6.84443">
        <ele>73.251708984375</ele>
        <time>2012-01-14T10:20:31Z</time>
      </trkpt>
      <trkpt lat="43.61309" lon="6.84445">
        <ele>73.224243164062</ele>
        <time>2012-01-14T10:20:36Z</time>
      </trkpt>
      <trkpt lat="43.6131" lon="6.84453">
        <ele>73.306640625</ele>
        <time>2012-01-14T10:20:41Z</time>
      </trkpt>
      <trkpt lat="43.61311" lon="6.84457">
        <ele>73.41650390625</ele>
        <time>2012-01-14T10:20:43Z</time>
      </trkpt>
      <trkpt lat="43.61312" lon="6.84472">
        <ele>73.471435546875</ele>
        <time>2012-01-14T10:20:48Z</time>
      </trkpt>
      <trkpt lat="43.61312" lon="6.84478">
        <ele>73.471435546875</ele>
        <time>2012-01-14T10:20:52Z</time>
      </trkpt>
      <trkpt lat="43.61314" lon="6.84484">
        <ele>73.608764648438</ele>
        <time>2012-01-14T10:20:59Z</time>
      </trkpt>
      <trkpt lat="43.61315" lon="6.84489">
        <ele>73.663696289062</ele>
        <time>2012-01-14T10:21:05Z</time>
      </trkpt>
      <trkpt lat="43.61315" lon="6.84493">
        <ele>73.691162109375</ele>
        <time>2012-01-14T10:21:11Z</time>
      </trkpt>
      <trkpt lat="43.61315" lon="6.84497">
        <ele>73.691162109375</ele>
        <time>2012-01-14T10:21:17Z</time>
      </trkpt>
      <trkpt lat="43.61317" lon="6.84499">
        <ele>73.828491210938</ele>
        <time>2012-01-14T10:21:23Z</time>
      </trkpt>
      <trkpt lat="43.61319" lon="6.84502">
        <ele>74.486701965332</ele>
        <time>2012-01-14T10:21:28Z</time>
      </trkpt>
      <trkpt lat="43.61321" lon="6.84504">
        <ele>75.05078125</ele>
        <time>2012-01-14T10:21:35Z</time>
      </trkpt>
      <trkpt lat="43.61328" lon="6.84505">
        <ele>75.686889648438</ele>
        <time>2012-01-14T10:21:43Z</time>
      </trkpt>
      <trkpt lat="43.61332" lon="6.84507">
        <ele>76.486038208008</ele>
        <time>2012-01-14T10:21:48Z</time>
      </trkpt>
      <trkpt lat="43.61336" lon="6.84513">
        <ele>78.17610168457</ele>
        <time>2012-01-14T10:21:55Z</time>
      </trkpt>
      <trkpt lat="43.6134" lon="6.84521">
        <ele>80.633522033691</ele>
        <time>2012-01-14T10:22:03Z</time>
      </trkpt>
      <trkpt lat="43.61346" lon="6.84528">
        <ele>83.058609008789</ele>
        <time>2012-01-14T10:22:11Z</time>
      </trkpt>
      <trkpt lat="43.6135" lon="6.84534">
        <ele>84.832572937012</ele>
        <time>2012-01-14T10:22:18Z</time>
      </trkpt>
      <trkpt lat="43.61353" lon="6.8454">
        <ele>86.227195739746</ele>
        <time>2012-01-14T10:22:25Z</time>
      </trkpt>
      <trkpt lat="43.61354" lon="6.84544">
        <ele>87.129600524902</ele>
        <time>2012-01-14T10:22:34Z</time>
      </trkpt>
      <trkpt lat="43.61357" lon="6.84552">
        <ele>89.007225036621</ele>
        <time>2012-01-14T10:22:43Z</time>
      </trkpt>
      <trkpt lat="43.61361" lon="6.8456">
        <ele>90.724761962891</ele>
        <time>2012-01-14T10:22:50Z</time>
      </trkpt>
      <trkpt lat="43.61364" lon="6.84569">
        <ele>92.48949432373</ele>
        <time>2012-01-14T10:22:58Z</time>
      </trkpt>
      <trkpt lat="43.61367" lon="6.84576">
        <ele>93.795387268066</ele>
        <time>2012-01-14T10:23:05Z</time>
      </trkpt>
      <trkpt lat="43.61369" lon="6.84583">
        <ele>95.016990661621</ele>
        <time>2012-01-14T10:23:12Z</time>
      </trkpt>
      <trkpt lat="43.61371" lon="6.84589">
        <ele>96.915321350098</ele>
        <time>2012-01-14T10:23:17Z</time>
      </trkpt>
      <trkpt lat="43.61374" lon="6.84592">
        <ele>97.876083374023</ele>
        <time>2012-01-14T10:23:20Z</time>
      </trkpt>
      <trkpt lat="43.61377" lon="6.84594">
        <ele>98.794372558594</ele>
        <time>2012-01-14T10:23:27Z</time>
      </trkpt>
      <trkpt lat="43.61377" lon="6.84595">
        <ele>98.849800109863</ele>
        <time>2012-01-14T10:23:28Z</time>
      </trkpt>
      <trkpt lat="43.6138" lon="6.84599">
        <ele>100.31334686279</ele>
        <time>2012-01-14T10:23:32Z</time>
      </trkpt>
      <trkpt lat="43.61392" lon="6.84611">
        <ele>103.57318878174</ele>
        <time>2012-01-14T10:23:40Z</time>
      </trkpt>
      <trkpt lat="43.61401" lon="6.84619">
        <ele>105.56530761719</ele>
        <time>2012-01-14T10:23:46Z</time>
      </trkpt>
      <trkpt lat="43.61406" lon="6.84624">
        <ele>106.57350158691</ele>
        <time>2012-01-14T10:23:49Z</time>
      </trkpt>
      <trkpt lat="43.61416" lon="6.84629">
        <ele>107.26105499268</ele>
        <time>2012-01-14T10:23:55Z</time>
      </trkpt>
      <trkpt lat="43.61417" lon="6.84629">
        <ele>107.34806823731</ele>
        <time>2012-01-14T10:23:58Z</time>
      </trkpt>
      <trkpt lat="43.61423" lon="6.84638">
        <ele>109.90226745606</ele>
        <time>2012-01-14T10:24:06Z</time>
      </trkpt>
      <trkpt lat="43.61424" lon="6.84641">
        <ele>110.51988983154</ele>
        <time>2012-01-14T10:24:08Z</time>
      </trkpt>
      <trkpt lat="43.61428" lon="6.84647">
        <ele>112.08553314209</ele>
        <time>2012-01-14T10:24:16Z</time>
      </trkpt>
      <trkpt lat="43.61428" lon="6.84648">
        <ele>112.22045898438</ele>
        <time>2012-01-14T10:24:18Z</time>
      </trkpt>
      <trkpt lat="43.61435" lon="6.8465">
        <ele>113.18493652344</ele>
        <time>2012-01-14T10:24:25Z</time>
      </trkpt>
      <trkpt lat="43.61438" lon="6.8465">
        <ele>113.44833374023</ele>
        <time>2012-01-14T10:24:28Z</time>
      </trkpt>
      <trkpt lat="43.61448" lon="6.84659">
        <ele>115.43122863769</ele>
        <time>2012-01-14T10:24:38Z</time>
      </trkpt>
      <trkpt lat="43.61452" lon="6.84665">
        <ele>116.53935241699</ele>
        <time>2012-01-14T10:24:45Z</time>
      </trkpt>
      <trkpt lat="43.61457" lon="6.84672">
        <ele>117.67909240723</ele>
        <time>2012-01-14T10:24:51Z</time>
      </trkpt>
      <trkpt lat="43.61461" lon="6.84685">
        <ele>119.30682373047</ele>
        <time>2012-01-14T10:24:59Z</time>
      </trkpt>
      <trkpt lat="43.61462" lon="6.84689">
        <ele>119.74780273438</ele>
        <time>2012-01-14T10:25:02Z</time>
      </trkpt>
      <trkpt lat="43.61467" lon="6.84698">
        <ele>120.75079345703</ele>
        <time>2012-01-14T10:25:10Z</time>
      </trkpt>
      <trkpt lat="43.6147" lon="6.84708">
        <ele>121.60369873047</ele>
        <time>2012-01-14T10:25:18Z</time>
      </trkpt>
      <trkpt lat="43.61472" lon="6.84717">
        <ele>122.33723449707</ele>
        <time>2012-01-14T10:25:26Z</time>
      </trkpt>
      <trkpt lat="43.61473" lon="6.84717">
        <ele>122.17306518555</ele>
        <time>2012-01-14T10:25:30Z</time>
      </trkpt>
      <trkpt lat="43.61477" lon="6.84719">
        <ele>122.12484741211</ele>
        <time>2012-01-14T10:25:42Z</time>
      </trkpt>
      <trkpt lat="43.61478" lon="6.8472">
        <ele>122.03502655029</ele>
        <time>2012-01-14T10:25:49Z</time>
      </trkpt>
      <trkpt lat="43.61479" lon="6.8472">
        <ele>121.97982788086</ele>
        <time>2012-01-14T10:25:53Z</time>
      </trkpt>
      <trkpt lat="43.61479" lon="6.8472">
        <ele>121.97982788086</ele>
        <time>2012-01-14T10:25:57Z</time>
      </trkpt>
      <trkpt lat="43.61479" lon="6.8472">
        <ele>121.97267913818</ele>
        <time>2012-01-14T10:26:00Z</time>
      </trkpt>
      <trkpt lat="43.6148" lon="6.8472">
        <ele>121.93444824219</ele>
        <time>2012-01-14T10:26:03Z</time>
      </trkpt>
      <trkpt lat="43.6148" lon="6.8472">
        <ele>121.93444824219</ele>
        <time>2012-01-14T10:26:13Z</time>
      </trkpt>
      <trkpt lat="43.6148" lon="6.8472">
        <ele>121.93444824219</ele>
        <time>2012-01-14T10:26:16Z</time>
      </trkpt>
      <trkpt lat="43.6148" lon="6.8472">
        <ele>121.93091583252</ele>
        <time>2012-01-14T10:26:17Z</time>
      </trkpt>
      <trkpt lat="43.61478" lon="6.84721">
        <ele>122.20243835449</ele>
        <time>2012-01-14T10:26:38Z</time>
      </trkpt>
      <trkpt lat="43.61476" lon="6.84727">
        <ele>122.84696960449</ele>
        <time>2012-01-14T10:26:46Z</time>
      </trkpt>
      <trkpt lat="43.61475" lon="6.84731">
        <ele>123.2490310669</ele>
        <time>2012-01-14T10:26:54Z</time>
      </trkpt>
      <trkpt lat="43.61474" lon="6.84734">
        <ele>123.66115570068</ele>
        <time>2012-01-14T10:26:58Z</time>
      </trkpt>
      <trkpt lat="43.61473" lon="6.8474">
        <ele>124.217628479</ele>
        <time>2012-01-14T10:27:05Z</time>
      </trkpt>
      <trkpt lat="43.61472" lon="6.84745">
        <ele>124.82216644287</ele>
        <time>2012-01-14T10:27:11Z</time>
      </trkpt>
      <trkpt lat="43.6147" lon="6.8475">
        <ele>125.66215515137</ele>
        <time>2012-01-14T10:27:18Z</time>
      </trkpt>
      <trkpt lat="43.61467" lon="6.84757">
        <ele>127.20734405518</ele>
        <time>2012-01-14T10:27:25Z</time>
      </trkpt>
      <trkpt lat="43.61464" lon="6.84765">
        <ele>128.94212341309</ele>
        <time>2012-01-14T10:27:31Z</time>
      </trkpt>
      <trkpt lat="43.61457" lon="6.84774">
        <ele>131.52624511719</ele>
        <time>2012-01-14T10:27:39Z</time>
      </trkpt>
      <trkpt lat="43.61456" lon="6.84778">
        <ele>132.49870300293</ele>
        <time>2012-01-14T10:27:42Z</time>
      </trkpt>
      <trkpt lat="43.61452" lon="6.84788">
        <ele>134.95425415039</ele>
        <time>2012-01-14T10:27:48Z</time>
      </trkpt>
      <trkpt lat="43.61448" lon="6.84796">
        <ele>137.1095123291</ele>
        <time>2012-01-14T10:27:53Z</time>
      </trkpt>
      <trkpt lat="43.61445" lon="6.84803">
        <ele>139.09866333008</ele>
        <time>2012-01-14T10:28:00Z</time>
      </trkpt>
      <trkpt lat="43.61442" lon="6.84817">
        <ele>142.3557434082</ele>
        <time>2012-01-14T10:28:10Z</time>
      </trkpt>
      <trkpt lat="43.61437" lon="6.84829">
        <ele>145.7061920166</ele>
        <time>2012-01-14T10:28:17Z</time>
      </trkpt>
      <trkpt lat="43.61436" lon="6.84834">
        <ele>146.98449707031</ele>
        <time>2012-01-14T10:28:20Z</time>
      </trkpt>
      <trkpt lat="43.61436" lon="6.84837">
        <ele>147.76248168945</ele>
        <time>2012-01-14T10:28:22Z</time>
      </trkpt>
      <trkpt lat="43.61436" lon="6.84843">
        <ele>148.98719787598</ele>
        <time>2012-01-14T10:28:26Z</time>
      </trkpt>
      <trkpt lat="43.61438" lon="6.84855">
        <ele>150.80195617676</ele>
        <time>2012-01-14T10:28:33Z</time>
      </trkpt>
      <trkpt lat="43.61438" lon="6.84863">
        <ele>152.64807128906</ele>
        <time>2012-01-14T10:28:38Z</time>
      </trkpt>
      <trkpt lat="43.6144" lon="6.84869">
        <ele>152.95330810547</ele>
        <time>2012-01-14T10:28:46Z</time>
      </trkpt>
      <trkpt lat="43.61439" lon="6.84876">
        <ele>154.96031188965</ele>
        <time>2012-01-14T10:28:56Z</time>
      </trkpt>
      <trkpt lat="43.61437" lon="6.84882">
        <ele>156.79365539551</ele>
        <time>2012-01-14T10:29:02Z</time>
      </trkpt>
      <trkpt lat="43.61436" lon="6.8489">
        <ele>158.70530700684</ele>
        <time>2012-01-14T10:29:10Z</time>
      </trkpt>
      <trkpt lat="43.61435" lon="6.84895">
        <ele>160.08920288086</ele>
        <time>2012-01-14T10:29:18Z</time>
      </trkpt>
      <trkpt lat="43.61435" lon="6.84894">
        <ele>159.77526855469</ele>
        <time>2012-01-14T10:29:21Z</time>
      </trkpt>
      <trkpt lat="43.61432" lon="6.84895">
        <ele>160.90937805176</ele>
        <time>2012-01-14T10:29:27Z</time>
      </trkpt>
      <trkpt lat="43.61433" lon="6.84896">
        <ele>160.90895080566</ele>
        <time>2012-01-14T10:29:34Z</time>
      </trkpt>
      <trkpt lat="43.61435" lon="6.84895">
        <ele>160.20359802246</ele>
        <time>2012-01-14T10:29:40Z</time>
      </trkpt>
      <trkpt lat="43.61432" lon="6.84895">
        <ele>161.07424926758</ele>
        <time>2012-01-14T10:29:46Z</time>
      </trkpt>
      <trkpt lat="43.61429" lon="6.84894">
        <ele>161.80183410644</ele>
        <time>2012-01-14T10:29:51Z</time>
      </trkpt>
      <trkpt lat="43.61426" lon="6.84895">
        <ele>162.87745666504</ele>
        <time>2012-01-14T10:29:56Z</time>
      </trkpt>
      <trkpt lat="43.61423" lon="6.84895">
        <ele>163.78952026367</ele>
        <time>2012-01-14T10:30:04Z</time>
      </trkpt>
      <trkpt lat="43.61422" lon="6.84892">
        <ele>163.59022521973</ele>
        <time>2012-01-14T10:30:10Z</time>
      </trkpt>
      <trkpt lat="43.61419" lon="6.8489">
        <ele>164.33856201172</ele>
        <time>2012-01-14T10:30:17Z</time>
      </trkpt>
      <trkpt lat="43.61418" lon="6.84887">
        <ele>163.8670501709</ele>
        <time>2012-01-14T10:30:24Z</time>
      </trkpt>
      <trkpt lat="43.61417" lon="6.84885">
        <ele>163.62370300293</ele>
        <time>2012-01-14T10:30:30Z</time>
      </trkpt>
      <trkpt lat="43.61416" lon="6.84881">
        <ele>162.96429443359</ele>
        <time>2012-01-14T10:30:37Z</time>
      </trkpt>
      <trkpt lat="43.61414" lon="6.84876">
        <ele>162.61724853516</ele>
        <time>2012-01-14T10:30:46Z</time>
      </trkpt>
      <trkpt lat="43.6141" lon="6.84873">
        <ele>163.17044067383</ele>
        <time>2012-01-14T10:30:54Z</time>
      </trkpt>
      <trkpt lat="43.61406" lon="6.84867">
        <ele>162.93769836426</ele>
        <time>2012-01-14T10:31:02Z</time>
      </trkpt>
      <trkpt lat="43.61401" lon="6.84861">
        <ele>163.14605712891</ele>
        <time>2012-01-14T10:31:08Z</time>
      </trkpt>
      <trkpt lat="43.61401" lon="6.84858">
        <ele>162.51033020019</ele>
        <time>2012-01-14T10:31:14Z</time>
      </trkpt>
      <trkpt lat="43.61399" lon="6.84857">
        <ele>162.96759033203</ele>
        <time>2012-01-14T10:31:23Z</time>
      </trkpt>
      <trkpt lat="43.61393" lon="6.84864">
        <ele>166.25903320312</ele>
        <time>2012-01-14T10:31:37Z</time>
      </trkpt>
      <trkpt lat="43.61393" lon="6.84862">
        <ele>165.79359436035</ele>
        <time>2012-01-14T10:31:44Z</time>
      </trkpt>
      <trkpt lat="43.61393" lon="6.84861">
        <ele>165.61738586426</ele>
        <time>2012-01-14T10:31:50Z</time>
      </trkpt>
      <trkpt lat="43.61393" lon="6.84861">
        <ele>165.49844360352</ele>
        <time>2012-01-14T10:31:53Z</time>
      </trkpt>
      <trkpt lat="43.61393" lon="6.8486">
        <ele>165.53787231445</ele>
        <time>2012-01-14T10:31:56Z</time>
      </trkpt>
      <trkpt lat="43.61393" lon="6.84861">
        <ele>165.7590637207</ele>
        <time>2012-01-14T10:31:59Z</time>
      </trkpt>
      <trkpt lat="43.61391" lon="6.84861">
        <ele>166.27542114258</ele>
        <time>2012-01-14T10:32:04Z</time>
      </trkpt>
      <trkpt lat="43.61391" lon="6.84863">
        <ele>166.77592468262</ele>
        <time>2012-01-14T10:32:10Z</time>
      </trkpt>
      <trkpt lat="43.6139" lon="6.84863">
        <ele>166.92942810059</ele>
        <time>2012-01-14T10:32:14Z</time>
      </trkpt>
      <trkpt lat="43.61389" lon="6.84863">
        <ele>167.26435852051</ele>
        <time>2012-01-14T10:32:33Z</time>
      </trkpt>
      <trkpt lat="43.61389" lon="6.84858">
        <ele>166.24633789062</ele>
        <time>2012-01-14T10:32:42Z</time>
      </trkpt>
      <trkpt lat="43.61389" lon="6.84836">
        <ele>160.77873229981</ele>
        <time>2012-01-14T10:32:48Z</time>
      </trkpt>
      <trkpt lat="43.61395" lon="6.84817">
        <ele>154.70344543457</ele>
        <time>2012-01-14T10:32:52Z</time>
      </trkpt>
      <trkpt lat="43.61395" lon="6.848">
        <ele>150.74270629883</ele>
        <time>2012-01-14T10:32:58Z</time>
      </trkpt>
      <trkpt lat="43.61392" lon="6.84788">
        <ele>148.47082519531</ele>
        <time>2012-01-14T10:33:02Z</time>
      </trkpt>
      <trkpt lat="43.61385" lon="6.84779">
        <ele>148.23439025879</ele>
        <time>2012-01-14T10:33:08Z</time>
      </trkpt>
      <trkpt lat="43.6138" lon="6.84774">
        <ele>148.41410827637</ele>
        <time>2012-01-14T10:33:13Z</time>
      </trkpt>
      <trkpt lat="43.6137" lon="6.84771">
        <ele>149.8254699707</ele>
        <time>2012-01-14T10:33:18Z</time>
      </trkpt>
      <trkpt lat="43.6136" lon="6.84764">
        <ele>150.75743103027</ele>
        <time>2012-01-14T10:33:23Z</time>
      </trkpt>
      <trkpt lat="43.61346" lon="6.8476">
        <ele>153.00138854981</ele>
        <time>2012-01-14T10:33:28Z</time>
      </trkpt>
      <trkpt lat="43.61329" lon="6.84763">
        <ele>156.50172424316</ele>
        <time>2012-01-14T10:33:35Z</time>
      </trkpt>
      <trkpt lat="43.61315" lon="6.84767">
        <ele>156.35723876953</ele>
        <time>2012-01-14T10:33:41Z</time>
      </trkpt>
      <trkpt lat="43.61303" lon="6.84775">
        <ele>157.67799377441</ele>
        <time>2012-01-14T10:33:47Z</time>
      </trkpt>
      <trkpt lat="43.61293" lon="6.84781">
        <ele>158.57528686523</ele>
        <time>2012-01-14T10:33:53Z</time>
      </trkpt>
      <trkpt lat="43.61279" lon="6.84787">
        <ele>159.37200927734</ele>
        <time>2012-01-14T10:34:00Z</time>
      </trkpt>
      <trkpt lat="43.61264" lon="6.84796">
        <ele>160.91316223144</ele>
        <time>2012-01-14T10:34:08Z</time>
      </trkpt>
      <trkpt lat="43.61253" lon="6.84802">
        <ele>161.96156311035</ele>
        <time>2012-01-14T10:34:15Z</time>
      </trkpt>
      <trkpt lat="43.61244" lon="6.84814">
        <ele>164.51762390137</ele>
        <time>2012-01-14T10:34:23Z</time>
      </trkpt>
      <trkpt lat="43.61238" lon="6.84823">
        <ele>166.39923095703</ele>
        <time>2012-01-14T10:34:28Z</time>
      </trkpt>
      <trkpt lat="43.6123" lon="6.84839">
        <ele>169.57504272461</ele>
        <time>2012-01-14T10:34:34Z</time>
      </trkpt>
      <trkpt lat="43.61227" lon="6.84846">
        <ele>170.81758117676</ele>
        <time>2012-01-14T10:34:38Z</time>
      </trkpt>
      <trkpt lat="43.61223" lon="6.84853">
        <ele>171.74014282227</ele>
        <time>2012-01-14T10:34:42Z</time>
      </trkpt>
      <trkpt lat="43.6121" lon="6.84865">
        <ele>172.37132263184</ele>
        <time>2012-01-14T10:34:49Z</time>
      </trkpt>
      <trkpt lat="43.61197" lon="6.84871">
        <ele>171.60792541504</ele>
        <time>2012-01-14T10:34:55Z</time>
      </trkpt>
      <trkpt lat="43.61182" lon="6.84873">
        <ele>169.53068542481</ele>
        <time>2012-01-14T10:35:02Z</time>
      </trkpt>
      <trkpt lat="43.61168" lon="6.84873">
        <ele>166.57151794434</ele>
        <time>2012-01-14T10:35:08Z</time>
      </trkpt>
      <trkpt lat="43.61152" lon="6.84871">
        <ele>161.96670532227</ele>
        <time>2012-01-14T10:35:13Z</time>
      </trkpt>
      <trkpt lat="43.61141" lon="6.84875">
        <ele>160.3678894043</ele>
        <time>2012-01-14T10:35:16Z</time>
      </trkpt>
      <trkpt lat="43.61129" lon="6.84884">
        <ele>160.1268157959</ele>
        <time>2012-01-14T10:35:22Z</time>
      </trkpt>
      <trkpt lat="43.6112" lon="6.84893">
        <ele>160.63337707519</ele>
        <time>2012-01-14T10:35:27Z</time>
      </trkpt>
      <trkpt lat="43.61111" lon="6.84911">
        <ele>164.29127502441</ele>
        <time>2012-01-14T10:35:34Z</time>
      </trkpt>
      <trkpt lat="43.61106" lon="6.84934">
        <ele>166.99638366699</ele>
        <time>2012-01-14T10:35:41Z</time>
      </trkpt>
      <trkpt lat="43.61108" lon="6.84947">
        <ele>168.96350097656</ele>
        <time>2012-01-14T10:35:46Z</time>
      </trkpt>
      <trkpt lat="43.61115" lon="6.84964">
        <ele>172.60858154297</ele>
        <time>2012-01-14T10:35:53Z</time>
      </trkpt>
      <trkpt lat="43.61124" lon="6.84985">
        <ele>177.34236145019</ele>
        <time>2012-01-14T10:36:01Z</time>
      </trkpt>
      <trkpt lat="43.61127" lon="6.85005">
        <ele>179.72944641113</ele>
        <time>2012-01-14T10:36:08Z</time>
      </trkpt>
      <trkpt lat="43.61129" lon="6.85028">
        <ele>178.37435913086</ele>
        <time>2012-01-14T10:36:16Z</time>
      </trkpt>
      <trkpt lat="43.61134" lon="6.85048">
        <ele>177.95481872559</ele>
        <time>2012-01-14T10:36:24Z</time>
      </trkpt>
      <trkpt lat="43.61135" lon="6.85064">
        <ele>177.38240051269</ele>
        <time>2012-01-14T10:36:30Z</time>
      </trkpt>
      <trkpt lat="43.61138" lon="6.85078">
        <ele>177.06187438965</ele>
        <time>2012-01-14T10:36:37Z</time>
      </trkpt>
      <trkpt lat="43.61139" lon="6.8509">
        <ele>176.32038879394</ele>
        <time>2012-01-14T10:36:43Z</time>
      </trkpt>
      <trkpt lat="43.61142" lon="6.85105">
        <ele>175.56051635742</ele>
        <time>2012-01-14T10:36:49Z</time>
      </trkpt>
      <trkpt lat="43.61146" lon="6.8512">
        <ele>175.24716186523</ele>
        <time>2012-01-14T10:36:57Z</time>
      </trkpt>
      <trkpt lat="43.61152" lon="6.85134">
        <ele>175.91688537598</ele>
        <time>2012-01-14T10:37:03Z</time>
      </trkpt>
      <trkpt lat="43.61162" lon="6.85155">
        <ele>177.45957946777</ele>
        <time>2012-01-14T10:37:11Z</time>
      </trkpt>
      <trkpt lat="43.61173" lon="6.8517">
        <ele>178.5231628418</ele>
        <time>2012-01-14T10:37:19Z</time>
      </trkpt>
      <trkpt lat="43.61185" lon="6.85177">
        <ele>179.17198181152</ele>
        <time>2012-01-14T10:37:25Z</time>
      </trkpt>
      <trkpt lat="43.61201" lon="6.85184">
        <ele>180.94303894043</ele>
        <time>2012-01-14T10:37:33Z</time>
      </trkpt>
      <trkpt lat="43.61217" lon="6.85185">
        <ele>183.90644836426</ele>
        <time>2012-01-14T10:37:41Z</time>
      </trkpt>
      <trkpt lat="43.61221" lon="6.85185">
        <ele>184.97099304199</ele>
        <time>2012-01-14T10:37:44Z</time>
      </trkpt>
      <trkpt lat="43.61223" lon="6.85186">
        <ele>185.1591796875</ele>
        <time>2012-01-14T10:37:46Z</time>
      </trkpt>
      <trkpt lat="43.61225" lon="6.85186">
        <ele>185.43087768555</ele>
        <time>2012-01-14T10:37:55Z</time>
      </trkpt>
      <trkpt lat="43.61222" lon="6.85185">
        <ele>185.30609130859</ele>
        <time>2012-01-14T10:38:07Z</time>
      </trkpt>
      <trkpt lat="43.61221" lon="6.85184">
        <ele>185.19911193848</ele>
        <time>2012-01-14T10:38:13Z</time>
      </trkpt>
      <trkpt lat="43.61219" lon="6.85184">
        <ele>184.81025695801</ele>
        <time>2012-01-14T10:38:18Z</time>
      </trkpt>
      <trkpt lat="43.61217" lon="6.85184">
        <ele>184.61752319336</ele>
        <time>2012-01-14T10:38:23Z</time>
      </trkpt>
      <trkpt lat="43.61217" lon="6.85184">
        <ele>184.32534790039</ele>
        <time>2012-01-14T10:38:28Z</time>
      </trkpt>
      <trkpt lat="43.61217" lon="6.8518">
        <ele>185.54042053223</ele>
        <time>2012-01-14T10:38:31Z</time>
      </trkpt>
      <trkpt lat="43.61221" lon="6.85171">
        <ele>188.88505554199</ele>
        <time>2012-01-14T10:38:36Z</time>
      </trkpt>
      <trkpt lat="43.61224" lon="6.85159">
        <ele>191.8895111084</ele>
        <time>2012-01-14T10:38:43Z</time>
      </trkpt>
      <trkpt lat="43.61225" lon="6.85135">
        <ele>194.88816833496</ele>
        <time>2012-01-14T10:38:53Z</time>
      </trkpt>
      <trkpt lat="43.61226" lon="6.85117">
        <ele>197.11761474609</ele>
        <time>2012-01-14T10:39:00Z</time>
      </trkpt>
      <trkpt lat="43.61227" lon="6.85102">
        <ele>198.97151184082</ele>
        <time>2012-01-14T10:39:06Z</time>
      </trkpt>
      <trkpt lat="43.61231" lon="6.85084">
        <ele>202.09687805176</ele>
        <time>2012-01-14T10:39:13Z</time>
      </trkpt>
      <trkpt lat="43.61238" lon="6.85069">
        <ele>203.80200195312</ele>
        <time>2012-01-14T10:39:20Z</time>
      </trkpt>
      <trkpt lat="43.61246" lon="6.85059">
        <ele>205.5138092041</ele>
        <time>2012-01-14T10:39:27Z</time>
      </trkpt>
      <trkpt lat="43.61253" lon="6.85051">
        <ele>206.54466247559</ele>
        <time>2012-01-14T10:39:33Z</time>
      </trkpt>
      <trkpt lat="43.61254" lon="6.85049">
        <ele>206.64562988281</ele>
        <time>2012-01-14T10:39:46Z</time>
      </trkpt>
      <trkpt lat="43.61255" lon="6.85047">
        <ele>206.73806762695</ele>
        <time>2012-01-14T10:39:53Z</time>
      </trkpt>
      <trkpt lat="43.61258" lon="6.85043">
        <ele>207.03909301758</ele>
        <time>2012-01-14T10:39:57Z</time>
      </trkpt>
      <trkpt lat="43.61261" lon="6.85041">
        <ele>207.24098205566</ele>
        <time>2012-01-14T10:40:00Z</time>
      </trkpt>
      <trkpt lat="43.61264" lon="6.85038">
        <ele>207.51264953613</ele>
        <time>2012-01-14T10:40:04Z</time>
      </trkpt>
      <trkpt lat="43.6127" lon="6.85035">
        <ele>208.16232299805</ele>
        <time>2012-01-14T10:40:10Z</time>
      </trkpt>
      <trkpt lat="43.61278" lon="6.8503">
        <ele>208.85760498047</ele>
        <time>2012-01-14T10:40:16Z</time>
      </trkpt>
      <trkpt lat="43.61287" lon="6.85024">
        <ele>209.66999816894</ele>
        <time>2012-01-14T10:40:22Z</time>
      </trkpt>
      <trkpt lat="43.61297" lon="6.85016">
        <ele>210.34622192383</ele>
        <time>2012-01-14T10:40:28Z</time>
      </trkpt>
      <trkpt lat="43.61308" lon="6.85015">
        <ele>211.38554382324</ele>
        <time>2012-01-14T10:40:34Z</time>
      </trkpt>
      <trkpt lat="43.61309" lon="6.85015">
        <ele>211.51364135742</ele>
        <time>2012-01-14T10:40:35Z</time>
      </trkpt>
      <trkpt lat="43.6131" lon="6.85015">
        <ele>211.63076782227</ele>
        <time>2012-01-14T10:40:37Z</time>
      </trkpt>
      <trkpt lat="43.61317" lon="6.85017">
        <ele>212.47364807129</ele>
        <time>2012-01-14T10:40:43Z</time>
      </trkpt>
      <trkpt lat="43.61329" lon="6.85032">
        <ele>214.73089599609</ele>
        <time>2012-01-14T10:40:51Z</time>
      </trkpt>
      <trkpt lat="43.61332" lon="6.8504">
        <ele>215.77973937988</ele>
        <time>2012-01-14T10:40:56Z</time>
      </trkpt>
      <trkpt lat="43.61336" lon="6.85052">
        <ele>216.35609436035</ele>
        <time>2012-01-14T10:41:02Z</time>
      </trkpt>
      <trkpt lat="43.6134" lon="6.85065">
        <ele>216.84707641602</ele>
        <time>2012-01-14T10:41:08Z</time>
      </trkpt>
      <trkpt lat="43.61346" lon="6.85082">
        <ele>217.49697875977</ele>
        <time>2012-01-14T10:41:14Z</time>
      </trkpt>
      <trkpt lat="43.61349" lon="6.85093">
        <ele>216.56932067871</ele>
        <time>2012-01-14T10:41:19Z</time>
      </trkpt>
      <trkpt lat="43.61356" lon="6.85106">
        <ele>215.35836791992</ele>
        <time>2012-01-14T10:41:24Z</time>
      </trkpt>
      <trkpt lat="43.61362" lon="6.85115">
        <ele>214.7145690918</ele>
        <time>2012-01-14T10:41:28Z</time>
      </trkpt>
      <trkpt lat="43.6137" lon="6.85129">
        <ele>214.21125793457</ele>
        <time>2012-01-14T10:41:34Z</time>
      </trkpt>
      <trkpt lat="43.61375" lon="6.85144">
        <ele>214.13676452637</ele>
        <time>2012-01-14T10:41:41Z</time>
      </trkpt>
      <trkpt lat="43.61376" lon="6.85146">
        <ele>214.15957641602</ele>
        <time>2012-01-14T10:41:42Z</time>
      </trkpt>
      <trkpt lat="43.61389" lon="6.85163">
        <ele>215.248046875</ele>
        <time>2012-01-14T10:41:49Z</time>
      </trkpt>
      <trkpt lat="43.61413" lon="6.85185">
        <ele>214.27296447754</ele>
        <time>2012-01-14T10:41:55Z</time>
      </trkpt>
      <trkpt lat="43.61438" lon="6.8521">
        <ele>211.27894592285</ele>
        <time>2012-01-14T10:42:02Z</time>
      </trkpt>
      <trkpt lat="43.61449" lon="6.8522">
        <ele>211.1149597168</ele>
        <time>2012-01-14T10:42:05Z</time>
      </trkpt>
      <trkpt lat="43.61456" lon="6.85226">
        <ele>211.41610717773</ele>
        <time>2012-01-14T10:42:07Z</time>
      </trkpt>
      <trkpt lat="43.61463" lon="6.85231">
        <ele>211.94944763184</ele>
        <time>2012-01-14T10:42:11Z</time>
      </trkpt>
      <trkpt lat="43.61464" lon="6.85232">
        <ele>212.06443786621</ele>
        <time>2012-01-14T10:42:17Z</time>
      </trkpt>
      <trkpt lat="43.61469" lon="6.85234">
        <ele>212.58834838867</ele>
        <time>2012-01-14T10:42:22Z</time>
      </trkpt>
      <trkpt lat="43.61483" lon="6.85238">
        <ele>214.64700317383</ele>
        <time>2012-01-14T10:42:28Z</time>
      </trkpt>
      <trkpt lat="43.61506" lon="6.85247">
        <ele>217.82820129394</ele>
        <time>2012-01-14T10:42:34Z</time>
      </trkpt>
      <trkpt lat="43.61524" lon="6.85253">
        <ele>217.85978698731</ele>
        <time>2012-01-14T10:42:39Z</time>
      </trkpt>
      <trkpt lat="43.61553" lon="6.85261">
        <ele>217.7780456543</ele>
        <time>2012-01-14T10:42:47Z</time>
      </trkpt>
      <trkpt lat="43.61567" lon="6.85264">
        <ele>218.169921875</ele>
        <time>2012-01-14T10:42:53Z</time>
      </trkpt>
      <trkpt lat="43.6158" lon="6.85266">
        <ele>218.8367767334</ele>
        <time>2012-01-14T10:43:00Z</time>
      </trkpt>
      <trkpt lat="43.61588" lon="6.85267">
        <ele>219.32794189453</ele>
        <time>2012-01-14T10:43:04Z</time>
      </trkpt>
      <trkpt lat="43.61588" lon="6.85267">
        <ele>219.38821411133</ele>
        <time>2012-01-14T10:43:05Z</time>
      </trkpt>
      <trkpt lat="43.61588" lon="6.85265">
        <ele>219.32949829102</ele>
        <time>2012-01-14T10:43:07Z</time>
      </trkpt>
      <trkpt lat="43.61588" lon="6.85265">
        <ele>219.30004882812</ele>
        <time>2012-01-14T10:43:08Z</time>
      </trkpt>
      <trkpt lat="43.61591" lon="6.85265">
        <ele>219.53460693359</ele>
        <time>2012-01-14T10:43:21Z</time>
      </trkpt>
      <trkpt lat="43.61597" lon="6.85269">
        <ele>220.10662841797</ele>
        <time>2012-01-14T10:43:30Z</time>
      </trkpt>
      <trkpt lat="43.61597" lon="6.8527">
        <ele>220.12687683106</ele>
        <time>2012-01-14T10:43:36Z</time>
      </trkpt>
      <trkpt lat="43.616" lon="6.85271">
        <ele>220.49304199219</ele>
        <time>2012-01-14T10:43:41Z</time>
      </trkpt>
      <trkpt lat="43.61613" lon="6.85275">
        <ele>221.93095397949</ele>
        <time>2012-01-14T10:43:48Z</time>
      </trkpt>
      <trkpt lat="43.61628" lon="6.85281">
        <ele>223.99082946777</ele>
        <time>2012-01-14T10:43:56Z</time>
      </trkpt>
      <trkpt lat="43.61636" lon="6.85287">
        <ele>225.75411987305</ele>
        <time>2012-01-14T10:44:02Z</time>
      </trkpt>
      <trkpt lat="43.61646" lon="6.85293">
        <ele>227.83796691894</ele>
        <time>2012-01-14T10:44:09Z</time>
      </trkpt>
      <trkpt lat="43.61655" lon="6.85299">
        <ele>230.15266418457</ele>
        <time>2012-01-14T10:44:16Z</time>
      </trkpt>
      <trkpt lat="43.61665" lon="6.85308">
        <ele>233.46626281738</ele>
        <time>2012-01-14T10:44:24Z</time>
      </trkpt>
      <trkpt lat="43.61667" lon="6.85311">
        <ele>234.38151550293</ele>
        <time>2012-01-14T10:44:27Z</time>
      </trkpt>
      <trkpt lat="43.61669" lon="6.85321">
        <ele>236.40759277344</ele>
        <time>2012-01-14T10:44:33Z</time>
      </trkpt>
      <trkpt lat="43.61666" lon="6.85331">
        <ele>238.50390625</ele>
        <time>2012-01-14T10:44:39Z</time>
      </trkpt>
      <trkpt lat="43.61666" lon="6.85348">
        <ele>240.51292419434</ele>
        <time>2012-01-14T10:44:47Z</time>
      </trkpt>
      <trkpt lat="43.61667" lon="6.85351">
        <ele>240.89616394043</ele>
        <time>2012-01-14T10:44:54Z</time>
      </trkpt>
      <trkpt lat="43.61666" lon="6.85351">
        <ele>240.6944732666</ele>
        <time>2012-01-14T10:45:05Z</time>
      </trkpt>
      <trkpt lat="43.61665" lon="6.85351">
        <ele>240.52082824707</ele>
        <time>2012-01-14T10:45:12Z</time>
      </trkpt>
      <trkpt lat="43.61665" lon="6.85351">
        <ele>240.53616333008</ele>
        <time>2012-01-14T10:45:17Z</time>
      </trkpt>
      <trkpt lat="43.61665" lon="6.85352">
        <ele>240.55151367188</ele>
        <time>2012-01-14T10:45:22Z</time>
      </trkpt>
      <trkpt lat="43.61665" lon="6.85352">
        <ele>240.67681884766</ele>
        <time>2012-01-14T10:45:28Z</time>
      </trkpt>
      <trkpt lat="43.61666" lon="6.85352">
        <ele>240.79707336426</ele>
        <time>2012-01-14T10:45:30Z</time>
      </trkpt>
      <trkpt lat="43.61677" lon="6.85365">
        <ele>242.33303833008</ele>
        <time>2012-01-14T10:45:36Z</time>
      </trkpt>
      <trkpt lat="43.61687" lon="6.85379">
        <ele>244.02806091309</ele>
        <time>2012-01-14T10:45:42Z</time>
      </trkpt>
      <trkpt lat="43.61695" lon="6.85394">
        <ele>246.19627380371</ele>
        <time>2012-01-14T10:45:48Z</time>
      </trkpt>
      <trkpt lat="43.6171" lon="6.85407">
        <ele>248.50389099121</ele>
        <time>2012-01-14T10:45:54Z</time>
      </trkpt>
      <trkpt lat="43.61729" lon="6.85419">
        <ele>251.24377441406</ele>
        <time>2012-01-14T10:46:01Z</time>
      </trkpt>
      <trkpt lat="43.61748" lon="6.85434">
        <ele>253.54719543457</ele>
        <time>2012-01-14T10:46:09Z</time>
      </trkpt>
      <trkpt lat="43.61765" lon="6.85446">
        <ele>253.44708251953</ele>
        <time>2012-01-14T10:46:16Z</time>
      </trkpt>
      <trkpt lat="43.6178" lon="6.8546">
        <ele>254.08633422852</ele>
        <time>2012-01-14T10:46:23Z</time>
      </trkpt>
      <trkpt lat="43.6179" lon="6.8547">
        <ele>254.83537292481</ele>
        <time>2012-01-14T10:46:28Z</time>
      </trkpt>
      <trkpt lat="43.61806" lon="6.85484">
        <ele>256.43887329102</ele>
        <time>2012-01-14T10:46:35Z</time>
      </trkpt>
      <trkpt lat="43.61818" lon="6.85499">
        <ele>258.94891357422</ele>
        <time>2012-01-14T10:46:42Z</time>
      </trkpt>
      <trkpt lat="43.61829" lon="6.85516">
        <ele>259.2317199707</ele>
        <time>2012-01-14T10:46:49Z</time>
      </trkpt>
      <trkpt lat="43.61841" lon="6.85538">
        <ele>259.22378540039</ele>
        <time>2012-01-14T10:46:57Z</time>
      </trkpt>
      <trkpt lat="43.61851" lon="6.85555">
        <ele>259.16165161133</ele>
        <time>2012-01-14T10:47:04Z</time>
      </trkpt>
      <trkpt lat="43.61857" lon="6.8556">
        <ele>259.07440185547</ele>
        <time>2012-01-14T10:47:07Z</time>
      </trkpt>
      <trkpt lat="43.61871" lon="6.85561">
        <ele>258.70785522461</ele>
        <time>2012-01-14T10:47:13Z</time>
      </trkpt>
      <trkpt lat="43.61889" lon="6.85563">
        <ele>258.26354980469</ele>
        <time>2012-01-14T10:47:21Z</time>
      </trkpt>
      <trkpt lat="43.61897" lon="6.85564">
        <ele>258.08062744141</ele>
        <time>2012-01-14T10:47:25Z</time>
      </trkpt>
      <trkpt lat="43.61904" lon="6.85562">
        <ele>257.82574462891</ele>
        <time>2012-01-14T10:47:29Z</time>
      </trkpt>
      <trkpt lat="43.61912" lon="6.85555">
        <ele>257.46694946289</ele>
        <time>2012-01-14T10:47:33Z</time>
      </trkpt>
      <trkpt lat="43.61919" lon="6.85557">
        <ele>256.97607421875</ele>
        <time>2012-01-14T10:47:38Z</time>
      </trkpt>
      <trkpt lat="43.61919" lon="6.85556">
        <ele>257.01599121094</ele>
        <time>2012-01-14T10:47:45Z</time>
      </trkpt>
      <trkpt lat="43.61921" lon="6.85556">
        <ele>256.81121826172</ele>
        <time>2012-01-14T10:47:49Z</time>
      </trkpt>
      <trkpt lat="43.61937" lon="6.85571">
        <ele>254.76092529297</ele>
        <time>2012-01-14T10:47:54Z</time>
      </trkpt>
      <trkpt lat="43.6195" lon="6.8558">
        <ele>253.19783020019</ele>
        <time>2012-01-14T10:47:56Z</time>
      </trkpt>
      <trkpt lat="43.61964" lon="6.85592">
        <ele>250.43717956543</ele>
        <time>2012-01-14T10:47:58Z</time>
      </trkpt>
      <trkpt lat="43.61991" lon="6.85625">
        <ele>245.31619262695</ele>
        <time>2012-01-14T10:48:02Z</time>
      </trkpt>
      <trkpt lat="43.61999" lon="6.85636">
        <ele>244.18064880371</ele>
        <time>2012-01-14T10:48:04Z</time>
      </trkpt>
      <trkpt lat="43.62011" lon="6.85636">
        <ele>243.60211181641</ele>
        <time>2012-01-14T10:48:08Z</time>
      </trkpt>
      <trkpt lat="43.62017" lon="6.85638">
        <ele>243.28056335449</ele>
        <time>2012-01-14T10:48:11Z</time>
      </trkpt>
      <trkpt lat="43.62017" lon="6.85643">
        <ele>243.12733459473</ele>
        <time>2012-01-14T10:48:13Z</time>
      </trkpt>
      <trkpt lat="43.62015" lon="6.85651">
        <ele>242.98023986816</ele>
        <time>2012-01-14T10:48:16Z</time>
      </trkpt>
      <trkpt lat="43.62017" lon="6.85655">
        <ele>242.73748779297</ele>
        <time>2012-01-14T10:48:21Z</time>
      </trkpt>
      <trkpt lat="43.62016" lon="6.85656">
        <ele>242.75245666504</ele>
        <time>2012-01-14T10:48:25Z</time>
      </trkpt>
      <trkpt lat="43.62012" lon="6.85669">
        <ele>242.48959350586</ele>
        <time>2012-01-14T10:48:30Z</time>
      </trkpt>
      <trkpt lat="43.62004" lon="6.85697">
        <ele>241.77053833008</ele>
        <time>2012-01-14T10:48:35Z</time>
      </trkpt>
      <trkpt lat="43.61997" lon="6.85741">
        <ele>240.24578857422</ele>
        <time>2012-01-14T10:48:41Z</time>
      </trkpt>
      <trkpt lat="43.61994" lon="6.85757">
        <ele>239.59428405762</ele>
        <time>2012-01-14T10:48:44Z</time>
      </trkpt>
      <trkpt lat="43.61989" lon="6.85789">
        <ele>238.44299316406</ele>
        <time>2012-01-14T10:48:49Z</time>
      </trkpt>
      <trkpt lat="43.61988" lon="6.85802">
        <ele>237.95231628418</ele>
        <time>2012-01-14T10:48:53Z</time>
      </trkpt>
      <trkpt lat="43.61987" lon="6.85807">
        <ele>237.75250244141</ele>
        <time>2012-01-14T10:48:59Z</time>
      </trkpt>
      <trkpt lat="43.61987" lon="6.85827">
        <ele>237.1142578125</ele>
        <time>2012-01-14T10:49:03Z</time>
      </trkpt>
      <trkpt lat="43.6199" lon="6.85841">
        <ele>236.87727355957</ele>
        <time>2012-01-14T10:49:07Z</time>
      </trkpt>
      <trkpt lat="43.6199" lon="6.85855">
        <ele>236.5340423584</ele>
        <time>2012-01-14T10:49:13Z</time>
      </trkpt>
      <trkpt lat="43.61992" lon="6.85865">
        <ele>236.36956787109</ele>
        <time>2012-01-14T10:49:17Z</time>
      </trkpt>
      <trkpt lat="43.61992" lon="6.85891">
        <ele>235.60536193848</ele>
        <time>2012-01-14T10:49:21Z</time>
      </trkpt>
      <trkpt lat="43.6199" lon="6.85924">
        <ele>234.35189819336</ele>
        <time>2012-01-14T10:49:26Z</time>
      </trkpt>
      <trkpt lat="43.61988" lon="6.85938">
        <ele>233.90081787109</ele>
        <time>2012-01-14T10:49:28Z</time>
      </trkpt>
      <trkpt lat="43.61985" lon="6.85983">
        <ele>232.25331115723</ele>
        <time>2012-01-14T10:49:35Z</time>
      </trkpt>
      <trkpt lat="43.61984" lon="6.86015">
        <ele>231.42106628418</ele>
        <time>2012-01-14T10:49:41Z</time>
      </trkpt>
      <trkpt lat="43.61987" lon="6.86041">
        <ele>231.43708801269</ele>
        <time>2012-01-14T10:49:47Z</time>
      </trkpt>
      <trkpt lat="43.61992" lon="6.86057">
        <ele>232.05392456055</ele>
        <time>2012-01-14T10:49:52Z</time>
      </trkpt>
      <trkpt lat="43.61997" lon="6.86074">
        <ele>232.5860748291</ele>
        <time>2012-01-14T10:49:57Z</time>
      </trkpt>
      <trkpt lat="43.61994" lon="6.86092">
        <ele>231.61869812012</ele>
        <time>2012-01-14T10:50:04Z</time>
      </trkpt>
      <trkpt lat="43.61993" lon="6.86096">
        <ele>231.37825012207</ele>
        <time>2012-01-14T10:50:06Z</time>
      </trkpt>
      <trkpt lat="43.61988" lon="6.86105">
        <ele>230.23510742188</ele>
        <time>2012-01-14T10:50:12Z</time>
      </trkpt>
      <trkpt lat="43.61982" lon="6.86117">
        <ele>228.84991455078</ele>
        <time>2012-01-14T10:50:18Z</time>
      </trkpt>
      <trkpt lat="43.6198" lon="6.86128">
        <ele>228.24078369141</ele>
        <time>2012-01-14T10:50:23Z</time>
      </trkpt>
      <trkpt lat="43.61979" lon="6.86132">
        <ele>227.90785217285</ele>
        <time>2012-01-14T10:50:28Z</time>
      </trkpt>
      <trkpt lat="43.61979" lon="6.86136">
        <ele>227.91522216797</ele>
        <time>2012-01-14T10:50:32Z</time>
      </trkpt>
      <trkpt lat="43.61978" lon="6.86155">
        <ele>227.5061340332</ele>
        <time>2012-01-14T10:50:40Z</time>
      </trkpt>
      <trkpt lat="43.61974" lon="6.86168">
        <ele>226.56695556641</ele>
        <time>2012-01-14T10:50:46Z</time>
      </trkpt>
      <trkpt lat="43.61967" lon="6.86178">
        <ele>225.46182250977</ele>
        <time>2012-01-14T10:50:51Z</time>
      </trkpt>
      <trkpt lat="43.61961" lon="6.86187">
        <ele>224.62335205078</ele>
        <time>2012-01-14T10:50:56Z</time>
      </trkpt>
      <trkpt lat="43.61957" lon="6.86202">
        <ele>224.0207824707</ele>
        <time>2012-01-14T10:51:02Z</time>
      </trkpt>
      <trkpt lat="43.61952" lon="6.86218">
        <ele>223.32330322266</ele>
        <time>2012-01-14T10:51:08Z</time>
      </trkpt>
      <trkpt lat="43.61948" lon="6.86234">
        <ele>222.76992797852</ele>
        <time>2012-01-14T10:51:14Z</time>
      </trkpt>
      <trkpt lat="43.61949" lon="6.86252">
        <ele>223.27897644043</ele>
        <time>2012-01-14T10:51:21Z</time>
      </trkpt>
      <trkpt lat="43.61953" lon="6.86269">
        <ele>225.85588073731</ele>
        <time>2012-01-14T10:51:29Z</time>
      </trkpt>
      <trkpt lat="43.61955" lon="6.86282">
        <ele>227.68544006348</ele>
        <time>2012-01-14T10:51:34Z</time>
      </trkpt>
      <trkpt lat="43.61952" lon="6.86295">
        <ele>228.71757507324</ele>
        <time>2012-01-14T10:51:40Z</time>
      </trkpt>
      <trkpt lat="43.61946" lon="6.86311">
        <ele>229.85246276856</ele>
        <time>2012-01-14T10:51:46Z</time>
      </trkpt>
      <trkpt lat="43.6194" lon="6.86336">
        <ele>232.00332641602</ele>
        <time>2012-01-14T10:51:54Z</time>
      </trkpt>
      <trkpt lat="43.61932" lon="6.86354">
        <ele>232.91430664062</ele>
        <time>2012-01-14T10:52:01Z</time>
      </trkpt>
      <trkpt lat="43.61923" lon="6.86369">
        <ele>233.74957275391</ele>
        <time>2012-01-14T10:52:07Z</time>
      </trkpt>
      <trkpt lat="43.61915" lon="6.86391">
        <ele>235.89517211914</ele>
        <time>2012-01-14T10:52:15Z</time>
      </trkpt>
      <trkpt lat="43.61911" lon="6.86396">
        <ele>236.47808837891</ele>
        <time>2012-01-14T10:52:18Z</time>
      </trkpt>
      <trkpt lat="43.61909" lon="6.86408">
        <ele>237.97320556641</ele>
        <time>2012-01-14T10:52:23Z</time>
      </trkpt>
      <trkpt lat="43.61907" lon="6.86425">
        <ele>239.09622192383</ele>
        <time>2012-01-14T10:52:29Z</time>
      </trkpt>
      <trkpt lat="43.61905" lon="6.86442">
        <ele>239.30735778809</ele>
        <time>2012-01-14T10:52:35Z</time>
      </trkpt>
      <trkpt lat="43.619" lon="6.86455">
        <ele>239.45841979981</ele>
        <time>2012-01-14T10:52:40Z</time>
      </trkpt>
      <trkpt lat="43.61898" lon="6.86472">
        <ele>239.66441345215</ele>
        <time>2012-01-14T10:52:46Z</time>
      </trkpt>
      <trkpt lat="43.61897" lon="6.86495">
        <ele>239.94421386719</ele>
        <time>2012-01-14T10:52:54Z</time>
      </trkpt>
      <trkpt lat="43.61901" lon="6.86512">
        <ele>240</ele>
        <time>2012-01-14T10:53:01Z</time>
      </trkpt>
      <trkpt lat="43.61901" lon="6.86527">
        <ele>240</ele>
        <time>2012-01-14T10:53:08Z</time>
      </trkpt>
      <trkpt lat="43.61902" lon="6.86528">
        <ele>240</ele>
        <time>2012-01-14T10:53:13Z</time>
      </trkpt>
      <trkpt lat="43.61903" lon="6.86529">
        <ele>240</ele>
        <time>2012-01-14T10:53:15Z</time>
      </trkpt>
      <trkpt lat="43.61914" lon="6.86531">
        <ele>240</ele>
        <time>2012-01-14T10:53:21Z</time>
      </trkpt>
      <trkpt lat="43.61925" lon="6.86529">
        <ele>240.26057434082</ele>
        <time>2012-01-14T10:53:27Z</time>
      </trkpt>
      <trkpt lat="43.61939" lon="6.8652">
        <ele>240.67179870606</ele>
        <time>2012-01-14T10:53:34Z</time>
      </trkpt>
      <trkpt lat="43.61953" lon="6.86503">
        <ele>240.89802551269</ele>
        <time>2012-01-14T10:53:41Z</time>
      </trkpt>
      <trkpt lat="43.61959" lon="6.86496">
        <ele>240.96604919434</ele>
        <time>2012-01-14T10:53:46Z</time>
      </trkpt>
      <trkpt lat="43.6196" lon="6.86503">
        <ele>241.07023620606</ele>
        <time>2012-01-14T10:53:50Z</time>
      </trkpt>
      <trkpt lat="43.61951" lon="6.86511">
        <ele>240.94863891602</ele>
        <time>2012-01-14T10:53:55Z</time>
      </trkpt>
      <trkpt lat="43.61937" lon="6.86524">
        <ele>240.61720275879</ele>
        <time>2012-01-14T10:54:00Z</time>
      </trkpt>
      <trkpt lat="43.61914" lon="6.86533">
        <ele>240</ele>
        <time>2012-01-14T10:54:06Z</time>
      </trkpt>
      <trkpt lat="43.61913" lon="6.86533">
        <ele>240</ele>
        <time>2012-01-14T10:54:07Z</time>
      </trkpt>
      <trkpt lat="43.61911" lon="6.86538">
        <ele>240</ele>
        <time>2012-01-14T10:54:11Z</time>
      </trkpt>
      <trkpt lat="43.6192" lon="6.86556">
        <ele>240.14004516602</ele>
        <time>2012-01-14T10:54:16Z</time>
      </trkpt>
      <trkpt lat="43.61932" lon="6.86569">
        <ele>240.65754699707</ele>
        <time>2012-01-14T10:54:21Z</time>
      </trkpt>
      <trkpt lat="43.61946" lon="6.86568">
        <ele>241.30111694336</ele>
        <time>2012-01-14T10:54:26Z</time>
      </trkpt>
      <trkpt lat="43.61967" lon="6.86565">
        <ele>242.17259216309</ele>
        <time>2012-01-14T10:54:33Z</time>
      </trkpt>
      <trkpt lat="43.61981" lon="6.86568">
        <ele>242.80085754394</ele>
        <time>2012-01-14T10:54:38Z</time>
      </trkpt>
      <trkpt lat="43.61997" lon="6.8658">
        <ele>243.78582763672</ele>
        <time>2012-01-14T10:54:44Z</time>
      </trkpt>
      <trkpt lat="43.62007" lon="6.86595">
        <ele>244.92425537109</ele>
        <time>2012-01-14T10:54:49Z</time>
      </trkpt>
      <trkpt lat="43.62008" lon="6.86616">
        <ele>245.77053833008</ele>
        <time>2012-01-14T10:54:54Z</time>
      </trkpt>
      <trkpt lat="43.62003" lon="6.86635">
        <ele>246.02803039551</ele>
        <time>2012-01-14T10:55:00Z</time>
      </trkpt>
      <trkpt lat="43.61993" lon="6.8666">
        <ele>246.23178100586</ele>
        <time>2012-01-14T10:55:07Z</time>
      </trkpt>
      <trkpt lat="43.61982" lon="6.86686">
        <ele>246.83915710449</ele>
        <time>2012-01-14T10:55:14Z</time>
      </trkpt>
      <trkpt lat="43.61971" lon="6.86712">
        <ele>247.60934448242</ele>
        <time>2012-01-14T10:55:21Z</time>
      </trkpt>
      <trkpt lat="43.6196" lon="6.86739">
        <ele>248.48825073242</ele>
        <time>2012-01-14T10:55:29Z</time>
      </trkpt>
      <trkpt lat="43.61951" lon="6.8676">
        <ele>249.20321655273</ele>
        <time>2012-01-14T10:55:35Z</time>
      </trkpt>
      <trkpt lat="43.6194" lon="6.86785">
        <ele>250.3777923584</ele>
        <time>2012-01-14T10:55:42Z</time>
      </trkpt>
      <trkpt lat="43.61928" lon="6.86815">
        <ele>252.04711914062</ele>
        <time>2012-01-14T10:55:51Z</time>
      </trkpt>
      <trkpt lat="43.61919" lon="6.86836">
        <ele>253.31391906738</ele>
        <time>2012-01-14T10:55:57Z</time>
      </trkpt>
      <trkpt lat="43.61913" lon="6.8686">
        <ele>255.10232543945</ele>
        <time>2012-01-14T10:56:04Z</time>
      </trkpt>
      <trkpt lat="43.61908" lon="6.86873">
        <ele>256.09399414062</ele>
        <time>2012-01-14T10:56:10Z</time>
      </trkpt>
      <trkpt lat="43.61902" lon="6.8689">
        <ele>257.43588256836</ele>
        <time>2012-01-14T10:56:16Z</time>
      </trkpt>
      <trkpt lat="43.61897" lon="6.86908">
        <ele>258.95977783203</ele>
        <time>2012-01-14T10:56:23Z</time>
      </trkpt>
      <trkpt lat="43.61889" lon="6.86927">
        <ele>259.96130371094</ele>
        <time>2012-01-14T10:56:30Z</time>
      </trkpt>
      <trkpt lat="43.61883" lon="6.86942">
        <ele>260.38354492188</ele>
        <time>2012-01-14T10:56:35Z</time>
      </trkpt>
      <trkpt lat="43.61889" lon="6.86949">
        <ele>260.57360839844</ele>
        <time>2012-01-14T10:56:40Z</time>
      </trkpt>
      <trkpt lat="43.61891" lon="6.8695">
        <ele>260.59057617188</ele>
        <time>2012-01-14T10:56:41Z</time>
      </trkpt>
      <trkpt lat="43.61895" lon="6.86952">
        <ele>260.61251831055</ele>
        <time>2012-01-14T10:56:50Z</time>
      </trkpt>
      <trkpt lat="43.61895" lon="6.86952">
        <ele>260.61016845703</ele>
        <time>2012-01-14T10:56:57Z</time>
      </trkpt>
      <trkpt lat="43.61895" lon="6.86951">
        <ele>260.5856628418</ele>
        <time>2012-01-14T10:57:07Z</time>
      </trkpt>
      <trkpt lat="43.61893" lon="6.86949">
        <ele>260.55206298828</ele>
        <time>2012-01-14T10:57:14Z</time>
      </trkpt>
      <trkpt lat="43.6189" lon="6.86954">
        <ele>260.69033813477</ele>
        <time>2012-01-14T10:57:18Z</time>
      </trkpt>
      <trkpt lat="43.6189" lon="6.86957">
        <ele>260.79342651367</ele>
        <time>2012-01-14T10:57:20Z</time>
      </trkpt>
      <trkpt lat="43.61882" lon="6.8697">
        <ele>261.29760742188</ele>
        <time>2012-01-14T10:57:28Z</time>
      </trkpt>
      <trkpt lat="43.6188" lon="6.86972">
        <ele>261.39666748047</ele>
        <time>2012-01-14T10:57:30Z</time>
      </trkpt>
      <trkpt lat="43.61879" lon="6.86971">
        <ele>261.37197875977</ele>
        <time>2012-01-14T10:57:36Z</time>
      </trkpt>
      <trkpt lat="43.61879" lon="6.86975">
        <ele>261.51129150391</ele>
        <time>2012-01-14T10:57:39Z</time>
      </trkpt>
      <trkpt lat="43.61882" lon="6.86985">
        <ele>261.78216552734</ele>
        <time>2012-01-14T10:57:45Z</time>
      </trkpt>
      <trkpt lat="43.61883" lon="6.86994">
        <ele>262.04516601562</ele>
        <time>2012-01-14T10:57:49Z</time>
      </trkpt>
      <trkpt lat="43.61883" lon="6.87007">
        <ele>261.87707519531</ele>
        <time>2012-01-14T10:57:55Z</time>
      </trkpt>
      <trkpt lat="43.61881" lon="6.87017">
        <ele>261.46966552734</ele>
        <time>2012-01-14T10:57:59Z</time>
      </trkpt>
      <trkpt lat="43.61881" lon="6.87037">
        <ele>260.49462890625</ele>
        <time>2012-01-14T10:58:07Z</time>
      </trkpt>
      <trkpt lat="43.6188" lon="6.87046">
        <ele>260.09866333008</ele>
        <time>2012-01-14T10:58:10Z</time>
      </trkpt>
      <trkpt lat="43.61885" lon="6.87061">
        <ele>259.21517944336</ele>
        <time>2012-01-14T10:58:18Z</time>
      </trkpt>
      <trkpt lat="43.61888" lon="6.87064">
        <ele>258.95654296875</ele>
        <time>2012-01-14T10:58:23Z</time>
      </trkpt>
      <trkpt lat="43.61889" lon="6.87067">
        <ele>258.81234741211</ele>
        <time>2012-01-14T10:58:29Z</time>
      </trkpt>
      <trkpt lat="43.61899" lon="6.87076">
        <ele>258.00897216797</ele>
        <time>2012-01-14T10:58:35Z</time>
      </trkpt>
      <trkpt lat="43.619" lon="6.87077">
        <ele>257.88995361328</ele>
        <time>2012-01-14T10:58:39Z</time>
      </trkpt>
      <trkpt lat="43.61902" lon="6.87078">
        <ele>257.77551269531</ele>
        <time>2012-01-14T10:58:43Z</time>
      </trkpt>
      <trkpt lat="43.61907" lon="6.87085">
        <ele>257.12506103516</ele>
        <time>2012-01-14T10:58:47Z</time>
      </trkpt>
      <trkpt lat="43.61916" lon="6.87092">
        <ele>255.45549011231</ele>
        <time>2012-01-14T10:58:53Z</time>
      </trkpt>
      <trkpt lat="43.61925" lon="6.87096">
        <ele>254.65449523926</ele>
        <time>2012-01-14T10:58:58Z</time>
      </trkpt>
      <trkpt lat="43.61937" lon="6.87099">
        <ele>254.25549316406</ele>
        <time>2012-01-14T10:59:04Z</time>
      </trkpt>
      <trkpt lat="43.61948" lon="6.871">
        <ele>254.10452270508</ele>
        <time>2012-01-14T10:59:09Z</time>
      </trkpt>
      <trkpt lat="43.61963" lon="6.87097">
        <ele>254.55975341797</ele>
        <time>2012-01-14T10:59:15Z</time>
      </trkpt>
      <trkpt lat="43.61979" lon="6.87095">
        <ele>255.07417297363</ele>
        <time>2012-01-14T10:59:21Z</time>
      </trkpt>
      <trkpt lat="43.61996" lon="6.87092">
        <ele>255.61642456055</ele>
        <time>2012-01-14T10:59:26Z</time>
      </trkpt>
      <trkpt lat="43.62016" lon="6.87094">
        <ele>256.74203491211</ele>
        <time>2012-01-14T10:59:32Z</time>
      </trkpt>
      <trkpt lat="43.62027" lon="6.87098">
        <ele>257.2951965332</ele>
        <time>2012-01-14T10:59:36Z</time>
      </trkpt>
      <trkpt lat="43.62033" lon="6.87108">
        <ele>256.51272583008</ele>
        <time>2012-01-14T10:59:40Z</time>
      </trkpt>
      <trkpt lat="43.62041" lon="6.87121">
        <ele>255.6766204834</ele>
        <time>2012-01-14T10:59:44Z</time>
      </trkpt>
      <trkpt lat="43.6205" lon="6.87127">
        <ele>256.00057983398</ele>
        <time>2012-01-14T10:59:48Z</time>
      </trkpt>
      <trkpt lat="43.62054" lon="6.87135">
        <ele>255.70381164551</ele>
        <time>2012-01-14T10:59:52Z</time>
      </trkpt>
      <trkpt lat="43.62054" lon="6.87136">
        <ele>255.62829589844</ele>
        <time>2012-01-14T11:00:01Z</time>
      </trkpt>
      <trkpt lat="43.62055" lon="6.87136">
        <ele>255.70600891113</ele>
        <time>2012-01-14T11:00:02Z</time>
      </trkpt>
      <trkpt lat="43.62065" lon="6.87141">
        <ele>256.61303710938</ele>
        <time>2012-01-14T11:00:06Z</time>
      </trkpt>
      <trkpt lat="43.62086" lon="6.87165">
        <ele>257.89334106445</ele>
        <time>2012-01-14T11:00:13Z</time>
      </trkpt>
      <trkpt lat="43.62088" lon="6.87172">
        <ele>257.67935180664</ele>
        <time>2012-01-14T11:00:15Z</time>
      </trkpt>
      <trkpt lat="43.62079" lon="6.87189">
        <ele>254.48046875</ele>
        <time>2012-01-14T11:00:19Z</time>
      </trkpt>
      <trkpt lat="43.62072" lon="6.87218">
        <ele>251.03938293457</ele>
        <time>2012-01-14T11:00:23Z</time>
      </trkpt>
      <trkpt lat="43.62071" lon="6.87238">
        <ele>249.46603393555</ele>
        <time>2012-01-14T11:00:26Z</time>
      </trkpt>
      <trkpt lat="43.62071" lon="6.87272">
        <ele>247.37814331055</ele>
        <time>2012-01-14T11:00:32Z</time>
      </trkpt>
      <trkpt lat="43.6207" lon="6.87277">
        <ele>247.08923339844</ele>
        <time>2012-01-14T11:00:33Z</time>
      </trkpt>
      <trkpt lat="43.6207" lon="6.87301">
        <ele>245.89172363281</ele>
        <time>2012-01-14T11:00:37Z</time>
      </trkpt>
      <trkpt lat="43.62072" lon="6.87313">
        <ele>245.37915039062</ele>
        <time>2012-01-14T11:00:39Z</time>
      </trkpt>
      <trkpt lat="43.62077" lon="6.87341">
        <ele>244.86468505859</ele>
        <time>2012-01-14T11:00:43Z</time>
      </trkpt>
      <trkpt lat="43.62088" lon="6.87361">
        <ele>246.71697998047</ele>
        <time>2012-01-14T11:00:47Z</time>
      </trkpt>
      <trkpt lat="43.62109" lon="6.87398">
        <ele>250.86662292481</ele>
        <time>2012-01-14T11:00:54Z</time>
      </trkpt>
      <trkpt lat="43.62139" lon="6.87435">
        <ele>255.50370788574</ele>
        <time>2012-01-14T11:01:02Z</time>
      </trkpt>
      <trkpt lat="43.62154" lon="6.8745">
        <ele>257.33657836914</ele>
        <time>2012-01-14T11:01:06Z</time>
      </trkpt>
      <trkpt lat="43.6218" lon="6.87475">
        <ele>258.74740600586</ele>
        <time>2012-01-14T11:01:13Z</time>
      </trkpt>
      <trkpt lat="43.62185" lon="6.87478">
        <ele>258.78958129883</ele>
        <time>2012-01-14T11:01:14Z</time>
      </trkpt>
      <trkpt lat="43.62199" lon="6.87488">
        <ele>258.91323852539</ele>
        <time>2012-01-14T11:01:18Z</time>
      </trkpt>
      <trkpt lat="43.62208" lon="6.87494">
        <ele>258.96405029297</ele>
        <time>2012-01-14T11:01:23Z</time>
      </trkpt>
      <trkpt lat="43.62213" lon="6.87495">
        <ele>258.97543334961</ele>
        <time>2012-01-14T11:01:25Z</time>
      </trkpt>
      <trkpt lat="43.62226" lon="6.875">
        <ele>259.03924560547</ele>
        <time>2012-01-14T11:01:32Z</time>
      </trkpt>
      <trkpt lat="43.62228" lon="6.87502">
        <ele>259.15512084961</ele>
        <time>2012-01-14T11:01:39Z</time>
      </trkpt>
      <trkpt lat="43.62237" lon="6.87502">
        <ele>259.17044067383</ele>
        <time>2012-01-14T11:01:44Z</time>
      </trkpt>
      <trkpt lat="43.62252" lon="6.875">
        <ele>259.013671875</ele>
        <time>2012-01-14T11:01:51Z</time>
      </trkpt>
      <trkpt lat="43.62266" lon="6.87502">
        <ele>259.10971069336</ele>
        <time>2012-01-14T11:01:57Z</time>
      </trkpt>
      <trkpt lat="43.62287" lon="6.87506">
        <ele>259.40396118164</ele>
        <time>2012-01-14T11:02:05Z</time>
      </trkpt>
      <trkpt lat="43.62306" lon="6.87508">
        <ele>259.48492431641</ele>
        <time>2012-01-14T11:02:12Z</time>
      </trkpt>
      <trkpt lat="43.6232" lon="6.87505">
        <ele>259.30093383789</ele>
        <time>2012-01-14T11:02:18Z</time>
      </trkpt>
      <trkpt lat="43.62339" lon="6.87509">
        <ele>259.55682373047</ele>
        <time>2012-01-14T11:02:25Z</time>
      </trkpt>
      <trkpt lat="43.62358" lon="6.8752">
        <ele>260.25073242188</ele>
        <time>2012-01-14T11:02:31Z</time>
      </trkpt>
      <trkpt lat="43.62372" lon="6.87532">
        <ele>261.11584472656</ele>
        <time>2012-01-14T11:02:36Z</time>
      </trkpt>
      <trkpt lat="43.62386" lon="6.87538">
        <ele>261.55960083008</ele>
        <time>2012-01-14T11:02:41Z</time>
      </trkpt>
      <trkpt lat="43.62407" lon="6.87546">
        <ele>262.27624511719</ele>
        <time>2012-01-14T11:02:48Z</time>
      </trkpt>
      <trkpt lat="43.6242" lon="6.87549">
        <ele>262.52850341797</ele>
        <time>2012-01-14T11:02:52Z</time>
      </trkpt>
      <trkpt lat="43.6244" lon="6.87558">
        <ele>263.05218505859</ele>
        <time>2012-01-14T11:02:59Z</time>
      </trkpt>
      <trkpt lat="43.62442" lon="6.8756">
        <ele>263.2160949707</ele>
        <time>2012-01-14T11:03:00Z</time>
      </trkpt>
      <trkpt lat="43.6244" lon="6.8757">
        <ele>263.87042236328</ele>
        <time>2012-01-14T11:03:05Z</time>
      </trkpt>
      <trkpt lat="43.62437" lon="6.87572">
        <ele>264.00936889648</ele>
        <time>2012-01-14T11:03:09Z</time>
      </trkpt>
      <trkpt lat="43.62439" lon="6.87573">
        <ele>264.06094360352</ele>
        <time>2012-01-14T11:03:12Z</time>
      </trkpt>
      <trkpt lat="43.62443" lon="6.87566">
        <ele>263.55059814453</ele>
        <time>2012-01-14T11:03:16Z</time>
      </trkpt>
      <trkpt lat="43.62445" lon="6.87563">
        <ele>263.39129638672</ele>
        <time>2012-01-14T11:03:21Z</time>
      </trkpt>
      <trkpt lat="43.62437" lon="6.87568">
        <ele>263.71276855469</ele>
        <time>2012-01-14T11:03:26Z</time>
      </trkpt>
      <trkpt lat="43.62429" lon="6.87563">
        <ele>263.46670532227</ele>
        <time>2012-01-14T11:03:29Z</time>
      </trkpt>
      <trkpt lat="43.62402" lon="6.8756">
        <ele>263.17861938477</ele>
        <time>2012-01-14T11:03:36Z</time>
      </trkpt>
      <trkpt lat="43.62378" lon="6.87561">
        <ele>263.02890014648</ele>
        <time>2012-01-14T11:03:42Z</time>
      </trkpt>
      <trkpt lat="43.62346" lon="6.87562">
        <ele>262.82888793945</ele>
        <time>2012-01-14T11:03:49Z</time>
      </trkpt>
      <trkpt lat="43.62332" lon="6.87564">
        <ele>262.84176635742</ele>
        <time>2012-01-14T11:03:52Z</time>
      </trkpt>
      <trkpt lat="43.62314" lon="6.87559">
        <ele>262.73159790039</ele>
        <time>2012-01-14T11:03:57Z</time>
      </trkpt>
      <trkpt lat="43.62304" lon="6.87553">
        <ele>262.43356323242</ele>
        <time>2012-01-14T11:04:00Z</time>
      </trkpt>
      <trkpt lat="43.623" lon="6.87551">
        <ele>262.3303527832</ele>
        <time>2012-01-14T11:04:01Z</time>
      </trkpt>
      <trkpt lat="43.62268" lon="6.87544">
        <ele>262.02789306641</ele>
        <time>2012-01-14T11:04:08Z</time>
      </trkpt>
      <trkpt lat="43.62232" lon="6.87537">
        <ele>261.98895263672</ele>
        <time>2012-01-14T11:04:14Z</time>
      </trkpt>
      <trkpt lat="43.62214" lon="6.87532">
        <ele>261.8307800293</ele>
        <time>2012-01-14T11:04:17Z</time>
      </trkpt>
      <trkpt lat="43.62199" lon="6.87526">
        <ele>261.4387512207</ele>
        <time>2012-01-14T11:04:20Z</time>
      </trkpt>
      <trkpt lat="43.62192" lon="6.87522">
        <ele>261.15515136719</ele>
        <time>2012-01-14T11:04:22Z</time>
      </trkpt>
      <trkpt lat="43.62189" lon="6.87521">
        <ele>261.07073974609</ele>
        <time>2012-01-14T11:04:24Z</time>
      </trkpt>
      <trkpt lat="43.62187" lon="6.8752">
        <ele>260.9460144043</ele>
        <time>2012-01-14T11:04:29Z</time>
      </trkpt>
      <trkpt lat="43.62184" lon="6.87521">
        <ele>261.15063476562</ele>
        <time>2012-01-14T11:04:32Z</time>
      </trkpt>
      <trkpt lat="43.62185" lon="6.87526">
        <ele>261.58331298828</ele>
        <time>2012-01-14T11:04:37Z</time>
      </trkpt>
      <trkpt lat="43.62187" lon="6.87525">
        <ele>261.52841186523</ele>
        <time>2012-01-14T11:04:38Z</time>
      </trkpt>
      <trkpt lat="43.62194" lon="6.87526">
        <ele>261.4948425293</ele>
        <time>2012-01-14T11:04:45Z</time>
      </trkpt>
      <trkpt lat="43.62195" lon="6.87524">
        <ele>261.30319213867</ele>
        <time>2012-01-14T11:04:51Z</time>
      </trkpt>
      <trkpt lat="43.62195" lon="6.8752">
        <ele>260.96044921875</ele>
        <time>2012-01-14T11:05:05Z</time>
      </trkpt>
      <trkpt lat="43.62196" lon="6.87516">
        <ele>260.53662109375</ele>
        <time>2012-01-14T11:05:30Z</time>
      </trkpt>
      <trkpt lat="43.62196" lon="6.87515">
        <ele>260.46591186523</ele>
        <time>2012-01-14T11:05:37Z</time>
      </trkpt>
      <trkpt lat="43.62198" lon="6.87521">
        <ele>260.96502685547</ele>
        <time>2012-01-14T11:05:56Z</time>
      </trkpt>
      <trkpt lat="43.62197" lon="6.87526">
        <ele>261.42837524414</ele>
        <time>2012-01-14T11:06:11Z</time>
      </trkpt>
      <trkpt lat="43.62197" lon="6.87529">
        <ele>261.767578125</ele>
        <time>2012-01-14T11:06:24Z</time>
      </trkpt>
      <trkpt lat="43.6221" lon="6.87535">
        <ele>262.15487670898</ele>
        <time>2012-01-14T11:06:28Z</time>
      </trkpt>
      <trkpt lat="43.62221" lon="6.87539">
        <ele>262.31069946289</ele>
        <time>2012-01-14T11:06:31Z</time>
      </trkpt>
      <trkpt lat="43.62229" lon="6.87542">
        <ele>262.37976074219</ele>
        <time>2012-01-14T11:06:33Z</time>
      </trkpt>
      <trkpt lat="43.62245" lon="6.87546">
        <ele>262.43774414062</ele>
        <time>2012-01-14T11:06:37Z</time>
      </trkpt>
      <trkpt lat="43.62264" lon="6.87549">
        <ele>262.46148681641</ele>
        <time>2012-01-14T11:06:42Z</time>
      </trkpt>
      <trkpt lat="43.62288" lon="6.87558">
        <ele>262.86785888672</ele>
        <time>2012-01-14T11:06:49Z</time>
      </trkpt>
      <trkpt lat="43.62306" lon="6.87567">
        <ele>263.30880737305</ele>
        <time>2012-01-14T11:06:55Z</time>
      </trkpt>
      <trkpt lat="43.62318" lon="6.87571">
        <ele>263.4362487793</ele>
        <time>2012-01-14T11:07:00Z</time>
      </trkpt>
      <trkpt lat="43.6233" lon="6.8757">
        <ele>263.23495483398</ele>
        <time>2012-01-14T11:07:04Z</time>
      </trkpt>
      <trkpt lat="43.62331" lon="6.87571">
        <ele>263.25894165039</ele>
        <time>2012-01-14T11:07:12Z</time>
      </trkpt>
      <trkpt lat="43.62331" lon="6.87572">
        <ele>263.37301635742</ele>
        <time>2012-01-14T11:07:26Z</time>
      </trkpt>
      <trkpt lat="43.62332" lon="6.87573">
        <ele>263.40524291992</ele>
        <time>2012-01-14T11:07:37Z</time>
      </trkpt>
      <trkpt lat="43.62331" lon="6.87573">
        <ele>263.42364501953</ele>
        <time>2012-01-14T11:07:38Z</time>
      </trkpt>
      <trkpt lat="43.62331" lon="6.87574">
        <ele>263.45932006836</ele>
        <time>2012-01-14T11:07:40Z</time>
      </trkpt>
      <trkpt lat="43.62331" lon="6.87574">
        <ele>263.47082519531</ele>
        <time>2012-01-14T11:07:41Z</time>
      </trkpt>
      <trkpt lat="43.6233" lon="6.87575">
        <ele>263.50778198242</ele>
        <time>2012-01-14T11:07:51Z</time>
      </trkpt>
      <trkpt lat="43.62328" lon="6.87577">
        <ele>263.67727661133</ele>
        <time>2012-01-14T11:08:01Z</time>
      </trkpt>
      <trkpt lat="43.62328" lon="6.87578">
        <ele>263.75982666016</ele>
        <time>2012-01-14T11:08:11Z</time>
      </trkpt>
      <trkpt lat="43.62329" lon="6.8758">
        <ele>263.84228515625</ele>
        <time>2012-01-14T11:08:16Z</time>
      </trkpt>
      <trkpt lat="43.62328" lon="6.87579">
        <ele>263.81784057617</ele>
        <time>2012-01-14T11:08:18Z</time>
      </trkpt>
      <trkpt lat="43.62307" lon="6.8758">
        <ele>264.11968994141</ele>
        <time>2012-01-14T11:08:23Z</time>
      </trkpt>
      <trkpt lat="43.623" lon="6.87586">
        <ele>264.74905395508</ele>
        <time>2012-01-14T11:08:25Z</time>
      </trkpt>
      <trkpt lat="43.62292" lon="6.8761">
        <ele>267.69403076172</ele>
        <time>2012-01-14T11:08:31Z</time>
      </trkpt>
      <trkpt lat="43.62284" lon="6.87627">
        <ele>269.92755126953</ele>
        <time>2012-01-14T11:08:35Z</time>
      </trkpt>
      <trkpt lat="43.62276" lon="6.87646">
        <ele>272.52459716797</ele>
        <time>2012-01-14T11:08:40Z</time>
      </trkpt>
      <trkpt lat="43.62276" lon="6.87654">
        <ele>273.50491333008</ele>
        <time>2012-01-14T11:08:43Z</time>
      </trkpt>
      <trkpt lat="43.62276" lon="6.87656">
        <ele>273.69439697266</ele>
        <time>2012-01-14T11:08:44Z</time>
      </trkpt>
      <trkpt lat="43.62278" lon="6.87662">
        <ele>274.45324707031</ele>
        <time>2012-01-14T11:08:48Z</time>
      </trkpt>
      <trkpt lat="43.62278" lon="6.87664">
        <ele>274.61123657227</ele>
        <time>2012-01-14T11:08:49Z</time>
      </trkpt>
      <trkpt lat="43.62279" lon="6.87665">
        <ele>274.76126098633</ele>
        <time>2012-01-14T11:08:50Z</time>
      </trkpt>
      <trkpt lat="43.62286" lon="6.87679">
        <ele>275.38986206055</ele>
        <time>2012-01-14T11:08:56Z</time>
      </trkpt>
      <trkpt lat="43.62292" lon="6.87701">
        <ele>276.32876586914</ele>
        <time>2012-01-14T11:09:05Z</time>
      </trkpt>
      <trkpt lat="43.62292" lon="6.87711">
        <ele>276.88864135742</ele>
        <time>2012-01-14T11:09:10Z</time>
      </trkpt>
      <trkpt lat="43.62292" lon="6.87722">
        <ele>277.46005249023</ele>
        <time>2012-01-14T11:09:15Z</time>
      </trkpt>
      <trkpt lat="43.62293" lon="6.87737">
        <ele>278.22055053711</ele>
        <time>2012-01-14T11:09:22Z</time>
      </trkpt>
      <trkpt lat="43.62292" lon="6.87745">
        <ele>278.64752197266</ele>
        <time>2012-01-14T11:09:25Z</time>
      </trkpt>
      <trkpt lat="43.62294" lon="6.87763">
        <ele>279.54064941406</ele>
        <time>2012-01-14T11:09:33Z</time>
      </trkpt>
      <trkpt lat="43.62294" lon="6.8778">
        <ele>280.43112182617</ele>
        <time>2012-01-14T11:09:40Z</time>
      </trkpt>
      <trkpt lat="43.62294" lon="6.87796">
        <ele>281.30114746094</ele>
        <time>2012-01-14T11:09:47Z</time>
      </trkpt>
      <trkpt lat="43.62292" lon="6.8782">
        <ele>282.69293212891</ele>
        <time>2012-01-14T11:09:56Z</time>
      </trkpt>
      <trkpt lat="43.62293" lon="6.87846">
        <ele>284.12707519531</ele>
        <time>2012-01-14T11:10:06Z</time>
      </trkpt>
      <trkpt lat="43.62292" lon="6.87858">
        <ele>284.91262817383</ele>
        <time>2012-01-14T11:10:12Z</time>
      </trkpt>
      <trkpt lat="43.62295" lon="6.87861">
        <ele>284.85723876953</ele>
        <time>2012-01-14T11:10:42Z</time>
      </trkpt>
      <trkpt lat="43.62295" lon="6.87868">
        <ele>285.24829101562</ele>
        <time>2012-01-14T11:10:45Z</time>
      </trkpt>
      <trkpt lat="43.62295" lon="6.87873">
        <ele>285.51834106445</ele>
        <time>2012-01-14T11:10:47Z</time>
      </trkpt>
      <trkpt lat="43.62295" lon="6.87875">
        <ele>285.65338134766</ele>
        <time>2012-01-14T11:10:48Z</time>
      </trkpt>
      <trkpt lat="43.62295" lon="6.8789">
        <ele>286.59750366211</ele>
        <time>2012-01-14T11:10:54Z</time>
      </trkpt>
      <trkpt lat="43.62296" lon="6.87906">
        <ele>287.4010925293</ele>
        <time>2012-01-14T11:11:00Z</time>
      </trkpt>
      <trkpt lat="43.62297" lon="6.87932">
        <ele>288.2004699707</ele>
        <time>2012-01-14T11:11:09Z</time>
      </trkpt>
      <trkpt lat="43.62298" lon="6.87957">
        <ele>288.40335083008</ele>
        <time>2012-01-14T11:11:18Z</time>
      </trkpt>
      <trkpt lat="43.62298" lon="6.87978">
        <ele>288.72250366211</ele>
        <time>2012-01-14T11:11:26Z</time>
      </trkpt>
      <trkpt lat="43.62298" lon="6.87995">
        <ele>288.98519897461</ele>
        <time>2012-01-14T11:11:32Z</time>
      </trkpt>
      <trkpt lat="43.62294" lon="6.88019">
        <ele>288.75537109375</ele>
        <time>2012-01-14T11:11:40Z</time>
      </trkpt>
      <trkpt lat="43.62288" lon="6.88043">
        <ele>288.42559814453</ele>
        <time>2012-01-14T11:11:49Z</time>
      </trkpt>
      <trkpt lat="43.62283" lon="6.88064">
        <ele>288.03280639648</ele>
        <time>2012-01-14T11:11:56Z</time>
      </trkpt>
      <trkpt lat="43.62281" lon="6.88078">
        <ele>287.55657958984</ele>
        <time>2012-01-14T11:12:00Z</time>
      </trkpt>
      <trkpt lat="43.62281" lon="6.88081">
        <ele>287.38613891602</ele>
        <time>2012-01-14T11:12:01Z</time>
      </trkpt>
      <trkpt lat="43.62281" lon="6.88088">
        <ele>286.85992431641</ele>
        <time>2012-01-14T11:12:03Z</time>
      </trkpt>
      <trkpt lat="43.62281" lon="6.88091">
        <ele>286.63998413086</ele>
        <time>2012-01-14T11:12:04Z</time>
      </trkpt>
      <trkpt lat="43.62281" lon="6.88095">
        <ele>286.41589355469</ele>
        <time>2012-01-14T11:12:05Z</time>
      </trkpt>
      <trkpt lat="43.6228" lon="6.88098">
        <ele>286.19900512695</ele>
        <time>2012-01-14T11:12:06Z</time>
      </trkpt>
      <trkpt lat="43.6228" lon="6.88101">
        <ele>285.94458007812</ele>
        <time>2012-01-14T11:12:07Z</time>
      </trkpt>
      <trkpt lat="43.62281" lon="6.88104">
        <ele>285.70623779297</ele>
        <time>2012-01-14T11:12:08Z</time>
      </trkpt>
      <trkpt lat="43.62281" lon="6.88105">
        <ele>285.49563598633</ele>
        <time>2012-01-14T11:12:09Z</time>
      </trkpt>
      <trkpt lat="43.62282" lon="6.88106">
        <ele>285.39047241211</ele>
        <time>2012-01-14T11:12:10Z</time>
      </trkpt>
      <trkpt lat="43.62282" lon="6.88106">
        <ele>285.32699584961</ele>
        <time>2012-01-14T11:12:11Z</time>
      </trkpt>
      <trkpt lat="43.62283" lon="6.88106">
        <ele>285.29382324219</ele>
        <time>2012-01-14T11:12:12Z</time>
      </trkpt>
      <trkpt lat="43.62283" lon="6.88106">
        <ele>285.30517578125</ele>
        <time>2012-01-14T11:12:14Z</time>
      </trkpt>
      <trkpt lat="43.62283" lon="6.88106">
        <ele>285.2492980957</ele>
        <time>2012-01-14T11:12:17Z</time>
      </trkpt>
      <trkpt lat="43.62288" lon="6.88115">
        <ele>283.99252319336</ele>
        <time>2012-01-14T11:12:21Z</time>
      </trkpt>
      <trkpt lat="43.62304" lon="6.88135">
        <ele>280.55062866211</ele>
        <time>2012-01-14T11:12:25Z</time>
      </trkpt>
      <trkpt lat="43.62331" lon="6.88167">
        <ele>275.25454711914</ele>
        <time>2012-01-14T11:12:29Z</time>
      </trkpt>
      <trkpt lat="43.62352" lon="6.8819">
        <ele>272.66305541992</ele>
        <time>2012-01-14T11:12:32Z</time>
      </trkpt>
      <trkpt lat="43.62367" lon="6.88207">
        <ele>271.27514648438</ele>
        <time>2012-01-14T11:12:35Z</time>
      </trkpt>
      <trkpt lat="43.6237" lon="6.8821">
        <ele>271.02438354492</ele>
        <time>2012-01-14T11:12:36Z</time>
      </trkpt>
      <trkpt lat="43.62385" lon="6.8822">
        <ele>270.26712036133</ele>
        <time>2012-01-14T11:12:41Z</time>
      </trkpt>
      <trkpt lat="43.6239" lon="6.8822">
        <ele>270.19247436523</ele>
        <time>2012-01-14T11:12:42Z</time>
      </trkpt>
      <trkpt lat="43.62428" lon="6.88213">
        <ele>269.31204223633</ele>
        <time>2012-01-14T11:12:50Z</time>
      </trkpt>
      <trkpt lat="43.62431" lon="6.88213">
        <ele>269.12786865234</ele>
        <time>2012-01-14T11:12:51Z</time>
      </trkpt>
      <trkpt lat="43.62448" lon="6.88218">
        <ele>268.10543823242</ele>
        <time>2012-01-14T11:12:58Z</time>
      </trkpt>
      <trkpt lat="43.62453" lon="6.88229">
        <ele>267.64630126953</ele>
        <time>2012-01-14T11:13:03Z</time>
      </trkpt>
      <trkpt lat="43.62454" lon="6.88243">
        <ele>267.33435058594</ele>
        <time>2012-01-14T11:13:07Z</time>
      </trkpt>
      <trkpt lat="43.62457" lon="6.88272">
        <ele>266.65057373047</ele>
        <time>2012-01-14T11:13:13Z</time>
      </trkpt>
      <trkpt lat="43.62459" lon="6.88307">
        <ele>265.94277954102</ele>
        <time>2012-01-14T11:13:18Z</time>
      </trkpt>
      <trkpt lat="43.62467" lon="6.88355">
        <ele>264.93170166016</ele>
        <time>2012-01-14T11:13:24Z</time>
      </trkpt>
      <trkpt lat="43.62479" lon="6.88404">
        <ele>263.89141845703</ele>
        <time>2012-01-14T11:13:30Z</time>
      </trkpt>
      <trkpt lat="43.62488" lon="6.88468">
        <ele>262.81396484375</ele>
        <time>2012-01-14T11:13:37Z</time>
      </trkpt>
      <trkpt lat="43.62488" lon="6.88476">
        <ele>262.71325683594</ele>
        <time>2012-01-14T11:13:38Z</time>
      </trkpt>
      <trkpt lat="43.62487" lon="6.88492">
        <ele>262.55474853516</ele>
        <time>2012-01-14T11:13:40Z</time>
      </trkpt>
      <trkpt lat="43.62484" lon="6.88526">
        <ele>262.07995605469</ele>
        <time>2012-01-14T11:13:45Z</time>
      </trkpt>
      <trkpt lat="43.62489" lon="6.88575">
        <ele>260.82965087891</ele>
        <time>2012-01-14T11:13:53Z</time>
      </trkpt>
      <trkpt lat="43.62491" lon="6.88594">
        <ele>260.43734741211</ele>
        <time>2012-01-14T11:13:56Z</time>
      </trkpt>
      <trkpt lat="43.62494" lon="6.88612">
        <ele>260.07098388672</ele>
        <time>2012-01-14T11:13:59Z</time>
      </trkpt>
      <trkpt lat="43.62498" lon="6.88639">
        <ele>259.45645141602</ele>
        <time>2012-01-14T11:14:04Z</time>
      </trkpt>
      <trkpt lat="43.62501" lon="6.8866">
        <ele>258.9216003418</ele>
        <time>2012-01-14T11:14:08Z</time>
      </trkpt>
      <trkpt lat="43.62497" lon="6.88681">
        <ele>259.0221862793</ele>
        <time>2012-01-14T11:14:12Z</time>
      </trkpt>
      <trkpt lat="43.62495" lon="6.88683">
        <ele>259.18298339844</ele>
        <time>2012-01-14T11:14:13Z</time>
      </trkpt>
      <trkpt lat="43.62479" lon="6.88699">
        <ele>260.09851074219</ele>
        <time>2012-01-14T11:14:19Z</time>
      </trkpt>
      <trkpt lat="43.62477" lon="6.88702">
        <ele>260.22439575195</ele>
        <time>2012-01-14T11:14:20Z</time>
      </trkpt>
      <trkpt lat="43.62474" lon="6.8872">
        <ele>260.25012207031</ele>
        <time>2012-01-14T11:14:24Z</time>
      </trkpt>
      <trkpt lat="43.62473" lon="6.8874">
        <ele>260.04357910156</ele>
        <time>2012-01-14T11:14:28Z</time>
      </trkpt>
      <trkpt lat="43.62461" lon="6.88748">
        <ele>260.82348632812</ele>
        <time>2012-01-14T11:14:33Z</time>
      </trkpt>
      <trkpt lat="43.62443" lon="6.88747">
        <ele>262.126953125</ele>
        <time>2012-01-14T11:14:39Z</time>
      </trkpt>
      <trkpt lat="43.62439" lon="6.88762">
        <ele>262.35586547852</ele>
        <time>2012-01-14T11:14:43Z</time>
      </trkpt>
      <trkpt lat="43.62439" lon="6.88766">
        <ele>262.31323242188</ele>
        <time>2012-01-14T11:14:44Z</time>
      </trkpt>
      <trkpt lat="43.62437" lon="6.88791">
        <ele>262.43997192383</ele>
        <time>2012-01-14T11:14:50Z</time>
      </trkpt>
      <trkpt lat="43.62432" lon="6.88824">
        <ele>262.69223022461</ele>
        <time>2012-01-14T11:14:57Z</time>
      </trkpt>
      <trkpt lat="43.62423" lon="6.88851">
        <ele>263.40756225586</ele>
        <time>2012-01-14T11:15:03Z</time>
      </trkpt>
      <trkpt lat="43.62411" lon="6.88878">
        <ele>264.01010131836</ele>
        <time>2012-01-14T11:15:10Z</time>
      </trkpt>
      <trkpt lat="43.62399" lon="6.88908">
        <ele>264.32696533203</ele>
        <time>2012-01-14T11:15:17Z</time>
      </trkpt>
      <trkpt lat="43.62387" lon="6.88921">
        <ele>264.56451416016</ele>
        <time>2012-01-14T11:15:22Z</time>
      </trkpt>
      <trkpt lat="43.62377" lon="6.88926">
        <ele>264.67004394531</ele>
        <time>2012-01-14T11:15:26Z</time>
      </trkpt>
      <trkpt lat="43.62369" lon="6.8894">
        <ele>264.43090820312</ele>
        <time>2012-01-14T11:15:30Z</time>
      </trkpt>
      <trkpt lat="43.6236" lon="6.88966">
        <ele>263.76461791992</ele>
        <time>2012-01-14T11:15:34Z</time>
      </trkpt>
      <trkpt lat="43.62354" lon="6.88991">
        <ele>263.04986572266</ele>
        <time>2012-01-14T11:15:37Z</time>
      </trkpt>
      <trkpt lat="43.62342" lon="6.89018">
        <ele>261.79895019531</ele>
        <time>2012-01-14T11:15:41Z</time>
      </trkpt>
      <trkpt lat="43.62337" lon="6.89019">
        <ele>261.77487182617</ele>
        <time>2012-01-14T11:15:42Z</time>
      </trkpt>
      <trkpt lat="43.6232" lon="6.89039">
        <ele>261.58685302734</ele>
        <time>2012-01-14T11:15:47Z</time>
      </trkpt>
      <trkpt lat="43.62318" lon="6.8905">
        <ele>261.14813232422</ele>
        <time>2012-01-14T11:15:49Z</time>
      </trkpt>
      <trkpt lat="43.62322" lon="6.89056">
        <ele>260.49145507812</ele>
        <time>2012-01-14T11:15:51Z</time>
      </trkpt>
      <trkpt lat="43.62329" lon="6.89063">
        <ele>259.55206298828</ele>
        <time>2012-01-14T11:15:53Z</time>
      </trkpt>
      <trkpt lat="43.62339" lon="6.89088">
        <ele>257.18099975586</ele>
        <time>2012-01-14T11:15:57Z</time>
      </trkpt>
      <trkpt lat="43.62344" lon="6.89098">
        <ele>255.85940551758</ele>
        <time>2012-01-14T11:15:59Z</time>
      </trkpt>
      <trkpt lat="43.62349" lon="6.89106">
        <ele>254.78186035156</ele>
        <time>2012-01-14T11:16:04Z</time>
      </trkpt>
      <trkpt lat="43.62349" lon="6.89112">
        <ele>254.01913452148</ele>
        <time>2012-01-14T11:16:11Z</time>
      </trkpt>
      <trkpt lat="43.62348" lon="6.89123">
        <ele>252.80078125</ele>
        <time>2012-01-14T11:16:16Z</time>
      </trkpt>
      <trkpt lat="43.62347" lon="6.89124">
        <ele>252.63793945312</ele>
        <time>2012-01-14T11:16:22Z</time>
      </trkpt>
      <trkpt lat="43.62351" lon="6.89122">
        <ele>252.78117370606</ele>
        <time>2012-01-14T11:16:28Z</time>
      </trkpt>
      <trkpt lat="43.62353" lon="6.89115">
        <ele>253.63334655762</ele>
        <time>2012-01-14T11:16:31Z</time>
      </trkpt>
      <trkpt lat="43.62358" lon="6.89114">
        <ele>253.50947570801</ele>
        <time>2012-01-14T11:16:35Z</time>
      </trkpt>
      <trkpt lat="43.62372" lon="6.89127">
        <ele>251.65768432617</ele>
        <time>2012-01-14T11:16:39Z</time>
      </trkpt>
      <trkpt lat="43.62377" lon="6.8913">
        <ele>251.15797424316</ele>
        <time>2012-01-14T11:16:40Z</time>
      </trkpt>
      <trkpt lat="43.62416" lon="6.89155">
        <ele>247.2326965332</ele>
        <time>2012-01-14T11:16:47Z</time>
      </trkpt>
      <trkpt lat="43.62433" lon="6.89156">
        <ele>243.70426940918</ele>
        <time>2012-01-14T11:16:51Z</time>
      </trkpt>
      <trkpt lat="43.62435" lon="6.89152">
        <ele>243.67501831055</ele>
        <time>2012-01-14T11:16:54Z</time>
      </trkpt>
      <trkpt lat="43.62435" lon="6.89152">
        <ele>243.76467895508</ele>
        <time>2012-01-14T11:17:01Z</time>
      </trkpt>
      <trkpt lat="43.62437" lon="6.89154">
        <ele>243.03433227539</ele>
        <time>2012-01-14T11:17:06Z</time>
      </trkpt>
      <trkpt lat="43.62435" lon="6.89153">
        <ele>243.64865112305</ele>
        <time>2012-01-14T11:17:19Z</time>
      </trkpt>
      <trkpt lat="43.62432" lon="6.89167">
        <ele>242.7276763916</ele>
        <time>2012-01-14T11:17:23Z</time>
      </trkpt>
      <trkpt lat="43.62425" lon="6.89188">
        <ele>241.42225646973</ele>
        <time>2012-01-14T11:17:28Z</time>
      </trkpt>
      <trkpt lat="43.62424" lon="6.89189">
        <ele>241.41610717773</ele>
        <time>2012-01-14T11:17:33Z</time>
      </trkpt>
      <trkpt lat="43.62421" lon="6.89196">
        <ele>241.06996154785</ele>
        <time>2012-01-14T11:17:39Z</time>
      </trkpt>
      <trkpt lat="43.62416" lon="6.89211">
        <ele>240.18020629883</ele>
        <time>2012-01-14T11:17:43Z</time>
      </trkpt>
      <trkpt lat="43.62406" lon="6.89229">
        <ele>238.12322998047</ele>
        <time>2012-01-14T11:17:47Z</time>
      </trkpt>
      <trkpt lat="43.62396" lon="6.89244">
        <ele>236.49438476562</ele>
        <time>2012-01-14T11:17:52Z</time>
      </trkpt>
      <trkpt lat="43.62385" lon="6.89261">
        <ele>234.76435852051</ele>
        <time>2012-01-14T11:17:56Z</time>
      </trkpt>
      <trkpt lat="43.62362" lon="6.89294">
        <ele>231.94548034668</ele>
        <time>2012-01-14T11:18:02Z</time>
      </trkpt>
      <trkpt lat="43.62342" lon="6.89337">
        <ele>228.85733032227</ele>
        <time>2012-01-14T11:18:07Z</time>
      </trkpt>
      <trkpt lat="43.62317" lon="6.8939">
        <ele>223.57963562012</ele>
        <time>2012-01-14T11:18:12Z</time>
      </trkpt>
      <trkpt lat="43.62298" lon="6.89444">
        <ele>217.81324768066</ele>
        <time>2012-01-14T11:18:16Z</time>
      </trkpt>
      <trkpt lat="43.62276" lon="6.89513">
        <ele>211.63623046875</ele>
        <time>2012-01-14T11:18:21Z</time>
      </trkpt>
      <trkpt lat="43.62262" lon="6.89561">
        <ele>207.84107971191</ele>
        <time>2012-01-14T11:18:25Z</time>
      </trkpt>
      <trkpt lat="43.62251" lon="6.89584">
        <ele>206.83166503906</ele>
        <time>2012-01-14T11:18:27Z</time>
      </trkpt>
      <trkpt lat="43.62213" lon="6.89636">
        <ele>201.56280517578</ele>
        <time>2012-01-14T11:18:32Z</time>
      </trkpt>
      <trkpt lat="43.62197" lon="6.89654">
        <ele>200.91453552246</ele>
        <time>2012-01-14T11:18:35Z</time>
      </trkpt>
      <trkpt lat="43.62183" lon="6.89656">
        <ele>201.45979309082</ele>
        <time>2012-01-14T11:18:39Z</time>
      </trkpt>
      <trkpt lat="43.6217" lon="6.89654">
        <ele>202.13758850098</ele>
        <time>2012-01-14T11:18:43Z</time>
      </trkpt>
      <trkpt lat="43.62169" lon="6.8965">
        <ele>202.3272857666</ele>
        <time>2012-01-14T11:18:46Z</time>
      </trkpt>
      <trkpt lat="43.62165" lon="6.89643">
        <ele>202.56318664551</ele>
        <time>2012-01-14T11:19:08Z</time>
      </trkpt>
      <trkpt lat="43.62165" lon="6.8963">
        <ele>202.84677124023</ele>
        <time>2012-01-14T11:19:11Z</time>
      </trkpt>
      <trkpt lat="43.62175" lon="6.89613">
        <ele>203.29328918457</ele>
        <time>2012-01-14T11:19:17Z</time>
      </trkpt>
      <trkpt lat="43.6217" lon="6.89603">
        <ele>203.55613708496</ele>
        <time>2012-01-14T11:19:20Z</time>
      </trkpt>
      <trkpt lat="43.62158" lon="6.89595">
        <ele>202.9744720459</ele>
        <time>2012-01-14T11:19:23Z</time>
      </trkpt>
      <trkpt lat="43.62146" lon="6.89587">
        <ele>201.77438354492</ele>
        <time>2012-01-14T11:19:28Z</time>
      </trkpt>
      <trkpt lat="43.62129" lon="6.89578">
        <ele>200.05172729492</ele>
        <time>2012-01-14T11:19:33Z</time>
      </trkpt>
      <trkpt lat="43.62123" lon="6.89574">
        <ele>199.48295593262</ele>
        <time>2012-01-14T11:19:36Z</time>
      </trkpt>
      <trkpt lat="43.62119" lon="6.89573">
        <ele>199.05380249023</ele>
        <time>2012-01-14T11:19:40Z</time>
      </trkpt>
      <trkpt lat="43.62102" lon="6.89567">
        <ele>197.38182067871</ele>
        <time>2012-01-14T11:19:46Z</time>
      </trkpt>
      <trkpt lat="43.62088" lon="6.89553">
        <ele>196.23397827148</ele>
        <time>2012-01-14T11:19:50Z</time>
      </trkpt>
      <trkpt lat="43.62077" lon="6.89541">
        <ele>195.22016906738</ele>
        <time>2012-01-14T11:19:55Z</time>
      </trkpt>
      <trkpt lat="43.62067" lon="6.89531">
        <ele>194.32389831543</ele>
        <time>2012-01-14T11:20:01Z</time>
      </trkpt>
      <trkpt lat="43.62065" lon="6.8953">
        <ele>194.18000793457</ele>
        <time>2012-01-14T11:20:02Z</time>
      </trkpt>
      <trkpt lat="43.62059" lon="6.89529">
        <ele>193.54231262207</ele>
        <time>2012-01-14T11:20:06Z</time>
      </trkpt>
      <trkpt lat="43.6205" lon="6.89523">
        <ele>192.86737060547</ele>
        <time>2012-01-14T11:20:12Z</time>
      </trkpt>
      <trkpt lat="43.62037" lon="6.89519">
        <ele>191.68566894531</ele>
        <time>2012-01-14T11:20:19Z</time>
      </trkpt>
      <trkpt lat="43.62025" lon="6.89515">
        <ele>190.87768554688</ele>
        <time>2012-01-14T11:20:25Z</time>
      </trkpt>
      <trkpt lat="43.62019" lon="6.89512">
        <ele>190.51847839356</ele>
        <time>2012-01-14T11:20:31Z</time>
      </trkpt>
      <trkpt lat="43.62014" lon="6.89509">
        <ele>190.30871582031</ele>
        <time>2012-01-14T11:20:35Z</time>
      </trkpt>
      <trkpt lat="43.62004" lon="6.89504">
        <ele>189.89901733398</ele>
        <time>2012-01-14T11:20:41Z</time>
      </trkpt>
      <trkpt lat="43.62002" lon="6.89503">
        <ele>189.89593505859</ele>
        <time>2012-01-14T11:20:42Z</time>
      </trkpt>
      <trkpt lat="43.61999" lon="6.895">
        <ele>189.95359802246</ele>
        <time>2012-01-14T11:20:49Z</time>
      </trkpt>
      <trkpt lat="43.61997" lon="6.89498">
        <ele>190.36654663086</ele>
        <time>2012-01-14T11:20:53Z</time>
      </trkpt>
      <trkpt lat="43.61996" lon="6.895">
        <ele>189.92176818848</ele>
        <time>2012-01-14T11:20:58Z</time>
      </trkpt>
      <trkpt lat="43.61995" lon="6.89508">
        <ele>189.05671691894</ele>
        <time>2012-01-14T11:21:07Z</time>
      </trkpt>
      <trkpt lat="43.61992" lon="6.89507">
        <ele>189.08445739746</ele>
        <time>2012-01-14T11:21:13Z</time>
      </trkpt>
      <trkpt lat="43.61985" lon="6.89501">
        <ele>189.65664672852</ele>
        <time>2012-01-14T11:21:18Z</time>
      </trkpt>
      <trkpt lat="43.61983" lon="6.89502">
        <ele>189.52867126465</ele>
        <time>2012-01-14T11:21:24Z</time>
      </trkpt>
      <trkpt lat="43.61978" lon="6.895">
        <ele>189.71562194824</ele>
        <time>2012-01-14T11:21:31Z</time>
      </trkpt>
      <trkpt lat="43.61974" lon="6.89497">
        <ele>190.23957824707</ele>
        <time>2012-01-14T11:21:37Z</time>
      </trkpt>
      <trkpt lat="43.61971" lon="6.89495">
        <ele>190.70426940918</ele>
        <time>2012-01-14T11:21:43Z</time>
      </trkpt>
      <trkpt lat="43.61968" lon="6.89494">
        <ele>190.74215698242</ele>
        <time>2012-01-14T11:21:49Z</time>
      </trkpt>
      <trkpt lat="43.61963" lon="6.89492">
        <ele>191.08439636231</ele>
        <time>2012-01-14T11:21:57Z</time>
      </trkpt>
      <trkpt lat="43.6196" lon="6.8949">
        <ele>191.56127929688</ele>
        <time>2012-01-14T11:22:03Z</time>
      </trkpt>
      <trkpt lat="43.61953" lon="6.89484">
        <ele>192.51741027832</ele>
        <time>2012-01-14T11:22:08Z</time>
      </trkpt>
      <trkpt lat="43.61942" lon="6.89479">
        <ele>193.38145446777</ele>
        <time>2012-01-14T11:22:14Z</time>
      </trkpt>
      <trkpt lat="43.61942" lon="6.89479">
        <ele>193.38244628906</ele>
        <time>2012-01-14T11:22:15Z</time>
      </trkpt>
      <trkpt lat="43.61937" lon="6.89479">
        <ele>193.25009155273</ele>
        <time>2012-01-14T11:22:21Z</time>
      </trkpt>
      <trkpt lat="43.61933" lon="6.89474">
        <ele>194.09637451172</ele>
        <time>2012-01-14T11:22:27Z</time>
      </trkpt>
      <trkpt lat="43.61927" lon="6.89471">
        <ele>194.45547485352</ele>
        <time>2012-01-14T11:22:33Z</time>
      </trkpt>
      <trkpt lat="43.61924" lon="6.89467">
        <ele>195.17419433594</ele>
        <time>2012-01-14T11:22:39Z</time>
      </trkpt>
      <trkpt lat="43.6192" lon="6.89458">
        <ele>196.6934967041</ele>
        <time>2012-01-14T11:22:47Z</time>
      </trkpt>
      <trkpt lat="43.61921" lon="6.89449">
        <ele>198.29891967773</ele>
        <time>2012-01-14T11:22:54Z</time>
      </trkpt>
      <trkpt lat="43.61926" lon="6.89444">
        <ele>199.33653259277</ele>
        <time>2012-01-14T11:23:02Z</time>
      </trkpt>
      <trkpt lat="43.61923" lon="6.8944">
        <ele>200.08981323242</ele>
        <time>2012-01-14T11:23:07Z</time>
      </trkpt>
      <trkpt lat="43.61922" lon="6.89437">
        <ele>200.63752746582</ele>
        <time>2012-01-14T11:23:13Z</time>
      </trkpt>
      <trkpt lat="43.61924" lon="6.89434">
        <ele>201.16888427734</ele>
        <time>2012-01-14T11:23:26Z</time>
      </trkpt>
      <trkpt lat="43.61925" lon="6.89434">
        <ele>201.22401428223</ele>
        <time>2012-01-14T11:23:34Z</time>
      </trkpt>
      <trkpt lat="43.61925" lon="6.89434">
        <ele>201.16065979004</ele>
        <time>2012-01-14T11:23:38Z</time>
      </trkpt>
      <trkpt lat="43.61926" lon="6.89435">
        <ele>201.14100646973</ele>
        <time>2012-01-14T11:23:45Z</time>
      </trkpt>
      <trkpt lat="43.61926" lon="6.89436">
        <ele>200.95693969727</ele>
        <time>2012-01-14T11:23:50Z</time>
      </trkpt>
      <trkpt lat="43.61926" lon="6.89435">
        <ele>201.08392333984</ele>
        <time>2012-01-14T11:23:58Z</time>
      </trkpt>
      <trkpt lat="43.61925" lon="6.89433">
        <ele>201.46025085449</ele>
        <time>2012-01-14T11:24:05Z</time>
      </trkpt>
      <trkpt lat="43.61924" lon="6.89431">
        <ele>201.66625976562</ele>
        <time>2012-01-14T11:24:10Z</time>
      </trkpt>
      <trkpt lat="43.61924" lon="6.89431">
        <ele>201.74478149414</ele>
        <time>2012-01-14T11:24:13Z</time>
      </trkpt>
      <trkpt lat="43.61923" lon="6.89431">
        <ele>201.7811126709</ele>
        <time>2012-01-14T11:24:14Z</time>
      </trkpt>
      <trkpt lat="43.61916" lon="6.89427">
        <ele>202.00480651856</ele>
        <time>2012-01-14T11:24:19Z</time>
      </trkpt>
      <trkpt lat="43.61905" lon="6.89431">
        <ele>200.34274291992</ele>
        <time>2012-01-14T11:24:22Z</time>
      </trkpt>
      <trkpt lat="43.61895" lon="6.89438">
        <ele>198.20294189453</ele>
        <time>2012-01-14T11:24:26Z</time>
      </trkpt>
      <trkpt lat="43.61879" lon="6.89447">
        <ele>195.06512451172</ele>
        <time>2012-01-14T11:24:30Z</time>
      </trkpt>
      <trkpt lat="43.61869" lon="6.89454">
        <ele>193.025390625</ele>
        <time>2012-01-14T11:24:32Z</time>
      </trkpt>
      <trkpt lat="43.61859" lon="6.8946">
        <ele>190.93733215332</ele>
        <time>2012-01-14T11:24:34Z</time>
      </trkpt>
      <trkpt lat="43.61836" lon="6.89461">
        <ele>188.80383300781</ele>
        <time>2012-01-14T11:24:39Z</time>
      </trkpt>
      <trkpt lat="43.61828" lon="6.89463">
        <ele>186.83770751953</ele>
        <time>2012-01-14T11:24:41Z</time>
      </trkpt>
      <trkpt lat="43.61812" lon="6.89464">
        <ele>182.51783752441</ele>
        <time>2012-01-14T11:24:47Z</time>
      </trkpt>
      <trkpt lat="43.61802" lon="6.8946">
        <ele>180.59843444824</ele>
        <time>2012-01-14T11:24:51Z</time>
      </trkpt>
      <trkpt lat="43.61793" lon="6.89454">
        <ele>179.31939697266</ele>
        <time>2012-01-14T11:24:57Z</time>
      </trkpt>
      <trkpt lat="43.61782" lon="6.89448">
        <ele>177.33981323242</ele>
        <time>2012-01-14T11:25:01Z</time>
      </trkpt>
      <trkpt lat="43.61777" lon="6.89444">
        <ele>176.7314453125</ele>
        <time>2012-01-14T11:25:04Z</time>
      </trkpt>
      <trkpt lat="43.61775" lon="6.89446">
        <ele>175.93103027344</ele>
        <time>2012-01-14T11:25:16Z</time>
      </trkpt>
      <trkpt lat="43.61773" lon="6.89445">
        <ele>175.45007324219</ele>
        <time>2012-01-14T11:25:26Z</time>
      </trkpt>
      <trkpt lat="43.61757" lon="6.89434">
        <ele>173.02168273926</ele>
        <time>2012-01-14T11:25:31Z</time>
      </trkpt>
      <trkpt lat="43.61753" lon="6.89433">
        <ele>172.25062561035</ele>
        <time>2012-01-14T11:25:32Z</time>
      </trkpt>
      <trkpt lat="43.61737" lon="6.89433">
        <ele>168.1452331543</ele>
        <time>2012-01-14T11:25:37Z</time>
      </trkpt>
      <trkpt lat="43.61728" lon="6.89436">
        <ele>165.45993041992</ele>
        <time>2012-01-14T11:25:41Z</time>
      </trkpt>
      <trkpt lat="43.61718" lon="6.89454">
        <ele>159.69639587402</ele>
        <time>2012-01-14T11:25:46Z</time>
      </trkpt>
      <trkpt lat="43.61716" lon="6.89458">
        <ele>158.70283508301</ele>
        <time>2012-01-14T11:25:47Z</time>
      </trkpt>
      <trkpt lat="43.61712" lon="6.89457">
        <ele>157.73072814941</ele>
        <time>2012-01-14T11:25:51Z</time>
      </trkpt>
      <trkpt lat="43.61709" lon="6.89452">
        <ele>157.73396301269</ele>
        <time>2012-01-14T11:25:53Z</time>
      </trkpt>
      <trkpt lat="43.61708" lon="6.89428">
        <ele>161.38371276856</ele>
        <time>2012-01-14T11:25:58Z</time>
      </trkpt>
      <trkpt lat="43.617" lon="6.89418">
        <ele>161.23803710938</ele>
        <time>2012-01-14T11:26:02Z</time>
      </trkpt>
      <trkpt lat="43.61697" lon="6.89415">
        <ele>161.07768249512</ele>
        <time>2012-01-14T11:26:05Z</time>
      </trkpt>
      <trkpt lat="43.61692" lon="6.89419">
        <ele>158.96531677246</ele>
        <time>2012-01-14T11:26:07Z</time>
      </trkpt>
      <trkpt lat="43.61684" lon="6.89429">
        <ele>155.28610229492</ele>
        <time>2012-01-14T11:26:11Z</time>
      </trkpt>
      <trkpt lat="43.61681" lon="6.89423">
        <ele>155.60136413574</ele>
        <time>2012-01-14T11:26:15Z</time>
      </trkpt>
      <trkpt lat="43.61684" lon="6.89405">
        <ele>160.43794250488</ele>
        <time>2012-01-14T11:26:19Z</time>
      </trkpt>
      <trkpt lat="43.61684" lon="6.894">
        <ele>161.8576965332</ele>
        <time>2012-01-14T11:26:21Z</time>
      </trkpt>
      <trkpt lat="43.61686" lon="6.89396">
        <ele>163.34420776367</ele>
        <time>2012-01-14T11:26:23Z</time>
      </trkpt>
      <trkpt lat="43.61681" lon="6.89385">
        <ele>165.28266906738</ele>
        <time>2012-01-14T11:26:29Z</time>
      </trkpt>
      <trkpt lat="43.61679" lon="6.89383">
        <ele>165.525390625</ele>
        <time>2012-01-14T11:26:30Z</time>
      </trkpt>
      <trkpt lat="43.61665" lon="6.89372">
        <ele>165.56712341309</ele>
        <time>2012-01-14T11:26:35Z</time>
      </trkpt>
      <trkpt lat="43.61655" lon="6.89367">
        <ele>165.0496673584</ele>
        <time>2012-01-14T11:26:39Z</time>
      </trkpt>
      <trkpt lat="43.61646" lon="6.89364">
        <ele>164.13238525391</ele>
        <time>2012-01-14T11:26:43Z</time>
      </trkpt>
      <trkpt lat="43.61631" lon="6.89362">
        <ele>161.85232543945</ele>
        <time>2012-01-14T11:26:48Z</time>
      </trkpt>
      <trkpt lat="43.61619" lon="6.89366">
        <ele>158.39428710938</ele>
        <time>2012-01-14T11:26:52Z</time>
      </trkpt>
      <trkpt lat="43.6161" lon="6.89378">
        <ele>153.50714111328</ele>
        <time>2012-01-14T11:26:55Z</time>
      </trkpt>
      <trkpt lat="43.61593" lon="6.8939">
        <ele>146.84382629394</ele>
        <time>2012-01-14T11:27:00Z</time>
      </trkpt>
      <trkpt lat="43.61581" lon="6.894">
        <ele>142.05516052246</ele>
        <time>2012-01-14T11:27:03Z</time>
      </trkpt>
      <trkpt lat="43.61559" lon="6.89409">
        <ele>135.79306030273</ele>
        <time>2012-01-14T11:27:08Z</time>
      </trkpt>
      <trkpt lat="43.61543" lon="6.89407">
        <ele>133.34950256348</ele>
        <time>2012-01-14T11:27:11Z</time>
      </trkpt>
      <trkpt lat="43.61526" lon="6.89418">
        <ele>127.84222412109</ele>
        <time>2012-01-14T11:27:16Z</time>
      </trkpt>
      <trkpt lat="43.61522" lon="6.89419">
        <ele>127.22810363769</ele>
        <time>2012-01-14T11:27:17Z</time>
      </trkpt>
      <trkpt lat="43.61504" lon="6.89419">
        <ele>124.13179779053</ele>
        <time>2012-01-14T11:27:22Z</time>
      </trkpt>
      <trkpt lat="43.61488" lon="6.89424">
        <ele>120.23631286621</ele>
        <time>2012-01-14T11:27:26Z</time>
      </trkpt>
      <trkpt lat="43.61485" lon="6.89427">
        <ele>119.15222930908</ele>
        <time>2012-01-14T11:27:27Z</time>
      </trkpt>
      <trkpt lat="43.6147" lon="6.89439">
        <ele>113.95006561279</ele>
        <time>2012-01-14T11:27:32Z</time>
      </trkpt>
      <trkpt lat="43.61465" lon="6.89448">
        <ele>111.20394897461</ele>
        <time>2012-01-14T11:27:35Z</time>
      </trkpt>
      <trkpt lat="43.61458" lon="6.89459">
        <ele>107.66958618164</ele>
        <time>2012-01-14T11:27:39Z</time>
      </trkpt>
      <trkpt lat="43.6145" lon="6.89453">
        <ele>107.90196228027</ele>
        <time>2012-01-14T11:27:41Z</time>
      </trkpt>
      <trkpt lat="43.61436" lon="6.89444">
        <ele>108.02509307861</ele>
        <time>2012-01-14T11:27:46Z</time>
      </trkpt>
      <trkpt lat="43.61428" lon="6.89443">
        <ele>107.13826751709</ele>
        <time>2012-01-14T11:27:50Z</time>
      </trkpt>
      <trkpt lat="43.61412" lon="6.8944">
        <ele>105.051902771</ele>
        <time>2012-01-14T11:27:56Z</time>
      </trkpt>
      <trkpt lat="43.61404" lon="6.89436">
        <ele>104.19298553467</ele>
        <time>2012-01-14T11:28:00Z</time>
      </trkpt>
      <trkpt lat="43.61393" lon="6.89431">
        <ele>102.62482452393</ele>
        <time>2012-01-14T11:28:04Z</time>
      </trkpt>
      <trkpt lat="43.61386" lon="6.89427">
        <ele>101.63144683838</ele>
        <time>2012-01-14T11:28:06Z</time>
      </trkpt>
      <trkpt lat="43.61356" lon="6.89422">
        <ele>95.585266113281</ele>
        <time>2012-01-14T11:28:12Z</time>
      </trkpt>
      <trkpt lat="43.6134" lon="6.89418">
        <ele>92.322830200195</ele>
        <time>2012-01-14T11:28:16Z</time>
      </trkpt>
      <trkpt lat="43.61312" lon="6.8941">
        <ele>83.759658813477</ele>
        <time>2012-01-14T11:28:22Z</time>
      </trkpt>
      <trkpt lat="43.61308" lon="6.89409">
        <ele>82.043479919434</ele>
        <time>2012-01-14T11:28:23Z</time>
      </trkpt>
      <trkpt lat="43.613" lon="6.89406">
        <ele>79.366943359375</ele>
        <time>2012-01-14T11:28:25Z</time>
      </trkpt>
      <trkpt lat="43.61292" lon="6.89408">
        <ele>76.257255554199</ele>
        <time>2012-01-14T11:28:29Z</time>
      </trkpt>
      <trkpt lat="43.61287" lon="6.89408">
        <ele>74.524047851562</ele>
        <time>2012-01-14T11:28:32Z</time>
      </trkpt>
      <trkpt lat="43.61277" lon="6.89402">
        <ele>71.361015319824</ele>
        <time>2012-01-14T11:28:36Z</time>
      </trkpt>
      <trkpt lat="43.61268" lon="6.89405">
        <ele>67.954803466797</ele>
        <time>2012-01-14T11:28:40Z</time>
      </trkpt>
      <trkpt lat="43.61266" lon="6.894">
        <ele>67.592247009277</ele>
        <time>2012-01-14T11:28:42Z</time>
      </trkpt>
      <trkpt lat="43.61269" lon="6.89376">
        <ele>71.1279296875</ele>
        <time>2012-01-14T11:28:48Z</time>
      </trkpt>
      <trkpt lat="43.61274" lon="6.89352">
        <ele>75.264938354492</ele>
        <time>2012-01-14T11:28:53Z</time>
      </trkpt>
      <trkpt lat="43.61276" lon="6.89336">
        <ele>77.416793823242</ele>
        <time>2012-01-14T11:28:57Z</time>
      </trkpt>
      <trkpt lat="43.6128" lon="6.89317">
        <ele>78.307121276855</ele>
        <time>2012-01-14T11:29:01Z</time>
      </trkpt>
      <trkpt lat="43.61278" lon="6.89312">
        <ele>77.292549133301</ele>
        <time>2012-01-14T11:29:06Z</time>
      </trkpt>
      <trkpt lat="43.61269" lon="6.89313">
        <ele>74.431495666504</ele>
        <time>2012-01-14T11:29:10Z</time>
      </trkpt>
      <trkpt lat="43.61262" lon="6.89316">
        <ele>72.462997436523</ele>
        <time>2012-01-14T11:29:14Z</time>
      </trkpt>
      <trkpt lat="43.61263" lon="6.89305">
        <ele>72.45108795166</ele>
        <time>2012-01-14T11:29:17Z</time>
      </trkpt>
      <trkpt lat="43.61268" lon="6.89293">
        <ele>73.416046142578</ele>
        <time>2012-01-14T11:29:21Z</time>
      </trkpt>
      <trkpt lat="43.61271" lon="6.89285">
        <ele>73.990623474121</ele>
        <time>2012-01-14T11:29:23Z</time>
      </trkpt>
      <trkpt lat="43.61284" lon="6.89274">
        <ele>77.232780456543</ele>
        <time>2012-01-14T11:29:28Z</time>
      </trkpt>
      <trkpt lat="43.61283" lon="6.89272">
        <ele>76.792045593262</ele>
        <time>2012-01-14T11:29:32Z</time>
      </trkpt>
      <trkpt lat="43.61259" lon="6.89265">
        <ele>69.868843078613</ele>
        <time>2012-01-14T11:29:37Z</time>
      </trkpt>
      <trkpt lat="43.61242" lon="6.8926">
        <ele>64.79418182373</ele>
        <time>2012-01-14T11:29:41Z</time>
      </trkpt>
      <trkpt lat="43.61237" lon="6.89262">
        <ele>63.102912902832</ele>
        <time>2012-01-14T11:29:43Z</time>
      </trkpt>
      <trkpt lat="43.61228" lon="6.89266">
        <ele>60.108821868896</ele>
        <time>2012-01-14T11:29:49Z</time>
      </trkpt>
      <trkpt lat="43.61224" lon="6.89266">
        <ele>58.986469268799</ele>
        <time>2012-01-14T11:29:51Z</time>
      </trkpt>
      <trkpt lat="43.61215" lon="6.89246">
        <ele>56.879177093506</ele>
        <time>2012-01-14T11:29:57Z</time>
      </trkpt>
      <trkpt lat="43.61207" lon="6.89242">
        <ele>54.724666595459</ele>
        <time>2012-01-14T11:30:01Z</time>
      </trkpt>
      <trkpt lat="43.61205" lon="6.89239">
        <ele>54.455024719238</ele>
        <time>2012-01-14T11:30:06Z</time>
      </trkpt>
      <trkpt lat="43.61205" lon="6.89251">
        <ele>53.524444580078</ele>
        <time>2012-01-14T11:30:11Z</time>
      </trkpt>
      <trkpt lat="43.61206" lon="6.89253">
        <ele>53.665733337402</ele>
        <time>2012-01-14T11:30:13Z</time>
      </trkpt>
      <trkpt lat="43.61206" lon="6.89259">
        <ele>53.233367919922</ele>
        <time>2012-01-14T11:30:20Z</time>
      </trkpt>
      <trkpt lat="43.61206" lon="6.89262">
        <ele>53.175369262695</ele>
        <time>2012-01-14T11:30:29Z</time>
      </trkpt>
      <trkpt lat="43.61203" lon="6.89263">
        <ele>52.019748687744</ele>
        <time>2012-01-14T11:30:36Z</time>
      </trkpt>
      <trkpt lat="43.61202" lon="6.89263">
        <ele>51.890995025635</ele>
        <time>2012-01-14T11:30:38Z</time>
      </trkpt>
      <trkpt lat="43.61202" lon="6.89264">
        <ele>51.837966918945</ele>
        <time>2012-01-14T11:30:40Z</time>
      </trkpt>
      <trkpt lat="43.61204" lon="6.89267">
        <ele>52.197380065918</ele>
        <time>2012-01-14T11:30:48Z</time>
      </trkpt>
      <trkpt lat="43.6121" lon="6.89268">
        <ele>54.165451049805</ele>
        <time>2012-01-14T11:30:58Z</time>
      </trkpt>
      <trkpt lat="43.61208" lon="6.89265">
        <ele>53.674602508545</ele>
        <time>2012-01-14T11:31:09Z</time>
      </trkpt>
      <trkpt lat="43.61205" lon="6.89263">
        <ele>52.753650665283</ele>
        <time>2012-01-14T11:31:21Z</time>
      </trkpt>
      <trkpt lat="43.61205" lon="6.89261">
        <ele>52.757926940918</ele>
        <time>2012-01-14T11:31:38Z</time>
      </trkpt>
      <trkpt lat="43.61206" lon="6.89266">
        <ele>52.977245330811</ele>
        <time>2012-01-14T11:31:53Z</time>
      </trkpt>
      <trkpt lat="43.61206" lon="6.89274">
        <ele>52.576038360596</ele>
        <time>2012-01-14T11:32:02Z</time>
      </trkpt>
      <trkpt lat="43.61207" lon="6.89276">
        <ele>52.842712402344</ele>
        <time>2012-01-14T11:32:15Z</time>
      </trkpt>
      <trkpt lat="43.61208" lon="6.89276">
        <ele>53.117942810059</ele>
        <time>2012-01-14T11:32:18Z</time>
      </trkpt>
      <trkpt lat="43.61209" lon="6.89275">
        <ele>53.544078826904</ele>
        <time>2012-01-14T11:32:24Z</time>
      </trkpt>
      <trkpt lat="43.6121" lon="6.89275">
        <ele>53.971832275391</ele>
        <time>2012-01-14T11:32:40Z</time>
      </trkpt>
      <trkpt lat="43.61207" lon="6.89275">
        <ele>52.895122528076</ele>
        <time>2012-01-14T11:32:50Z</time>
      </trkpt>
      <trkpt lat="43.61204" lon="6.89275">
        <ele>51.848743438721</ele>
        <time>2012-01-14T11:33:01Z</time>
      </trkpt>
      <trkpt lat="43.612" lon="6.89273">
        <ele>50.531837463379</ele>
        <time>2012-01-14T11:33:11Z</time>
      </trkpt>
      <trkpt lat="43.61198" lon="6.89272">
        <ele>49.829223632812</ele>
        <time>2012-01-14T11:33:17Z</time>
      </trkpt>
      <trkpt lat="43.61187" lon="6.89265">
        <ele>46.658779144287</ele>
        <time>2012-01-14T11:33:31Z</time>
      </trkpt>
      <trkpt lat="43.61192" lon="6.89267">
        <ele>48.128326416016</ele>
        <time>2012-01-14T11:33:43Z</time>
      </trkpt>
      <trkpt lat="43.61192" lon="6.89268">
        <ele>48.199642181396</ele>
        <time>2012-01-14T11:33:47Z</time>
      </trkpt>
      <trkpt lat="43.61194" lon="6.89283">
        <ele>47.877769470215</ele>
        <time>2012-01-14T11:33:53Z</time>
      </trkpt>
      <trkpt lat="43.61199" lon="6.89294">
        <ele>48.95495223999</ele>
        <time>2012-01-14T11:33:58Z</time>
      </trkpt>
      <trkpt lat="43.612" lon="6.89296">
        <ele>49.270130157471</ele>
        <time>2012-01-14T11:33:59Z</time>
      </trkpt>
      <trkpt lat="43.61205" lon="6.89311">
        <ele>50.038520812988</ele>
        <time>2012-01-14T11:34:05Z</time>
      </trkpt>
      <trkpt lat="43.61205" lon="6.89318">
        <ele>49.635166168213</ele>
        <time>2012-01-14T11:34:10Z</time>
      </trkpt>
      <trkpt lat="43.61203" lon="6.89328">
        <ele>48.413707733154</ele>
        <time>2012-01-14T11:34:14Z</time>
      </trkpt>
      <trkpt lat="43.612" lon="6.89354">
        <ele>46.050556182861</ele>
        <time>2012-01-14T11:34:19Z</time>
      </trkpt>
      <trkpt lat="43.61199" lon="6.89366">
        <ele>44.917179107666</ele>
        <time>2012-01-14T11:34:22Z</time>
      </trkpt>
      <trkpt lat="43.61198" lon="6.89369">
        <ele>44.323154449463</ele>
        <time>2012-01-14T11:34:23Z</time>
      </trkpt>
      <trkpt lat="43.61194" lon="6.89385">
        <ele>42.265647888184</ele>
        <time>2012-01-14T11:34:28Z</time>
      </trkpt>
      <trkpt lat="43.61194" lon="6.89388">
        <ele>42.143028259277</ele>
        <time>2012-01-14T11:34:29Z</time>
      </trkpt>
      <trkpt lat="43.61186" lon="6.89409">
        <ele>38.631198883057</ele>
        <time>2012-01-14T11:34:35Z</time>
      </trkpt>
      <trkpt lat="43.61176" lon="6.89428">
        <ele>36.435752868652</ele>
        <time>2012-01-14T11:34:40Z</time>
      </trkpt>
      <trkpt lat="43.61166" lon="6.89447">
        <ele>35.515628814697</ele>
        <time>2012-01-14T11:34:45Z</time>
      </trkpt>
      <trkpt lat="43.61156" lon="6.89457">
        <ele>35.476860046387</ele>
        <time>2012-01-14T11:34:49Z</time>
      </trkpt>
      <trkpt lat="43.61138" lon="6.89473">
        <ele>35.137939453125</ele>
        <time>2012-01-14T11:34:55Z</time>
      </trkpt>
      <trkpt lat="43.61121" lon="6.89485">
        <ele>33.976444244385</ele>
        <time>2012-01-14T11:35:00Z</time>
      </trkpt>
      <trkpt lat="43.61109" lon="6.89494">
        <ele>33.213672637939</ele>
        <time>2012-01-14T11:35:03Z</time>
      </trkpt>
      <trkpt lat="43.61094" lon="6.89505">
        <ele>32.863353729248</ele>
        <time>2012-01-14T11:35:07Z</time>
      </trkpt>
      <trkpt lat="43.61082" lon="6.89513">
        <ele>33.288600921631</ele>
        <time>2012-01-14T11:35:10Z</time>
      </trkpt>
      <trkpt lat="43.61078" lon="6.89516">
        <ele>33.757141113281</ele>
        <time>2012-01-14T11:35:11Z</time>
      </trkpt>
      <trkpt lat="43.61052" lon="6.89536">
        <ele>36.27615737915</ele>
        <time>2012-01-14T11:35:18Z</time>
      </trkpt>
      <trkpt lat="43.61028" lon="6.89554">
        <ele>38.071929931641</ele>
        <time>2012-01-14T11:35:24Z</time>
      </trkpt>
      <trkpt lat="43.61013" lon="6.89565">
        <ele>38.742855072021</ele>
        <time>2012-01-14T11:35:28Z</time>
      </trkpt>
      <trkpt lat="43.6099" lon="6.89579">
        <ele>38.208808898926</ele>
        <time>2012-01-14T11:35:34Z</time>
      </trkpt>
      <trkpt lat="43.60983" lon="6.89584">
        <ele>37.732578277588</ele>
        <time>2012-01-14T11:35:36Z</time>
      </trkpt>
      <trkpt lat="43.60974" lon="6.89594">
        <ele>38.635841369629</ele>
        <time>2012-01-14T11:35:39Z</time>
      </trkpt>
      <trkpt lat="43.6096" lon="6.89614">
        <ele>39.990829467773</ele>
        <time>2012-01-14T11:35:44Z</time>
      </trkpt>
      <trkpt lat="43.60958" lon="6.89618">
        <ele>40.291385650635</ele>
        <time>2012-01-14T11:35:45Z</time>
      </trkpt>
      <trkpt lat="43.60956" lon="6.89622">
        <ele>40.637577056885</ele>
        <time>2012-01-14T11:35:46Z</time>
      </trkpt>
      <trkpt lat="43.6095" lon="6.89632">
        <ele>40.920516967773</ele>
        <time>2012-01-14T11:35:48Z</time>
      </trkpt>
      <trkpt lat="43.60935" lon="6.89666">
        <ele>41.722232818604</ele>
        <time>2012-01-14T11:35:55Z</time>
      </trkpt>
      <trkpt lat="43.60919" lon="6.897">
        <ele>42.242225646973</ele>
        <time>2012-01-14T11:36:02Z</time>
      </trkpt>
      <trkpt lat="43.60901" lon="6.89736">
        <ele>44.037155151367</ele>
        <time>2012-01-14T11:36:10Z</time>
      </trkpt>
      <trkpt lat="43.60889" lon="6.89761">
        <ele>44.348392486572</ele>
        <time>2012-01-14T11:36:16Z</time>
      </trkpt>
      <trkpt lat="43.60884" lon="6.89768">
        <ele>44.133285522461</ele>
        <time>2012-01-14T11:36:18Z</time>
      </trkpt>
      <trkpt lat="43.60863" lon="6.89792">
        <ele>40.107704162598</ele>
        <time>2012-01-14T11:36:25Z</time>
      </trkpt>
      <trkpt lat="43.60847" lon="6.89812">
        <ele>35.602313995361</ele>
        <time>2012-01-14T11:36:31Z</time>
      </trkpt>
      <trkpt lat="43.60825" lon="6.8983">
        <ele>30.616075515747</ele>
        <time>2012-01-14T11:36:38Z</time>
      </trkpt>
      <trkpt lat="43.60812" lon="6.89846">
        <ele>30.132905960083</ele>
        <time>2012-01-14T11:36:43Z</time>
      </trkpt>
      <trkpt lat="43.60798" lon="6.89873">
        <ele>29.873538970947</ele>
        <time>2012-01-14T11:36:49Z</time>
      </trkpt>
      <trkpt lat="43.60789" lon="6.89892">
        <ele>29.642045974731</ele>
        <time>2012-01-14T11:36:53Z</time>
      </trkpt>
      <trkpt lat="43.60779" lon="6.89923">
        <ele>29.003566741943</ele>
        <time>2012-01-14T11:36:58Z</time>
      </trkpt>
      <trkpt lat="43.60767" lon="6.89945">
        <ele>27.21941947937</ele>
        <time>2012-01-14T11:37:02Z</time>
      </trkpt>
      <trkpt lat="43.60749" lon="6.89979">
        <ele>25.205825805664</ele>
        <time>2012-01-14T11:37:09Z</time>
      </trkpt>
      <trkpt lat="43.60733" lon="6.9001">
        <ele>25.645378112793</ele>
        <time>2012-01-14T11:37:16Z</time>
      </trkpt>
      <trkpt lat="43.60712" lon="6.9005">
        <ele>26.093906402588</ele>
        <time>2012-01-14T11:37:26Z</time>
      </trkpt>
      <trkpt lat="43.60696" lon="6.90079">
        <ele>26.561985015869</ele>
        <time>2012-01-14T11:37:33Z</time>
      </trkpt>
      <trkpt lat="43.60679" lon="6.901">
        <ele>26.893379211426</ele>
        <time>2012-01-14T11:37:39Z</time>
      </trkpt>
      <trkpt lat="43.60666" lon="6.90121">
        <ele>27.318161010742</ele>
        <time>2012-01-14T11:37:45Z</time>
      </trkpt>
      <trkpt lat="43.60663" lon="6.90135">
        <ele>27.658622741699</ele>
        <time>2012-01-14T11:37:48Z</time>
      </trkpt>
      <trkpt lat="43.60662" lon="6.90146">
        <ele>27.974479675293</ele>
        <time>2012-01-14T11:37:50Z</time>
      </trkpt>
      <trkpt lat="43.60661" lon="6.90172">
        <ele>28.845874786377</ele>
        <time>2012-01-14T11:37:55Z</time>
      </trkpt>
      <trkpt lat="43.6066" lon="6.90215">
        <ele>30.397827148438</ele>
        <time>2012-01-14T11:38:03Z</time>
      </trkpt>
      <trkpt lat="43.60666" lon="6.90245">
        <ele>31.765779495239</ele>
        <time>2012-01-14T11:38:09Z</time>
      </trkpt>
      <trkpt lat="43.60668" lon="6.90278">
        <ele>33.00464630127</ele>
        <time>2012-01-14T11:38:15Z</time>
      </trkpt>
      <trkpt lat="43.60658" lon="6.90299">
        <ele>33.333869934082</ele>
        <time>2012-01-14T11:38:20Z</time>
      </trkpt>
      <trkpt lat="43.60648" lon="6.90316">
        <ele>33.483787536621</ele>
        <time>2012-01-14T11:38:25Z</time>
      </trkpt>
      <trkpt lat="43.60642" lon="6.90326">
        <ele>33.56103515625</ele>
        <time>2012-01-14T11:38:29Z</time>
      </trkpt>
      <trkpt lat="43.60641" lon="6.90328">
        <ele>33.581634521484</ele>
        <time>2012-01-14T11:38:30Z</time>
      </trkpt>
      <trkpt lat="43.60637" lon="6.90338">
        <ele>33.804046630859</ele>
        <time>2012-01-14T11:38:34Z</time>
      </trkpt>
      <trkpt lat="43.6063" lon="6.90358">
        <ele>34.433471679688</ele>
        <time>2012-01-14T11:38:41Z</time>
      </trkpt>
      <trkpt lat="43.60624" lon="6.9037">
        <ele>34.696685791016</ele>
        <time>2012-01-14T11:38:46Z</time>
      </trkpt>
      <trkpt lat="43.6062" lon="6.90378">
        <ele>34.870635986328</ele>
        <time>2012-01-14T11:38:49Z</time>
      </trkpt>
      <trkpt lat="43.60616" lon="6.90385">
        <ele>35.005676269531</ele>
        <time>2012-01-14T11:38:53Z</time>
      </trkpt>
      <trkpt lat="43.60611" lon="6.90391">
        <ele>35.133850097656</ele>
        <time>2012-01-14T11:38:59Z</time>
      </trkpt>
      <trkpt lat="43.60607" lon="6.90401">
        <ele>35.371887207031</ele>
        <time>2012-01-14T11:39:03Z</time>
      </trkpt>
      <trkpt lat="43.60606" lon="6.90403">
        <ele>35.422241210938</ele>
        <time>2012-01-14T11:39:04Z</time>
      </trkpt>
      <trkpt lat="43.60594" lon="6.9042">
        <ele>35.711601257324</ele>
        <time>2012-01-14T11:39:11Z</time>
      </trkpt>
      <trkpt lat="43.60584" lon="6.90438">
        <ele>36.077388763428</ele>
        <time>2012-01-14T11:39:18Z</time>
      </trkpt>
      <trkpt lat="43.60575" lon="6.90457">
        <ele>37.949047088623</ele>
        <time>2012-01-14T11:39:24Z</time>
      </trkpt>
      <trkpt lat="43.60566" lon="6.90477">
        <ele>39.725521087646</ele>
        <time>2012-01-14T11:39:31Z</time>
      </trkpt>
      <trkpt lat="43.60553" lon="6.905">
        <ele>41.533111572266</ele>
        <time>2012-01-14T11:39:39Z</time>
      </trkpt>
      <trkpt lat="43.60542" lon="6.90524">
        <ele>43.058067321777</ele>
        <time>2012-01-14T11:39:47Z</time>
      </trkpt>
      <trkpt lat="43.60534" lon="6.90545">
        <ele>43.918640136719</ele>
        <time>2012-01-14T11:39:54Z</time>
      </trkpt>
      <trkpt lat="43.60526" lon="6.90563">
        <ele>44.486881256104</ele>
        <time>2012-01-14T11:40:00Z</time>
      </trkpt>
      <trkpt lat="43.60515" lon="6.90589">
        <ele>45.143093109131</ele>
        <time>2012-01-14T11:40:08Z</time>
      </trkpt>
      <trkpt lat="43.60508" lon="6.90603">
        <ele>46.128475189209</ele>
        <time>2012-01-14T11:40:13Z</time>
      </trkpt>
      <trkpt lat="43.60505" lon="6.9061">
        <ele>46.54419708252</ele>
        <time>2012-01-14T11:40:18Z</time>
      </trkpt>
      <trkpt lat="43.605" lon="6.9062">
        <ele>47.2047996521</ele>
        <time>2012-01-14T11:40:23Z</time>
      </trkpt>
      <trkpt lat="43.60492" lon="6.90639">
        <ele>49.123374938965</ele>
        <time>2012-01-14T11:40:31Z</time>
      </trkpt>
      <trkpt lat="43.60484" lon="6.90659">
        <ele>50.66040802002</ele>
        <time>2012-01-14T11:40:38Z</time>
      </trkpt>
      <trkpt lat="43.60473" lon="6.90683">
        <ele>52.081130981445</ele>
        <time>2012-01-14T11:40:46Z</time>
      </trkpt>
      <trkpt lat="43.60468" lon="6.90701">
        <ele>52.732757568359</ele>
        <time>2012-01-14T11:40:52Z</time>
      </trkpt>
      <trkpt lat="43.60459" lon="6.90721">
        <ele>53.151744842529</ele>
        <time>2012-01-14T11:40:59Z</time>
      </trkpt>
      <trkpt lat="43.60448" lon="6.90741">
        <ele>53.138889312744</ele>
        <time>2012-01-14T11:41:06Z</time>
      </trkpt>
      <trkpt lat="43.6044" lon="6.90758">
        <ele>52.78929901123</ele>
        <time>2012-01-14T11:41:12Z</time>
      </trkpt>
      <trkpt lat="43.60432" lon="6.90784">
        <ele>51.905170440674</ele>
        <time>2012-01-14T11:41:20Z</time>
      </trkpt>
      <trkpt lat="43.60425" lon="6.90809">
        <ele>50.753963470459</ele>
        <time>2012-01-14T11:41:27Z</time>
      </trkpt>
      <trkpt lat="43.60417" lon="6.90837">
        <ele>49.022239685059</ele>
        <time>2012-01-14T11:41:34Z</time>
      </trkpt>
      <trkpt lat="43.6041" lon="6.90876">
        <ele>46.552066802979</ele>
        <time>2012-01-14T11:41:42Z</time>
      </trkpt>
      <trkpt lat="43.60406" lon="6.90907">
        <ele>45.373802185059</ele>
        <time>2012-01-14T11:41:48Z</time>
      </trkpt>
      <trkpt lat="43.60401" lon="6.90929">
        <ele>43.989643096924</ele>
        <time>2012-01-14T11:41:52Z</time>
      </trkpt>
      <trkpt lat="43.604" lon="6.90958">
        <ele>43.80823135376</ele>
        <time>2012-01-14T11:41:56Z</time>
      </trkpt>
      <trkpt lat="43.604" lon="6.90983">
        <ele>44.171272277832</ele>
        <time>2012-01-14T11:41:59Z</time>
      </trkpt>
      <trkpt lat="43.604" lon="6.90992">
        <ele>44.231956481934</ele>
        <time>2012-01-14T11:42:00Z</time>
      </trkpt>
      <trkpt lat="43.60403" lon="6.91049">
        <ele>45.302017211914</ele>
        <time>2012-01-14T11:42:06Z</time>
      </trkpt>
      <trkpt lat="43.60405" lon="6.91116">
        <ele>45.198246002197</ele>
        <time>2012-01-14T11:42:12Z</time>
      </trkpt>
      <trkpt lat="43.60407" lon="6.91161">
        <ele>44.140644073486</ele>
        <time>2012-01-14T11:42:16Z</time>
      </trkpt>
      <trkpt lat="43.60405" lon="6.91183">
        <ele>43.082653045654</ele>
        <time>2012-01-14T11:42:18Z</time>
      </trkpt>
      <trkpt lat="43.60408" lon="6.91218">
        <ele>41.811805725098</ele>
        <time>2012-01-14T11:42:22Z</time>
      </trkpt>
      <trkpt lat="43.60419" lon="6.91229">
        <ele>42.126480102539</ele>
        <time>2012-01-14T11:42:24Z</time>
      </trkpt>
      <trkpt lat="43.60426" lon="6.91232">
        <ele>42.308940887451</ele>
        <time>2012-01-14T11:42:25Z</time>
      </trkpt>
      <trkpt lat="43.6044" lon="6.91237">
        <ele>42.64315032959</ele>
        <time>2012-01-14T11:42:27Z</time>
      </trkpt>
      <trkpt lat="43.60469" lon="6.91258">
        <ele>42.592372894287</ele>
        <time>2012-01-14T11:42:32Z</time>
      </trkpt>
      <trkpt lat="43.60475" lon="6.91269">
        <ele>42.407665252686</ele>
        <time>2012-01-14T11:42:34Z</time>
      </trkpt>
      <trkpt lat="43.60476" lon="6.91277">
        <ele>42.117282867432</ele>
        <time>2012-01-14T11:42:38Z</time>
      </trkpt>
      <trkpt lat="43.60473" lon="6.91272">
        <ele>42.217147827148</ele>
        <time>2012-01-14T11:42:46Z</time>
      </trkpt>
      <trkpt lat="43.60471" lon="6.91274">
        <ele>42.11266708374</ele>
        <time>2012-01-14T11:42:50Z</time>
      </trkpt>
      <trkpt lat="43.60471" lon="6.91279">
        <ele>41.933254241943</ele>
        <time>2012-01-14T11:42:51Z</time>
      </trkpt>
      <trkpt lat="43.60468" lon="6.91299">
        <ele>41.172557830811</ele>
        <time>2012-01-14T11:42:56Z</time>
      </trkpt>
      <trkpt lat="43.60463" lon="6.91325">
        <ele>40.250171661377</ele>
        <time>2012-01-14T11:43:02Z</time>
      </trkpt>
      <trkpt lat="43.60457" lon="6.91349">
        <ele>40</ele>
        <time>2012-01-14T11:43:08Z</time>
      </trkpt>
      <trkpt lat="43.60455" lon="6.91351">
        <ele>40</ele>
        <time>2012-01-14T11:43:09Z</time>
      </trkpt>
      <trkpt lat="43.6044" lon="6.91361">
        <ele>40</ele>
        <time>2012-01-14T11:43:15Z</time>
      </trkpt>
      <trkpt lat="43.60419" lon="6.9137">
        <ele>40</ele>
        <time>2012-01-14T11:43:23Z</time>
      </trkpt>
      <trkpt lat="43.60409" lon="6.9138">
        <ele>39.769302368164</ele>
        <time>2012-01-14T11:43:30Z</time>
      </trkpt>
      <trkpt lat="43.60402" lon="6.91388">
        <ele>39.585689544678</ele>
        <time>2012-01-14T11:43:36Z</time>
      </trkpt>
      <trkpt lat="43.60394" lon="6.91397">
        <ele>39.378402709961</ele>
        <time>2012-01-14T11:43:42Z</time>
      </trkpt>
      <trkpt lat="43.60392" lon="6.91398">
        <ele>39.35033416748</ele>
        <time>2012-01-14T11:43:43Z</time>
      </trkpt>
      <trkpt lat="43.60381" lon="6.91397">
        <ele>39.041507720947</ele>
        <time>2012-01-14T11:43:50Z</time>
      </trkpt>
      <trkpt lat="43.60374" lon="6.91396">
        <ele>38.838817596436</ele>
        <time>2012-01-14T11:43:54Z</time>
      </trkpt>
      <trkpt lat="43.60367" lon="6.91393">
        <ele>38.642551422119</ele>
        <time>2012-01-14T11:43:57Z</time>
      </trkpt>
      <trkpt lat="43.60349" lon="6.91399">
        <ele>38.198223114014</ele>
        <time>2012-01-14T11:44:04Z</time>
      </trkpt>
      <trkpt lat="43.60328" lon="6.9141">
        <ele>37.558784484863</ele>
        <time>2012-01-14T11:44:12Z</time>
      </trkpt>
      <trkpt lat="43.60309" lon="6.91423">
        <ele>36.651615142822</ele>
        <time>2012-01-14T11:44:19Z</time>
      </trkpt>
      <trkpt lat="43.60297" lon="6.91418">
        <ele>35.876182556152</ele>
        <time>2012-01-14T11:44:23Z</time>
      </trkpt>
      <trkpt lat="43.6028" lon="6.91401">
        <ele>34.249309539795</ele>
        <time>2012-01-14T11:44:28Z</time>
      </trkpt>
      <trkpt lat="43.60266" lon="6.91387">
        <ele>32.740894317627</ele>
        <time>2012-01-14T11:44:32Z</time>
      </trkpt>
      <trkpt lat="43.60254" lon="6.91365">
        <ele>30.870929718018</ele>
        <time>2012-01-14T11:44:37Z</time>
      </trkpt>
      <trkpt lat="43.60248" lon="6.91331">
        <ele>28.827295303345</ele>
        <time>2012-01-14T11:44:44Z</time>
      </trkpt>
      <trkpt lat="43.60255" lon="6.91309">
        <ele>28.659873962402</ele>
        <time>2012-01-14T11:44:49Z</time>
      </trkpt>
      <trkpt lat="43.6027" lon="6.91283">
        <ele>29.404016494751</ele>
        <time>2012-01-14T11:44:56Z</time>
      </trkpt>
      <trkpt lat="43.60276" lon="6.91263">
        <ele>29.443380355835</ele>
        <time>2012-01-14T11:45:01Z</time>
      </trkpt>
      <trkpt lat="43.60268" lon="6.91249">
        <ele>28.082056045532</ele>
        <time>2012-01-14T11:45:05Z</time>
      </trkpt>
      <trkpt lat="43.60246" lon="6.91229">
        <ele>24.746404647827</ele>
        <time>2012-01-14T11:45:13Z</time>
      </trkpt>
      <trkpt lat="43.60228" lon="6.91213">
        <ele>23.266801834106</ele>
        <time>2012-01-14T11:45:19Z</time>
      </trkpt>
      <trkpt lat="43.60203" lon="6.91189">
        <ele>21.474323272705</ele>
        <time>2012-01-14T11:45:28Z</time>
      </trkpt>
      <trkpt lat="43.60184" lon="6.91175">
        <ele>20.591299057007</ele>
        <time>2012-01-14T11:45:34Z</time>
      </trkpt>
      <trkpt lat="43.60166" lon="6.91157">
        <ele>20.698207855225</ele>
        <time>2012-01-14T11:45:41Z</time>
      </trkpt>
      <trkpt lat="43.60154" lon="6.91145">
        <ele>22.39594078064</ele>
        <time>2012-01-14T11:45:47Z</time>
      </trkpt>
      <trkpt lat="43.60152" lon="6.91143">
        <ele>22.671873092651</ele>
        <time>2012-01-14T11:45:48Z</time>
      </trkpt>
      <trkpt lat="43.60143" lon="6.91144">
        <ele>23.151971817017</ele>
        <time>2012-01-14T11:45:54Z</time>
      </trkpt>
      <trkpt lat="43.60135" lon="6.91154">
        <ele>22.555671691894</ele>
        <time>2012-01-14T11:45:58Z</time>
      </trkpt>
      <trkpt lat="43.60125" lon="6.91176">
        <ele>21.399045944214</ele>
        <time>2012-01-14T11:46:03Z</time>
      </trkpt>
      <trkpt lat="43.60115" lon="6.91197">
        <ele>21.325437545776</ele>
        <time>2012-01-14T11:46:08Z</time>
      </trkpt>
      <trkpt lat="43.60099" lon="6.9122">
        <ele>20.993337631226</ele>
        <time>2012-01-14T11:46:15Z</time>
      </trkpt>
      <trkpt lat="43.60083" lon="6.91231">
        <ele>20.695508956909</ele>
        <time>2012-01-14T11:46:20Z</time>
      </trkpt>
      <trkpt lat="43.60066" lon="6.91241">
        <ele>20.514608383179</ele>
        <time>2012-01-14T11:46:25Z</time>
      </trkpt>
      <trkpt lat="43.60049" lon="6.91246">
        <ele>20.304840087891</ele>
        <time>2012-01-14T11:46:30Z</time>
      </trkpt>
      <trkpt lat="43.60027" lon="6.91258">
        <ele>20.090293884277</ele>
        <time>2012-01-14T11:46:36Z</time>
      </trkpt>
      <trkpt lat="43.60007" lon="6.91258">
        <ele>20.100021362305</ele>
        <time>2012-01-14T11:46:41Z</time>
      </trkpt>
      <trkpt lat="43.59986" lon="6.91251">
        <ele>20.006071090698</ele>
        <time>2012-01-14T11:46:47Z</time>
      </trkpt>
      <trkpt lat="43.59962" lon="6.91242">
        <ele>20.765556335449</ele>
        <time>2012-01-14T11:46:53Z</time>
      </trkpt>
      <trkpt lat="43.59944" lon="6.91228">
        <ele>21.679346084595</ele>
        <time>2012-01-14T11:46:58Z</time>
      </trkpt>
      <trkpt lat="43.59925" lon="6.91221">
        <ele>21.629512786865</ele>
        <time>2012-01-14T11:47:03Z</time>
      </trkpt>
      <trkpt lat="43.59913" lon="6.91227">
        <ele>20.977643966675</ele>
        <time>2012-01-14T11:47:07Z</time>
      </trkpt>
      <trkpt lat="43.59909" lon="6.91233">
        <ele>20.560297012329</ele>
        <time>2012-01-14T11:47:09Z</time>
      </trkpt>
      <trkpt lat="43.59903" lon="6.91242">
        <ele>19.997678756714</ele>
        <time>2012-01-14T11:47:12Z</time>
      </trkpt>
      <trkpt lat="43.59888" lon="6.91249">
        <ele>19.360754013061</ele>
        <time>2012-01-14T11:47:18Z</time>
      </trkpt>
      <trkpt lat="43.59883" lon="6.91249">
        <ele>19.230434417725</ele>
        <time>2012-01-14T11:47:20Z</time>
      </trkpt>
      <trkpt lat="43.59876" lon="6.91261">
        <ele>19.083847045898</ele>
        <time>2012-01-14T11:47:26Z</time>
      </trkpt>
      <trkpt lat="43.59871" lon="6.91277">
        <ele>19.070045471191</ele>
        <time>2012-01-14T11:47:30Z</time>
      </trkpt>
      <trkpt lat="43.59862" lon="6.91297">
        <ele>19.062641143799</ele>
        <time>2012-01-14T11:47:36Z</time>
      </trkpt>
      <trkpt lat="43.59857" lon="6.91305">
        <ele>19.044792175293</ele>
        <time>2012-01-14T11:47:41Z</time>
      </trkpt>
      <trkpt lat="43.59853" lon="6.91308">
        <ele>19.004964828491</ele>
        <time>2012-01-14T11:47:44Z</time>
      </trkpt>
      <trkpt lat="43.59851" lon="6.9131">
        <ele>18.996795654297</ele>
        <time>2012-01-14T11:47:45Z</time>
      </trkpt>
      <trkpt lat="43.59848" lon="6.91316">
        <ele>18.999252319336</ele>
        <time>2012-01-14T11:47:49Z</time>
      </trkpt>
      <trkpt lat="43.59839" lon="6.91323">
        <ele>18.950937271118</ele>
        <time>2012-01-14T11:47:56Z</time>
      </trkpt>
      <trkpt lat="43.59836" lon="6.91323">
        <ele>18.914962768555</ele>
        <time>2012-01-14T11:47:58Z</time>
      </trkpt>
      <trkpt lat="43.59829" lon="6.91326">
        <ele>18.816528320312</ele>
        <time>2012-01-14T11:48:02Z</time>
      </trkpt>
      <trkpt lat="43.59827" lon="6.91326">
        <ele>18.777669906616</ele>
        <time>2012-01-14T11:48:03Z</time>
      </trkpt>
      <trkpt lat="43.59814" lon="6.91333">
        <ele>18.543487548828</ele>
        <time>2012-01-14T11:48:09Z</time>
      </trkpt>
      <trkpt lat="43.59799" lon="6.91342">
        <ele>19.543741226196</ele>
        <time>2012-01-14T11:48:16Z</time>
      </trkpt>
      <trkpt lat="43.59785" lon="6.91348">
        <ele>19.812704086304</ele>
        <time>2012-01-14T11:48:22Z</time>
      </trkpt>
      <trkpt lat="43.5978" lon="6.9135">
        <ele>19.703786849976</ele>
        <time>2012-01-14T11:48:25Z</time>
      </trkpt>
      <trkpt lat="43.59771" lon="6.91349">
        <ele>18.991401672363</ele>
        <time>2012-01-14T11:48:30Z</time>
      </trkpt>
      <trkpt lat="43.59766" lon="6.91351">
        <ele>18.841682434082</ele>
        <time>2012-01-14T11:48:33Z</time>
      </trkpt>
      <trkpt lat="43.59754" lon="6.91351">
        <ele>18.11213684082</ele>
        <time>2012-01-14T11:48:39Z</time>
      </trkpt>
      <trkpt lat="43.59741" lon="6.91356">
        <ele>18.112976074219</ele>
        <time>2012-01-14T11:48:44Z</time>
      </trkpt>
      <trkpt lat="43.59731" lon="6.91368">
        <ele>18.542406082153</ele>
        <time>2012-01-14T11:48:50Z</time>
      </trkpt>
      <trkpt lat="43.59728" lon="6.91368">
        <ele>18.541675567627</ele>
        <time>2012-01-14T11:48:51Z</time>
      </trkpt>
      <trkpt lat="43.59716" lon="6.91374">
        <ele>18.57416343689</ele>
        <time>2012-01-14T11:48:58Z</time>
      </trkpt>
      <trkpt lat="43.59715" lon="6.91375">
        <ele>18.573568344116</ele>
        <time>2012-01-14T11:48:59Z</time>
      </trkpt>
      <trkpt lat="43.59705" lon="6.91384">
        <ele>18.540479660034</ele>
        <time>2012-01-14T11:49:06Z</time>
      </trkpt>
      <trkpt lat="43.5969" lon="6.914">
        <ele>18.199800491333</ele>
        <time>2012-01-14T11:49:15Z</time>
      </trkpt>
      <trkpt lat="43.59684" lon="6.91409">
        <ele>17.916023254394</ele>
        <time>2012-01-14T11:49:20Z</time>
      </trkpt>
      <trkpt lat="43.59669" lon="6.91426">
        <ele>17.904731750488</ele>
        <time>2012-01-14T11:49:26Z</time>
      </trkpt>
      <trkpt lat="43.59658" lon="6.91436">
        <ele>18.303623199463</ele>
        <time>2012-01-14T11:49:30Z</time>
      </trkpt>
      <trkpt lat="43.59634" lon="6.91454">
        <ele>18.841367721558</ele>
        <time>2012-01-14T11:49:38Z</time>
      </trkpt>
      <trkpt lat="43.59626" lon="6.91466">
        <ele>19.016677856445</ele>
        <time>2012-01-14T11:49:42Z</time>
      </trkpt>
      <trkpt lat="43.59615" lon="6.91492">
        <ele>19.14600944519</ele>
        <time>2012-01-14T11:49:48Z</time>
      </trkpt>
      <trkpt lat="43.59604" lon="6.91518">
        <ele>20.1008644104</ele>
        <time>2012-01-14T11:49:54Z</time>
      </trkpt>
      <trkpt lat="43.59591" lon="6.91547">
        <ele>19.354692459106</ele>
        <time>2012-01-14T11:50:01Z</time>
      </trkpt>
      <trkpt lat="43.59576" lon="6.91576">
        <ele>17.835620880127</ele>
        <time>2012-01-14T11:50:08Z</time>
      </trkpt>
      <trkpt lat="43.5956" lon="6.91598">
        <ele>18.692680358887</ele>
        <time>2012-01-14T11:50:15Z</time>
      </trkpt>
      <trkpt lat="43.59544" lon="6.91604">
        <ele>18.582197189331</ele>
        <time>2012-01-14T11:50:20Z</time>
      </trkpt>
      <trkpt lat="43.5953" lon="6.9161">
        <ele>18.286067962646</ele>
        <time>2012-01-14T11:50:25Z</time>
      </trkpt>
      <trkpt lat="43.59522" lon="6.91615">
        <ele>18.062692642212</ele>
        <time>2012-01-14T11:50:29Z</time>
      </trkpt>
      <trkpt lat="43.59513" lon="6.91624">
        <ele>17.744815826416</ele>
        <time>2012-01-14T11:50:34Z</time>
      </trkpt>
      <trkpt lat="43.59498" lon="6.91641">
        <ele>16.990165710449</ele>
        <time>2012-01-14T11:50:40Z</time>
      </trkpt>
      <trkpt lat="43.59474" lon="6.91658">
        <ele>16.753059387207</ele>
        <time>2012-01-14T11:50:48Z</time>
      </trkpt>
      <trkpt lat="43.59464" lon="6.91668">
        <ele>16.584058761597</ele>
        <time>2012-01-14T11:50:53Z</time>
      </trkpt>
      <trkpt lat="43.59462" lon="6.91669">
        <ele>16.576700210571</ele>
        <time>2012-01-14T11:50:54Z</time>
      </trkpt>
      <trkpt lat="43.59448" lon="6.9168">
        <ele>16.594257354736</ele>
        <time>2012-01-14T11:51:01Z</time>
      </trkpt>
      <trkpt lat="43.59441" lon="6.91693">
        <ele>16.710966110229</ele>
        <time>2012-01-14T11:51:05Z</time>
      </trkpt>
      <trkpt lat="43.59429" lon="6.91717">
        <ele>16.838125228882</ele>
        <time>2012-01-14T11:51:11Z</time>
      </trkpt>
      <trkpt lat="43.5942" lon="6.91741">
        <ele>16.970832824707</ele>
        <time>2012-01-14T11:51:16Z</time>
      </trkpt>
      <trkpt lat="43.59408" lon="6.9176">
        <ele>17.122053146362</ele>
        <time>2012-01-14T11:51:21Z</time>
      </trkpt>
      <trkpt lat="43.59398" lon="6.91774">
        <ele>17.282432556152</ele>
        <time>2012-01-14T11:51:25Z</time>
      </trkpt>
      <trkpt lat="43.59388" lon="6.91786">
        <ele>17.380411148071</ele>
        <time>2012-01-14T11:51:29Z</time>
      </trkpt>
      <trkpt lat="43.59386" lon="6.9179">
        <ele>17.409864425659</ele>
        <time>2012-01-14T11:51:30Z</time>
      </trkpt>
      <trkpt lat="43.59378" lon="6.91799">
        <ele>17.433267593384</ele>
        <time>2012-01-14T11:51:34Z</time>
      </trkpt>
      <trkpt lat="43.5937" lon="6.91808">
        <ele>17.442312240601</ele>
        <time>2012-01-14T11:51:38Z</time>
      </trkpt>
      <trkpt lat="43.59362" lon="6.91816">
        <ele>17.40619468689</ele>
        <time>2012-01-14T11:51:41Z</time>
      </trkpt>
      <trkpt lat="43.59359" lon="6.91819">
        <ele>17.385166168213</ele>
        <time>2012-01-14T11:51:42Z</time>
      </trkpt>
      <trkpt lat="43.59356" lon="6.91821">
        <ele>17.343503952026</ele>
        <time>2012-01-14T11:51:43Z</time>
      </trkpt>
      <trkpt lat="43.5934" lon="6.91833">
        <ele>17.145740509033</ele>
        <time>2012-01-14T11:51:48Z</time>
      </trkpt>
      <trkpt lat="43.59322" lon="6.91848">
        <ele>17.025989532471</ele>
        <time>2012-01-14T11:51:54Z</time>
      </trkpt>
      <trkpt lat="43.59303" lon="6.91867">
        <ele>16.898591995239</ele>
        <time>2012-01-14T11:52:01Z</time>
      </trkpt>
      <trkpt lat="43.59294" lon="6.91881">
        <ele>16.825775146484</ele>
        <time>2012-01-14T11:52:06Z</time>
      </trkpt>
      <trkpt lat="43.59283" lon="6.91901">
        <ele>16.708744049072</ele>
        <time>2012-01-14T11:52:12Z</time>
      </trkpt>
      <trkpt lat="43.59272" lon="6.91925">
        <ele>16.590040206909</ele>
        <time>2012-01-14T11:52:19Z</time>
      </trkpt>
      <trkpt lat="43.59266" lon="6.91945">
        <ele>16.49919128418</ele>
        <time>2012-01-14T11:52:24Z</time>
      </trkpt>
      <trkpt lat="43.59251" lon="6.91982">
        <ele>16.060060501099</ele>
        <time>2012-01-14T11:52:32Z</time>
      </trkpt>
      <trkpt lat="43.59249" lon="6.92001">
        <ele>16.000671386719</ele>
        <time>2012-01-14T11:52:35Z</time>
      </trkpt>
      <trkpt lat="43.5924" lon="6.92038">
        <ele>16.279188156128</ele>
        <time>2012-01-14T11:52:42Z</time>
      </trkpt>
      <trkpt lat="43.59237" lon="6.92048">
        <ele>16.335872650146</ele>
        <time>2012-01-14T11:52:44Z</time>
      </trkpt>
      <trkpt lat="43.59233" lon="6.92092">
        <ele>16.684833526611</ele>
        <time>2012-01-14T11:52:52Z</time>
      </trkpt>
      <trkpt lat="43.59231" lon="6.92125">
        <ele>16.919605255127</ele>
        <time>2012-01-14T11:52:59Z</time>
      </trkpt>
      <trkpt lat="43.59226" lon="6.92148">
        <ele>16.969074249268</ele>
        <time>2012-01-14T11:53:05Z</time>
      </trkpt>
      <trkpt lat="43.5922" lon="6.92174">
        <ele>16.910705566406</ele>
        <time>2012-01-14T11:53:12Z</time>
      </trkpt>
      <trkpt lat="43.59221" lon="6.922">
        <ele>16.951904296875</ele>
        <time>2012-01-14T11:53:17Z</time>
      </trkpt>
      <trkpt lat="43.59222" lon="6.92234">
        <ele>17.0068359375</ele>
        <time>2012-01-14T11:53:24Z</time>
      </trkpt>
      <trkpt lat="43.59229" lon="6.9226">
        <ele>17.05432510376</ele>
        <time>2012-01-14T11:53:30Z</time>
      </trkpt>
      <trkpt lat="43.59249" lon="6.92282">
        <ele>17.214834213257</ele>
        <time>2012-01-14T11:53:38Z</time>
      </trkpt>
      <trkpt lat="43.59275" lon="6.92306">
        <ele>17.850769042969</ele>
        <time>2012-01-14T11:53:47Z</time>
      </trkpt>
      <trkpt lat="43.59295" lon="6.92332">
        <ele>18.182647705078</ele>
        <time>2012-01-14T11:53:55Z</time>
      </trkpt>
      <trkpt lat="43.59314" lon="6.92369">
        <ele>18.302816390991</ele>
        <time>2012-01-14T11:54:04Z</time>
      </trkpt>
      <trkpt lat="43.59327" lon="6.92398">
        <ele>18.190004348755</ele>
        <time>2012-01-14T11:54:11Z</time>
      </trkpt>
      <trkpt lat="43.59336" lon="6.9242">
        <ele>18.12993812561</ele>
        <time>2012-01-14T11:54:16Z</time>
      </trkpt>
      <trkpt lat="43.59356" lon="6.92455">
        <ele>18.851945877075</ele>
        <time>2012-01-14T11:54:25Z</time>
      </trkpt>
      <trkpt lat="43.5937" lon="6.92473">
        <ele>19.163076400757</ele>
        <time>2012-01-14T11:54:31Z</time>
      </trkpt>
      <trkpt lat="43.59389" lon="6.92499">
        <ele>19.35835647583</ele>
        <time>2012-01-14T11:54:39Z</time>
      </trkpt>
      <trkpt lat="43.59406" lon="6.92519">
        <ele>19.535945892334</ele>
        <time>2012-01-14T11:54:45Z</time>
      </trkpt>
      <trkpt lat="43.59422" lon="6.92535">
        <ele>19.679376602173</ele>
        <time>2012-01-14T11:54:51Z</time>
      </trkpt>
      <trkpt lat="43.59435" lon="6.92553">
        <ele>19.655416488648</ele>
        <time>2012-01-14T11:54:56Z</time>
      </trkpt>
      <trkpt lat="43.59444" lon="6.92575">
        <ele>19.465560913086</ele>
        <time>2012-01-14T11:55:01Z</time>
      </trkpt>
      <trkpt lat="43.59453" lon="6.92605">
        <ele>19.322071075439</ele>
        <time>2012-01-14T11:55:08Z</time>
      </trkpt>
      <trkpt lat="43.59449" lon="6.9263">
        <ele>19.172945022583</ele>
        <time>2012-01-14T11:55:13Z</time>
      </trkpt>
      <trkpt lat="43.59437" lon="6.92632">
        <ele>19.100059509277</ele>
        <time>2012-01-14T11:55:17Z</time>
      </trkpt>
      <trkpt lat="43.5941" lon="6.92624">
        <ele>18.875804901123</ele>
        <time>2012-01-14T11:55:25Z</time>
      </trkpt>
      <trkpt lat="43.59389" lon="6.92618">
        <ele>18.526163101196</ele>
        <time>2012-01-14T11:55:31Z</time>
      </trkpt>
      <trkpt lat="43.59364" lon="6.92615">
        <ele>18.1353931427</ele>
        <time>2012-01-14T11:55:38Z</time>
      </trkpt>
      <trkpt lat="43.59344" lon="6.92616">
        <ele>17.791996002197</ele>
        <time>2012-01-14T11:55:44Z</time>
      </trkpt>
      <trkpt lat="43.59309" lon="6.92618">
        <ele>16.819528579712</ele>
        <time>2012-01-14T11:55:53Z</time>
      </trkpt>
      <trkpt lat="43.59272" lon="6.92621">
        <ele>15.673397064209</ele>
        <time>2012-01-14T11:56:02Z</time>
      </trkpt>
      <trkpt lat="43.59242" lon="6.92626">
        <ele>14.804809570312</ele>
        <time>2012-01-14T11:56:09Z</time>
      </trkpt>
      <trkpt lat="43.59238" lon="6.92627">
        <ele>14.7041015625</ele>
        <time>2012-01-14T11:56:10Z</time>
      </trkpt>
      <trkpt lat="43.59222" lon="6.92638">
        <ele>14.328735351562</ele>
        <time>2012-01-14T11:56:14Z</time>
      </trkpt>
      <trkpt lat="43.59208" lon="6.92652">
        <ele>13.980834960938</ele>
        <time>2012-01-14T11:56:18Z</time>
      </trkpt>
      <trkpt lat="43.59192" lon="6.92682">
        <ele>13.60546875</ele>
        <time>2012-01-14T11:56:24Z</time>
      </trkpt>
      <trkpt lat="43.59177" lon="6.92729">
        <ele>13.248413085938</ele>
        <time>2012-01-14T11:56:32Z</time>
      </trkpt>
      <trkpt lat="43.59174" lon="6.92742">
        <ele>13.166015625</ele>
        <time>2012-01-14T11:56:34Z</time>
      </trkpt>
      <trkpt lat="43.59172" lon="6.92748">
        <ele>13.120239257812</ele>
        <time>2012-01-14T11:56:35Z</time>
      </trkpt>
      <trkpt lat="43.59157" lon="6.92796">
        <ele>13</ele>
        <time>2012-01-14T11:56:43Z</time>
      </trkpt>
      <trkpt lat="43.59139" lon="6.92838">
        <ele>13.036567687988</ele>
        <time>2012-01-14T11:56:51Z</time>
      </trkpt>
      <trkpt lat="43.5912" lon="6.92875">
        <ele>13.219051361084</ele>
        <time>2012-01-14T11:56:59Z</time>
      </trkpt>
      <trkpt lat="43.59103" lon="6.92887">
        <ele>13.149582862854</ele>
        <time>2012-01-14T11:57:04Z</time>
      </trkpt>
      <trkpt lat="43.59085" lon="6.92892">
        <ele>13.014739990234</ele>
        <time>2012-01-14T11:57:08Z</time>
      </trkpt>
      <trkpt lat="43.59081" lon="6.92891">
        <ele>13</ele>
        <time>2012-01-14T11:57:09Z</time>
      </trkpt>
      <trkpt lat="43.59048" lon="6.92878">
        <ele>13</ele>
        <time>2012-01-14T11:57:16Z</time>
      </trkpt>
      <trkpt lat="43.59013" lon="6.92864">
        <ele>13</ele>
        <time>2012-01-14T11:57:24Z</time>
      </trkpt>
      <trkpt lat="43.58996" lon="6.92853">
        <ele>13</ele>
        <time>2012-01-14T11:57:28Z</time>
      </trkpt>
      <trkpt lat="43.58985" lon="6.92843">
        <ele>13</ele>
        <time>2012-01-14T11:57:31Z</time>
      </trkpt>
      <trkpt lat="43.58959" lon="6.92813">
        <ele>13.121621131897</ele>
        <time>2012-01-14T11:57:39Z</time>
      </trkpt>
      <trkpt lat="43.58947" lon="6.92798">
        <ele>13.271206855774</ele>
        <time>2012-01-14T11:57:43Z</time>
      </trkpt>
      <trkpt lat="43.58924" lon="6.9277">
        <ele>13.692472457886</ele>
        <time>2012-01-14T11:57:50Z</time>
      </trkpt>
      <trkpt lat="43.58895" lon="6.92736">
        <ele>14</ele>
        <time>2012-01-14T11:57:58Z</time>
      </trkpt>
      <trkpt lat="43.58865" lon="6.92704">
        <ele>14</ele>
        <time>2012-01-14T11:58:04Z</time>
      </trkpt>
      <trkpt lat="43.58825" lon="6.92664">
        <ele>14.140350341797</ele>
        <time>2012-01-14T11:58:11Z</time>
      </trkpt>
      <trkpt lat="43.58786" lon="6.92627">
        <ele>15.050727844238</ele>
        <time>2012-01-14T11:58:18Z</time>
      </trkpt>
      <trkpt lat="43.5877" lon="6.92612">
        <ele>15.422660827637</ele>
        <time>2012-01-14T11:58:21Z</time>
      </trkpt>
      <trkpt lat="43.58759" lon="6.92602">
        <ele>15.662414550781</ele>
        <time>2012-01-14T11:58:23Z</time>
      </trkpt>
      <trkpt lat="43.5873" lon="6.92574">
        <ele>16.145532608032</ele>
        <time>2012-01-14T11:58:29Z</time>
      </trkpt>
      <trkpt lat="43.58689" lon="6.92535">
        <ele>16.993782043457</ele>
        <time>2012-01-14T11:58:37Z</time>
      </trkpt>
      <trkpt lat="43.58644" lon="6.92492">
        <ele>17.929061889648</ele>
        <time>2012-01-14T11:58:47Z</time>
      </trkpt>
      <trkpt lat="43.5863" lon="6.92478">
        <ele>18.073257446289</ele>
        <time>2012-01-14T11:58:50Z</time>
      </trkpt>
      <trkpt lat="43.5862" lon="6.92469">
        <ele>18.196853637695</ele>
        <time>2012-01-14T11:58:52Z</time>
      </trkpt>
      <trkpt lat="43.58615" lon="6.92464">
        <ele>18.2529296875</ele>
        <time>2012-01-14T11:58:53Z</time>
      </trkpt>
      <trkpt lat="43.58578" lon="6.9243">
        <ele>18.56217956543</ele>
        <time>2012-01-14T11:59:00Z</time>
      </trkpt>
      <trkpt lat="43.58537" lon="6.92391">
        <ele>20.300687789917</ele>
        <time>2012-01-14T11:59:08Z</time>
      </trkpt>
      <trkpt lat="43.58496" lon="6.92352">
        <ele>18.520090103149</ele>
        <time>2012-01-14T11:59:16Z</time>
      </trkpt>
      <trkpt lat="43.58467" lon="6.92322">
        <ele>19.292436599731</ele>
        <time>2012-01-14T11:59:22Z</time>
      </trkpt>
      <trkpt lat="43.58462" lon="6.92318">
        <ele>19.448926925659</ele>
        <time>2012-01-14T11:59:23Z</time>
      </trkpt>
      <trkpt lat="43.58434" lon="6.92303">
        <ele>19.08741569519</ele>
        <time>2012-01-14T11:59:28Z</time>
      </trkpt>
      <trkpt lat="43.58412" lon="6.92313">
        <ele>18.293907165527</ele>
        <time>2012-01-14T11:59:32Z</time>
      </trkpt>
      <trkpt lat="43.58405" lon="6.92318">
        <ele>18.324806213379</ele>
        <time>2012-01-14T11:59:34Z</time>
      </trkpt>
      <trkpt lat="43.58389" lon="6.92356">
        <ele>18.060447692871</ele>
        <time>2012-01-14T11:59:39Z</time>
      </trkpt>
      <trkpt lat="43.58384" lon="6.9238">
        <ele>17.832138061523</ele>
        <time>2012-01-14T11:59:42Z</time>
      </trkpt>
      <trkpt lat="43.58384" lon="6.92427">
        <ele>17.268516540527</ele>
        <time>2012-01-14T11:59:48Z</time>
      </trkpt>
      <trkpt lat="43.5839" lon="6.92456">
        <ele>16.842796325684</ele>
        <time>2012-01-14T11:59:53Z</time>
      </trkpt>
      <trkpt lat="43.58392" lon="6.92477">
        <ele>16.572715759277</ele>
        <time>2012-01-14T11:59:57Z</time>
      </trkpt>
      <trkpt lat="43.58384" lon="6.92504">
        <ele>16.355421066284</ele>
        <time>2012-01-14T12:00:03Z</time>
      </trkpt>
      <trkpt lat="43.58382" lon="6.92508">
        <ele>16.355941772461</ele>
        <time>2012-01-14T12:00:04Z</time>
      </trkpt>
      <trkpt lat="43.5837" lon="6.92521">
        <ele>16.451965332031</ele>
        <time>2012-01-14T12:00:11Z</time>
      </trkpt>
      <trkpt lat="43.58355" lon="6.92528">
        <ele>16.65281867981</ele>
        <time>2012-01-14T12:00:18Z</time>
      </trkpt>
      <trkpt lat="43.58351" lon="6.92526">
        <ele>16.718486785889</ele>
        <time>2012-01-14T12:00:20Z</time>
      </trkpt>
      <trkpt lat="43.58344" lon="6.9251">
        <ele>16.852600097656</ele>
        <time>2012-01-14T12:00:28Z</time>
      </trkpt>
      <trkpt lat="43.58343" lon="6.92508">
        <ele>16.870849609375</ele>
        <time>2012-01-14T12:00:29Z</time>
      </trkpt>
      <trkpt lat="43.58343" lon="6.92505">
        <ele>16.880727767944</ele>
        <time>2012-01-14T12:00:31Z</time>
      </trkpt>
      <trkpt lat="43.58337" lon="6.92491">
        <ele>17.057373046875</ele>
        <time>2012-01-14T12:00:38Z</time>
      </trkpt>
      <trkpt lat="43.58332" lon="6.92475">
        <ele>17.32039642334</ele>
        <time>2012-01-14T12:00:45Z</time>
      </trkpt>
      <trkpt lat="43.58327" lon="6.92462">
        <ele>17.593910217285</ele>
        <time>2012-01-14T12:00:51Z</time>
      </trkpt>
      <trkpt lat="43.5832" lon="6.92451">
        <ele>17.898895263672</ele>
        <time>2012-01-14T12:00:57Z</time>
      </trkpt>
      <trkpt lat="43.58317" lon="6.92445">
        <ele>18.043663024902</ele>
        <time>2012-01-14T12:01:01Z</time>
      </trkpt>
      <trkpt lat="43.58313" lon="6.92436">
        <ele>18.268539428711</ele>
        <time>2012-01-14T12:01:05Z</time>
      </trkpt>
      <trkpt lat="43.58302" lon="6.92416">
        <ele>18.751083374023</ele>
        <time>2012-01-14T12:01:13Z</time>
      </trkpt>
      <trkpt lat="43.58295" lon="6.924">
        <ele>19.034177780151</ele>
        <time>2012-01-14T12:01:19Z</time>
      </trkpt>
      <trkpt lat="43.58287" lon="6.92385">
        <ele>19.277713775635</ele>
        <time>2012-01-14T12:01:24Z</time>
      </trkpt>
      <trkpt lat="43.58274" lon="6.92366">
        <ele>19.602607727051</ele>
        <time>2012-01-14T12:01:31Z</time>
      </trkpt>
      <trkpt lat="43.58258" lon="6.92337">
        <ele>19.904226303101</ele>
        <time>2012-01-14T12:01:41Z</time>
      </trkpt>
      <trkpt lat="43.58247" lon="6.92316">
        <ele>20.236959457398</ele>
        <time>2012-01-14T12:01:48Z</time>
      </trkpt>
      <trkpt lat="43.58242" lon="6.92304">
        <ele>20.581729888916</ele>
        <time>2012-01-14T12:01:54Z</time>
      </trkpt>
      <trkpt lat="43.58239" lon="6.92291">
        <ele>20.963573455811</ele>
        <time>2012-01-14T12:01:59Z</time>
      </trkpt>
      <trkpt lat="43.5823" lon="6.92268">
        <ele>21.974546432495</ele>
        <time>2012-01-14T12:02:05Z</time>
      </trkpt>
      <trkpt lat="43.58225" lon="6.92248">
        <ele>22.732664108276</ele>
        <time>2012-01-14T12:02:10Z</time>
      </trkpt>
      <trkpt lat="43.58217" lon="6.92221">
        <ele>23.947589874268</ele>
        <time>2012-01-14T12:02:17Z</time>
      </trkpt>
      <trkpt lat="43.5821" lon="6.92203">
        <ele>25.084360122681</ele>
        <time>2012-01-14T12:02:22Z</time>
      </trkpt>
      <trkpt lat="43.58202" lon="6.9218">
        <ele>26.644844055176</ele>
        <time>2012-01-14T12:02:29Z</time>
      </trkpt>
      <trkpt lat="43.58196" lon="6.92169">
        <ele>27.683521270752</ele>
        <time>2012-01-14T12:02:32Z</time>
      </trkpt>
      <trkpt lat="43.5819" lon="6.92161">
        <ele>28.866645812988</ele>
        <time>2012-01-14T12:02:36Z</time>
      </trkpt>
      <trkpt lat="43.58184" lon="6.92155">
        <ele>29.902574539185</ele>
        <time>2012-01-14T12:02:39Z</time>
      </trkpt>
      <trkpt lat="43.58177" lon="6.92153">
        <ele>31.084213256836</ele>
        <time>2012-01-14T12:02:44Z</time>
      </trkpt>
      <trkpt lat="43.58175" lon="6.92152">
        <ele>31.389616012573</ele>
        <time>2012-01-14T12:02:45Z</time>
      </trkpt>
      <trkpt lat="43.58157" lon="6.92144">
        <ele>34.064834594727</ele>
        <time>2012-01-14T12:02:53Z</time>
      </trkpt>
      <trkpt lat="43.58138" lon="6.92142">
        <ele>36.639965057373</ele>
        <time>2012-01-14T12:03:00Z</time>
      </trkpt>
      <trkpt lat="43.58121" lon="6.92148">
        <ele>38.445861816406</ele>
        <time>2012-01-14T12:03:05Z</time>
      </trkpt>
      <trkpt lat="43.58118" lon="6.9215">
        <ele>38.736133575439</ele>
        <time>2012-01-14T12:03:08Z</time>
      </trkpt>
      <trkpt lat="43.58117" lon="6.92149">
        <ele>39.012489318848</ele>
        <time>2012-01-14T12:03:17Z</time>
      </trkpt>
      <trkpt lat="43.58112" lon="6.92155">
        <ele>39.293109893799</ele>
        <time>2012-01-14T12:03:23Z</time>
      </trkpt>
      <trkpt lat="43.58105" lon="6.92166">
        <ele>39.419654846191</ele>
        <time>2012-01-14T12:03:26Z</time>
      </trkpt>
      <trkpt lat="43.58112" lon="6.92178">
        <ele>37.828620910645</ele>
        <time>2012-01-14T12:03:29Z</time>
      </trkpt>
      <trkpt lat="43.5813" lon="6.92178">
        <ele>35.80859375</ele>
        <time>2012-01-14T12:03:32Z</time>
      </trkpt>
      <trkpt lat="43.58136" lon="6.92183">
        <ele>34.833381652832</ele>
        <time>2012-01-14T12:03:33Z</time>
      </trkpt>
      <trkpt lat="43.58147" lon="6.922">
        <ele>32.838901519775</ele>
        <time>2012-01-14T12:03:35Z</time>
      </trkpt>
      <trkpt lat="43.5815" lon="6.92198">
        <ele>32.574398040771</ele>
        <time>2012-01-14T12:03:37Z</time>
      </trkpt>
    </trkseg>
  </trk>
</gpx>